<?xml version="1.0" encoding="UTF-8" standalone="no" ?>
<gpx xmlns="http://www.topografix.com/GPX/1/1" xmlns:xsi="http://www.w3.org/2001/XMLSchema-instance" xsi:schemaLocation="http://www.topografix.com/GPX/1/1 http://www.topografix.com/GPX/1/1/gpx.xsd" version="1.1" creator="VisuGPX - https://www.visugpx.com">
  <metadata>
    <name>la viree des grands ducs 2015</name>
    <desc><![CDATA[rando au depart de st genis l\'argentiere , ]]></desc>
  </metadata>
  <trk>
    <name><![CDATA[la viree des grands ducs 2015_1]]></name>
    <trkseg>
      <trkpt lat="45.71002" lon="4.49067">
        <ele>267.5</ele>
        <time>2015-05-10T05:06:18Z</time>
      </trkpt>
      <trkpt lat="45.70998" lon="4.49065">
        <ele>267.3</ele>
        <time>2015-05-10T05:06:23Z</time>
      </trkpt>
      <trkpt lat="45.71" lon="4.49073">
        <ele>267.1</ele>
        <time>2015-05-10T05:06:28Z</time>
      </trkpt>
      <trkpt lat="45.70995" lon="4.49078">
        <ele>267.2</ele>
        <time>2015-05-10T05:06:33Z</time>
      </trkpt>
      <trkpt lat="45.70995" lon="4.4909">
        <ele>267.1</ele>
        <time>2015-05-10T05:06:38Z</time>
      </trkpt>
      <trkpt lat="45.71" lon="4.49097">
        <ele>267</ele>
        <time>2015-05-10T05:06:43Z</time>
      </trkpt>
      <trkpt lat="45.71007" lon="4.49097">
        <ele>267.2</ele>
        <time>2015-05-10T05:06:48Z</time>
      </trkpt>
      <trkpt lat="45.71012" lon="4.49083">
        <ele>267.8</ele>
        <time>2015-05-10T05:06:53Z</time>
      </trkpt>
      <trkpt lat="45.71018" lon="4.4907">
        <ele>268</ele>
        <time>2015-05-10T05:06:58Z</time>
      </trkpt>
      <trkpt lat="45.71028" lon="4.4906">
        <ele>268.5</ele>
        <time>2015-05-10T05:07:03Z</time>
      </trkpt>
      <trkpt lat="45.71037" lon="4.49058">
        <ele>270.5</ele>
        <time>2015-05-10T05:07:08Z</time>
      </trkpt>
      <trkpt lat="45.71047" lon="4.4906">
        <ele>271.5</ele>
        <time>2015-05-10T05:07:13Z</time>
      </trkpt>
      <trkpt lat="45.71057" lon="4.49063">
        <ele>273.2</ele>
        <time>2015-05-10T05:07:18Z</time>
      </trkpt>
      <trkpt lat="45.71065" lon="4.49072">
        <ele>275.1</ele>
        <time>2015-05-10T05:07:23Z</time>
      </trkpt>
      <trkpt lat="45.71063" lon="4.49083">
        <ele>275.6</ele>
        <time>2015-05-10T05:07:28Z</time>
      </trkpt>
      <trkpt lat="45.71057" lon="4.49098">
        <ele>275.5</ele>
        <time>2015-05-10T05:07:33Z</time>
      </trkpt>
      <trkpt lat="45.71052" lon="4.49115">
        <ele>275.8</ele>
        <time>2015-05-10T05:07:38Z</time>
      </trkpt>
      <trkpt lat="45.71043" lon="4.4913">
        <ele>276.4</ele>
        <time>2015-05-10T05:07:43Z</time>
      </trkpt>
      <trkpt lat="45.71035" lon="4.49147">
        <ele>276.5</ele>
        <time>2015-05-10T05:07:48Z</time>
      </trkpt>
      <trkpt lat="45.71025" lon="4.49162">
        <ele>276.2</ele>
        <time>2015-05-10T05:07:53Z</time>
      </trkpt>
      <trkpt lat="45.7101" lon="4.49173">
        <ele>276</ele>
        <time>2015-05-10T05:07:58Z</time>
      </trkpt>
      <trkpt lat="45.70997" lon="4.49185">
        <ele>275.8</ele>
        <time>2015-05-10T05:08:03Z</time>
      </trkpt>
      <trkpt lat="45.70982" lon="4.49193">
        <ele>276.3</ele>
        <time>2015-05-10T05:08:08Z</time>
      </trkpt>
      <trkpt lat="45.7097" lon="4.49203">
        <ele>276.9</ele>
        <time>2015-05-10T05:08:13Z</time>
      </trkpt>
      <trkpt lat="45.70958" lon="4.49213">
        <ele>277</ele>
        <time>2015-05-10T05:08:18Z</time>
      </trkpt>
      <trkpt lat="45.70948" lon="4.49225">
        <ele>277</ele>
        <time>2015-05-10T05:08:23Z</time>
      </trkpt>
      <trkpt lat="45.70943" lon="4.49238">
        <ele>277.6</ele>
        <time>2015-05-10T05:08:28Z</time>
      </trkpt>
      <trkpt lat="45.7095" lon="4.49253">
        <ele>278.6</ele>
        <time>2015-05-10T05:08:33Z</time>
      </trkpt>
      <trkpt lat="45.7096" lon="4.4927">
        <ele>279.2</ele>
        <time>2015-05-10T05:08:38Z</time>
      </trkpt>
      <trkpt lat="45.70972" lon="4.4928">
        <ele>279.9</ele>
        <time>2015-05-10T05:08:43Z</time>
      </trkpt>
      <trkpt lat="45.70982" lon="4.4929">
        <ele>281</ele>
        <time>2015-05-10T05:08:48Z</time>
      </trkpt>
      <trkpt lat="45.70992" lon="4.493">
        <ele>282.3</ele>
        <time>2015-05-10T05:08:53Z</time>
      </trkpt>
      <trkpt lat="45.71002" lon="4.49312">
        <ele>283</ele>
        <time>2015-05-10T05:08:58Z</time>
      </trkpt>
      <trkpt lat="45.71012" lon="4.49322">
        <ele>284.8</ele>
        <time>2015-05-10T05:09:03Z</time>
      </trkpt>
      <trkpt lat="45.71022" lon="4.49332">
        <ele>285.5</ele>
        <time>2015-05-10T05:09:08Z</time>
      </trkpt>
      <trkpt lat="45.71033" lon="4.49343">
        <ele>286.9</ele>
        <time>2015-05-10T05:09:13Z</time>
      </trkpt>
      <trkpt lat="45.7104" lon="4.49355">
        <ele>288.2</ele>
        <time>2015-05-10T05:09:18Z</time>
      </trkpt>
      <trkpt lat="45.71048" lon="4.49368">
        <ele>289.7</ele>
        <time>2015-05-10T05:09:23Z</time>
      </trkpt>
      <trkpt lat="45.71055" lon="4.49382">
        <ele>290.6</ele>
        <time>2015-05-10T05:09:28Z</time>
      </trkpt>
      <trkpt lat="45.71062" lon="4.49395">
        <ele>292.1</ele>
        <time>2015-05-10T05:09:33Z</time>
      </trkpt>
      <trkpt lat="45.71067" lon="4.4941">
        <ele>293.7</ele>
        <time>2015-05-10T05:09:38Z</time>
      </trkpt>
      <trkpt lat="45.71073" lon="4.49423">
        <ele>295.3</ele>
        <time>2015-05-10T05:09:43Z</time>
      </trkpt>
      <trkpt lat="45.71078" lon="4.49438">
        <ele>296</ele>
        <time>2015-05-10T05:09:48Z</time>
      </trkpt>
      <trkpt lat="45.71087" lon="4.49448">
        <ele>296.7</ele>
        <time>2015-05-10T05:09:53Z</time>
      </trkpt>
      <trkpt lat="45.71098" lon="4.49458">
        <ele>296.9</ele>
        <time>2015-05-10T05:09:58Z</time>
      </trkpt>
      <trkpt lat="45.7111" lon="4.49468">
        <ele>296.8</ele>
        <time>2015-05-10T05:10:03Z</time>
      </trkpt>
      <trkpt lat="45.71125" lon="4.49483">
        <ele>295.5</ele>
        <time>2015-05-10T05:10:08Z</time>
      </trkpt>
      <trkpt lat="45.71145" lon="4.49502">
        <ele>293.4</ele>
        <time>2015-05-10T05:10:13Z</time>
      </trkpt>
      <trkpt lat="45.71165" lon="4.49525">
        <ele>291.6</ele>
        <time>2015-05-10T05:10:18Z</time>
      </trkpt>
      <trkpt lat="45.71182" lon="4.49552">
        <ele>289.4</ele>
        <time>2015-05-10T05:10:23Z</time>
      </trkpt>
      <trkpt lat="45.71193" lon="4.49567">
        <ele>287.4</ele>
        <time>2015-05-10T05:10:28Z</time>
      </trkpt>
      <trkpt lat="45.71198" lon="4.49578">
        <ele>285.8</ele>
        <time>2015-05-10T05:10:33Z</time>
      </trkpt>
      <trkpt lat="45.71203" lon="4.49597">
        <ele>285.2</ele>
        <time>2015-05-10T05:10:38Z</time>
      </trkpt>
      <trkpt lat="45.71207" lon="4.49615">
        <ele>284.9</ele>
        <time>2015-05-10T05:10:43Z</time>
      </trkpt>
      <trkpt lat="45.71202" lon="4.49642">
        <ele>282.7</ele>
        <time>2015-05-10T05:10:48Z</time>
      </trkpt>
      <trkpt lat="45.71197" lon="4.4968">
        <ele>280.2</ele>
        <time>2015-05-10T05:10:53Z</time>
      </trkpt>
      <trkpt lat="45.712" lon="4.49723">
        <ele>279.3</ele>
        <time>2015-05-10T05:10:58Z</time>
      </trkpt>
      <trkpt lat="45.71228" lon="4.4975">
        <ele>274.6</ele>
        <time>2015-05-10T05:11:03Z</time>
      </trkpt>
      <trkpt lat="45.71262" lon="4.4974">
        <ele>274.6</ele>
        <time>2015-05-10T05:11:08Z</time>
      </trkpt>
      <trkpt lat="45.71288" lon="4.49735">
        <ele>274.1</ele>
        <time>2015-05-10T05:11:13Z</time>
      </trkpt>
      <trkpt lat="45.7131" lon="4.49738">
        <ele>274.9</ele>
        <time>2015-05-10T05:11:18Z</time>
      </trkpt>
      <trkpt lat="45.7133" lon="4.49755">
        <ele>274.7</ele>
        <time>2015-05-10T05:11:23Z</time>
      </trkpt>
      <trkpt lat="45.71343" lon="4.4978">
        <ele>274.8</ele>
        <time>2015-05-10T05:11:28Z</time>
      </trkpt>
      <trkpt lat="45.71355" lon="4.49805">
        <ele>275.1</ele>
        <time>2015-05-10T05:11:33Z</time>
      </trkpt>
      <trkpt lat="45.7137" lon="4.49817">
        <ele>276.4</ele>
        <time>2015-05-10T05:11:38Z</time>
      </trkpt>
      <trkpt lat="45.71385" lon="4.49817">
        <ele>274.5</ele>
        <time>2015-05-10T05:11:43Z</time>
      </trkpt>
      <trkpt lat="45.71397" lon="4.49813">
        <ele>276.4</ele>
        <time>2015-05-10T05:11:48Z</time>
      </trkpt>
      <trkpt lat="45.71407" lon="4.49812">
        <ele>278</ele>
        <time>2015-05-10T05:11:53Z</time>
      </trkpt>
      <trkpt lat="45.71417" lon="4.4981">
        <ele>279.8</ele>
        <time>2015-05-10T05:11:58Z</time>
      </trkpt>
      <trkpt lat="45.71425" lon="4.49817">
        <ele>281.1</ele>
        <time>2015-05-10T05:12:03Z</time>
      </trkpt>
      <trkpt lat="45.71433" lon="4.49822">
        <ele>283.7</ele>
        <time>2015-05-10T05:12:08Z</time>
      </trkpt>
      <trkpt lat="45.71443" lon="4.49832">
        <ele>285.3</ele>
        <time>2015-05-10T05:12:13Z</time>
      </trkpt>
      <trkpt lat="45.7145" lon="4.49838">
        <ele>287</ele>
        <time>2015-05-10T05:12:18Z</time>
      </trkpt>
      <trkpt lat="45.7146" lon="4.49847">
        <ele>287.5</ele>
        <time>2015-05-10T05:12:23Z</time>
      </trkpt>
      <trkpt lat="45.71467" lon="4.49857">
        <ele>288.3</ele>
        <time>2015-05-10T05:12:28Z</time>
      </trkpt>
      <trkpt lat="45.71473" lon="4.4987">
        <ele>289.7</ele>
        <time>2015-05-10T05:12:33Z</time>
      </trkpt>
      <trkpt lat="45.71478" lon="4.49883">
        <ele>290.7</ele>
        <time>2015-05-10T05:12:38Z</time>
      </trkpt>
      <trkpt lat="45.71485" lon="4.49895">
        <ele>292.1</ele>
        <time>2015-05-10T05:12:43Z</time>
      </trkpt>
      <trkpt lat="45.71493" lon="4.49902">
        <ele>293.1</ele>
        <time>2015-05-10T05:12:48Z</time>
      </trkpt>
      <trkpt lat="45.715" lon="4.49908">
        <ele>295</ele>
        <time>2015-05-10T05:12:53Z</time>
      </trkpt>
      <trkpt lat="45.71508" lon="4.49917">
        <ele>296.2</ele>
        <time>2015-05-10T05:12:58Z</time>
      </trkpt>
      <trkpt lat="45.71515" lon="4.49927">
        <ele>297.4</ele>
        <time>2015-05-10T05:13:03Z</time>
      </trkpt>
      <trkpt lat="45.71523" lon="4.49938">
        <ele>299</ele>
        <time>2015-05-10T05:13:08Z</time>
      </trkpt>
      <trkpt lat="45.71528" lon="4.4995">
        <ele>299.8</ele>
        <time>2015-05-10T05:13:13Z</time>
      </trkpt>
      <trkpt lat="45.71535" lon="4.4996">
        <ele>300.2</ele>
        <time>2015-05-10T05:13:18Z</time>
      </trkpt>
      <trkpt lat="45.71542" lon="4.49968">
        <ele>302.5</ele>
        <time>2015-05-10T05:13:23Z</time>
      </trkpt>
      <trkpt lat="45.7155" lon="4.49978">
        <ele>304</ele>
        <time>2015-05-10T05:13:28Z</time>
      </trkpt>
      <trkpt lat="45.71558" lon="4.49985">
        <ele>305.9</ele>
        <time>2015-05-10T05:13:33Z</time>
      </trkpt>
      <trkpt lat="45.71563" lon="4.49997">
        <ele>307.4</ele>
        <time>2015-05-10T05:13:38Z</time>
      </trkpt>
      <trkpt lat="45.71567" lon="4.5001">
        <ele>308</ele>
        <time>2015-05-10T05:13:43Z</time>
      </trkpt>
      <trkpt lat="45.71573" lon="4.50023">
        <ele>308.7</ele>
        <time>2015-05-10T05:13:48Z</time>
      </trkpt>
      <trkpt lat="45.7158" lon="4.50035">
        <ele>309.9</ele>
        <time>2015-05-10T05:13:53Z</time>
      </trkpt>
      <trkpt lat="45.71588" lon="4.50047">
        <ele>311.1</ele>
        <time>2015-05-10T05:13:58Z</time>
      </trkpt>
      <trkpt lat="45.71597" lon="4.50058">
        <ele>312.3</ele>
        <time>2015-05-10T05:14:03Z</time>
      </trkpt>
      <trkpt lat="45.71608" lon="4.50068">
        <ele>312.5</ele>
        <time>2015-05-10T05:14:08Z</time>
      </trkpt>
      <trkpt lat="45.71617" lon="4.50075">
        <ele>312.7</ele>
        <time>2015-05-10T05:14:13Z</time>
      </trkpt>
      <trkpt lat="45.7162" lon="4.50077">
        <ele>313</ele>
        <time>2015-05-10T05:14:18Z</time>
      </trkpt>
      <trkpt lat="45.7163" lon="4.50088">
        <ele>312.2</ele>
        <time>2015-05-10T05:14:23Z</time>
      </trkpt>
      <trkpt lat="45.7165" lon="4.50098">
        <ele>310.7</ele>
        <time>2015-05-10T05:14:28Z</time>
      </trkpt>
      <trkpt lat="45.71673" lon="4.50107">
        <ele>309.4</ele>
        <time>2015-05-10T05:14:33Z</time>
      </trkpt>
      <trkpt lat="45.71702" lon="4.50113">
        <ele>307.8</ele>
        <time>2015-05-10T05:14:38Z</time>
      </trkpt>
      <trkpt lat="45.7173" lon="4.5012">
        <ele>305.8</ele>
        <time>2015-05-10T05:14:43Z</time>
      </trkpt>
      <trkpt lat="45.71755" lon="4.50125">
        <ele>305</ele>
        <time>2015-05-10T05:14:48Z</time>
      </trkpt>
      <trkpt lat="45.71778" lon="4.50147">
        <ele>304.5</ele>
        <time>2015-05-10T05:14:53Z</time>
      </trkpt>
      <trkpt lat="45.71802" lon="4.50173">
        <ele>302.3</ele>
        <time>2015-05-10T05:14:58Z</time>
      </trkpt>
      <trkpt lat="45.71823" lon="4.50193">
        <ele>301.6</ele>
        <time>2015-05-10T05:15:03Z</time>
      </trkpt>
      <trkpt lat="45.71845" lon="4.50205">
        <ele>300.7</ele>
        <time>2015-05-10T05:15:08Z</time>
      </trkpt>
      <trkpt lat="45.71872" lon="4.5021">
        <ele>299.5</ele>
        <time>2015-05-10T05:15:13Z</time>
      </trkpt>
      <trkpt lat="45.719" lon="4.50207">
        <ele>298.1</ele>
        <time>2015-05-10T05:15:18Z</time>
      </trkpt>
      <trkpt lat="45.7193" lon="4.50212">
        <ele>295.2</ele>
        <time>2015-05-10T05:15:23Z</time>
      </trkpt>
      <trkpt lat="45.71942" lon="4.50247">
        <ele>294.2</ele>
        <time>2015-05-10T05:15:28Z</time>
      </trkpt>
      <trkpt lat="45.71945" lon="4.50288">
        <ele>293.7</ele>
        <time>2015-05-10T05:15:33Z</time>
      </trkpt>
      <trkpt lat="45.71952" lon="4.50327">
        <ele>292.4</ele>
        <time>2015-05-10T05:15:38Z</time>
      </trkpt>
      <trkpt lat="45.71957" lon="4.50355">
        <ele>292.5</ele>
        <time>2015-05-10T05:15:43Z</time>
      </trkpt>
      <trkpt lat="45.7196" lon="4.50388">
        <ele>292.5</ele>
        <time>2015-05-10T05:15:48Z</time>
      </trkpt>
      <trkpt lat="45.71965" lon="4.50417">
        <ele>293.6</ele>
        <time>2015-05-10T05:15:53Z</time>
      </trkpt>
      <trkpt lat="45.71973" lon="4.50447">
        <ele>293.6</ele>
        <time>2015-05-10T05:15:58Z</time>
      </trkpt>
      <trkpt lat="45.71987" lon="4.50477">
        <ele>292.6</ele>
        <time>2015-05-10T05:16:03Z</time>
      </trkpt>
      <trkpt lat="45.72005" lon="4.50507">
        <ele>291.5</ele>
        <time>2015-05-10T05:16:08Z</time>
      </trkpt>
      <trkpt lat="45.72027" lon="4.50532">
        <ele>290.8</ele>
        <time>2015-05-10T05:16:13Z</time>
      </trkpt>
      <trkpt lat="45.72053" lon="4.50558">
        <ele>289.6</ele>
        <time>2015-05-10T05:16:18Z</time>
      </trkpt>
      <trkpt lat="45.7208" lon="4.50578">
        <ele>287.1</ele>
        <time>2015-05-10T05:16:23Z</time>
      </trkpt>
      <trkpt lat="45.72108" lon="4.5059">
        <ele>284.5</ele>
        <time>2015-05-10T05:16:28Z</time>
      </trkpt>
      <trkpt lat="45.72137" lon="4.50603">
        <ele>281.2</ele>
        <time>2015-05-10T05:16:33Z</time>
      </trkpt>
      <trkpt lat="45.72162" lon="4.50603">
        <ele>276.9</ele>
        <time>2015-05-10T05:16:38Z</time>
      </trkpt>
      <trkpt lat="45.7218" lon="4.50598">
        <ele>271.6</ele>
        <time>2015-05-10T05:16:43Z</time>
      </trkpt>
      <trkpt lat="45.72182" lon="4.5063">
        <ele>269.7</ele>
        <time>2015-05-10T05:16:48Z</time>
      </trkpt>
      <trkpt lat="45.72163" lon="4.50672">
        <ele>265.1</ele>
        <time>2015-05-10T05:16:53Z</time>
      </trkpt>
      <trkpt lat="45.72133" lon="4.5071">
        <ele>256.2</ele>
        <time>2015-05-10T05:16:58Z</time>
      </trkpt>
      <trkpt lat="45.72105" lon="4.50733">
        <ele>250.9</ele>
        <time>2015-05-10T05:17:03Z</time>
      </trkpt>
      <trkpt lat="45.72075" lon="4.50757">
        <ele>247.3</ele>
        <time>2015-05-10T05:17:08Z</time>
      </trkpt>
      <trkpt lat="45.72043" lon="4.50777">
        <ele>243.3</ele>
        <time>2015-05-10T05:17:13Z</time>
      </trkpt>
      <trkpt lat="45.72012" lon="4.50792">
        <ele>234.2</ele>
        <time>2015-05-10T05:17:18Z</time>
      </trkpt>
      <trkpt lat="45.71987" lon="4.50797">
        <ele>226.3</ele>
        <time>2015-05-10T05:17:23Z</time>
      </trkpt>
      <trkpt lat="45.71987" lon="4.50827">
        <ele>222.7</ele>
        <time>2015-05-10T05:17:28Z</time>
      </trkpt>
      <trkpt lat="45.71987" lon="4.50862">
        <ele>216.9</ele>
        <time>2015-05-10T05:17:33Z</time>
      </trkpt>
      <trkpt lat="45.71992" lon="4.50893">
        <ele>213.1</ele>
        <time>2015-05-10T05:17:38Z</time>
      </trkpt>
      <trkpt lat="45.71992" lon="4.50902">
        <ele>210.7</ele>
        <time>2015-05-10T05:17:43Z</time>
      </trkpt>
      <trkpt lat="45.71988" lon="4.50912">
        <ele>210.2</ele>
        <time>2015-05-10T05:17:48Z</time>
      </trkpt>
      <trkpt lat="45.71983" lon="4.50918">
        <ele>210.1</ele>
        <time>2015-05-10T05:17:53Z</time>
      </trkpt>
      <trkpt lat="45.71978" lon="4.50923">
        <ele>210</ele>
        <time>2015-05-10T05:17:58Z</time>
      </trkpt>
      <trkpt lat="45.71972" lon="4.50932">
        <ele>210.1</ele>
        <time>2015-05-10T05:18:03Z</time>
      </trkpt>
      <trkpt lat="45.71962" lon="4.50938">
        <ele>210.4</ele>
        <time>2015-05-10T05:18:08Z</time>
      </trkpt>
      <trkpt lat="45.71948" lon="4.50942">
        <ele>210.6</ele>
        <time>2015-05-10T05:18:13Z</time>
      </trkpt>
      <trkpt lat="45.71937" lon="4.5095">
        <ele>209.8</ele>
        <time>2015-05-10T05:18:18Z</time>
      </trkpt>
      <trkpt lat="45.71932" lon="4.50955">
        <ele>209.3</ele>
        <time>2015-05-10T05:18:23Z</time>
      </trkpt>
      <trkpt lat="45.71925" lon="4.50962">
        <ele>208.9</ele>
        <time>2015-05-10T05:18:28Z</time>
      </trkpt>
      <trkpt lat="45.71923" lon="4.50972">
        <ele>210.7</ele>
        <time>2015-05-10T05:18:33Z</time>
      </trkpt>
      <trkpt lat="45.71922" lon="4.50983">
        <ele>211.3</ele>
        <time>2015-05-10T05:18:38Z</time>
      </trkpt>
      <trkpt lat="45.71917" lon="4.50995">
        <ele>213.2</ele>
        <time>2015-05-10T05:18:43Z</time>
      </trkpt>
      <trkpt lat="45.71908" lon="4.51003">
        <ele>214.4</ele>
        <time>2015-05-10T05:18:48Z</time>
      </trkpt>
      <trkpt lat="45.719" lon="4.5101">
        <ele>214.7</ele>
        <time>2015-05-10T05:18:53Z</time>
      </trkpt>
      <trkpt lat="45.71893" lon="4.51022">
        <ele>216</ele>
        <time>2015-05-10T05:18:58Z</time>
      </trkpt>
      <trkpt lat="45.71887" lon="4.51032">
        <ele>217</ele>
        <time>2015-05-10T05:19:03Z</time>
      </trkpt>
      <trkpt lat="45.71882" lon="4.5104">
        <ele>218.9</ele>
        <time>2015-05-10T05:19:08Z</time>
      </trkpt>
      <trkpt lat="45.71878" lon="4.5105">
        <ele>220.4</ele>
        <time>2015-05-10T05:19:13Z</time>
      </trkpt>
      <trkpt lat="45.71883" lon="4.5105">
        <ele>221.7</ele>
        <time>2015-05-10T05:19:18Z</time>
      </trkpt>
      <trkpt lat="45.7189" lon="4.51047">
        <ele>222.7</ele>
        <time>2015-05-10T05:19:23Z</time>
      </trkpt>
      <trkpt lat="45.71895" lon="4.51043">
        <ele>223.4</ele>
        <time>2015-05-10T05:19:28Z</time>
      </trkpt>
      <trkpt lat="45.71902" lon="4.51042">
        <ele>225.8</ele>
        <time>2015-05-10T05:19:33Z</time>
      </trkpt>
      <trkpt lat="45.71908" lon="4.51037">
        <ele>227</ele>
        <time>2015-05-10T05:19:38Z</time>
      </trkpt>
      <trkpt lat="45.71915" lon="4.51037">
        <ele>228.3</ele>
        <time>2015-05-10T05:19:43Z</time>
      </trkpt>
      <trkpt lat="45.71922" lon="4.51038">
        <ele>229.8</ele>
        <time>2015-05-10T05:19:48Z</time>
      </trkpt>
      <trkpt lat="45.7193" lon="4.51043">
        <ele>231.8</ele>
        <time>2015-05-10T05:19:53Z</time>
      </trkpt>
      <trkpt lat="45.71935" lon="4.5105">
        <ele>232.6</ele>
        <time>2015-05-10T05:19:58Z</time>
      </trkpt>
      <trkpt lat="45.71942" lon="4.51055">
        <ele>234.1</ele>
        <time>2015-05-10T05:20:03Z</time>
      </trkpt>
      <trkpt lat="45.71947" lon="4.51062">
        <ele>235.5</ele>
        <time>2015-05-10T05:20:08Z</time>
      </trkpt>
      <trkpt lat="45.7195" lon="4.51067">
        <ele>237.5</ele>
        <time>2015-05-10T05:20:13Z</time>
      </trkpt>
      <trkpt lat="45.71952" lon="4.51067">
        <ele>238.1</ele>
        <time>2015-05-10T05:20:18Z</time>
      </trkpt>
      <trkpt lat="45.71953" lon="4.51068">
        <ele>237.9</ele>
        <time>2015-05-10T05:20:23Z</time>
      </trkpt>
      <trkpt lat="45.71958" lon="4.51072">
        <ele>239.2</ele>
        <time>2015-05-10T05:20:28Z</time>
      </trkpt>
      <trkpt lat="45.71963" lon="4.51077">
        <ele>240.3</ele>
        <time>2015-05-10T05:20:33Z</time>
      </trkpt>
      <trkpt lat="45.71967" lon="4.51083">
        <ele>242.7</ele>
        <time>2015-05-10T05:20:38Z</time>
      </trkpt>
      <trkpt lat="45.71972" lon="4.5109">
        <ele>243.8</ele>
        <time>2015-05-10T05:20:43Z</time>
      </trkpt>
      <trkpt lat="45.71977" lon="4.51095">
        <ele>245.6</ele>
        <time>2015-05-10T05:20:48Z</time>
      </trkpt>
      <trkpt lat="45.71983" lon="4.51098">
        <ele>247.7</ele>
        <time>2015-05-10T05:20:53Z</time>
      </trkpt>
      <trkpt lat="45.71987" lon="4.51103">
        <ele>248.5</ele>
        <time>2015-05-10T05:20:58Z</time>
      </trkpt>
      <trkpt lat="45.71993" lon="4.51108">
        <ele>250.4</ele>
        <time>2015-05-10T05:21:03Z</time>
      </trkpt>
      <trkpt lat="45.71997" lon="4.51112">
        <ele>251.7</ele>
        <time>2015-05-10T05:21:08Z</time>
      </trkpt>
      <trkpt lat="45.72" lon="4.51118">
        <ele>253</ele>
        <time>2015-05-10T05:21:13Z</time>
      </trkpt>
      <trkpt lat="45.72003" lon="4.51125">
        <ele>254.2</ele>
        <time>2015-05-10T05:21:18Z</time>
      </trkpt>
      <trkpt lat="45.72" lon="4.5113">
        <ele>255.4</ele>
        <time>2015-05-10T05:21:23Z</time>
      </trkpt>
      <trkpt lat="45.71993" lon="4.51132">
        <ele>257</ele>
        <time>2015-05-10T05:21:28Z</time>
      </trkpt>
      <trkpt lat="45.7199" lon="4.51137">
        <ele>258.5</ele>
        <time>2015-05-10T05:21:33Z</time>
      </trkpt>
      <trkpt lat="45.71983" lon="4.51145">
        <ele>259.2</ele>
        <time>2015-05-10T05:21:38Z</time>
      </trkpt>
      <trkpt lat="45.71977" lon="4.51152">
        <ele>259.7</ele>
        <time>2015-05-10T05:21:43Z</time>
      </trkpt>
      <trkpt lat="45.71967" lon="4.51162">
        <ele>259.3</ele>
        <time>2015-05-10T05:21:48Z</time>
      </trkpt>
      <trkpt lat="45.71953" lon="4.51163">
        <ele>259.2</ele>
        <time>2015-05-10T05:21:53Z</time>
      </trkpt>
      <trkpt lat="45.71938" lon="4.5116">
        <ele>258.8</ele>
        <time>2015-05-10T05:21:58Z</time>
      </trkpt>
      <trkpt lat="45.71925" lon="4.51157">
        <ele>258.6</ele>
        <time>2015-05-10T05:22:03Z</time>
      </trkpt>
      <trkpt lat="45.7191" lon="4.51158">
        <ele>258.6</ele>
        <time>2015-05-10T05:22:08Z</time>
      </trkpt>
      <trkpt lat="45.71895" lon="4.5116">
        <ele>257.9</ele>
        <time>2015-05-10T05:22:13Z</time>
      </trkpt>
      <trkpt lat="45.71878" lon="4.51162">
        <ele>257.4</ele>
        <time>2015-05-10T05:22:18Z</time>
      </trkpt>
      <trkpt lat="45.7186" lon="4.51163">
        <ele>256.7</ele>
        <time>2015-05-10T05:22:23Z</time>
      </trkpt>
      <trkpt lat="45.71843" lon="4.5117">
        <ele>255.9</ele>
        <time>2015-05-10T05:22:28Z</time>
      </trkpt>
      <trkpt lat="45.71827" lon="4.51173">
        <ele>257</ele>
        <time>2015-05-10T05:22:33Z</time>
      </trkpt>
      <trkpt lat="45.7181" lon="4.51183">
        <ele>256</ele>
        <time>2015-05-10T05:22:38Z</time>
      </trkpt>
      <trkpt lat="45.71797" lon="4.51197">
        <ele>253.7</ele>
        <time>2015-05-10T05:22:43Z</time>
      </trkpt>
      <trkpt lat="45.7178" lon="4.5121">
        <ele>256.5</ele>
        <time>2015-05-10T05:22:48Z</time>
      </trkpt>
      <trkpt lat="45.71767" lon="4.51218">
        <ele>255.5</ele>
        <time>2015-05-10T05:22:53Z</time>
      </trkpt>
      <trkpt lat="45.71752" lon="4.51225">
        <ele>255.2</ele>
        <time>2015-05-10T05:22:58Z</time>
      </trkpt>
      <trkpt lat="45.71735" lon="4.51232">
        <ele>255.7</ele>
        <time>2015-05-10T05:23:03Z</time>
      </trkpt>
      <trkpt lat="45.7172" lon="4.51238">
        <ele>255.7</ele>
        <time>2015-05-10T05:23:08Z</time>
      </trkpt>
      <trkpt lat="45.71703" lon="4.51247">
        <ele>255.7</ele>
        <time>2015-05-10T05:23:13Z</time>
      </trkpt>
      <trkpt lat="45.71688" lon="4.51257">
        <ele>256.2</ele>
        <time>2015-05-10T05:23:18Z</time>
      </trkpt>
      <trkpt lat="45.71672" lon="4.5127">
        <ele>257</ele>
        <time>2015-05-10T05:23:23Z</time>
      </trkpt>
      <trkpt lat="45.71657" lon="4.51282">
        <ele>256</ele>
        <time>2015-05-10T05:23:28Z</time>
      </trkpt>
      <trkpt lat="45.71643" lon="4.51295">
        <ele>256.2</ele>
        <time>2015-05-10T05:23:33Z</time>
      </trkpt>
      <trkpt lat="45.71627" lon="4.51307">
        <ele>256.8</ele>
        <time>2015-05-10T05:23:38Z</time>
      </trkpt>
      <trkpt lat="45.71612" lon="4.51322">
        <ele>256</ele>
        <time>2015-05-10T05:23:43Z</time>
      </trkpt>
      <trkpt lat="45.71598" lon="4.51338">
        <ele>256.2</ele>
        <time>2015-05-10T05:23:48Z</time>
      </trkpt>
      <trkpt lat="45.71585" lon="4.51353">
        <ele>256</ele>
        <time>2015-05-10T05:23:53Z</time>
      </trkpt>
      <trkpt lat="45.71577" lon="4.51373">
        <ele>255.4</ele>
        <time>2015-05-10T05:23:58Z</time>
      </trkpt>
      <trkpt lat="45.71583" lon="4.51395">
        <ele>255.5</ele>
        <time>2015-05-10T05:24:03Z</time>
      </trkpt>
      <trkpt lat="45.71597" lon="4.51413">
        <ele>255.1</ele>
        <time>2015-05-10T05:24:08Z</time>
      </trkpt>
      <trkpt lat="45.71607" lon="4.51435">
        <ele>255.2</ele>
        <time>2015-05-10T05:24:13Z</time>
      </trkpt>
      <trkpt lat="45.71617" lon="4.51455">
        <ele>254.9</ele>
        <time>2015-05-10T05:24:18Z</time>
      </trkpt>
      <trkpt lat="45.71627" lon="4.51477">
        <ele>254.5</ele>
        <time>2015-05-10T05:24:23Z</time>
      </trkpt>
      <trkpt lat="45.71637" lon="4.51497">
        <ele>254.5</ele>
        <time>2015-05-10T05:24:28Z</time>
      </trkpt>
      <trkpt lat="45.71625" lon="4.51503">
        <ele>254.6</ele>
        <time>2015-05-10T05:24:33Z</time>
      </trkpt>
      <trkpt lat="45.7161" lon="4.51498">
        <ele>255.6</ele>
        <time>2015-05-10T05:24:38Z</time>
      </trkpt>
      <trkpt lat="45.71597" lon="4.51493">
        <ele>255.1</ele>
        <time>2015-05-10T05:24:43Z</time>
      </trkpt>
      <trkpt lat="45.71582" lon="4.51485">
        <ele>257.1</ele>
        <time>2015-05-10T05:24:48Z</time>
      </trkpt>
      <trkpt lat="45.71567" lon="4.51478">
        <ele>257.9</ele>
        <time>2015-05-10T05:24:53Z</time>
      </trkpt>
      <trkpt lat="45.71553" lon="4.51488">
        <ele>257.7</ele>
        <time>2015-05-10T05:24:58Z</time>
      </trkpt>
      <trkpt lat="45.71543" lon="4.51505">
        <ele>259.4</ele>
        <time>2015-05-10T05:25:03Z</time>
      </trkpt>
      <trkpt lat="45.71535" lon="4.5152">
        <ele>259.6</ele>
        <time>2015-05-10T05:25:08Z</time>
      </trkpt>
      <trkpt lat="45.71528" lon="4.51537">
        <ele>260.7</ele>
        <time>2015-05-10T05:25:13Z</time>
      </trkpt>
      <trkpt lat="45.71522" lon="4.51555">
        <ele>262.2</ele>
        <time>2015-05-10T05:25:18Z</time>
      </trkpt>
      <trkpt lat="45.71517" lon="4.51573">
        <ele>261.9</ele>
        <time>2015-05-10T05:25:23Z</time>
      </trkpt>
      <trkpt lat="45.7152" lon="4.51593">
        <ele>262.7</ele>
        <time>2015-05-10T05:25:28Z</time>
      </trkpt>
      <trkpt lat="45.71522" lon="4.51612">
        <ele>264.6</ele>
        <time>2015-05-10T05:25:33Z</time>
      </trkpt>
      <trkpt lat="45.71523" lon="4.51628">
        <ele>264.6</ele>
        <time>2015-05-10T05:25:38Z</time>
      </trkpt>
      <trkpt lat="45.7152" lon="4.51643">
        <ele>265.6</ele>
        <time>2015-05-10T05:25:43Z</time>
      </trkpt>
      <trkpt lat="45.71512" lon="4.51658">
        <ele>266.8</ele>
        <time>2015-05-10T05:25:48Z</time>
      </trkpt>
      <trkpt lat="45.71502" lon="4.5167">
        <ele>266.4</ele>
        <time>2015-05-10T05:25:53Z</time>
      </trkpt>
      <trkpt lat="45.71495" lon="4.51685">
        <ele>267.8</ele>
        <time>2015-05-10T05:25:58Z</time>
      </trkpt>
      <trkpt lat="45.71485" lon="4.51698">
        <ele>268.1</ele>
        <time>2015-05-10T05:26:03Z</time>
      </trkpt>
      <trkpt lat="45.71473" lon="4.51708">
        <ele>269</ele>
        <time>2015-05-10T05:26:08Z</time>
      </trkpt>
      <trkpt lat="45.71462" lon="4.51718">
        <ele>269.9</ele>
        <time>2015-05-10T05:26:13Z</time>
      </trkpt>
      <trkpt lat="45.7145" lon="4.51728">
        <ele>270.1</ele>
        <time>2015-05-10T05:26:18Z</time>
      </trkpt>
      <trkpt lat="45.71438" lon="4.51738">
        <ele>271.5</ele>
        <time>2015-05-10T05:26:23Z</time>
      </trkpt>
      <trkpt lat="45.71427" lon="4.51747">
        <ele>272.8</ele>
        <time>2015-05-10T05:26:28Z</time>
      </trkpt>
      <trkpt lat="45.71413" lon="4.51757">
        <ele>273.1</ele>
        <time>2015-05-10T05:26:33Z</time>
      </trkpt>
      <trkpt lat="45.71402" lon="4.51767">
        <ele>273.4</ele>
        <time>2015-05-10T05:26:38Z</time>
      </trkpt>
      <trkpt lat="45.7139" lon="4.51775">
        <ele>274.3</ele>
        <time>2015-05-10T05:26:43Z</time>
      </trkpt>
      <trkpt lat="45.7138" lon="4.51787">
        <ele>274.3</ele>
        <time>2015-05-10T05:26:48Z</time>
      </trkpt>
      <trkpt lat="45.71368" lon="4.51797">
        <ele>275.1</ele>
        <time>2015-05-10T05:26:53Z</time>
      </trkpt>
      <trkpt lat="45.71355" lon="4.51803">
        <ele>275.9</ele>
        <time>2015-05-10T05:26:58Z</time>
      </trkpt>
      <trkpt lat="45.71343" lon="4.51812">
        <ele>276.6</ele>
        <time>2015-05-10T05:27:03Z</time>
      </trkpt>
      <trkpt lat="45.7133" lon="4.51818">
        <ele>277.8</ele>
        <time>2015-05-10T05:27:08Z</time>
      </trkpt>
      <trkpt lat="45.71318" lon="4.51828">
        <ele>278.7</ele>
        <time>2015-05-10T05:27:13Z</time>
      </trkpt>
      <trkpt lat="45.71308" lon="4.51838">
        <ele>279.3</ele>
        <time>2015-05-10T05:27:18Z</time>
      </trkpt>
      <trkpt lat="45.71297" lon="4.51852">
        <ele>278.8</ele>
        <time>2015-05-10T05:27:23Z</time>
      </trkpt>
      <trkpt lat="45.71288" lon="4.51865">
        <ele>277.6</ele>
        <time>2015-05-10T05:27:28Z</time>
      </trkpt>
      <trkpt lat="45.7128" lon="4.51882">
        <ele>278.7</ele>
        <time>2015-05-10T05:27:33Z</time>
      </trkpt>
      <trkpt lat="45.71278" lon="4.51895">
        <ele>275.3</ele>
        <time>2015-05-10T05:27:38Z</time>
      </trkpt>
      <trkpt lat="45.71283" lon="4.51887">
        <ele>276.7</ele>
        <time>2015-05-10T05:27:43Z</time>
      </trkpt>
      <trkpt lat="45.71287" lon="4.51878">
        <ele>278.1</ele>
        <time>2015-05-10T05:27:48Z</time>
      </trkpt>
      <trkpt lat="45.71292" lon="4.5187">
        <ele>279.7</ele>
        <time>2015-05-10T05:27:53Z</time>
      </trkpt>
      <trkpt lat="45.71298" lon="4.51863">
        <ele>279.8</ele>
        <time>2015-05-10T05:27:58Z</time>
      </trkpt>
      <trkpt lat="45.71303" lon="4.51858">
        <ele>280.6</ele>
        <time>2015-05-10T05:28:03Z</time>
      </trkpt>
      <trkpt lat="45.71312" lon="4.51853">
        <ele>281.8</ele>
        <time>2015-05-10T05:28:08Z</time>
      </trkpt>
      <trkpt lat="45.71318" lon="4.51848">
        <ele>283.6</ele>
        <time>2015-05-10T05:28:13Z</time>
      </trkpt>
      <trkpt lat="45.71327" lon="4.51843">
        <ele>284.4</ele>
        <time>2015-05-10T05:28:18Z</time>
      </trkpt>
      <trkpt lat="45.71337" lon="4.5184">
        <ele>285.6</ele>
        <time>2015-05-10T05:28:23Z</time>
      </trkpt>
      <trkpt lat="45.71345" lon="4.51837">
        <ele>285.6</ele>
        <time>2015-05-10T05:28:28Z</time>
      </trkpt>
      <trkpt lat="45.71355" lon="4.51833">
        <ele>286.2</ele>
        <time>2015-05-10T05:28:33Z</time>
      </trkpt>
      <trkpt lat="45.71365" lon="4.5183">
        <ele>286</ele>
        <time>2015-05-10T05:28:38Z</time>
      </trkpt>
      <trkpt lat="45.71377" lon="4.51827">
        <ele>287.6</ele>
        <time>2015-05-10T05:28:43Z</time>
      </trkpt>
      <trkpt lat="45.71387" lon="4.51818">
        <ele>286.2</ele>
        <time>2015-05-10T05:28:48Z</time>
      </trkpt>
      <trkpt lat="45.714" lon="4.5181">
        <ele>286.8</ele>
        <time>2015-05-10T05:28:53Z</time>
      </trkpt>
      <trkpt lat="45.7141" lon="4.518">
        <ele>286.7</ele>
        <time>2015-05-10T05:28:58Z</time>
      </trkpt>
      <trkpt lat="45.7142" lon="4.51792">
        <ele>287.7</ele>
        <time>2015-05-10T05:29:03Z</time>
      </trkpt>
      <trkpt lat="45.71433" lon="4.51783">
        <ele>286.3</ele>
        <time>2015-05-10T05:29:08Z</time>
      </trkpt>
      <trkpt lat="45.7145" lon="4.5177">
        <ele>286.3</ele>
        <time>2015-05-10T05:29:13Z</time>
      </trkpt>
      <trkpt lat="45.71472" lon="4.51757">
        <ele>283.9</ele>
        <time>2015-05-10T05:29:18Z</time>
      </trkpt>
      <trkpt lat="45.71497" lon="4.51742">
        <ele>283.1</ele>
        <time>2015-05-10T05:29:23Z</time>
      </trkpt>
      <trkpt lat="45.71518" lon="4.5173">
        <ele>281.9</ele>
        <time>2015-05-10T05:29:28Z</time>
      </trkpt>
      <trkpt lat="45.7154" lon="4.5172">
        <ele>282.2</ele>
        <time>2015-05-10T05:29:33Z</time>
      </trkpt>
      <trkpt lat="45.7155" lon="4.51692">
        <ele>281.1</ele>
        <time>2015-05-10T05:29:38Z</time>
      </trkpt>
      <trkpt lat="45.71557" lon="4.51665">
        <ele>281.8</ele>
        <time>2015-05-10T05:29:43Z</time>
      </trkpt>
      <trkpt lat="45.71563" lon="4.51642">
        <ele>282.9</ele>
        <time>2015-05-10T05:29:48Z</time>
      </trkpt>
      <trkpt lat="45.71572" lon="4.51623">
        <ele>282.6</ele>
        <time>2015-05-10T05:29:53Z</time>
      </trkpt>
      <trkpt lat="45.71582" lon="4.51608">
        <ele>284.2</ele>
        <time>2015-05-10T05:29:58Z</time>
      </trkpt>
      <trkpt lat="45.71595" lon="4.51598">
        <ele>283.4</ele>
        <time>2015-05-10T05:30:03Z</time>
      </trkpt>
      <trkpt lat="45.71608" lon="4.51597">
        <ele>283</ele>
        <time>2015-05-10T05:30:08Z</time>
      </trkpt>
      <trkpt lat="45.71625" lon="4.516">
        <ele>283</ele>
        <time>2015-05-10T05:30:13Z</time>
      </trkpt>
      <trkpt lat="45.71642" lon="4.5161">
        <ele>283.2</ele>
        <time>2015-05-10T05:30:18Z</time>
      </trkpt>
      <trkpt lat="45.71657" lon="4.51622">
        <ele>282.7</ele>
        <time>2015-05-10T05:30:23Z</time>
      </trkpt>
      <trkpt lat="45.7167" lon="4.51635">
        <ele>281.4</ele>
        <time>2015-05-10T05:30:28Z</time>
      </trkpt>
      <trkpt lat="45.71687" lon="4.5165">
        <ele>281.2</ele>
        <time>2015-05-10T05:30:33Z</time>
      </trkpt>
      <trkpt lat="45.71707" lon="4.51665">
        <ele>280</ele>
        <time>2015-05-10T05:30:38Z</time>
      </trkpt>
      <trkpt lat="45.71728" lon="4.51678">
        <ele>278</ele>
        <time>2015-05-10T05:30:43Z</time>
      </trkpt>
      <trkpt lat="45.71743" lon="4.51688">
        <ele>278.1</ele>
        <time>2015-05-10T05:30:48Z</time>
      </trkpt>
      <trkpt lat="45.71755" lon="4.51698">
        <ele>279</ele>
        <time>2015-05-10T05:30:53Z</time>
      </trkpt>
      <trkpt lat="45.7177" lon="4.51712">
        <ele>278.3</ele>
        <time>2015-05-10T05:30:58Z</time>
      </trkpt>
      <trkpt lat="45.71788" lon="4.51723">
        <ele>279</ele>
        <time>2015-05-10T05:31:03Z</time>
      </trkpt>
      <trkpt lat="45.71802" lon="4.5173">
        <ele>279.6</ele>
        <time>2015-05-10T05:31:08Z</time>
      </trkpt>
      <trkpt lat="45.71812" lon="4.5174">
        <ele>280.3</ele>
        <time>2015-05-10T05:31:13Z</time>
      </trkpt>
      <trkpt lat="45.7182" lon="4.51748">
        <ele>282.5</ele>
        <time>2015-05-10T05:31:18Z</time>
      </trkpt>
      <trkpt lat="45.71828" lon="4.51755">
        <ele>283.8</ele>
        <time>2015-05-10T05:31:23Z</time>
      </trkpt>
      <trkpt lat="45.71837" lon="4.51763">
        <ele>285.5</ele>
        <time>2015-05-10T05:31:28Z</time>
      </trkpt>
      <trkpt lat="45.7184" lon="4.51772">
        <ele>286.9</ele>
        <time>2015-05-10T05:31:33Z</time>
      </trkpt>
      <trkpt lat="45.71845" lon="4.51778">
        <ele>288.7</ele>
        <time>2015-05-10T05:31:38Z</time>
      </trkpt>
      <trkpt lat="45.71852" lon="4.51787">
        <ele>290.3</ele>
        <time>2015-05-10T05:31:43Z</time>
      </trkpt>
      <trkpt lat="45.71858" lon="4.51793">
        <ele>291.8</ele>
        <time>2015-05-10T05:31:48Z</time>
      </trkpt>
      <trkpt lat="45.71865" lon="4.518">
        <ele>293.1</ele>
        <time>2015-05-10T05:31:53Z</time>
      </trkpt>
      <trkpt lat="45.71872" lon="4.51807">
        <ele>294.3</ele>
        <time>2015-05-10T05:31:58Z</time>
      </trkpt>
      <trkpt lat="45.71877" lon="4.51813">
        <ele>295.9</ele>
        <time>2015-05-10T05:32:03Z</time>
      </trkpt>
      <trkpt lat="45.71885" lon="4.51815">
        <ele>297.2</ele>
        <time>2015-05-10T05:32:08Z</time>
      </trkpt>
      <trkpt lat="45.71892" lon="4.51822">
        <ele>298.9</ele>
        <time>2015-05-10T05:32:13Z</time>
      </trkpt>
      <trkpt lat="45.71897" lon="4.51827">
        <ele>300.8</ele>
        <time>2015-05-10T05:32:18Z</time>
      </trkpt>
      <trkpt lat="45.71902" lon="4.51833">
        <ele>302.2</ele>
        <time>2015-05-10T05:32:23Z</time>
      </trkpt>
      <trkpt lat="45.71907" lon="4.51838">
        <ele>303.8</ele>
        <time>2015-05-10T05:32:28Z</time>
      </trkpt>
      <trkpt lat="45.71912" lon="4.51845">
        <ele>305.3</ele>
        <time>2015-05-10T05:32:33Z</time>
      </trkpt>
      <trkpt lat="45.71917" lon="4.5185">
        <ele>307.4</ele>
        <time>2015-05-10T05:32:38Z</time>
      </trkpt>
      <trkpt lat="45.71922" lon="4.51857">
        <ele>309</ele>
        <time>2015-05-10T05:32:43Z</time>
      </trkpt>
      <trkpt lat="45.71927" lon="4.51863">
        <ele>310.5</ele>
        <time>2015-05-10T05:32:48Z</time>
      </trkpt>
      <trkpt lat="45.71932" lon="4.51867">
        <ele>312.5</ele>
        <time>2015-05-10T05:32:53Z</time>
      </trkpt>
      <trkpt lat="45.71935" lon="4.51873">
        <ele>314.2</ele>
        <time>2015-05-10T05:32:58Z</time>
      </trkpt>
      <trkpt lat="45.71942" lon="4.5188">
        <ele>315</ele>
        <time>2015-05-10T05:33:03Z</time>
      </trkpt>
      <trkpt lat="45.71948" lon="4.51883">
        <ele>316.3</ele>
        <time>2015-05-10T05:33:08Z</time>
      </trkpt>
      <trkpt lat="45.71955" lon="4.51888">
        <ele>317.6</ele>
        <time>2015-05-10T05:33:13Z</time>
      </trkpt>
      <trkpt lat="45.7196" lon="4.51893">
        <ele>318.6</ele>
        <time>2015-05-10T05:33:18Z</time>
      </trkpt>
      <trkpt lat="45.71967" lon="4.51898">
        <ele>319.3</ele>
        <time>2015-05-10T05:33:23Z</time>
      </trkpt>
      <trkpt lat="45.71972" lon="4.51905">
        <ele>319.7</ele>
        <time>2015-05-10T05:33:28Z</time>
      </trkpt>
      <trkpt lat="45.7198" lon="4.51908">
        <ele>321.2</ele>
        <time>2015-05-10T05:33:33Z</time>
      </trkpt>
      <trkpt lat="45.71985" lon="4.51912">
        <ele>322.6</ele>
        <time>2015-05-10T05:33:38Z</time>
      </trkpt>
      <trkpt lat="45.71993" lon="4.51917">
        <ele>323.9</ele>
        <time>2015-05-10T05:33:43Z</time>
      </trkpt>
      <trkpt lat="45.72" lon="4.51917">
        <ele>325.2</ele>
        <time>2015-05-10T05:33:48Z</time>
      </trkpt>
      <trkpt lat="45.72005" lon="4.5192">
        <ele>325.8</ele>
        <time>2015-05-10T05:33:53Z</time>
      </trkpt>
      <trkpt lat="45.72012" lon="4.5192">
        <ele>327</ele>
        <time>2015-05-10T05:33:58Z</time>
      </trkpt>
      <trkpt lat="45.72017" lon="4.51922">
        <ele>330.2</ele>
        <time>2015-05-10T05:34:03Z</time>
      </trkpt>
      <trkpt lat="45.72023" lon="4.51913">
        <ele>331.1</ele>
        <time>2015-05-10T05:34:08Z</time>
      </trkpt>
      <trkpt lat="45.72027" lon="4.51907">
        <ele>331.5</ele>
        <time>2015-05-10T05:34:13Z</time>
      </trkpt>
      <trkpt lat="45.72033" lon="4.51907">
        <ele>331.7</ele>
        <time>2015-05-10T05:34:18Z</time>
      </trkpt>
      <trkpt lat="45.7204" lon="4.5191">
        <ele>332.4</ele>
        <time>2015-05-10T05:34:23Z</time>
      </trkpt>
      <trkpt lat="45.72048" lon="4.51915">
        <ele>332.6</ele>
        <time>2015-05-10T05:34:28Z</time>
      </trkpt>
      <trkpt lat="45.72052" lon="4.51925">
        <ele>334.2</ele>
        <time>2015-05-10T05:34:33Z</time>
      </trkpt>
      <trkpt lat="45.72053" lon="4.51938">
        <ele>335.7</ele>
        <time>2015-05-10T05:34:38Z</time>
      </trkpt>
      <trkpt lat="45.72053" lon="4.5195">
        <ele>336.7</ele>
        <time>2015-05-10T05:34:43Z</time>
      </trkpt>
      <trkpt lat="45.72053" lon="4.51963">
        <ele>337.6</ele>
        <time>2015-05-10T05:34:48Z</time>
      </trkpt>
      <trkpt lat="45.72053" lon="4.51977">
        <ele>337.6</ele>
        <time>2015-05-10T05:34:53Z</time>
      </trkpt>
      <trkpt lat="45.72055" lon="4.5199">
        <ele>339.5</ele>
        <time>2015-05-10T05:34:58Z</time>
      </trkpt>
      <trkpt lat="45.72057" lon="4.52002">
        <ele>340.3</ele>
        <time>2015-05-10T05:35:03Z</time>
      </trkpt>
      <trkpt lat="45.7206" lon="4.52017">
        <ele>341.4</ele>
        <time>2015-05-10T05:35:08Z</time>
      </trkpt>
      <trkpt lat="45.72065" lon="4.52028">
        <ele>341.8</ele>
        <time>2015-05-10T05:35:13Z</time>
      </trkpt>
      <trkpt lat="45.72073" lon="4.5204">
        <ele>344.2</ele>
        <time>2015-05-10T05:35:18Z</time>
      </trkpt>
      <trkpt lat="45.7208" lon="4.52048">
        <ele>345.6</ele>
        <time>2015-05-10T05:35:23Z</time>
      </trkpt>
      <trkpt lat="45.72085" lon="4.52058">
        <ele>345.6</ele>
        <time>2015-05-10T05:35:28Z</time>
      </trkpt>
      <trkpt lat="45.72093" lon="4.52072">
        <ele>346.5</ele>
        <time>2015-05-10T05:35:33Z</time>
      </trkpt>
      <trkpt lat="45.72098" lon="4.52087">
        <ele>345.6</ele>
        <time>2015-05-10T05:35:38Z</time>
      </trkpt>
      <trkpt lat="45.72102" lon="4.52103">
        <ele>345.7</ele>
        <time>2015-05-10T05:35:43Z</time>
      </trkpt>
      <trkpt lat="45.72107" lon="4.52122">
        <ele>346.2</ele>
        <time>2015-05-10T05:35:48Z</time>
      </trkpt>
      <trkpt lat="45.72112" lon="4.52145">
        <ele>346.8</ele>
        <time>2015-05-10T05:35:53Z</time>
      </trkpt>
      <trkpt lat="45.72115" lon="4.52167">
        <ele>346.4</ele>
        <time>2015-05-10T05:35:58Z</time>
      </trkpt>
      <trkpt lat="45.72118" lon="4.52187">
        <ele>347.3</ele>
        <time>2015-05-10T05:36:03Z</time>
      </trkpt>
      <trkpt lat="45.72122" lon="4.52207">
        <ele>348.5</ele>
        <time>2015-05-10T05:36:08Z</time>
      </trkpt>
      <trkpt lat="45.72127" lon="4.52227">
        <ele>349.6</ele>
        <time>2015-05-10T05:36:13Z</time>
      </trkpt>
      <trkpt lat="45.7213" lon="4.52245">
        <ele>351.5</ele>
        <time>2015-05-10T05:36:18Z</time>
      </trkpt>
      <trkpt lat="45.72135" lon="4.52262">
        <ele>351.9</ele>
        <time>2015-05-10T05:36:23Z</time>
      </trkpt>
      <trkpt lat="45.72142" lon="4.5228">
        <ele>352.8</ele>
        <time>2015-05-10T05:36:28Z</time>
      </trkpt>
      <trkpt lat="45.72148" lon="4.52297">
        <ele>354.3</ele>
        <time>2015-05-10T05:36:33Z</time>
      </trkpt>
      <trkpt lat="45.72155" lon="4.52312">
        <ele>355.2</ele>
        <time>2015-05-10T05:36:38Z</time>
      </trkpt>
      <trkpt lat="45.72163" lon="4.52325">
        <ele>356.6</ele>
        <time>2015-05-10T05:36:43Z</time>
      </trkpt>
      <trkpt lat="45.72172" lon="4.52337">
        <ele>357.4</ele>
        <time>2015-05-10T05:36:48Z</time>
      </trkpt>
      <trkpt lat="45.72183" lon="4.52347">
        <ele>357.9</ele>
        <time>2015-05-10T05:36:53Z</time>
      </trkpt>
      <trkpt lat="45.72192" lon="4.5236">
        <ele>359.5</ele>
        <time>2015-05-10T05:36:58Z</time>
      </trkpt>
      <trkpt lat="45.72197" lon="4.52375">
        <ele>360.3</ele>
        <time>2015-05-10T05:37:03Z</time>
      </trkpt>
      <trkpt lat="45.72203" lon="4.52388">
        <ele>361.3</ele>
        <time>2015-05-10T05:37:08Z</time>
      </trkpt>
      <trkpt lat="45.7221" lon="4.524">
        <ele>361.6</ele>
        <time>2015-05-10T05:37:13Z</time>
      </trkpt>
      <trkpt lat="45.72217" lon="4.52412">
        <ele>363</ele>
        <time>2015-05-10T05:37:18Z</time>
      </trkpt>
      <trkpt lat="45.72225" lon="4.52427">
        <ele>363.5</ele>
        <time>2015-05-10T05:37:23Z</time>
      </trkpt>
      <trkpt lat="45.72232" lon="4.52442">
        <ele>364.8</ele>
        <time>2015-05-10T05:37:28Z</time>
      </trkpt>
      <trkpt lat="45.72235" lon="4.52457">
        <ele>364.8</ele>
        <time>2015-05-10T05:37:33Z</time>
      </trkpt>
      <trkpt lat="45.72237" lon="4.52472">
        <ele>366.3</ele>
        <time>2015-05-10T05:37:38Z</time>
      </trkpt>
      <trkpt lat="45.72237" lon="4.52488">
        <ele>366.8</ele>
        <time>2015-05-10T05:37:43Z</time>
      </trkpt>
      <trkpt lat="45.72232" lon="4.52505">
        <ele>368</ele>
        <time>2015-05-10T05:37:48Z</time>
      </trkpt>
      <trkpt lat="45.7223" lon="4.5252">
        <ele>369.3</ele>
        <time>2015-05-10T05:37:53Z</time>
      </trkpt>
      <trkpt lat="45.72225" lon="4.52537">
        <ele>369.7</ele>
        <time>2015-05-10T05:37:58Z</time>
      </trkpt>
      <trkpt lat="45.72218" lon="4.52552">
        <ele>370.6</ele>
        <time>2015-05-10T05:38:03Z</time>
      </trkpt>
      <trkpt lat="45.72213" lon="4.52565">
        <ele>371.6</ele>
        <time>2015-05-10T05:38:08Z</time>
      </trkpt>
      <trkpt lat="45.72208" lon="4.5258">
        <ele>373.4</ele>
        <time>2015-05-10T05:38:13Z</time>
      </trkpt>
      <trkpt lat="45.722" lon="4.52597">
        <ele>373.9</ele>
        <time>2015-05-10T05:38:18Z</time>
      </trkpt>
      <trkpt lat="45.72192" lon="4.5261">
        <ele>374.6</ele>
        <time>2015-05-10T05:38:23Z</time>
      </trkpt>
      <trkpt lat="45.72183" lon="4.52625">
        <ele>375.7</ele>
        <time>2015-05-10T05:38:28Z</time>
      </trkpt>
      <trkpt lat="45.72177" lon="4.5264">
        <ele>377.2</ele>
        <time>2015-05-10T05:38:33Z</time>
      </trkpt>
      <trkpt lat="45.7217" lon="4.52655">
        <ele>377.9</ele>
        <time>2015-05-10T05:38:38Z</time>
      </trkpt>
      <trkpt lat="45.72163" lon="4.52673">
        <ele>378.8</ele>
        <time>2015-05-10T05:38:43Z</time>
      </trkpt>
      <trkpt lat="45.72158" lon="4.52688">
        <ele>380.1</ele>
        <time>2015-05-10T05:38:48Z</time>
      </trkpt>
      <trkpt lat="45.72153" lon="4.52703">
        <ele>381.1</ele>
        <time>2015-05-10T05:38:53Z</time>
      </trkpt>
      <trkpt lat="45.72147" lon="4.52715">
        <ele>382.6</ele>
        <time>2015-05-10T05:38:58Z</time>
      </trkpt>
      <trkpt lat="45.7214" lon="4.5273">
        <ele>382.5</ele>
        <time>2015-05-10T05:39:03Z</time>
      </trkpt>
      <trkpt lat="45.72133" lon="4.5274">
        <ele>382.8</ele>
        <time>2015-05-10T05:39:08Z</time>
      </trkpt>
      <trkpt lat="45.72125" lon="4.52757">
        <ele>384.7</ele>
        <time>2015-05-10T05:39:13Z</time>
      </trkpt>
      <trkpt lat="45.72117" lon="4.5277">
        <ele>385.4</ele>
        <time>2015-05-10T05:39:18Z</time>
      </trkpt>
      <trkpt lat="45.7211" lon="4.52785">
        <ele>387.1</ele>
        <time>2015-05-10T05:39:23Z</time>
      </trkpt>
      <trkpt lat="45.72103" lon="4.52802">
        <ele>387.6</ele>
        <time>2015-05-10T05:39:28Z</time>
      </trkpt>
      <trkpt lat="45.721" lon="4.52817">
        <ele>388.6</ele>
        <time>2015-05-10T05:39:33Z</time>
      </trkpt>
      <trkpt lat="45.72095" lon="4.52835">
        <ele>389.1</ele>
        <time>2015-05-10T05:39:38Z</time>
      </trkpt>
      <trkpt lat="45.7209" lon="4.52855">
        <ele>389.8</ele>
        <time>2015-05-10T05:39:43Z</time>
      </trkpt>
      <trkpt lat="45.72087" lon="4.52872">
        <ele>391</ele>
        <time>2015-05-10T05:39:48Z</time>
      </trkpt>
      <trkpt lat="45.72083" lon="4.52888">
        <ele>391.3</ele>
        <time>2015-05-10T05:39:53Z</time>
      </trkpt>
      <trkpt lat="45.7208" lon="4.52905">
        <ele>392.4</ele>
        <time>2015-05-10T05:39:58Z</time>
      </trkpt>
      <trkpt lat="45.7208" lon="4.5292">
        <ele>393.4</ele>
        <time>2015-05-10T05:40:03Z</time>
      </trkpt>
      <trkpt lat="45.72083" lon="4.52935">
        <ele>394.5</ele>
        <time>2015-05-10T05:40:08Z</time>
      </trkpt>
      <trkpt lat="45.72087" lon="4.52953">
        <ele>396.3</ele>
        <time>2015-05-10T05:40:13Z</time>
      </trkpt>
      <trkpt lat="45.72088" lon="4.52972">
        <ele>396.9</ele>
        <time>2015-05-10T05:40:18Z</time>
      </trkpt>
      <trkpt lat="45.7209" lon="4.52988">
        <ele>396.4</ele>
        <time>2015-05-10T05:40:23Z</time>
      </trkpt>
      <trkpt lat="45.721" lon="4.53005">
        <ele>399.2</ele>
        <time>2015-05-10T05:40:28Z</time>
      </trkpt>
      <trkpt lat="45.7211" lon="4.53013">
        <ele>400.1</ele>
        <time>2015-05-10T05:40:33Z</time>
      </trkpt>
      <trkpt lat="45.7212" lon="4.53022">
        <ele>400.3</ele>
        <time>2015-05-10T05:40:38Z</time>
      </trkpt>
      <trkpt lat="45.7213" lon="4.53028">
        <ele>401.3</ele>
        <time>2015-05-10T05:40:43Z</time>
      </trkpt>
      <trkpt lat="45.72142" lon="4.53038">
        <ele>403.4</ele>
        <time>2015-05-10T05:40:48Z</time>
      </trkpt>
      <trkpt lat="45.72153" lon="4.53048">
        <ele>403.2</ele>
        <time>2015-05-10T05:40:53Z</time>
      </trkpt>
      <trkpt lat="45.72162" lon="4.53062">
        <ele>404.2</ele>
        <time>2015-05-10T05:40:58Z</time>
      </trkpt>
      <trkpt lat="45.72172" lon="4.53073">
        <ele>405.8</ele>
        <time>2015-05-10T05:41:03Z</time>
      </trkpt>
      <trkpt lat="45.7218" lon="4.53083">
        <ele>406.1</ele>
        <time>2015-05-10T05:41:08Z</time>
      </trkpt>
      <trkpt lat="45.72188" lon="4.53097">
        <ele>406.9</ele>
        <time>2015-05-10T05:41:13Z</time>
      </trkpt>
      <trkpt lat="45.72195" lon="4.53112">
        <ele>407.7</ele>
        <time>2015-05-10T05:41:18Z</time>
      </trkpt>
      <trkpt lat="45.72203" lon="4.53125">
        <ele>408.8</ele>
        <time>2015-05-10T05:41:23Z</time>
      </trkpt>
      <trkpt lat="45.72212" lon="4.53137">
        <ele>409.2</ele>
        <time>2015-05-10T05:41:28Z</time>
      </trkpt>
      <trkpt lat="45.72222" lon="4.53147">
        <ele>410.1</ele>
        <time>2015-05-10T05:41:33Z</time>
      </trkpt>
      <trkpt lat="45.72232" lon="4.53157">
        <ele>411.8</ele>
        <time>2015-05-10T05:41:38Z</time>
      </trkpt>
      <trkpt lat="45.72238" lon="4.53168">
        <ele>412.6</ele>
        <time>2015-05-10T05:41:43Z</time>
      </trkpt>
      <trkpt lat="45.72245" lon="4.53183">
        <ele>413.2</ele>
        <time>2015-05-10T05:41:48Z</time>
      </trkpt>
      <trkpt lat="45.7225" lon="4.532">
        <ele>414.3</ele>
        <time>2015-05-10T05:41:53Z</time>
      </trkpt>
      <trkpt lat="45.72248" lon="4.53215">
        <ele>415.3</ele>
        <time>2015-05-10T05:41:58Z</time>
      </trkpt>
      <trkpt lat="45.72245" lon="4.5323">
        <ele>416.3</ele>
        <time>2015-05-10T05:42:03Z</time>
      </trkpt>
      <trkpt lat="45.7224" lon="4.53247">
        <ele>417.4</ele>
        <time>2015-05-10T05:42:08Z</time>
      </trkpt>
      <trkpt lat="45.72238" lon="4.53262">
        <ele>418.2</ele>
        <time>2015-05-10T05:42:13Z</time>
      </trkpt>
      <trkpt lat="45.72235" lon="4.53278">
        <ele>419.9</ele>
        <time>2015-05-10T05:42:18Z</time>
      </trkpt>
      <trkpt lat="45.7223" lon="4.53295">
        <ele>419.9</ele>
        <time>2015-05-10T05:42:23Z</time>
      </trkpt>
      <trkpt lat="45.72225" lon="4.53313">
        <ele>421.5</ele>
        <time>2015-05-10T05:42:28Z</time>
      </trkpt>
      <trkpt lat="45.7222" lon="4.5333">
        <ele>422.6</ele>
        <time>2015-05-10T05:42:33Z</time>
      </trkpt>
      <trkpt lat="45.72217" lon="4.53348">
        <ele>423.7</ele>
        <time>2015-05-10T05:42:38Z</time>
      </trkpt>
      <trkpt lat="45.72218" lon="4.53367">
        <ele>424.7</ele>
        <time>2015-05-10T05:42:43Z</time>
      </trkpt>
      <trkpt lat="45.72223" lon="4.53387">
        <ele>425.5</ele>
        <time>2015-05-10T05:42:48Z</time>
      </trkpt>
      <trkpt lat="45.72225" lon="4.53405">
        <ele>425.9</ele>
        <time>2015-05-10T05:42:53Z</time>
      </trkpt>
      <trkpt lat="45.72227" lon="4.53423">
        <ele>428</ele>
        <time>2015-05-10T05:42:58Z</time>
      </trkpt>
      <trkpt lat="45.7223" lon="4.5344">
        <ele>429</ele>
        <time>2015-05-10T05:43:03Z</time>
      </trkpt>
      <trkpt lat="45.72232" lon="4.53457">
        <ele>430.1</ele>
        <time>2015-05-10T05:43:08Z</time>
      </trkpt>
      <trkpt lat="45.7224" lon="4.53477">
        <ele>430.3</ele>
        <time>2015-05-10T05:43:13Z</time>
      </trkpt>
      <trkpt lat="45.72248" lon="4.53492">
        <ele>430.4</ele>
        <time>2015-05-10T05:43:18Z</time>
      </trkpt>
      <trkpt lat="45.72258" lon="4.53508">
        <ele>431.6</ele>
        <time>2015-05-10T05:43:23Z</time>
      </trkpt>
      <trkpt lat="45.72263" lon="4.53523">
        <ele>431.1</ele>
        <time>2015-05-10T05:43:28Z</time>
      </trkpt>
      <trkpt lat="45.72263" lon="4.53542">
        <ele>433.2</ele>
        <time>2015-05-10T05:43:33Z</time>
      </trkpt>
      <trkpt lat="45.72267" lon="4.53558">
        <ele>434.6</ele>
        <time>2015-05-10T05:43:38Z</time>
      </trkpt>
      <trkpt lat="45.72272" lon="4.53573">
        <ele>434.6</ele>
        <time>2015-05-10T05:43:43Z</time>
      </trkpt>
      <trkpt lat="45.72275" lon="4.5359">
        <ele>437</ele>
        <time>2015-05-10T05:43:48Z</time>
      </trkpt>
      <trkpt lat="45.72278" lon="4.53608">
        <ele>437.3</ele>
        <time>2015-05-10T05:43:53Z</time>
      </trkpt>
      <trkpt lat="45.72283" lon="4.53627">
        <ele>437.5</ele>
        <time>2015-05-10T05:43:58Z</time>
      </trkpt>
      <trkpt lat="45.72288" lon="4.53645">
        <ele>437.6</ele>
        <time>2015-05-10T05:44:03Z</time>
      </trkpt>
      <trkpt lat="45.72293" lon="4.53663">
        <ele>438.8</ele>
        <time>2015-05-10T05:44:08Z</time>
      </trkpt>
      <trkpt lat="45.72298" lon="4.53683">
        <ele>439.2</ele>
        <time>2015-05-10T05:44:13Z</time>
      </trkpt>
      <trkpt lat="45.72303" lon="4.53703">
        <ele>439.2</ele>
        <time>2015-05-10T05:44:18Z</time>
      </trkpt>
      <trkpt lat="45.72308" lon="4.5372">
        <ele>441.1</ele>
        <time>2015-05-10T05:44:23Z</time>
      </trkpt>
      <trkpt lat="45.72312" lon="4.5374">
        <ele>442.5</ele>
        <time>2015-05-10T05:44:28Z</time>
      </trkpt>
      <trkpt lat="45.72313" lon="4.53758">
        <ele>443.1</ele>
        <time>2015-05-10T05:44:33Z</time>
      </trkpt>
      <trkpt lat="45.72317" lon="4.53777">
        <ele>444.9</ele>
        <time>2015-05-10T05:44:38Z</time>
      </trkpt>
      <trkpt lat="45.7232" lon="4.53797">
        <ele>445.8</ele>
        <time>2015-05-10T05:44:43Z</time>
      </trkpt>
      <trkpt lat="45.72325" lon="4.53815">
        <ele>445.5</ele>
        <time>2015-05-10T05:44:48Z</time>
      </trkpt>
      <trkpt lat="45.72328" lon="4.53832">
        <ele>448.3</ele>
        <time>2015-05-10T05:44:53Z</time>
      </trkpt>
      <trkpt lat="45.72333" lon="4.53848">
        <ele>449.2</ele>
        <time>2015-05-10T05:44:58Z</time>
      </trkpt>
      <trkpt lat="45.7234" lon="4.53867">
        <ele>450</ele>
        <time>2015-05-10T05:45:03Z</time>
      </trkpt>
      <trkpt lat="45.7235" lon="4.53885">
        <ele>449.5</ele>
        <time>2015-05-10T05:45:08Z</time>
      </trkpt>
      <trkpt lat="45.72362" lon="4.53902">
        <ele>448.9</ele>
        <time>2015-05-10T05:45:13Z</time>
      </trkpt>
      <trkpt lat="45.72377" lon="4.5392">
        <ele>449.3</ele>
        <time>2015-05-10T05:45:18Z</time>
      </trkpt>
      <trkpt lat="45.72393" lon="4.53943">
        <ele>447.9</ele>
        <time>2015-05-10T05:45:23Z</time>
      </trkpt>
      <trkpt lat="45.72407" lon="4.53977">
        <ele>447.3</ele>
        <time>2015-05-10T05:45:28Z</time>
      </trkpt>
      <trkpt lat="45.72413" lon="4.54008">
        <ele>447.5</ele>
        <time>2015-05-10T05:45:33Z</time>
      </trkpt>
      <trkpt lat="45.72422" lon="4.54037">
        <ele>447.6</ele>
        <time>2015-05-10T05:45:38Z</time>
      </trkpt>
      <trkpt lat="45.72433" lon="4.5406">
        <ele>449.5</ele>
        <time>2015-05-10T05:45:43Z</time>
      </trkpt>
      <trkpt lat="45.72442" lon="4.54085">
        <ele>448</ele>
        <time>2015-05-10T05:45:48Z</time>
      </trkpt>
      <trkpt lat="45.7245" lon="4.54117">
        <ele>449.7</ele>
        <time>2015-05-10T05:45:53Z</time>
      </trkpt>
      <trkpt lat="45.72455" lon="4.54152">
        <ele>448.7</ele>
        <time>2015-05-10T05:45:58Z</time>
      </trkpt>
      <trkpt lat="45.72458" lon="4.54187">
        <ele>448.6</ele>
        <time>2015-05-10T05:46:03Z</time>
      </trkpt>
      <trkpt lat="45.72462" lon="4.5422">
        <ele>449.6</ele>
        <time>2015-05-10T05:46:08Z</time>
      </trkpt>
      <trkpt lat="45.72463" lon="4.5425">
        <ele>449.5</ele>
        <time>2015-05-10T05:46:13Z</time>
      </trkpt>
      <trkpt lat="45.72463" lon="4.54277">
        <ele>450.2</ele>
        <time>2015-05-10T05:46:18Z</time>
      </trkpt>
      <trkpt lat="45.72463" lon="4.543">
        <ele>451</ele>
        <time>2015-05-10T05:46:23Z</time>
      </trkpt>
      <trkpt lat="45.7246" lon="4.5432">
        <ele>452.1</ele>
        <time>2015-05-10T05:46:28Z</time>
      </trkpt>
      <trkpt lat="45.7246" lon="4.54343">
        <ele>453.7</ele>
        <time>2015-05-10T05:46:33Z</time>
      </trkpt>
      <trkpt lat="45.7246" lon="4.54363">
        <ele>454.4</ele>
        <time>2015-05-10T05:46:38Z</time>
      </trkpt>
      <trkpt lat="45.72462" lon="4.54383">
        <ele>456.7</ele>
        <time>2015-05-10T05:46:43Z</time>
      </trkpt>
      <trkpt lat="45.72463" lon="4.54402">
        <ele>455.8</ele>
        <time>2015-05-10T05:46:48Z</time>
      </trkpt>
      <trkpt lat="45.7247" lon="4.54422">
        <ele>456.6</ele>
        <time>2015-05-10T05:46:53Z</time>
      </trkpt>
      <trkpt lat="45.72482" lon="4.54447">
        <ele>454.5</ele>
        <time>2015-05-10T05:46:58Z</time>
      </trkpt>
      <trkpt lat="45.72492" lon="4.54477">
        <ele>452.3</ele>
        <time>2015-05-10T05:47:03Z</time>
      </trkpt>
      <trkpt lat="45.72498" lon="4.54512">
        <ele>453</ele>
        <time>2015-05-10T05:47:08Z</time>
      </trkpt>
      <trkpt lat="45.72508" lon="4.5454">
        <ele>451.3</ele>
        <time>2015-05-10T05:47:13Z</time>
      </trkpt>
      <trkpt lat="45.72522" lon="4.54553">
        <ele>451.1</ele>
        <time>2015-05-10T05:47:18Z</time>
      </trkpt>
      <trkpt lat="45.7254" lon="4.5457">
        <ele>450.8</ele>
        <time>2015-05-10T05:47:23Z</time>
      </trkpt>
      <trkpt lat="45.7256" lon="4.5459">
        <ele>449.5</ele>
        <time>2015-05-10T05:47:28Z</time>
      </trkpt>
      <trkpt lat="45.72575" lon="4.5461">
        <ele>448</ele>
        <time>2015-05-10T05:47:33Z</time>
      </trkpt>
      <trkpt lat="45.72595" lon="4.5463">
        <ele>449</ele>
        <time>2015-05-10T05:47:38Z</time>
      </trkpt>
      <trkpt lat="45.72607" lon="4.54647">
        <ele>448.8</ele>
        <time>2015-05-10T05:47:43Z</time>
      </trkpt>
      <trkpt lat="45.72622" lon="4.54665">
        <ele>447.8</ele>
        <time>2015-05-10T05:47:48Z</time>
      </trkpt>
      <trkpt lat="45.72635" lon="4.54683">
        <ele>449.8</ele>
        <time>2015-05-10T05:47:53Z</time>
      </trkpt>
      <trkpt lat="45.72648" lon="4.547">
        <ele>450.8</ele>
        <time>2015-05-10T05:47:58Z</time>
      </trkpt>
      <trkpt lat="45.72663" lon="4.54713">
        <ele>452.6</ele>
        <time>2015-05-10T05:48:03Z</time>
      </trkpt>
      <trkpt lat="45.72677" lon="4.54725">
        <ele>453.4</ele>
        <time>2015-05-10T05:48:08Z</time>
      </trkpt>
      <trkpt lat="45.72692" lon="4.54738">
        <ele>455.3</ele>
        <time>2015-05-10T05:48:13Z</time>
      </trkpt>
      <trkpt lat="45.72705" lon="4.54752">
        <ele>457.4</ele>
        <time>2015-05-10T05:48:18Z</time>
      </trkpt>
      <trkpt lat="45.72717" lon="4.54765">
        <ele>458.9</ele>
        <time>2015-05-10T05:48:23Z</time>
      </trkpt>
      <trkpt lat="45.72728" lon="4.54778">
        <ele>460.4</ele>
        <time>2015-05-10T05:48:28Z</time>
      </trkpt>
      <trkpt lat="45.72738" lon="4.54795">
        <ele>460.2</ele>
        <time>2015-05-10T05:48:33Z</time>
      </trkpt>
      <trkpt lat="45.7275" lon="4.54812">
        <ele>461.7</ele>
        <time>2015-05-10T05:48:38Z</time>
      </trkpt>
      <trkpt lat="45.7276" lon="4.54828">
        <ele>461.7</ele>
        <time>2015-05-10T05:48:43Z</time>
      </trkpt>
      <trkpt lat="45.72768" lon="4.54847">
        <ele>463.3</ele>
        <time>2015-05-10T05:48:48Z</time>
      </trkpt>
      <trkpt lat="45.7278" lon="4.54863">
        <ele>463.6</ele>
        <time>2015-05-10T05:48:53Z</time>
      </trkpt>
      <trkpt lat="45.72792" lon="4.54882">
        <ele>464.1</ele>
        <time>2015-05-10T05:48:58Z</time>
      </trkpt>
      <trkpt lat="45.72802" lon="4.54895">
        <ele>464.1</ele>
        <time>2015-05-10T05:49:03Z</time>
      </trkpt>
      <trkpt lat="45.72805" lon="4.54905">
        <ele>464.6</ele>
        <time>2015-05-10T05:49:08Z</time>
      </trkpt>
      <trkpt lat="45.72795" lon="4.54907">
        <ele>466.5</ele>
        <time>2015-05-10T05:49:13Z</time>
      </trkpt>
      <trkpt lat="45.72787" lon="4.54905">
        <ele>468.7</ele>
        <time>2015-05-10T05:49:18Z</time>
      </trkpt>
      <trkpt lat="45.72778" lon="4.549">
        <ele>469.5</ele>
        <time>2015-05-10T05:49:23Z</time>
      </trkpt>
      <trkpt lat="45.7277" lon="4.54897">
        <ele>471</ele>
        <time>2015-05-10T05:49:28Z</time>
      </trkpt>
      <trkpt lat="45.72762" lon="4.54893">
        <ele>471.8</ele>
        <time>2015-05-10T05:49:33Z</time>
      </trkpt>
      <trkpt lat="45.72753" lon="4.5489">
        <ele>473.3</ele>
        <time>2015-05-10T05:49:38Z</time>
      </trkpt>
      <trkpt lat="45.72745" lon="4.54887">
        <ele>474.8</ele>
        <time>2015-05-10T05:49:43Z</time>
      </trkpt>
      <trkpt lat="45.72737" lon="4.54883">
        <ele>475.7</ele>
        <time>2015-05-10T05:49:48Z</time>
      </trkpt>
      <trkpt lat="45.72728" lon="4.54878">
        <ele>476.7</ele>
        <time>2015-05-10T05:49:53Z</time>
      </trkpt>
      <trkpt lat="45.72718" lon="4.54875">
        <ele>477.6</ele>
        <time>2015-05-10T05:49:58Z</time>
      </trkpt>
      <trkpt lat="45.72708" lon="4.54872">
        <ele>478.3</ele>
        <time>2015-05-10T05:50:03Z</time>
      </trkpt>
      <trkpt lat="45.72698" lon="4.54868">
        <ele>479.5</ele>
        <time>2015-05-10T05:50:08Z</time>
      </trkpt>
      <trkpt lat="45.72687" lon="4.54867">
        <ele>480.3</ele>
        <time>2015-05-10T05:50:13Z</time>
      </trkpt>
      <trkpt lat="45.72673" lon="4.54863">
        <ele>481.1</ele>
        <time>2015-05-10T05:50:18Z</time>
      </trkpt>
      <trkpt lat="45.7266" lon="4.54863">
        <ele>480.5</ele>
        <time>2015-05-10T05:50:23Z</time>
      </trkpt>
      <trkpt lat="45.72648" lon="4.54865">
        <ele>481.7</ele>
        <time>2015-05-10T05:50:28Z</time>
      </trkpt>
      <trkpt lat="45.72635" lon="4.54868">
        <ele>483.1</ele>
        <time>2015-05-10T05:50:33Z</time>
      </trkpt>
      <trkpt lat="45.72623" lon="4.54875">
        <ele>483.2</ele>
        <time>2015-05-10T05:50:38Z</time>
      </trkpt>
      <trkpt lat="45.7261" lon="4.54887">
        <ele>482.7</ele>
        <time>2015-05-10T05:50:43Z</time>
      </trkpt>
      <trkpt lat="45.72603" lon="4.54903">
        <ele>482.3</ele>
        <time>2015-05-10T05:50:48Z</time>
      </trkpt>
      <trkpt lat="45.72608" lon="4.54922">
        <ele>482.9</ele>
        <time>2015-05-10T05:50:53Z</time>
      </trkpt>
      <trkpt lat="45.72612" lon="4.5494">
        <ele>483.3</ele>
        <time>2015-05-10T05:50:58Z</time>
      </trkpt>
      <trkpt lat="45.72615" lon="4.5496">
        <ele>484.2</ele>
        <time>2015-05-10T05:51:03Z</time>
      </trkpt>
      <trkpt lat="45.72618" lon="4.54977">
        <ele>484.6</ele>
        <time>2015-05-10T05:51:08Z</time>
      </trkpt>
      <trkpt lat="45.72622" lon="4.54995">
        <ele>486.1</ele>
        <time>2015-05-10T05:51:13Z</time>
      </trkpt>
      <trkpt lat="45.72623" lon="4.55012">
        <ele>487.1</ele>
        <time>2015-05-10T05:51:18Z</time>
      </trkpt>
      <trkpt lat="45.72625" lon="4.5503">
        <ele>487.9</ele>
        <time>2015-05-10T05:51:23Z</time>
      </trkpt>
      <trkpt lat="45.72625" lon="4.55048">
        <ele>488.9</ele>
        <time>2015-05-10T05:51:28Z</time>
      </trkpt>
      <trkpt lat="45.72623" lon="4.55065">
        <ele>489.5</ele>
        <time>2015-05-10T05:51:33Z</time>
      </trkpt>
      <trkpt lat="45.7262" lon="4.55082">
        <ele>489.9</ele>
        <time>2015-05-10T05:51:38Z</time>
      </trkpt>
      <trkpt lat="45.72617" lon="4.55097">
        <ele>491.6</ele>
        <time>2015-05-10T05:51:43Z</time>
      </trkpt>
      <trkpt lat="45.72613" lon="4.55112">
        <ele>492.5</ele>
        <time>2015-05-10T05:51:48Z</time>
      </trkpt>
      <trkpt lat="45.7261" lon="4.55125">
        <ele>494.2</ele>
        <time>2015-05-10T05:51:53Z</time>
      </trkpt>
      <trkpt lat="45.72605" lon="4.55138">
        <ele>495.4</ele>
        <time>2015-05-10T05:51:58Z</time>
      </trkpt>
      <trkpt lat="45.72602" lon="4.55153">
        <ele>496.5</ele>
        <time>2015-05-10T05:52:03Z</time>
      </trkpt>
      <trkpt lat="45.72598" lon="4.55168">
        <ele>498.2</ele>
        <time>2015-05-10T05:52:08Z</time>
      </trkpt>
      <trkpt lat="45.72595" lon="4.55183">
        <ele>499.4</ele>
        <time>2015-05-10T05:52:13Z</time>
      </trkpt>
      <trkpt lat="45.72592" lon="4.55197">
        <ele>500</ele>
        <time>2015-05-10T05:52:18Z</time>
      </trkpt>
      <trkpt lat="45.72587" lon="4.55213">
        <ele>501.4</ele>
        <time>2015-05-10T05:52:23Z</time>
      </trkpt>
      <trkpt lat="45.72583" lon="4.55227">
        <ele>503.1</ele>
        <time>2015-05-10T05:52:28Z</time>
      </trkpt>
      <trkpt lat="45.72578" lon="4.55242">
        <ele>504</ele>
        <time>2015-05-10T05:52:33Z</time>
      </trkpt>
      <trkpt lat="45.72577" lon="4.55257">
        <ele>505</ele>
        <time>2015-05-10T05:52:38Z</time>
      </trkpt>
      <trkpt lat="45.72572" lon="4.55272">
        <ele>505.4</ele>
        <time>2015-05-10T05:52:43Z</time>
      </trkpt>
      <trkpt lat="45.72568" lon="4.55287">
        <ele>507.5</ele>
        <time>2015-05-10T05:52:48Z</time>
      </trkpt>
      <trkpt lat="45.72565" lon="4.553">
        <ele>508.3</ele>
        <time>2015-05-10T05:52:53Z</time>
      </trkpt>
      <trkpt lat="45.72563" lon="4.55313">
        <ele>510.5</ele>
        <time>2015-05-10T05:52:58Z</time>
      </trkpt>
      <trkpt lat="45.7256" lon="4.55317">
        <ele>510.7</ele>
        <time>2015-05-10T05:53:03Z</time>
      </trkpt>
      <trkpt lat="45.7256" lon="4.5532">
        <ele>510.2</ele>
        <time>2015-05-10T05:53:18Z</time>
      </trkpt>
      <trkpt lat="45.72558" lon="4.55323">
        <ele>509.8</ele>
        <time>2015-05-10T05:53:23Z</time>
      </trkpt>
      <trkpt lat="45.72555" lon="4.55322">
        <ele>510.1</ele>
        <time>2015-05-10T05:54:28Z</time>
      </trkpt>
      <trkpt lat="45.72557" lon="4.5532">
        <ele>510.4</ele>
        <time>2015-05-10T05:54:33Z</time>
      </trkpt>
      <trkpt lat="45.72557" lon="4.55322">
        <ele>510.2</ele>
        <time>2015-05-10T05:56:43Z</time>
      </trkpt>
      <trkpt lat="45.7256" lon="4.55333">
        <ele>509.9</ele>
        <time>2015-05-10T05:56:48Z</time>
      </trkpt>
      <trkpt lat="45.7256" lon="4.55345">
        <ele>510.5</ele>
        <time>2015-05-10T05:56:53Z</time>
      </trkpt>
      <trkpt lat="45.72558" lon="4.55358">
        <ele>512.8</ele>
        <time>2015-05-10T05:56:58Z</time>
      </trkpt>
      <trkpt lat="45.72558" lon="4.5537">
        <ele>514.6</ele>
        <time>2015-05-10T05:57:03Z</time>
      </trkpt>
      <trkpt lat="45.72555" lon="4.55382">
        <ele>515.5</ele>
        <time>2015-05-10T05:57:08Z</time>
      </trkpt>
      <trkpt lat="45.72553" lon="4.55393">
        <ele>516</ele>
        <time>2015-05-10T05:57:13Z</time>
      </trkpt>
      <trkpt lat="45.72548" lon="4.55403">
        <ele>517.3</ele>
        <time>2015-05-10T05:57:18Z</time>
      </trkpt>
      <trkpt lat="45.72543" lon="4.55415">
        <ele>518.9</ele>
        <time>2015-05-10T05:57:23Z</time>
      </trkpt>
      <trkpt lat="45.72538" lon="4.55427">
        <ele>519.7</ele>
        <time>2015-05-10T05:57:28Z</time>
      </trkpt>
      <trkpt lat="45.72533" lon="4.55433">
        <ele>521.3</ele>
        <time>2015-05-10T05:57:33Z</time>
      </trkpt>
      <trkpt lat="45.72527" lon="4.55443">
        <ele>523.5</ele>
        <time>2015-05-10T05:57:38Z</time>
      </trkpt>
      <trkpt lat="45.72522" lon="4.55455">
        <ele>524.5</ele>
        <time>2015-05-10T05:57:43Z</time>
      </trkpt>
      <trkpt lat="45.72515" lon="4.55467">
        <ele>526.1</ele>
        <time>2015-05-10T05:57:48Z</time>
      </trkpt>
      <trkpt lat="45.7251" lon="4.55478">
        <ele>525.1</ele>
        <time>2015-05-10T05:57:53Z</time>
      </trkpt>
      <trkpt lat="45.72497" lon="4.55497">
        <ele>523.3</ele>
        <time>2015-05-10T05:57:58Z</time>
      </trkpt>
      <trkpt lat="45.72482" lon="4.55513">
        <ele>524.6</ele>
        <time>2015-05-10T05:58:03Z</time>
      </trkpt>
      <trkpt lat="45.72462" lon="4.55535">
        <ele>522</ele>
        <time>2015-05-10T05:58:08Z</time>
      </trkpt>
      <trkpt lat="45.72442" lon="4.55555">
        <ele>519.3</ele>
        <time>2015-05-10T05:58:13Z</time>
      </trkpt>
      <trkpt lat="45.72415" lon="4.5558">
        <ele>518.8</ele>
        <time>2015-05-10T05:58:18Z</time>
      </trkpt>
      <trkpt lat="45.72388" lon="4.5561">
        <ele>514.4</ele>
        <time>2015-05-10T05:58:23Z</time>
      </trkpt>
      <trkpt lat="45.72372" lon="4.55632">
        <ele>514.8</ele>
        <time>2015-05-10T05:58:28Z</time>
      </trkpt>
      <trkpt lat="45.72358" lon="4.55648">
        <ele>517.4</ele>
        <time>2015-05-10T05:58:33Z</time>
      </trkpt>
      <trkpt lat="45.72348" lon="4.55663">
        <ele>517.1</ele>
        <time>2015-05-10T05:58:38Z</time>
      </trkpt>
      <trkpt lat="45.7234" lon="4.5568">
        <ele>518.4</ele>
        <time>2015-05-10T05:58:43Z</time>
      </trkpt>
      <trkpt lat="45.72335" lon="4.55695">
        <ele>519.5</ele>
        <time>2015-05-10T05:58:48Z</time>
      </trkpt>
      <trkpt lat="45.72333" lon="4.55708">
        <ele>521.5</ele>
        <time>2015-05-10T05:58:53Z</time>
      </trkpt>
      <trkpt lat="45.7233" lon="4.55723">
        <ele>521.2</ele>
        <time>2015-05-10T05:58:58Z</time>
      </trkpt>
      <trkpt lat="45.72325" lon="4.55738">
        <ele>521.9</ele>
        <time>2015-05-10T05:59:03Z</time>
      </trkpt>
      <trkpt lat="45.72323" lon="4.55753">
        <ele>523.4</ele>
        <time>2015-05-10T05:59:08Z</time>
      </trkpt>
      <trkpt lat="45.72318" lon="4.5577">
        <ele>524.6</ele>
        <time>2015-05-10T05:59:13Z</time>
      </trkpt>
      <trkpt lat="45.72315" lon="4.55788">
        <ele>525.8</ele>
        <time>2015-05-10T05:59:18Z</time>
      </trkpt>
      <trkpt lat="45.72315" lon="4.55802">
        <ele>526.5</ele>
        <time>2015-05-10T05:59:23Z</time>
      </trkpt>
      <trkpt lat="45.72312" lon="4.55815">
        <ele>527.8</ele>
        <time>2015-05-10T05:59:28Z</time>
      </trkpt>
      <trkpt lat="45.72312" lon="4.5583">
        <ele>528.3</ele>
        <time>2015-05-10T05:59:33Z</time>
      </trkpt>
      <trkpt lat="45.72312" lon="4.55847">
        <ele>528.6</ele>
        <time>2015-05-10T05:59:38Z</time>
      </trkpt>
      <trkpt lat="45.72312" lon="4.55863">
        <ele>528.4</ele>
        <time>2015-05-10T05:59:43Z</time>
      </trkpt>
      <trkpt lat="45.72312" lon="4.55878">
        <ele>528.1</ele>
        <time>2015-05-10T05:59:48Z</time>
      </trkpt>
      <trkpt lat="45.72312" lon="4.55892">
        <ele>529.4</ele>
        <time>2015-05-10T05:59:53Z</time>
      </trkpt>
      <trkpt lat="45.72312" lon="4.55892">
        <ele>529.4</ele>
        <time>2015-05-10T05:59:58Z</time>
      </trkpt>
      <trkpt lat="45.72312" lon="4.55892">
        <ele>528.8</ele>
        <time>2015-05-10T06:00:03Z</time>
      </trkpt>
      <trkpt lat="45.72315" lon="4.55908">
        <ele>529.2</ele>
        <time>2015-05-10T06:00:08Z</time>
      </trkpt>
      <trkpt lat="45.7232" lon="4.55925">
        <ele>527.8</ele>
        <time>2015-05-10T06:00:13Z</time>
      </trkpt>
      <trkpt lat="45.72322" lon="4.55943">
        <ele>527.5</ele>
        <time>2015-05-10T06:00:18Z</time>
      </trkpt>
      <trkpt lat="45.72327" lon="4.55967">
        <ele>527.4</ele>
        <time>2015-05-10T06:00:23Z</time>
      </trkpt>
      <trkpt lat="45.72333" lon="4.55988">
        <ele>528.5</ele>
        <time>2015-05-10T06:00:28Z</time>
      </trkpt>
      <trkpt lat="45.72337" lon="4.56003">
        <ele>529.9</ele>
        <time>2015-05-10T06:00:33Z</time>
      </trkpt>
      <trkpt lat="45.72338" lon="4.56017">
        <ele>531</ele>
        <time>2015-05-10T06:00:38Z</time>
      </trkpt>
      <trkpt lat="45.72342" lon="4.5603">
        <ele>533.7</ele>
        <time>2015-05-10T06:00:43Z</time>
      </trkpt>
      <trkpt lat="45.72342" lon="4.56043">
        <ele>534.1</ele>
        <time>2015-05-10T06:00:48Z</time>
      </trkpt>
      <trkpt lat="45.72342" lon="4.56055">
        <ele>535.8</ele>
        <time>2015-05-10T06:00:53Z</time>
      </trkpt>
      <trkpt lat="45.7234" lon="4.56068">
        <ele>538.7</ele>
        <time>2015-05-10T06:00:58Z</time>
      </trkpt>
      <trkpt lat="45.7234" lon="4.56083">
        <ele>539.5</ele>
        <time>2015-05-10T06:01:03Z</time>
      </trkpt>
      <trkpt lat="45.7234" lon="4.56098">
        <ele>540.6</ele>
        <time>2015-05-10T06:01:08Z</time>
      </trkpt>
      <trkpt lat="45.7234" lon="4.56112">
        <ele>541.8</ele>
        <time>2015-05-10T06:01:13Z</time>
      </trkpt>
      <trkpt lat="45.72337" lon="4.56123">
        <ele>542.8</ele>
        <time>2015-05-10T06:01:18Z</time>
      </trkpt>
      <trkpt lat="45.72333" lon="4.56135">
        <ele>544.6</ele>
        <time>2015-05-10T06:01:23Z</time>
      </trkpt>
      <trkpt lat="45.72328" lon="4.56148">
        <ele>544.4</ele>
        <time>2015-05-10T06:01:28Z</time>
      </trkpt>
      <trkpt lat="45.7232" lon="4.56163">
        <ele>545.8</ele>
        <time>2015-05-10T06:01:33Z</time>
      </trkpt>
      <trkpt lat="45.72312" lon="4.56173">
        <ele>547.9</ele>
        <time>2015-05-10T06:01:38Z</time>
      </trkpt>
      <trkpt lat="45.72305" lon="4.56182">
        <ele>548.3</ele>
        <time>2015-05-10T06:01:43Z</time>
      </trkpt>
      <trkpt lat="45.723" lon="4.5619">
        <ele>550.1</ele>
        <time>2015-05-10T06:01:48Z</time>
      </trkpt>
      <trkpt lat="45.72295" lon="4.56198">
        <ele>550.8</ele>
        <time>2015-05-10T06:01:53Z</time>
      </trkpt>
      <trkpt lat="45.72288" lon="4.56208">
        <ele>552.1</ele>
        <time>2015-05-10T06:01:58Z</time>
      </trkpt>
      <trkpt lat="45.72282" lon="4.5622">
        <ele>552.4</ele>
        <time>2015-05-10T06:02:03Z</time>
      </trkpt>
      <trkpt lat="45.72277" lon="4.56228">
        <ele>553.5</ele>
        <time>2015-05-10T06:02:08Z</time>
      </trkpt>
      <trkpt lat="45.7227" lon="4.56237">
        <ele>554.5</ele>
        <time>2015-05-10T06:02:13Z</time>
      </trkpt>
      <trkpt lat="45.72265" lon="4.5625">
        <ele>554</ele>
        <time>2015-05-10T06:02:18Z</time>
      </trkpt>
      <trkpt lat="45.72257" lon="4.56262">
        <ele>554.7</ele>
        <time>2015-05-10T06:02:23Z</time>
      </trkpt>
      <trkpt lat="45.7225" lon="4.56275">
        <ele>556.1</ele>
        <time>2015-05-10T06:02:28Z</time>
      </trkpt>
      <trkpt lat="45.72242" lon="4.56287">
        <ele>557.4</ele>
        <time>2015-05-10T06:02:33Z</time>
      </trkpt>
      <trkpt lat="45.72237" lon="4.56297">
        <ele>558.6</ele>
        <time>2015-05-10T06:02:38Z</time>
      </trkpt>
      <trkpt lat="45.72228" lon="4.56308">
        <ele>559.8</ele>
        <time>2015-05-10T06:02:43Z</time>
      </trkpt>
      <trkpt lat="45.72222" lon="4.56323">
        <ele>560.4</ele>
        <time>2015-05-10T06:02:48Z</time>
      </trkpt>
      <trkpt lat="45.72218" lon="4.56333">
        <ele>562.3</ele>
        <time>2015-05-10T06:02:53Z</time>
      </trkpt>
      <trkpt lat="45.72213" lon="4.56345">
        <ele>563.4</ele>
        <time>2015-05-10T06:02:58Z</time>
      </trkpt>
      <trkpt lat="45.7221" lon="4.56353">
        <ele>565</ele>
        <time>2015-05-10T06:03:03Z</time>
      </trkpt>
      <trkpt lat="45.72205" lon="4.56363">
        <ele>566.1</ele>
        <time>2015-05-10T06:03:08Z</time>
      </trkpt>
      <trkpt lat="45.72198" lon="4.56375">
        <ele>567.4</ele>
        <time>2015-05-10T06:03:13Z</time>
      </trkpt>
      <trkpt lat="45.72195" lon="4.56387">
        <ele>568</ele>
        <time>2015-05-10T06:03:18Z</time>
      </trkpt>
      <trkpt lat="45.7219" lon="4.56398">
        <ele>569.3</ele>
        <time>2015-05-10T06:03:23Z</time>
      </trkpt>
      <trkpt lat="45.72183" lon="4.5641">
        <ele>570.9</ele>
        <time>2015-05-10T06:03:28Z</time>
      </trkpt>
      <trkpt lat="45.7218" lon="4.5642">
        <ele>571.9</ele>
        <time>2015-05-10T06:03:33Z</time>
      </trkpt>
      <trkpt lat="45.72175" lon="4.5643">
        <ele>571.6</ele>
        <time>2015-05-10T06:03:38Z</time>
      </trkpt>
      <trkpt lat="45.7217" lon="4.5644">
        <ele>573.9</ele>
        <time>2015-05-10T06:03:43Z</time>
      </trkpt>
      <trkpt lat="45.72165" lon="4.5645">
        <ele>574.6</ele>
        <time>2015-05-10T06:03:48Z</time>
      </trkpt>
      <trkpt lat="45.72163" lon="4.56458">
        <ele>575.4</ele>
        <time>2015-05-10T06:03:53Z</time>
      </trkpt>
      <trkpt lat="45.72163" lon="4.56458">
        <ele>577.4</ele>
        <time>2015-05-10T06:03:58Z</time>
      </trkpt>
      <trkpt lat="45.7216" lon="4.56468">
        <ele>578.7</ele>
        <time>2015-05-10T06:04:03Z</time>
      </trkpt>
      <trkpt lat="45.72153" lon="4.56487">
        <ele>579.6</ele>
        <time>2015-05-10T06:04:08Z</time>
      </trkpt>
      <trkpt lat="45.72152" lon="4.565">
        <ele>580.8</ele>
        <time>2015-05-10T06:04:13Z</time>
      </trkpt>
      <trkpt lat="45.72148" lon="4.5651">
        <ele>582.1</ele>
        <time>2015-05-10T06:04:18Z</time>
      </trkpt>
      <trkpt lat="45.72147" lon="4.56523">
        <ele>583.5</ele>
        <time>2015-05-10T06:04:23Z</time>
      </trkpt>
      <trkpt lat="45.72145" lon="4.56537">
        <ele>584.9</ele>
        <time>2015-05-10T06:04:28Z</time>
      </trkpt>
      <trkpt lat="45.72142" lon="4.56548">
        <ele>585.6</ele>
        <time>2015-05-10T06:04:33Z</time>
      </trkpt>
      <trkpt lat="45.72138" lon="4.56558">
        <ele>587.2</ele>
        <time>2015-05-10T06:04:38Z</time>
      </trkpt>
      <trkpt lat="45.72135" lon="4.5657">
        <ele>588.6</ele>
        <time>2015-05-10T06:04:43Z</time>
      </trkpt>
      <trkpt lat="45.72133" lon="4.5658">
        <ele>590.1</ele>
        <time>2015-05-10T06:04:48Z</time>
      </trkpt>
      <trkpt lat="45.72132" lon="4.56593">
        <ele>590.9</ele>
        <time>2015-05-10T06:04:53Z</time>
      </trkpt>
      <trkpt lat="45.7213" lon="4.56605">
        <ele>591.5</ele>
        <time>2015-05-10T06:04:58Z</time>
      </trkpt>
      <trkpt lat="45.72125" lon="4.56613">
        <ele>592.5</ele>
        <time>2015-05-10T06:05:03Z</time>
      </trkpt>
      <trkpt lat="45.72122" lon="4.56625">
        <ele>593.5</ele>
        <time>2015-05-10T06:05:08Z</time>
      </trkpt>
      <trkpt lat="45.7212" lon="4.5664">
        <ele>595.1</ele>
        <time>2015-05-10T06:05:13Z</time>
      </trkpt>
      <trkpt lat="45.72118" lon="4.5665">
        <ele>595.8</ele>
        <time>2015-05-10T06:05:18Z</time>
      </trkpt>
      <trkpt lat="45.72118" lon="4.56657">
        <ele>597.1</ele>
        <time>2015-05-10T06:05:23Z</time>
      </trkpt>
      <trkpt lat="45.72117" lon="4.56667">
        <ele>598.6</ele>
        <time>2015-05-10T06:05:28Z</time>
      </trkpt>
      <trkpt lat="45.72115" lon="4.56677">
        <ele>600.1</ele>
        <time>2015-05-10T06:05:33Z</time>
      </trkpt>
      <trkpt lat="45.72113" lon="4.56688">
        <ele>601.4</ele>
        <time>2015-05-10T06:05:38Z</time>
      </trkpt>
      <trkpt lat="45.7211" lon="4.56698">
        <ele>602.4</ele>
        <time>2015-05-10T06:05:43Z</time>
      </trkpt>
      <trkpt lat="45.72108" lon="4.56708">
        <ele>603.2</ele>
        <time>2015-05-10T06:05:48Z</time>
      </trkpt>
      <trkpt lat="45.72108" lon="4.56718">
        <ele>604.7</ele>
        <time>2015-05-10T06:05:53Z</time>
      </trkpt>
      <trkpt lat="45.72108" lon="4.5673">
        <ele>605.7</ele>
        <time>2015-05-10T06:05:58Z</time>
      </trkpt>
      <trkpt lat="45.72108" lon="4.56743">
        <ele>607</ele>
        <time>2015-05-10T06:06:03Z</time>
      </trkpt>
      <trkpt lat="45.72108" lon="4.56753">
        <ele>606.7</ele>
        <time>2015-05-10T06:06:08Z</time>
      </trkpt>
      <trkpt lat="45.72107" lon="4.56762">
        <ele>609</ele>
        <time>2015-05-10T06:06:13Z</time>
      </trkpt>
      <trkpt lat="45.72105" lon="4.5677">
        <ele>610.4</ele>
        <time>2015-05-10T06:06:18Z</time>
      </trkpt>
      <trkpt lat="45.72102" lon="4.5678">
        <ele>611.3</ele>
        <time>2015-05-10T06:06:23Z</time>
      </trkpt>
      <trkpt lat="45.721" lon="4.56788">
        <ele>612.7</ele>
        <time>2015-05-10T06:06:28Z</time>
      </trkpt>
      <trkpt lat="45.721" lon="4.56797">
        <ele>613.2</ele>
        <time>2015-05-10T06:06:33Z</time>
      </trkpt>
      <trkpt lat="45.72097" lon="4.56808">
        <ele>614.7</ele>
        <time>2015-05-10T06:06:38Z</time>
      </trkpt>
      <trkpt lat="45.72093" lon="4.5682">
        <ele>616.1</ele>
        <time>2015-05-10T06:06:43Z</time>
      </trkpt>
      <trkpt lat="45.72092" lon="4.56832">
        <ele>616.7</ele>
        <time>2015-05-10T06:06:48Z</time>
      </trkpt>
      <trkpt lat="45.72097" lon="4.5684">
        <ele>617</ele>
        <time>2015-05-10T06:06:53Z</time>
      </trkpt>
      <trkpt lat="45.72103" lon="4.56845">
        <ele>618.1</ele>
        <time>2015-05-10T06:06:58Z</time>
      </trkpt>
      <trkpt lat="45.72103" lon="4.56848">
        <ele>617.8</ele>
        <time>2015-05-10T06:07:03Z</time>
      </trkpt>
      <trkpt lat="45.72098" lon="4.5685">
        <ele>616.4</ele>
        <time>2015-05-10T06:18:03Z</time>
      </trkpt>
      <trkpt lat="45.72098" lon="4.5685">
        <ele>616.5</ele>
        <time>2015-05-10T06:18:08Z</time>
      </trkpt>
      <trkpt lat="45.72102" lon="4.56847">
        <ele>616.5</ele>
        <time>2015-05-10T06:18:13Z</time>
      </trkpt>
      <trkpt lat="45.72102" lon="4.56845">
        <ele>616.8</ele>
        <time>2015-05-10T06:18:18Z</time>
      </trkpt>
      <trkpt lat="45.72098" lon="4.56842">
        <ele>616.4</ele>
        <time>2015-05-10T06:18:23Z</time>
      </trkpt>
      <trkpt lat="45.72092" lon="4.5684">
        <ele>616.6</ele>
        <time>2015-05-10T06:18:28Z</time>
      </trkpt>
      <trkpt lat="45.72088" lon="4.56847">
        <ele>615.7</ele>
        <time>2015-05-10T06:18:33Z</time>
      </trkpt>
      <trkpt lat="45.7209" lon="4.5686">
        <ele>615.8</ele>
        <time>2015-05-10T06:18:38Z</time>
      </trkpt>
      <trkpt lat="45.7209" lon="4.56873">
        <ele>616.1</ele>
        <time>2015-05-10T06:18:43Z</time>
      </trkpt>
      <trkpt lat="45.72092" lon="4.56883">
        <ele>616.4</ele>
        <time>2015-05-10T06:18:48Z</time>
      </trkpt>
      <trkpt lat="45.7209" lon="4.56898">
        <ele>615.3</ele>
        <time>2015-05-10T06:18:53Z</time>
      </trkpt>
      <trkpt lat="45.72088" lon="4.56913">
        <ele>615.3</ele>
        <time>2015-05-10T06:18:58Z</time>
      </trkpt>
      <trkpt lat="45.72087" lon="4.56928">
        <ele>614.8</ele>
        <time>2015-05-10T06:19:03Z</time>
      </trkpt>
      <trkpt lat="45.72085" lon="4.5695">
        <ele>614.5</ele>
        <time>2015-05-10T06:19:08Z</time>
      </trkpt>
      <trkpt lat="45.72085" lon="4.5698">
        <ele>613.8</ele>
        <time>2015-05-10T06:19:13Z</time>
      </trkpt>
      <trkpt lat="45.72088" lon="4.57015">
        <ele>612.4</ele>
        <time>2015-05-10T06:19:18Z</time>
      </trkpt>
      <trkpt lat="45.7209" lon="4.57052">
        <ele>612.6</ele>
        <time>2015-05-10T06:19:23Z</time>
      </trkpt>
      <trkpt lat="45.72087" lon="4.57082">
        <ele>611.5</ele>
        <time>2015-05-10T06:19:28Z</time>
      </trkpt>
      <trkpt lat="45.72083" lon="4.57107">
        <ele>612.1</ele>
        <time>2015-05-10T06:19:33Z</time>
      </trkpt>
      <trkpt lat="45.72082" lon="4.57127">
        <ele>611.6</ele>
        <time>2015-05-10T06:19:38Z</time>
      </trkpt>
      <trkpt lat="45.72082" lon="4.5715">
        <ele>611.9</ele>
        <time>2015-05-10T06:19:43Z</time>
      </trkpt>
      <trkpt lat="45.7208" lon="4.57175">
        <ele>612.2</ele>
        <time>2015-05-10T06:19:48Z</time>
      </trkpt>
      <trkpt lat="45.72075" lon="4.57198">
        <ele>613.2</ele>
        <time>2015-05-10T06:19:53Z</time>
      </trkpt>
      <trkpt lat="45.72073" lon="4.5722">
        <ele>614.5</ele>
        <time>2015-05-10T06:19:58Z</time>
      </trkpt>
      <trkpt lat="45.72067" lon="4.57243">
        <ele>615.4</ele>
        <time>2015-05-10T06:20:03Z</time>
      </trkpt>
      <trkpt lat="45.72062" lon="4.57267">
        <ele>616.4</ele>
        <time>2015-05-10T06:20:08Z</time>
      </trkpt>
      <trkpt lat="45.72055" lon="4.57287">
        <ele>617.6</ele>
        <time>2015-05-10T06:20:13Z</time>
      </trkpt>
      <trkpt lat="45.72048" lon="4.57305">
        <ele>618.6</ele>
        <time>2015-05-10T06:20:18Z</time>
      </trkpt>
      <trkpt lat="45.72043" lon="4.57327">
        <ele>620.4</ele>
        <time>2015-05-10T06:20:23Z</time>
      </trkpt>
      <trkpt lat="45.7204" lon="4.57347">
        <ele>622.2</ele>
        <time>2015-05-10T06:20:28Z</time>
      </trkpt>
      <trkpt lat="45.72042" lon="4.57365">
        <ele>623.2</ele>
        <time>2015-05-10T06:20:33Z</time>
      </trkpt>
      <trkpt lat="45.72047" lon="4.57382">
        <ele>624.4</ele>
        <time>2015-05-10T06:20:38Z</time>
      </trkpt>
      <trkpt lat="45.72052" lon="4.574">
        <ele>626</ele>
        <time>2015-05-10T06:20:43Z</time>
      </trkpt>
      <trkpt lat="45.72058" lon="4.57415">
        <ele>627.4</ele>
        <time>2015-05-10T06:20:48Z</time>
      </trkpt>
      <trkpt lat="45.72067" lon="4.57433">
        <ele>628.2</ele>
        <time>2015-05-10T06:20:53Z</time>
      </trkpt>
      <trkpt lat="45.72075" lon="4.57448">
        <ele>629.1</ele>
        <time>2015-05-10T06:20:58Z</time>
      </trkpt>
      <trkpt lat="45.72083" lon="4.57465">
        <ele>630.2</ele>
        <time>2015-05-10T06:21:03Z</time>
      </trkpt>
      <trkpt lat="45.7209" lon="4.57482">
        <ele>630.7</ele>
        <time>2015-05-10T06:21:08Z</time>
      </trkpt>
      <trkpt lat="45.72097" lon="4.575">
        <ele>631.3</ele>
        <time>2015-05-10T06:21:13Z</time>
      </trkpt>
      <trkpt lat="45.72103" lon="4.57518">
        <ele>631.3</ele>
        <time>2015-05-10T06:21:18Z</time>
      </trkpt>
      <trkpt lat="45.7211" lon="4.57538">
        <ele>632.2</ele>
        <time>2015-05-10T06:21:23Z</time>
      </trkpt>
      <trkpt lat="45.72113" lon="4.57558">
        <ele>633.2</ele>
        <time>2015-05-10T06:21:28Z</time>
      </trkpt>
      <trkpt lat="45.72118" lon="4.57578">
        <ele>633.6</ele>
        <time>2015-05-10T06:21:33Z</time>
      </trkpt>
      <trkpt lat="45.72122" lon="4.576">
        <ele>635.2</ele>
        <time>2015-05-10T06:21:38Z</time>
      </trkpt>
      <trkpt lat="45.72123" lon="4.57618">
        <ele>635.8</ele>
        <time>2015-05-10T06:21:43Z</time>
      </trkpt>
      <trkpt lat="45.72128" lon="4.57637">
        <ele>636</ele>
        <time>2015-05-10T06:21:48Z</time>
      </trkpt>
      <trkpt lat="45.72132" lon="4.57655">
        <ele>637.3</ele>
        <time>2015-05-10T06:21:53Z</time>
      </trkpt>
      <trkpt lat="45.72137" lon="4.57673">
        <ele>637.8</ele>
        <time>2015-05-10T06:21:58Z</time>
      </trkpt>
      <trkpt lat="45.72143" lon="4.57688">
        <ele>639.4</ele>
        <time>2015-05-10T06:22:03Z</time>
      </trkpt>
      <trkpt lat="45.72148" lon="4.57703">
        <ele>640.4</ele>
        <time>2015-05-10T06:22:08Z</time>
      </trkpt>
      <trkpt lat="45.72152" lon="4.57715">
        <ele>641.9</ele>
        <time>2015-05-10T06:22:13Z</time>
      </trkpt>
      <trkpt lat="45.72157" lon="4.57728">
        <ele>642.6</ele>
        <time>2015-05-10T06:22:18Z</time>
      </trkpt>
      <trkpt lat="45.7216" lon="4.5774">
        <ele>644.8</ele>
        <time>2015-05-10T06:22:23Z</time>
      </trkpt>
      <trkpt lat="45.72165" lon="4.57753">
        <ele>645.5</ele>
        <time>2015-05-10T06:22:28Z</time>
      </trkpt>
      <trkpt lat="45.72168" lon="4.57767">
        <ele>646.3</ele>
        <time>2015-05-10T06:22:33Z</time>
      </trkpt>
      <trkpt lat="45.72173" lon="4.5778">
        <ele>648.5</ele>
        <time>2015-05-10T06:22:38Z</time>
      </trkpt>
      <trkpt lat="45.72178" lon="4.57793">
        <ele>649.7</ele>
        <time>2015-05-10T06:22:43Z</time>
      </trkpt>
      <trkpt lat="45.72185" lon="4.57807">
        <ele>650.5</ele>
        <time>2015-05-10T06:22:48Z</time>
      </trkpt>
      <trkpt lat="45.72192" lon="4.57822">
        <ele>652.8</ele>
        <time>2015-05-10T06:22:53Z</time>
      </trkpt>
      <trkpt lat="45.72198" lon="4.57833">
        <ele>653.5</ele>
        <time>2015-05-10T06:22:58Z</time>
      </trkpt>
      <trkpt lat="45.72205" lon="4.57845">
        <ele>654.4</ele>
        <time>2015-05-10T06:23:03Z</time>
      </trkpt>
      <trkpt lat="45.72213" lon="4.57857">
        <ele>655.7</ele>
        <time>2015-05-10T06:23:08Z</time>
      </trkpt>
      <trkpt lat="45.72222" lon="4.57867">
        <ele>656.2</ele>
        <time>2015-05-10T06:23:13Z</time>
      </trkpt>
      <trkpt lat="45.7223" lon="4.57875">
        <ele>657.2</ele>
        <time>2015-05-10T06:23:18Z</time>
      </trkpt>
      <trkpt lat="45.72237" lon="4.57885">
        <ele>657.7</ele>
        <time>2015-05-10T06:23:23Z</time>
      </trkpt>
      <trkpt lat="45.72242" lon="4.57898">
        <ele>658.4</ele>
        <time>2015-05-10T06:23:28Z</time>
      </trkpt>
      <trkpt lat="45.7225" lon="4.57912">
        <ele>658.5</ele>
        <time>2015-05-10T06:23:33Z</time>
      </trkpt>
      <trkpt lat="45.72258" lon="4.5793">
        <ele>657.5</ele>
        <time>2015-05-10T06:23:38Z</time>
      </trkpt>
      <trkpt lat="45.7227" lon="4.57955">
        <ele>656.2</ele>
        <time>2015-05-10T06:23:43Z</time>
      </trkpt>
      <trkpt lat="45.72283" lon="4.57988">
        <ele>656.6</ele>
        <time>2015-05-10T06:23:48Z</time>
      </trkpt>
      <trkpt lat="45.72293" lon="4.5803">
        <ele>651.7</ele>
        <time>2015-05-10T06:23:53Z</time>
      </trkpt>
      <trkpt lat="45.723" lon="4.5805">
        <ele>647.7</ele>
        <time>2015-05-10T06:23:58Z</time>
      </trkpt>
      <trkpt lat="45.72312" lon="4.58058">
        <ele>648.1</ele>
        <time>2015-05-10T06:24:08Z</time>
      </trkpt>
      <trkpt lat="45.72323" lon="4.58098">
        <ele>645.6</ele>
        <time>2015-05-10T06:24:13Z</time>
      </trkpt>
      <trkpt lat="45.72328" lon="4.58148">
        <ele>636.1</ele>
        <time>2015-05-10T06:24:18Z</time>
      </trkpt>
      <trkpt lat="45.72337" lon="4.582">
        <ele>634.3</ele>
        <time>2015-05-10T06:24:23Z</time>
      </trkpt>
      <trkpt lat="45.72347" lon="4.58258">
        <ele>630.3</ele>
        <time>2015-05-10T06:24:28Z</time>
      </trkpt>
      <trkpt lat="45.72355" lon="4.58313">
        <ele>626.6</ele>
        <time>2015-05-10T06:24:33Z</time>
      </trkpt>
      <trkpt lat="45.7236" lon="4.58363">
        <ele>625.7</ele>
        <time>2015-05-10T06:24:38Z</time>
      </trkpt>
      <trkpt lat="45.72363" lon="4.58405">
        <ele>623.9</ele>
        <time>2015-05-10T06:24:43Z</time>
      </trkpt>
      <trkpt lat="45.72363" lon="4.58447">
        <ele>625.5</ele>
        <time>2015-05-10T06:24:48Z</time>
      </trkpt>
      <trkpt lat="45.72368" lon="4.58482">
        <ele>627.4</ele>
        <time>2015-05-10T06:24:53Z</time>
      </trkpt>
      <trkpt lat="45.72377" lon="4.5851">
        <ele>629</ele>
        <time>2015-05-10T06:24:58Z</time>
      </trkpt>
      <trkpt lat="45.72385" lon="4.58532">
        <ele>627.2</ele>
        <time>2015-05-10T06:25:03Z</time>
      </trkpt>
      <trkpt lat="45.72392" lon="4.58558">
        <ele>627.8</ele>
        <time>2015-05-10T06:25:08Z</time>
      </trkpt>
      <trkpt lat="45.72402" lon="4.5859">
        <ele>631</ele>
        <time>2015-05-10T06:25:13Z</time>
      </trkpt>
      <trkpt lat="45.72412" lon="4.58617">
        <ele>629</ele>
        <time>2015-05-10T06:25:18Z</time>
      </trkpt>
      <trkpt lat="45.7243" lon="4.58645">
        <ele>627.4</ele>
        <time>2015-05-10T06:25:23Z</time>
      </trkpt>
      <trkpt lat="45.72447" lon="4.58673">
        <ele>626.8</ele>
        <time>2015-05-10T06:25:28Z</time>
      </trkpt>
      <trkpt lat="45.72463" lon="4.58702">
        <ele>625.5</ele>
        <time>2015-05-10T06:25:33Z</time>
      </trkpt>
      <trkpt lat="45.72472" lon="4.5874">
        <ele>626.7</ele>
        <time>2015-05-10T06:25:38Z</time>
      </trkpt>
      <trkpt lat="45.7247" lon="4.58783">
        <ele>627</ele>
        <time>2015-05-10T06:25:43Z</time>
      </trkpt>
      <trkpt lat="45.72465" lon="4.58823">
        <ele>628.2</ele>
        <time>2015-05-10T06:25:48Z</time>
      </trkpt>
      <trkpt lat="45.72458" lon="4.5886">
        <ele>627.9</ele>
        <time>2015-05-10T06:25:53Z</time>
      </trkpt>
      <trkpt lat="45.72445" lon="4.58898">
        <ele>626.6</ele>
        <time>2015-05-10T06:25:58Z</time>
      </trkpt>
      <trkpt lat="45.72428" lon="4.58933">
        <ele>625.7</ele>
        <time>2015-05-10T06:26:03Z</time>
      </trkpt>
      <trkpt lat="45.7241" lon="4.58963">
        <ele>626.4</ele>
        <time>2015-05-10T06:26:08Z</time>
      </trkpt>
      <trkpt lat="45.72393" lon="4.58993">
        <ele>627.1</ele>
        <time>2015-05-10T06:26:13Z</time>
      </trkpt>
      <trkpt lat="45.72377" lon="4.5902">
        <ele>626.3</ele>
        <time>2015-05-10T06:26:18Z</time>
      </trkpt>
      <trkpt lat="45.72357" lon="4.59052">
        <ele>627</ele>
        <time>2015-05-10T06:26:23Z</time>
      </trkpt>
      <trkpt lat="45.72338" lon="4.5908">
        <ele>627.8</ele>
        <time>2015-05-10T06:26:28Z</time>
      </trkpt>
      <trkpt lat="45.7232" lon="4.59112">
        <ele>627.8</ele>
        <time>2015-05-10T06:26:33Z</time>
      </trkpt>
      <trkpt lat="45.72312" lon="4.59147">
        <ele>629.1</ele>
        <time>2015-05-10T06:26:38Z</time>
      </trkpt>
      <trkpt lat="45.72305" lon="4.59183">
        <ele>631.4</ele>
        <time>2015-05-10T06:26:43Z</time>
      </trkpt>
      <trkpt lat="45.723" lon="4.59215">
        <ele>631.3</ele>
        <time>2015-05-10T06:26:48Z</time>
      </trkpt>
      <trkpt lat="45.72295" lon="4.59243">
        <ele>632.6</ele>
        <time>2015-05-10T06:26:53Z</time>
      </trkpt>
      <trkpt lat="45.72292" lon="4.59267">
        <ele>632.9</ele>
        <time>2015-05-10T06:26:58Z</time>
      </trkpt>
      <trkpt lat="45.72298" lon="4.59278">
        <ele>634.5</ele>
        <time>2015-05-10T06:27:03Z</time>
      </trkpt>
      <trkpt lat="45.72317" lon="4.59275">
        <ele>635.6</ele>
        <time>2015-05-10T06:27:08Z</time>
      </trkpt>
      <trkpt lat="45.72343" lon="4.59272">
        <ele>632</ele>
        <time>2015-05-10T06:27:13Z</time>
      </trkpt>
      <trkpt lat="45.72373" lon="4.59267">
        <ele>632</ele>
        <time>2015-05-10T06:27:18Z</time>
      </trkpt>
      <trkpt lat="45.72405" lon="4.59262">
        <ele>629.5</ele>
        <time>2015-05-10T06:27:23Z</time>
      </trkpt>
      <trkpt lat="45.7244" lon="4.59258">
        <ele>628</ele>
        <time>2015-05-10T06:27:28Z</time>
      </trkpt>
      <trkpt lat="45.72478" lon="4.59252">
        <ele>620.5</ele>
        <time>2015-05-10T06:27:33Z</time>
      </trkpt>
      <trkpt lat="45.72522" lon="4.59238">
        <ele>621.3</ele>
        <time>2015-05-10T06:27:38Z</time>
      </trkpt>
      <trkpt lat="45.72562" lon="4.59232">
        <ele>620.2</ele>
        <time>2015-05-10T06:27:43Z</time>
      </trkpt>
      <trkpt lat="45.72592" lon="4.59232">
        <ele>616.6</ele>
        <time>2015-05-10T06:27:48Z</time>
      </trkpt>
      <trkpt lat="45.7262" lon="4.59235">
        <ele>612</ele>
        <time>2015-05-10T06:27:53Z</time>
      </trkpt>
      <trkpt lat="45.72645" lon="4.59245">
        <ele>616.2</ele>
        <time>2015-05-10T06:27:58Z</time>
      </trkpt>
      <trkpt lat="45.72668" lon="4.59258">
        <ele>611.7</ele>
        <time>2015-05-10T06:28:03Z</time>
      </trkpt>
      <trkpt lat="45.72692" lon="4.59272">
        <ele>612.1</ele>
        <time>2015-05-10T06:28:08Z</time>
      </trkpt>
      <trkpt lat="45.72712" lon="4.59285">
        <ele>610.8</ele>
        <time>2015-05-10T06:28:13Z</time>
      </trkpt>
      <trkpt lat="45.72737" lon="4.593">
        <ele>611.2</ele>
        <time>2015-05-10T06:28:18Z</time>
      </trkpt>
      <trkpt lat="45.72752" lon="4.59313">
        <ele>612.4</ele>
        <time>2015-05-10T06:28:23Z</time>
      </trkpt>
      <trkpt lat="45.7277" lon="4.59327">
        <ele>611.3</ele>
        <time>2015-05-10T06:28:28Z</time>
      </trkpt>
      <trkpt lat="45.72795" lon="4.59345">
        <ele>607.8</ele>
        <time>2015-05-10T06:28:33Z</time>
      </trkpt>
      <trkpt lat="45.72823" lon="4.59363">
        <ele>605.1</ele>
        <time>2015-05-10T06:28:38Z</time>
      </trkpt>
      <trkpt lat="45.7285" lon="4.59392">
        <ele>605.5</ele>
        <time>2015-05-10T06:28:43Z</time>
      </trkpt>
      <trkpt lat="45.72878" lon="4.59425">
        <ele>600.5</ele>
        <time>2015-05-10T06:28:48Z</time>
      </trkpt>
      <trkpt lat="45.72898" lon="4.59445">
        <ele>600.8</ele>
        <time>2015-05-10T06:28:53Z</time>
      </trkpt>
      <trkpt lat="45.72925" lon="4.59463">
        <ele>593.9</ele>
        <time>2015-05-10T06:28:58Z</time>
      </trkpt>
      <trkpt lat="45.72957" lon="4.59478">
        <ele>594.6</ele>
        <time>2015-05-10T06:29:03Z</time>
      </trkpt>
      <trkpt lat="45.72998" lon="4.59492">
        <ele>588.8</ele>
        <time>2015-05-10T06:29:08Z</time>
      </trkpt>
      <trkpt lat="45.73023" lon="4.59502">
        <ele>585.7</ele>
        <time>2015-05-10T06:29:13Z</time>
      </trkpt>
      <trkpt lat="45.73048" lon="4.59503">
        <ele>577.8</ele>
        <time>2015-05-10T06:29:18Z</time>
      </trkpt>
      <trkpt lat="45.73088" lon="4.59498">
        <ele>578.3</ele>
        <time>2015-05-10T06:29:23Z</time>
      </trkpt>
      <trkpt lat="45.73123" lon="4.59522">
        <ele>574</ele>
        <time>2015-05-10T06:29:28Z</time>
      </trkpt>
      <trkpt lat="45.73153" lon="4.59543">
        <ele>572.6</ele>
        <time>2015-05-10T06:29:33Z</time>
      </trkpt>
      <trkpt lat="45.73182" lon="4.59562">
        <ele>573.5</ele>
        <time>2015-05-10T06:29:38Z</time>
      </trkpt>
      <trkpt lat="45.73212" lon="4.59577">
        <ele>572</ele>
        <time>2015-05-10T06:29:43Z</time>
      </trkpt>
      <trkpt lat="45.73247" lon="4.59562">
        <ele>571</ele>
        <time>2015-05-10T06:29:48Z</time>
      </trkpt>
      <trkpt lat="45.73277" lon="4.59532">
        <ele>570.4</ele>
        <time>2015-05-10T06:29:53Z</time>
      </trkpt>
      <trkpt lat="45.733" lon="4.59497">
        <ele>567.5</ele>
        <time>2015-05-10T06:29:58Z</time>
      </trkpt>
      <trkpt lat="45.73317" lon="4.59448">
        <ele>563.1</ele>
        <time>2015-05-10T06:30:03Z</time>
      </trkpt>
      <trkpt lat="45.73347" lon="4.59408">
        <ele>561.5</ele>
        <time>2015-05-10T06:30:08Z</time>
      </trkpt>
      <trkpt lat="45.73372" lon="4.59377">
        <ele>561.3</ele>
        <time>2015-05-10T06:30:13Z</time>
      </trkpt>
      <trkpt lat="45.7339" lon="4.59342">
        <ele>552.6</ele>
        <time>2015-05-10T06:30:18Z</time>
      </trkpt>
      <trkpt lat="45.73417" lon="4.5932">
        <ele>549.4</ele>
        <time>2015-05-10T06:30:23Z</time>
      </trkpt>
      <trkpt lat="45.73447" lon="4.59323">
        <ele>541.7</ele>
        <time>2015-05-10T06:30:28Z</time>
      </trkpt>
      <trkpt lat="45.73477" lon="4.59343">
        <ele>532.8</ele>
        <time>2015-05-10T06:30:33Z</time>
      </trkpt>
      <trkpt lat="45.73503" lon="4.59382">
        <ele>529.7</ele>
        <time>2015-05-10T06:30:38Z</time>
      </trkpt>
      <trkpt lat="45.73532" lon="4.59428">
        <ele>522.9</ele>
        <time>2015-05-10T06:30:43Z</time>
      </trkpt>
      <trkpt lat="45.73558" lon="4.59478">
        <ele>511</ele>
        <time>2015-05-10T06:30:48Z</time>
      </trkpt>
      <trkpt lat="45.73588" lon="4.5951">
        <ele>512.8</ele>
        <time>2015-05-10T06:30:53Z</time>
      </trkpt>
      <trkpt lat="45.7361" lon="4.59532">
        <ele>507.7</ele>
        <time>2015-05-10T06:30:58Z</time>
      </trkpt>
      <trkpt lat="45.73627" lon="4.59543">
        <ele>505.5</ele>
        <time>2015-05-10T06:31:03Z</time>
      </trkpt>
      <trkpt lat="45.73643" lon="4.59547">
        <ele>503.8</ele>
        <time>2015-05-10T06:31:08Z</time>
      </trkpt>
      <trkpt lat="45.73662" lon="4.59547">
        <ele>503.8</ele>
        <time>2015-05-10T06:31:13Z</time>
      </trkpt>
      <trkpt lat="45.73685" lon="4.59542">
        <ele>497.1</ele>
        <time>2015-05-10T06:31:18Z</time>
      </trkpt>
      <trkpt lat="45.73715" lon="4.5953">
        <ele>488</ele>
        <time>2015-05-10T06:31:23Z</time>
      </trkpt>
      <trkpt lat="45.73735" lon="4.59518">
        <ele>488.1</ele>
        <time>2015-05-10T06:31:28Z</time>
      </trkpt>
      <trkpt lat="45.73752" lon="4.59502">
        <ele>477.2</ele>
        <time>2015-05-10T06:31:33Z</time>
      </trkpt>
      <trkpt lat="45.73772" lon="4.59472">
        <ele>478.5</ele>
        <time>2015-05-10T06:31:38Z</time>
      </trkpt>
      <trkpt lat="45.73795" lon="4.59432">
        <ele>476.3</ele>
        <time>2015-05-10T06:31:43Z</time>
      </trkpt>
      <trkpt lat="45.73822" lon="4.59385">
        <ele>472.6</ele>
        <time>2015-05-10T06:31:48Z</time>
      </trkpt>
      <trkpt lat="45.73848" lon="4.59348">
        <ele>471.6</ele>
        <time>2015-05-10T06:31:53Z</time>
      </trkpt>
      <trkpt lat="45.73872" lon="4.59312">
        <ele>470.9</ele>
        <time>2015-05-10T06:31:58Z</time>
      </trkpt>
      <trkpt lat="45.73892" lon="4.59282">
        <ele>474.8</ele>
        <time>2015-05-10T06:32:03Z</time>
      </trkpt>
      <trkpt lat="45.73903" lon="4.59255">
        <ele>473.9</ele>
        <time>2015-05-10T06:32:08Z</time>
      </trkpt>
      <trkpt lat="45.73908" lon="4.59213">
        <ele>472.2</ele>
        <time>2015-05-10T06:32:13Z</time>
      </trkpt>
      <trkpt lat="45.7392" lon="4.59167">
        <ele>471.9</ele>
        <time>2015-05-10T06:32:18Z</time>
      </trkpt>
      <trkpt lat="45.73935" lon="4.59117">
        <ele>470.9</ele>
        <time>2015-05-10T06:32:23Z</time>
      </trkpt>
      <trkpt lat="45.73952" lon="4.59065">
        <ele>466.4</ele>
        <time>2015-05-10T06:32:28Z</time>
      </trkpt>
      <trkpt lat="45.7397" lon="4.59015">
        <ele>466.9</ele>
        <time>2015-05-10T06:32:33Z</time>
      </trkpt>
      <trkpt lat="45.73988" lon="4.5897">
        <ele>462.4</ele>
        <time>2015-05-10T06:32:38Z</time>
      </trkpt>
      <trkpt lat="45.74012" lon="4.5893">
        <ele>462.5</ele>
        <time>2015-05-10T06:32:43Z</time>
      </trkpt>
      <trkpt lat="45.74033" lon="4.5891">
        <ele>463.5</ele>
        <time>2015-05-10T06:32:48Z</time>
      </trkpt>
      <trkpt lat="45.7405" lon="4.58895">
        <ele>465.9</ele>
        <time>2015-05-10T06:32:53Z</time>
      </trkpt>
      <trkpt lat="45.74068" lon="4.58863">
        <ele>466.9</ele>
        <time>2015-05-10T06:32:58Z</time>
      </trkpt>
      <trkpt lat="45.74093" lon="4.58827">
        <ele>462.5</ele>
        <time>2015-05-10T06:33:03Z</time>
      </trkpt>
      <trkpt lat="45.74125" lon="4.58802">
        <ele>464.6</ele>
        <time>2015-05-10T06:33:08Z</time>
      </trkpt>
      <trkpt lat="45.74152" lon="4.58782">
        <ele>461.3</ele>
        <time>2015-05-10T06:33:13Z</time>
      </trkpt>
      <trkpt lat="45.74182" lon="4.5877">
        <ele>460.8</ele>
        <time>2015-05-10T06:33:18Z</time>
      </trkpt>
      <trkpt lat="45.74217" lon="4.5876">
        <ele>456.5</ele>
        <time>2015-05-10T06:33:23Z</time>
      </trkpt>
      <trkpt lat="45.7425" lon="4.58743">
        <ele>458.5</ele>
        <time>2015-05-10T06:33:28Z</time>
      </trkpt>
      <trkpt lat="45.74278" lon="4.5871">
        <ele>452</ele>
        <time>2015-05-10T06:33:33Z</time>
      </trkpt>
      <trkpt lat="45.74288" lon="4.58652">
        <ele>448.6</ele>
        <time>2015-05-10T06:33:38Z</time>
      </trkpt>
      <trkpt lat="45.74283" lon="4.58575">
        <ele>443.6</ele>
        <time>2015-05-10T06:33:43Z</time>
      </trkpt>
      <trkpt lat="45.74282" lon="4.58518">
        <ele>443.6</ele>
        <time>2015-05-10T06:33:48Z</time>
      </trkpt>
      <trkpt lat="45.74288" lon="4.5848">
        <ele>443.6</ele>
        <time>2015-05-10T06:33:53Z</time>
      </trkpt>
      <trkpt lat="45.74307" lon="4.5846">
        <ele>444.6</ele>
        <time>2015-05-10T06:33:58Z</time>
      </trkpt>
      <trkpt lat="45.74333" lon="4.58445">
        <ele>443.3</ele>
        <time>2015-05-10T06:34:03Z</time>
      </trkpt>
      <trkpt lat="45.74368" lon="4.5844">
        <ele>442.3</ele>
        <time>2015-05-10T06:34:08Z</time>
      </trkpt>
      <trkpt lat="45.7441" lon="4.58437">
        <ele>435.9</ele>
        <time>2015-05-10T06:34:13Z</time>
      </trkpt>
      <trkpt lat="45.74455" lon="4.58432">
        <ele>427</ele>
        <time>2015-05-10T06:34:18Z</time>
      </trkpt>
      <trkpt lat="45.74497" lon="4.58417">
        <ele>424.8</ele>
        <time>2015-05-10T06:34:23Z</time>
      </trkpt>
      <trkpt lat="45.74545" lon="4.58383">
        <ele>422.8</ele>
        <time>2015-05-10T06:34:28Z</time>
      </trkpt>
      <trkpt lat="45.74572" lon="4.58335">
        <ele>409.9</ele>
        <time>2015-05-10T06:34:33Z</time>
      </trkpt>
      <trkpt lat="45.74603" lon="4.5831">
        <ele>403.9</ele>
        <time>2015-05-10T06:34:38Z</time>
      </trkpt>
      <trkpt lat="45.74647" lon="4.58318">
        <ele>398.3</ele>
        <time>2015-05-10T06:34:43Z</time>
      </trkpt>
      <trkpt lat="45.74702" lon="4.58335">
        <ele>395.3</ele>
        <time>2015-05-10T06:34:48Z</time>
      </trkpt>
      <trkpt lat="45.74753" lon="4.58328">
        <ele>389.4</ele>
        <time>2015-05-10T06:34:53Z</time>
      </trkpt>
      <trkpt lat="45.74802" lon="4.58337">
        <ele>386.4</ele>
        <time>2015-05-10T06:34:58Z</time>
      </trkpt>
      <trkpt lat="45.74842" lon="4.58367">
        <ele>378.8</ele>
        <time>2015-05-10T06:35:03Z</time>
      </trkpt>
      <trkpt lat="45.74883" lon="4.58395">
        <ele>378.1</ele>
        <time>2015-05-10T06:35:08Z</time>
      </trkpt>
      <trkpt lat="45.7492" lon="4.58443">
        <ele>374.1</ele>
        <time>2015-05-10T06:35:13Z</time>
      </trkpt>
      <trkpt lat="45.74935" lon="4.58472">
        <ele>365.8</ele>
        <time>2015-05-10T06:35:18Z</time>
      </trkpt>
      <trkpt lat="45.74967" lon="4.5847">
        <ele>364.7</ele>
        <time>2015-05-10T06:35:23Z</time>
      </trkpt>
      <trkpt lat="45.75003" lon="4.58477">
        <ele>360.5</ele>
        <time>2015-05-10T06:35:28Z</time>
      </trkpt>
      <trkpt lat="45.75038" lon="4.58493">
        <ele>358.7</ele>
        <time>2015-05-10T06:35:33Z</time>
      </trkpt>
      <trkpt lat="45.7506" lon="4.58512">
        <ele>356.1</ele>
        <time>2015-05-10T06:35:38Z</time>
      </trkpt>
      <trkpt lat="45.7507" lon="4.58522">
        <ele>354.3</ele>
        <time>2015-05-10T06:35:43Z</time>
      </trkpt>
      <trkpt lat="45.75087" lon="4.58523">
        <ele>354.3</ele>
        <time>2015-05-10T06:35:48Z</time>
      </trkpt>
      <trkpt lat="45.75122" lon="4.5853">
        <ele>351.2</ele>
        <time>2015-05-10T06:35:53Z</time>
      </trkpt>
      <trkpt lat="45.75175" lon="4.58523">
        <ele>342.5</ele>
        <time>2015-05-10T06:35:58Z</time>
      </trkpt>
      <trkpt lat="45.75223" lon="4.58487">
        <ele>334.7</ele>
        <time>2015-05-10T06:36:03Z</time>
      </trkpt>
      <trkpt lat="45.75263" lon="4.58455">
        <ele>322.9</ele>
        <time>2015-05-10T06:36:08Z</time>
      </trkpt>
      <trkpt lat="45.75305" lon="4.58452">
        <ele>314.6</ele>
        <time>2015-05-10T06:36:13Z</time>
      </trkpt>
      <trkpt lat="45.75335" lon="4.58483">
        <ele>310.4</ele>
        <time>2015-05-10T06:36:18Z</time>
      </trkpt>
      <trkpt lat="45.75372" lon="4.58503">
        <ele>307.6</ele>
        <time>2015-05-10T06:36:23Z</time>
      </trkpt>
      <trkpt lat="45.75405" lon="4.5851">
        <ele>305.7</ele>
        <time>2015-05-10T06:36:28Z</time>
      </trkpt>
      <trkpt lat="45.75433" lon="4.5852">
        <ele>305.7</ele>
        <time>2015-05-10T06:36:33Z</time>
      </trkpt>
      <trkpt lat="45.75447" lon="4.58557">
        <ele>303.2</ele>
        <time>2015-05-10T06:36:38Z</time>
      </trkpt>
      <trkpt lat="45.75473" lon="4.58577">
        <ele>299.6</ele>
        <time>2015-05-10T06:36:43Z</time>
      </trkpt>
      <trkpt lat="45.75512" lon="4.58583">
        <ele>293.2</ele>
        <time>2015-05-10T06:36:48Z</time>
      </trkpt>
      <trkpt lat="45.75513" lon="4.5859">
        <ele>286.9</ele>
        <time>2015-05-10T06:36:53Z</time>
      </trkpt>
      <trkpt lat="45.75488" lon="4.58603">
        <ele>284.4</ele>
        <time>2015-05-10T06:36:58Z</time>
      </trkpt>
      <trkpt lat="45.7545" lon="4.58623">
        <ele>282</ele>
        <time>2015-05-10T06:37:03Z</time>
      </trkpt>
      <trkpt lat="45.75448" lon="4.58667">
        <ele>278.5</ele>
        <time>2015-05-10T06:37:08Z</time>
      </trkpt>
      <trkpt lat="45.75463" lon="4.58697">
        <ele>279.5</ele>
        <time>2015-05-10T06:37:13Z</time>
      </trkpt>
      <trkpt lat="45.75475" lon="4.5872">
        <ele>281.8</ele>
        <time>2015-05-10T06:37:18Z</time>
      </trkpt>
      <trkpt lat="45.7549" lon="4.58742">
        <ele>281.1</ele>
        <time>2015-05-10T06:37:23Z</time>
      </trkpt>
      <trkpt lat="45.75505" lon="4.58763">
        <ele>281.1</ele>
        <time>2015-05-10T06:37:28Z</time>
      </trkpt>
      <trkpt lat="45.7552" lon="4.58778">
        <ele>283.6</ele>
        <time>2015-05-10T06:37:33Z</time>
      </trkpt>
      <trkpt lat="45.7553" lon="4.58797">
        <ele>283.4</ele>
        <time>2015-05-10T06:37:38Z</time>
      </trkpt>
      <trkpt lat="45.7554" lon="4.58815">
        <ele>284.9</ele>
        <time>2015-05-10T06:37:43Z</time>
      </trkpt>
      <trkpt lat="45.75548" lon="4.58833">
        <ele>286.5</ele>
        <time>2015-05-10T06:37:48Z</time>
      </trkpt>
      <trkpt lat="45.75557" lon="4.58852">
        <ele>286.9</ele>
        <time>2015-05-10T06:37:53Z</time>
      </trkpt>
      <trkpt lat="45.75562" lon="4.5887">
        <ele>288.9</ele>
        <time>2015-05-10T06:37:58Z</time>
      </trkpt>
      <trkpt lat="45.75567" lon="4.58888">
        <ele>290.5</ele>
        <time>2015-05-10T06:38:03Z</time>
      </trkpt>
      <trkpt lat="45.7557" lon="4.58907">
        <ele>291</ele>
        <time>2015-05-10T06:38:08Z</time>
      </trkpt>
      <trkpt lat="45.75573" lon="4.58925">
        <ele>292.7</ele>
        <time>2015-05-10T06:38:13Z</time>
      </trkpt>
      <trkpt lat="45.7558" lon="4.58942">
        <ele>292.8</ele>
        <time>2015-05-10T06:38:18Z</time>
      </trkpt>
      <trkpt lat="45.75583" lon="4.58958">
        <ele>292.5</ele>
        <time>2015-05-10T06:38:23Z</time>
      </trkpt>
      <trkpt lat="45.75583" lon="4.58975">
        <ele>294</ele>
        <time>2015-05-10T06:38:28Z</time>
      </trkpt>
      <trkpt lat="45.75585" lon="4.58993">
        <ele>294.7</ele>
        <time>2015-05-10T06:38:33Z</time>
      </trkpt>
      <trkpt lat="45.75583" lon="4.5901">
        <ele>295.3</ele>
        <time>2015-05-10T06:38:38Z</time>
      </trkpt>
      <trkpt lat="45.75582" lon="4.5903">
        <ele>295.5</ele>
        <time>2015-05-10T06:38:43Z</time>
      </trkpt>
      <trkpt lat="45.75578" lon="4.59053">
        <ele>295.1</ele>
        <time>2015-05-10T06:38:48Z</time>
      </trkpt>
      <trkpt lat="45.75568" lon="4.59078">
        <ele>293.9</ele>
        <time>2015-05-10T06:38:53Z</time>
      </trkpt>
      <trkpt lat="45.75555" lon="4.59105">
        <ele>294.3</ele>
        <time>2015-05-10T06:38:58Z</time>
      </trkpt>
      <trkpt lat="45.75527" lon="4.59128">
        <ele>292</ele>
        <time>2015-05-10T06:39:03Z</time>
      </trkpt>
      <trkpt lat="45.7549" lon="4.59143">
        <ele>287.6</ele>
        <time>2015-05-10T06:39:08Z</time>
      </trkpt>
      <trkpt lat="45.75475" lon="4.59185">
        <ele>284.6</ele>
        <time>2015-05-10T06:39:13Z</time>
      </trkpt>
      <trkpt lat="45.7547" lon="4.59215">
        <ele>288.4</ele>
        <time>2015-05-10T06:39:18Z</time>
      </trkpt>
      <trkpt lat="45.75467" lon="4.59243">
        <ele>289.1</ele>
        <time>2015-05-10T06:39:23Z</time>
      </trkpt>
      <trkpt lat="45.7546" lon="4.59275">
        <ele>285.3</ele>
        <time>2015-05-10T06:39:28Z</time>
      </trkpt>
      <trkpt lat="45.7544" lon="4.59307">
        <ele>285.8</ele>
        <time>2015-05-10T06:39:33Z</time>
      </trkpt>
      <trkpt lat="45.75418" lon="4.59333">
        <ele>282</ele>
        <time>2015-05-10T06:39:38Z</time>
      </trkpt>
      <trkpt lat="45.75393" lon="4.59353">
        <ele>283.5</ele>
        <time>2015-05-10T06:39:43Z</time>
      </trkpt>
      <trkpt lat="45.75367" lon="4.59372">
        <ele>277.1</ele>
        <time>2015-05-10T06:39:48Z</time>
      </trkpt>
      <trkpt lat="45.7535" lon="4.59383">
        <ele>278.7</ele>
        <time>2015-05-10T06:39:53Z</time>
      </trkpt>
      <trkpt lat="45.75333" lon="4.59395">
        <ele>276.3</ele>
        <time>2015-05-10T06:39:58Z</time>
      </trkpt>
      <trkpt lat="45.75307" lon="4.59408">
        <ele>275.8</ele>
        <time>2015-05-10T06:40:03Z</time>
      </trkpt>
      <trkpt lat="45.75282" lon="4.59427">
        <ele>271.4</ele>
        <time>2015-05-10T06:40:08Z</time>
      </trkpt>
      <trkpt lat="45.75272" lon="4.59438">
        <ele>270.6</ele>
        <time>2015-05-10T06:40:13Z</time>
      </trkpt>
      <trkpt lat="45.75265" lon="4.5946">
        <ele>268.7</ele>
        <time>2015-05-10T06:40:18Z</time>
      </trkpt>
      <trkpt lat="45.75263" lon="4.59475">
        <ele>269.5</ele>
        <time>2015-05-10T06:40:23Z</time>
      </trkpt>
      <trkpt lat="45.7526" lon="4.59485">
        <ele>270.2</ele>
        <time>2015-05-10T06:40:28Z</time>
      </trkpt>
      <trkpt lat="45.75257" lon="4.59495">
        <ele>271.9</ele>
        <time>2015-05-10T06:40:33Z</time>
      </trkpt>
      <trkpt lat="45.75252" lon="4.59502">
        <ele>272.8</ele>
        <time>2015-05-10T06:40:38Z</time>
      </trkpt>
      <trkpt lat="45.75248" lon="4.59507">
        <ele>274.3</ele>
        <time>2015-05-10T06:40:43Z</time>
      </trkpt>
      <trkpt lat="45.75243" lon="4.5951">
        <ele>275.4</ele>
        <time>2015-05-10T06:40:48Z</time>
      </trkpt>
      <trkpt lat="45.75238" lon="4.59512">
        <ele>277.1</ele>
        <time>2015-05-10T06:40:53Z</time>
      </trkpt>
      <trkpt lat="45.75235" lon="4.59513">
        <ele>278.7</ele>
        <time>2015-05-10T06:40:58Z</time>
      </trkpt>
      <trkpt lat="45.7523" lon="4.59517">
        <ele>280.1</ele>
        <time>2015-05-10T06:41:03Z</time>
      </trkpt>
      <trkpt lat="45.75228" lon="4.59518">
        <ele>280.6</ele>
        <time>2015-05-10T06:41:08Z</time>
      </trkpt>
      <trkpt lat="45.75223" lon="4.59523">
        <ele>282.3</ele>
        <time>2015-05-10T06:41:13Z</time>
      </trkpt>
      <trkpt lat="45.7522" lon="4.5953">
        <ele>283.7</ele>
        <time>2015-05-10T06:41:18Z</time>
      </trkpt>
      <trkpt lat="45.75217" lon="4.59535">
        <ele>284.4</ele>
        <time>2015-05-10T06:41:23Z</time>
      </trkpt>
      <trkpt lat="45.75212" lon="4.5954">
        <ele>286</ele>
        <time>2015-05-10T06:41:28Z</time>
      </trkpt>
      <trkpt lat="45.7521" lon="4.59543">
        <ele>285.3</ele>
        <time>2015-05-10T06:41:33Z</time>
      </trkpt>
      <trkpt lat="45.75207" lon="4.5955">
        <ele>287.6</ele>
        <time>2015-05-10T06:41:38Z</time>
      </trkpt>
      <trkpt lat="45.75203" lon="4.59553">
        <ele>287.6</ele>
        <time>2015-05-10T06:41:43Z</time>
      </trkpt>
      <trkpt lat="45.752" lon="4.59558">
        <ele>288.6</ele>
        <time>2015-05-10T06:41:48Z</time>
      </trkpt>
      <trkpt lat="45.75198" lon="4.59563">
        <ele>291.1</ele>
        <time>2015-05-10T06:41:53Z</time>
      </trkpt>
      <trkpt lat="45.75197" lon="4.59568">
        <ele>292.7</ele>
        <time>2015-05-10T06:41:58Z</time>
      </trkpt>
      <trkpt lat="45.75195" lon="4.59575">
        <ele>293.8</ele>
        <time>2015-05-10T06:42:03Z</time>
      </trkpt>
      <trkpt lat="45.75193" lon="4.59578">
        <ele>294.1</ele>
        <time>2015-05-10T06:42:08Z</time>
      </trkpt>
      <trkpt lat="45.75187" lon="4.59587">
        <ele>295.2</ele>
        <time>2015-05-10T06:42:13Z</time>
      </trkpt>
      <trkpt lat="45.75183" lon="4.59592">
        <ele>296.2</ele>
        <time>2015-05-10T06:42:18Z</time>
      </trkpt>
      <trkpt lat="45.7518" lon="4.59595">
        <ele>296.5</ele>
        <time>2015-05-10T06:42:23Z</time>
      </trkpt>
      <trkpt lat="45.75175" lon="4.596">
        <ele>297.4</ele>
        <time>2015-05-10T06:42:28Z</time>
      </trkpt>
      <trkpt lat="45.75172" lon="4.59605">
        <ele>298.9</ele>
        <time>2015-05-10T06:42:33Z</time>
      </trkpt>
      <trkpt lat="45.7517" lon="4.59607">
        <ele>299.1</ele>
        <time>2015-05-10T06:42:38Z</time>
      </trkpt>
      <trkpt lat="45.7517" lon="4.5961">
        <ele>298.9</ele>
        <time>2015-05-10T06:43:23Z</time>
      </trkpt>
      <trkpt lat="45.75163" lon="4.59617">
        <ele>300.5</ele>
        <time>2015-05-10T06:43:28Z</time>
      </trkpt>
      <trkpt lat="45.75162" lon="4.5962">
        <ele>300.1</ele>
        <time>2015-05-10T06:43:33Z</time>
      </trkpt>
      <trkpt lat="45.75155" lon="4.59623">
        <ele>300.3</ele>
        <time>2015-05-10T06:43:38Z</time>
      </trkpt>
      <trkpt lat="45.7515" lon="4.5963">
        <ele>302.1</ele>
        <time>2015-05-10T06:43:43Z</time>
      </trkpt>
      <trkpt lat="45.75142" lon="4.59638">
        <ele>303.1</ele>
        <time>2015-05-10T06:43:48Z</time>
      </trkpt>
      <trkpt lat="45.75135" lon="4.59643">
        <ele>304</ele>
        <time>2015-05-10T06:43:53Z</time>
      </trkpt>
      <trkpt lat="45.75132" lon="4.59648">
        <ele>305.9</ele>
        <time>2015-05-10T06:43:58Z</time>
      </trkpt>
      <trkpt lat="45.75125" lon="4.59658">
        <ele>306.4</ele>
        <time>2015-05-10T06:44:03Z</time>
      </trkpt>
      <trkpt lat="45.75118" lon="4.59665">
        <ele>307.9</ele>
        <time>2015-05-10T06:44:08Z</time>
      </trkpt>
      <trkpt lat="45.75113" lon="4.59668">
        <ele>308</ele>
        <time>2015-05-10T06:44:13Z</time>
      </trkpt>
      <trkpt lat="45.7511" lon="4.59675">
        <ele>310.1</ele>
        <time>2015-05-10T06:44:18Z</time>
      </trkpt>
      <trkpt lat="45.751" lon="4.59682">
        <ele>311.2</ele>
        <time>2015-05-10T06:44:23Z</time>
      </trkpt>
      <trkpt lat="45.75092" lon="4.59688">
        <ele>312.7</ele>
        <time>2015-05-10T06:44:28Z</time>
      </trkpt>
      <trkpt lat="45.75088" lon="4.59693">
        <ele>312.5</ele>
        <time>2015-05-10T06:44:33Z</time>
      </trkpt>
      <trkpt lat="45.75082" lon="4.597">
        <ele>314.4</ele>
        <time>2015-05-10T06:44:38Z</time>
      </trkpt>
      <trkpt lat="45.75073" lon="4.59705">
        <ele>315.7</ele>
        <time>2015-05-10T06:44:43Z</time>
      </trkpt>
      <trkpt lat="45.75068" lon="4.5971">
        <ele>316.5</ele>
        <time>2015-05-10T06:44:48Z</time>
      </trkpt>
      <trkpt lat="45.7506" lon="4.59712">
        <ele>317.5</ele>
        <time>2015-05-10T06:44:53Z</time>
      </trkpt>
      <trkpt lat="45.75055" lon="4.59715">
        <ele>318.5</ele>
        <time>2015-05-10T06:44:58Z</time>
      </trkpt>
      <trkpt lat="45.7505" lon="4.5972">
        <ele>319.2</ele>
        <time>2015-05-10T06:45:03Z</time>
      </trkpt>
      <trkpt lat="45.75045" lon="4.59723">
        <ele>319.8</ele>
        <time>2015-05-10T06:45:08Z</time>
      </trkpt>
      <trkpt lat="45.75042" lon="4.59725">
        <ele>320.5</ele>
        <time>2015-05-10T06:45:13Z</time>
      </trkpt>
      <trkpt lat="45.7504" lon="4.59727">
        <ele>320.8</ele>
        <time>2015-05-10T06:45:18Z</time>
      </trkpt>
      <trkpt lat="45.75025" lon="4.59737">
        <ele>322.9</ele>
        <time>2015-05-10T06:45:38Z</time>
      </trkpt>
      <trkpt lat="45.75018" lon="4.59747">
        <ele>323.4</ele>
        <time>2015-05-10T06:45:43Z</time>
      </trkpt>
      <trkpt lat="45.7501" lon="4.59755">
        <ele>324.4</ele>
        <time>2015-05-10T06:45:48Z</time>
      </trkpt>
      <trkpt lat="45.75005" lon="4.5976">
        <ele>324.4</ele>
        <time>2015-05-10T06:45:53Z</time>
      </trkpt>
      <trkpt lat="45.75" lon="4.59768">
        <ele>325</ele>
        <time>2015-05-10T06:45:58Z</time>
      </trkpt>
      <trkpt lat="45.74993" lon="4.59778">
        <ele>326.5</ele>
        <time>2015-05-10T06:46:03Z</time>
      </trkpt>
      <trkpt lat="45.74988" lon="4.5979">
        <ele>325.9</ele>
        <time>2015-05-10T06:46:08Z</time>
      </trkpt>
      <trkpt lat="45.74987" lon="4.598">
        <ele>327.1</ele>
        <time>2015-05-10T06:46:13Z</time>
      </trkpt>
      <trkpt lat="45.74987" lon="4.59808">
        <ele>327.4</ele>
        <time>2015-05-10T06:46:18Z</time>
      </trkpt>
      <trkpt lat="45.74985" lon="4.59815">
        <ele>327.9</ele>
        <time>2015-05-10T06:46:23Z</time>
      </trkpt>
      <trkpt lat="45.74983" lon="4.59823">
        <ele>329.8</ele>
        <time>2015-05-10T06:46:28Z</time>
      </trkpt>
      <trkpt lat="45.74982" lon="4.5983">
        <ele>331.1</ele>
        <time>2015-05-10T06:46:33Z</time>
      </trkpt>
      <trkpt lat="45.74982" lon="4.59837">
        <ele>332</ele>
        <time>2015-05-10T06:46:38Z</time>
      </trkpt>
      <trkpt lat="45.7498" lon="4.59845">
        <ele>333.1</ele>
        <time>2015-05-10T06:46:43Z</time>
      </trkpt>
      <trkpt lat="45.74978" lon="4.59855">
        <ele>334.1</ele>
        <time>2015-05-10T06:46:48Z</time>
      </trkpt>
      <trkpt lat="45.74978" lon="4.59863">
        <ele>335</ele>
        <time>2015-05-10T06:46:53Z</time>
      </trkpt>
      <trkpt lat="45.74977" lon="4.59873">
        <ele>337.1</ele>
        <time>2015-05-10T06:46:58Z</time>
      </trkpt>
      <trkpt lat="45.74973" lon="4.5988">
        <ele>338.4</ele>
        <time>2015-05-10T06:47:03Z</time>
      </trkpt>
      <trkpt lat="45.74972" lon="4.59888">
        <ele>339.2</ele>
        <time>2015-05-10T06:47:08Z</time>
      </trkpt>
      <trkpt lat="45.74968" lon="4.59893">
        <ele>340.3</ele>
        <time>2015-05-10T06:47:13Z</time>
      </trkpt>
      <trkpt lat="45.74963" lon="4.59902">
        <ele>340.9</ele>
        <time>2015-05-10T06:47:18Z</time>
      </trkpt>
      <trkpt lat="45.74958" lon="4.5991">
        <ele>342.7</ele>
        <time>2015-05-10T06:47:23Z</time>
      </trkpt>
      <trkpt lat="45.74957" lon="4.59917">
        <ele>344.6</ele>
        <time>2015-05-10T06:47:28Z</time>
      </trkpt>
      <trkpt lat="45.74953" lon="4.59925">
        <ele>345.9</ele>
        <time>2015-05-10T06:47:33Z</time>
      </trkpt>
      <trkpt lat="45.74948" lon="4.5993">
        <ele>347.3</ele>
        <time>2015-05-10T06:47:38Z</time>
      </trkpt>
      <trkpt lat="45.74947" lon="4.59937">
        <ele>349.5</ele>
        <time>2015-05-10T06:47:43Z</time>
      </trkpt>
      <trkpt lat="45.74943" lon="4.59945">
        <ele>350.9</ele>
        <time>2015-05-10T06:47:48Z</time>
      </trkpt>
      <trkpt lat="45.74938" lon="4.59945">
        <ele>351.8</ele>
        <time>2015-05-10T06:47:53Z</time>
      </trkpt>
      <trkpt lat="45.74937" lon="4.59955">
        <ele>351.5</ele>
        <time>2015-05-10T06:47:58Z</time>
      </trkpt>
      <trkpt lat="45.74938" lon="4.59953">
        <ele>351.1</ele>
        <time>2015-05-10T06:48:03Z</time>
      </trkpt>
      <trkpt lat="45.74938" lon="4.59948">
        <ele>351.7</ele>
        <time>2015-05-10T06:48:08Z</time>
      </trkpt>
      <trkpt lat="45.74935" lon="4.59943">
        <ele>351.3</ele>
        <time>2015-05-10T06:48:13Z</time>
      </trkpt>
      <trkpt lat="45.74933" lon="4.5995">
        <ele>351.5</ele>
        <time>2015-05-10T06:48:18Z</time>
      </trkpt>
      <trkpt lat="45.74937" lon="4.59952">
        <ele>351.6</ele>
        <time>2015-05-10T06:48:23Z</time>
      </trkpt>
      <trkpt lat="45.74938" lon="4.5995">
        <ele>351.8</ele>
        <time>2015-05-10T06:48:28Z</time>
      </trkpt>
      <trkpt lat="45.74935" lon="4.59948">
        <ele>351.9</ele>
        <time>2015-05-10T06:50:13Z</time>
      </trkpt>
      <trkpt lat="45.74932" lon="4.59958">
        <ele>351.7</ele>
        <time>2015-05-10T06:50:18Z</time>
      </trkpt>
      <trkpt lat="45.74932" lon="4.59972">
        <ele>351.7</ele>
        <time>2015-05-10T06:50:23Z</time>
      </trkpt>
      <trkpt lat="45.74928" lon="4.59983">
        <ele>351.5</ele>
        <time>2015-05-10T06:50:28Z</time>
      </trkpt>
      <trkpt lat="45.74925" lon="4.59997">
        <ele>351.2</ele>
        <time>2015-05-10T06:50:33Z</time>
      </trkpt>
      <trkpt lat="45.7492" lon="4.60013">
        <ele>351.6</ele>
        <time>2015-05-10T06:50:38Z</time>
      </trkpt>
      <trkpt lat="45.74917" lon="4.60032">
        <ele>351.7</ele>
        <time>2015-05-10T06:50:43Z</time>
      </trkpt>
      <trkpt lat="45.74913" lon="4.6005">
        <ele>352.1</ele>
        <time>2015-05-10T06:50:48Z</time>
      </trkpt>
      <trkpt lat="45.74917" lon="4.6007">
        <ele>352.2</ele>
        <time>2015-05-10T06:50:53Z</time>
      </trkpt>
      <trkpt lat="45.74923" lon="4.60085">
        <ele>352.6</ele>
        <time>2015-05-10T06:50:58Z</time>
      </trkpt>
      <trkpt lat="45.74933" lon="4.60095">
        <ele>353.8</ele>
        <time>2015-05-10T06:51:03Z</time>
      </trkpt>
      <trkpt lat="45.74945" lon="4.601">
        <ele>355.2</ele>
        <time>2015-05-10T06:51:08Z</time>
      </trkpt>
      <trkpt lat="45.7496" lon="4.60105">
        <ele>354.7</ele>
        <time>2015-05-10T06:51:13Z</time>
      </trkpt>
      <trkpt lat="45.74975" lon="4.60108">
        <ele>356</ele>
        <time>2015-05-10T06:51:18Z</time>
      </trkpt>
      <trkpt lat="45.7499" lon="4.60113">
        <ele>356.8</ele>
        <time>2015-05-10T06:51:23Z</time>
      </trkpt>
      <trkpt lat="45.75005" lon="4.60113">
        <ele>356.5</ele>
        <time>2015-05-10T06:51:28Z</time>
      </trkpt>
      <trkpt lat="45.7502" lon="4.60117">
        <ele>357.1</ele>
        <time>2015-05-10T06:51:33Z</time>
      </trkpt>
      <trkpt lat="45.75033" lon="4.60118">
        <ele>357.2</ele>
        <time>2015-05-10T06:51:38Z</time>
      </trkpt>
      <trkpt lat="45.75047" lon="4.60123">
        <ele>358</ele>
        <time>2015-05-10T06:51:43Z</time>
      </trkpt>
      <trkpt lat="45.75057" lon="4.60128">
        <ele>358</ele>
        <time>2015-05-10T06:51:48Z</time>
      </trkpt>
      <trkpt lat="45.7507" lon="4.60135">
        <ele>359.3</ele>
        <time>2015-05-10T06:51:53Z</time>
      </trkpt>
      <trkpt lat="45.7508" lon="4.6014">
        <ele>361.2</ele>
        <time>2015-05-10T06:51:58Z</time>
      </trkpt>
      <trkpt lat="45.75085" lon="4.6015">
        <ele>362.1</ele>
        <time>2015-05-10T06:52:03Z</time>
      </trkpt>
      <trkpt lat="45.7509" lon="4.6016">
        <ele>363.1</ele>
        <time>2015-05-10T06:52:08Z</time>
      </trkpt>
      <trkpt lat="45.75088" lon="4.60172">
        <ele>365.1</ele>
        <time>2015-05-10T06:52:13Z</time>
      </trkpt>
      <trkpt lat="45.75083" lon="4.60183">
        <ele>365.7</ele>
        <time>2015-05-10T06:52:18Z</time>
      </trkpt>
      <trkpt lat="45.75077" lon="4.60197">
        <ele>366.5</ele>
        <time>2015-05-10T06:52:23Z</time>
      </trkpt>
      <trkpt lat="45.75068" lon="4.60207">
        <ele>368.8</ele>
        <time>2015-05-10T06:52:28Z</time>
      </trkpt>
      <trkpt lat="45.7506" lon="4.60213">
        <ele>370</ele>
        <time>2015-05-10T06:52:33Z</time>
      </trkpt>
      <trkpt lat="45.7505" lon="4.60223">
        <ele>371.3</ele>
        <time>2015-05-10T06:52:38Z</time>
      </trkpt>
      <trkpt lat="45.75042" lon="4.60232">
        <ele>372.9</ele>
        <time>2015-05-10T06:52:43Z</time>
      </trkpt>
      <trkpt lat="45.75038" lon="4.60243">
        <ele>373.5</ele>
        <time>2015-05-10T06:52:48Z</time>
      </trkpt>
      <trkpt lat="45.75032" lon="4.60257">
        <ele>375</ele>
        <time>2015-05-10T06:52:53Z</time>
      </trkpt>
      <trkpt lat="45.75028" lon="4.60268">
        <ele>376.4</ele>
        <time>2015-05-10T06:52:58Z</time>
      </trkpt>
      <trkpt lat="45.75023" lon="4.6028">
        <ele>378</ele>
        <time>2015-05-10T06:53:03Z</time>
      </trkpt>
      <trkpt lat="45.75022" lon="4.60288">
        <ele>378.6</ele>
        <time>2015-05-10T06:53:08Z</time>
      </trkpt>
      <trkpt lat="45.7502" lon="4.60298">
        <ele>380.9</ele>
        <time>2015-05-10T06:53:13Z</time>
      </trkpt>
      <trkpt lat="45.75018" lon="4.60308">
        <ele>382.1</ele>
        <time>2015-05-10T06:53:18Z</time>
      </trkpt>
      <trkpt lat="45.7502" lon="4.60317">
        <ele>382.9</ele>
        <time>2015-05-10T06:53:23Z</time>
      </trkpt>
      <trkpt lat="45.75028" lon="4.60317">
        <ele>383.8</ele>
        <time>2015-05-10T06:53:28Z</time>
      </trkpt>
      <trkpt lat="45.75037" lon="4.6031">
        <ele>385.5</ele>
        <time>2015-05-10T06:53:33Z</time>
      </trkpt>
      <trkpt lat="45.75043" lon="4.60303">
        <ele>385.8</ele>
        <time>2015-05-10T06:53:38Z</time>
      </trkpt>
      <trkpt lat="45.75052" lon="4.603">
        <ele>387.9</ele>
        <time>2015-05-10T06:53:43Z</time>
      </trkpt>
      <trkpt lat="45.7506" lon="4.60298">
        <ele>389</ele>
        <time>2015-05-10T06:53:48Z</time>
      </trkpt>
      <trkpt lat="45.75068" lon="4.60297">
        <ele>390</ele>
        <time>2015-05-10T06:53:53Z</time>
      </trkpt>
      <trkpt lat="45.75077" lon="4.60298">
        <ele>391.3</ele>
        <time>2015-05-10T06:53:58Z</time>
      </trkpt>
      <trkpt lat="45.75082" lon="4.603">
        <ele>393</ele>
        <time>2015-05-10T06:54:03Z</time>
      </trkpt>
      <trkpt lat="45.7509" lon="4.60302">
        <ele>394.2</ele>
        <time>2015-05-10T06:54:08Z</time>
      </trkpt>
      <trkpt lat="45.75095" lon="4.60307">
        <ele>395.5</ele>
        <time>2015-05-10T06:54:13Z</time>
      </trkpt>
      <trkpt lat="45.75102" lon="4.6031">
        <ele>396.5</ele>
        <time>2015-05-10T06:54:18Z</time>
      </trkpt>
      <trkpt lat="45.75108" lon="4.60313">
        <ele>397.3</ele>
        <time>2015-05-10T06:54:23Z</time>
      </trkpt>
      <trkpt lat="45.75113" lon="4.60317">
        <ele>398.6</ele>
        <time>2015-05-10T06:54:28Z</time>
      </trkpt>
      <trkpt lat="45.75122" lon="4.60323">
        <ele>399</ele>
        <time>2015-05-10T06:54:33Z</time>
      </trkpt>
      <trkpt lat="45.75128" lon="4.60325">
        <ele>400.4</ele>
        <time>2015-05-10T06:54:38Z</time>
      </trkpt>
      <trkpt lat="45.75135" lon="4.6033">
        <ele>400.6</ele>
        <time>2015-05-10T06:54:43Z</time>
      </trkpt>
      <trkpt lat="45.75142" lon="4.60332">
        <ele>403</ele>
        <time>2015-05-10T06:54:48Z</time>
      </trkpt>
      <trkpt lat="45.75148" lon="4.60335">
        <ele>404</ele>
        <time>2015-05-10T06:54:53Z</time>
      </trkpt>
      <trkpt lat="45.75157" lon="4.60338">
        <ele>404.9</ele>
        <time>2015-05-10T06:54:58Z</time>
      </trkpt>
      <trkpt lat="45.75163" lon="4.60343">
        <ele>406</ele>
        <time>2015-05-10T06:55:03Z</time>
      </trkpt>
      <trkpt lat="45.7517" lon="4.6035">
        <ele>407</ele>
        <time>2015-05-10T06:55:08Z</time>
      </trkpt>
      <trkpt lat="45.75177" lon="4.60355">
        <ele>407.9</ele>
        <time>2015-05-10T06:55:13Z</time>
      </trkpt>
      <trkpt lat="45.75183" lon="4.6036">
        <ele>408.8</ele>
        <time>2015-05-10T06:55:18Z</time>
      </trkpt>
      <trkpt lat="45.75192" lon="4.60363">
        <ele>410.8</ele>
        <time>2015-05-10T06:55:23Z</time>
      </trkpt>
      <trkpt lat="45.75197" lon="4.60362">
        <ele>411.6</ele>
        <time>2015-05-10T06:55:28Z</time>
      </trkpt>
      <trkpt lat="45.75205" lon="4.60357">
        <ele>411.6</ele>
        <time>2015-05-10T06:55:33Z</time>
      </trkpt>
      <trkpt lat="45.7521" lon="4.60353">
        <ele>414.5</ele>
        <time>2015-05-10T06:55:38Z</time>
      </trkpt>
      <trkpt lat="45.75217" lon="4.60347">
        <ele>417.4</ele>
        <time>2015-05-10T06:55:43Z</time>
      </trkpt>
      <trkpt lat="45.75223" lon="4.60342">
        <ele>416.5</ele>
        <time>2015-05-10T06:55:48Z</time>
      </trkpt>
      <trkpt lat="45.75228" lon="4.60338">
        <ele>418.1</ele>
        <time>2015-05-10T06:55:53Z</time>
      </trkpt>
      <trkpt lat="45.75235" lon="4.60338">
        <ele>418.3</ele>
        <time>2015-05-10T06:55:58Z</time>
      </trkpt>
      <trkpt lat="45.75243" lon="4.60337">
        <ele>419.4</ele>
        <time>2015-05-10T06:56:03Z</time>
      </trkpt>
      <trkpt lat="45.75252" lon="4.60335">
        <ele>421.1</ele>
        <time>2015-05-10T06:56:08Z</time>
      </trkpt>
      <trkpt lat="45.7526" lon="4.6033">
        <ele>421.7</ele>
        <time>2015-05-10T06:56:13Z</time>
      </trkpt>
      <trkpt lat="45.75263" lon="4.60323">
        <ele>422.7</ele>
        <time>2015-05-10T06:56:18Z</time>
      </trkpt>
      <trkpt lat="45.7527" lon="4.60323">
        <ele>424</ele>
        <time>2015-05-10T06:56:23Z</time>
      </trkpt>
      <trkpt lat="45.75277" lon="4.6033">
        <ele>424.1</ele>
        <time>2015-05-10T06:56:28Z</time>
      </trkpt>
      <trkpt lat="45.75283" lon="4.60335">
        <ele>424.9</ele>
        <time>2015-05-10T06:56:33Z</time>
      </trkpt>
      <trkpt lat="45.75288" lon="4.6034">
        <ele>426.5</ele>
        <time>2015-05-10T06:56:38Z</time>
      </trkpt>
      <trkpt lat="45.75295" lon="4.60345">
        <ele>427.9</ele>
        <time>2015-05-10T06:56:43Z</time>
      </trkpt>
      <trkpt lat="45.753" lon="4.60353">
        <ele>428.1</ele>
        <time>2015-05-10T06:56:48Z</time>
      </trkpt>
      <trkpt lat="45.753" lon="4.60363">
        <ele>429.8</ele>
        <time>2015-05-10T06:56:53Z</time>
      </trkpt>
      <trkpt lat="45.75297" lon="4.60368">
        <ele>431.1</ele>
        <time>2015-05-10T06:56:58Z</time>
      </trkpt>
      <trkpt lat="45.7529" lon="4.60375">
        <ele>432.5</ele>
        <time>2015-05-10T06:57:03Z</time>
      </trkpt>
      <trkpt lat="45.75282" lon="4.60378">
        <ele>433.3</ele>
        <time>2015-05-10T06:57:08Z</time>
      </trkpt>
      <trkpt lat="45.75277" lon="4.60383">
        <ele>434.1</ele>
        <time>2015-05-10T06:57:13Z</time>
      </trkpt>
      <trkpt lat="45.75272" lon="4.60392">
        <ele>436</ele>
        <time>2015-05-10T06:57:18Z</time>
      </trkpt>
      <trkpt lat="45.75268" lon="4.60398">
        <ele>436.9</ele>
        <time>2015-05-10T06:57:23Z</time>
      </trkpt>
      <trkpt lat="45.75267" lon="4.60407">
        <ele>437.2</ele>
        <time>2015-05-10T06:57:28Z</time>
      </trkpt>
      <trkpt lat="45.75265" lon="4.60417">
        <ele>438.5</ele>
        <time>2015-05-10T06:57:33Z</time>
      </trkpt>
      <trkpt lat="45.75263" lon="4.60427">
        <ele>439.4</ele>
        <time>2015-05-10T06:57:38Z</time>
      </trkpt>
      <trkpt lat="45.75263" lon="4.60435">
        <ele>440.4</ele>
        <time>2015-05-10T06:57:43Z</time>
      </trkpt>
      <trkpt lat="45.75263" lon="4.60445">
        <ele>441.6</ele>
        <time>2015-05-10T06:57:48Z</time>
      </trkpt>
      <trkpt lat="45.75263" lon="4.60455">
        <ele>443.5</ele>
        <time>2015-05-10T06:57:53Z</time>
      </trkpt>
      <trkpt lat="45.75265" lon="4.60463">
        <ele>444.2</ele>
        <time>2015-05-10T06:57:58Z</time>
      </trkpt>
      <trkpt lat="45.75265" lon="4.60472">
        <ele>445.1</ele>
        <time>2015-05-10T06:58:03Z</time>
      </trkpt>
      <trkpt lat="45.75265" lon="4.60483">
        <ele>446.2</ele>
        <time>2015-05-10T06:58:08Z</time>
      </trkpt>
      <trkpt lat="45.75267" lon="4.60493">
        <ele>447.5</ele>
        <time>2015-05-10T06:58:13Z</time>
      </trkpt>
      <trkpt lat="45.7527" lon="4.60502">
        <ele>448.2</ele>
        <time>2015-05-10T06:58:18Z</time>
      </trkpt>
      <trkpt lat="45.75273" lon="4.60512">
        <ele>449.6</ele>
        <time>2015-05-10T06:58:23Z</time>
      </trkpt>
      <trkpt lat="45.75277" lon="4.6052">
        <ele>450</ele>
        <time>2015-05-10T06:58:28Z</time>
      </trkpt>
      <trkpt lat="45.75282" lon="4.6053">
        <ele>450.2</ele>
        <time>2015-05-10T06:58:33Z</time>
      </trkpt>
      <trkpt lat="45.75283" lon="4.60542">
        <ele>451.3</ele>
        <time>2015-05-10T06:58:38Z</time>
      </trkpt>
      <trkpt lat="45.75288" lon="4.6055">
        <ele>451.2</ele>
        <time>2015-05-10T06:58:43Z</time>
      </trkpt>
      <trkpt lat="45.75292" lon="4.60562">
        <ele>452</ele>
        <time>2015-05-10T06:58:48Z</time>
      </trkpt>
      <trkpt lat="45.75292" lon="4.60573">
        <ele>452.8</ele>
        <time>2015-05-10T06:58:53Z</time>
      </trkpt>
      <trkpt lat="45.75295" lon="4.60587">
        <ele>452.9</ele>
        <time>2015-05-10T06:58:58Z</time>
      </trkpt>
      <trkpt lat="45.75295" lon="4.60598">
        <ele>454</ele>
        <time>2015-05-10T06:59:03Z</time>
      </trkpt>
      <trkpt lat="45.75295" lon="4.60612">
        <ele>453.9</ele>
        <time>2015-05-10T06:59:08Z</time>
      </trkpt>
      <trkpt lat="45.75295" lon="4.60623">
        <ele>455.7</ele>
        <time>2015-05-10T06:59:13Z</time>
      </trkpt>
      <trkpt lat="45.75292" lon="4.60635">
        <ele>455.9</ele>
        <time>2015-05-10T06:59:18Z</time>
      </trkpt>
      <trkpt lat="45.75292" lon="4.6065">
        <ele>456.7</ele>
        <time>2015-05-10T06:59:23Z</time>
      </trkpt>
      <trkpt lat="45.75292" lon="4.60665">
        <ele>458</ele>
        <time>2015-05-10T06:59:28Z</time>
      </trkpt>
      <trkpt lat="45.75292" lon="4.60678">
        <ele>458.7</ele>
        <time>2015-05-10T06:59:33Z</time>
      </trkpt>
      <trkpt lat="45.75293" lon="4.60692">
        <ele>459.9</ele>
        <time>2015-05-10T06:59:38Z</time>
      </trkpt>
      <trkpt lat="45.75295" lon="4.60707">
        <ele>460.6</ele>
        <time>2015-05-10T06:59:43Z</time>
      </trkpt>
      <trkpt lat="45.75295" lon="4.6072">
        <ele>462</ele>
        <time>2015-05-10T06:59:48Z</time>
      </trkpt>
      <trkpt lat="45.75295" lon="4.60735">
        <ele>463.1</ele>
        <time>2015-05-10T06:59:53Z</time>
      </trkpt>
      <trkpt lat="45.75297" lon="4.60747">
        <ele>463.8</ele>
        <time>2015-05-10T06:59:58Z</time>
      </trkpt>
      <trkpt lat="45.75297" lon="4.6076">
        <ele>464.9</ele>
        <time>2015-05-10T07:00:03Z</time>
      </trkpt>
      <trkpt lat="45.75298" lon="4.60772">
        <ele>466.3</ele>
        <time>2015-05-10T07:00:08Z</time>
      </trkpt>
      <trkpt lat="45.75302" lon="4.60787">
        <ele>467.8</ele>
        <time>2015-05-10T07:00:13Z</time>
      </trkpt>
      <trkpt lat="45.75303" lon="4.60798">
        <ele>470</ele>
        <time>2015-05-10T07:00:18Z</time>
      </trkpt>
      <trkpt lat="45.75305" lon="4.6081">
        <ele>470.2</ele>
        <time>2015-05-10T07:00:23Z</time>
      </trkpt>
      <trkpt lat="45.75308" lon="4.60822">
        <ele>472.2</ele>
        <time>2015-05-10T07:00:28Z</time>
      </trkpt>
      <trkpt lat="45.75312" lon="4.60835">
        <ele>473.3</ele>
        <time>2015-05-10T07:00:33Z</time>
      </trkpt>
      <trkpt lat="45.75313" lon="4.60847">
        <ele>474.8</ele>
        <time>2015-05-10T07:00:38Z</time>
      </trkpt>
      <trkpt lat="45.75317" lon="4.6086">
        <ele>475.2</ele>
        <time>2015-05-10T07:00:43Z</time>
      </trkpt>
      <trkpt lat="45.75318" lon="4.6087">
        <ele>475.7</ele>
        <time>2015-05-10T07:00:48Z</time>
      </trkpt>
      <trkpt lat="45.75322" lon="4.6088">
        <ele>476.5</ele>
        <time>2015-05-10T07:00:53Z</time>
      </trkpt>
      <trkpt lat="45.75325" lon="4.6089">
        <ele>477.5</ele>
        <time>2015-05-10T07:00:58Z</time>
      </trkpt>
      <trkpt lat="45.7533" lon="4.60898">
        <ele>478.2</ele>
        <time>2015-05-10T07:01:03Z</time>
      </trkpt>
      <trkpt lat="45.75333" lon="4.60908">
        <ele>479</ele>
        <time>2015-05-10T07:01:08Z</time>
      </trkpt>
      <trkpt lat="45.75338" lon="4.60922">
        <ele>478.5</ele>
        <time>2015-05-10T07:01:13Z</time>
      </trkpt>
      <trkpt lat="45.7534" lon="4.60933">
        <ele>480.7</ele>
        <time>2015-05-10T07:01:18Z</time>
      </trkpt>
      <trkpt lat="45.75345" lon="4.60945">
        <ele>481.2</ele>
        <time>2015-05-10T07:01:23Z</time>
      </trkpt>
      <trkpt lat="45.75352" lon="4.60955">
        <ele>482.2</ele>
        <time>2015-05-10T07:01:28Z</time>
      </trkpt>
      <trkpt lat="45.75357" lon="4.60963">
        <ele>483.2</ele>
        <time>2015-05-10T07:01:33Z</time>
      </trkpt>
      <trkpt lat="45.75362" lon="4.60968">
        <ele>484.3</ele>
        <time>2015-05-10T07:01:38Z</time>
      </trkpt>
      <trkpt lat="45.75368" lon="4.60973">
        <ele>485.8</ele>
        <time>2015-05-10T07:01:43Z</time>
      </trkpt>
      <trkpt lat="45.75375" lon="4.60975">
        <ele>486.5</ele>
        <time>2015-05-10T07:01:48Z</time>
      </trkpt>
      <trkpt lat="45.75385" lon="4.60982">
        <ele>487.9</ele>
        <time>2015-05-10T07:01:53Z</time>
      </trkpt>
      <trkpt lat="45.75393" lon="4.6099">
        <ele>488.1</ele>
        <time>2015-05-10T07:01:58Z</time>
      </trkpt>
      <trkpt lat="45.754" lon="4.61002">
        <ele>489.2</ele>
        <time>2015-05-10T07:02:03Z</time>
      </trkpt>
      <trkpt lat="45.75408" lon="4.6101">
        <ele>490.3</ele>
        <time>2015-05-10T07:02:08Z</time>
      </trkpt>
      <trkpt lat="45.75417" lon="4.61015">
        <ele>491.4</ele>
        <time>2015-05-10T07:02:13Z</time>
      </trkpt>
      <trkpt lat="45.75423" lon="4.61025">
        <ele>493.2</ele>
        <time>2015-05-10T07:02:18Z</time>
      </trkpt>
      <trkpt lat="45.75428" lon="4.61033">
        <ele>494.8</ele>
        <time>2015-05-10T07:02:23Z</time>
      </trkpt>
      <trkpt lat="45.75437" lon="4.61037">
        <ele>495.5</ele>
        <time>2015-05-10T07:02:28Z</time>
      </trkpt>
      <trkpt lat="45.75443" lon="4.6104">
        <ele>495.2</ele>
        <time>2015-05-10T07:02:33Z</time>
      </trkpt>
      <trkpt lat="45.75452" lon="4.61045">
        <ele>495.7</ele>
        <time>2015-05-10T07:02:38Z</time>
      </trkpt>
      <trkpt lat="45.75458" lon="4.6105">
        <ele>496.5</ele>
        <time>2015-05-10T07:02:43Z</time>
      </trkpt>
      <trkpt lat="45.75465" lon="4.61057">
        <ele>498.4</ele>
        <time>2015-05-10T07:02:48Z</time>
      </trkpt>
      <trkpt lat="45.75472" lon="4.61063">
        <ele>497.1</ele>
        <time>2015-05-10T07:02:53Z</time>
      </trkpt>
      <trkpt lat="45.75495" lon="4.6108">
        <ele>500.7</ele>
        <time>2015-05-10T07:03:08Z</time>
      </trkpt>
      <trkpt lat="45.75503" lon="4.61085">
        <ele>502.2</ele>
        <time>2015-05-10T07:03:13Z</time>
      </trkpt>
      <trkpt lat="45.75512" lon="4.6109">
        <ele>503.3</ele>
        <time>2015-05-10T07:03:18Z</time>
      </trkpt>
      <trkpt lat="45.75518" lon="4.61093">
        <ele>504.3</ele>
        <time>2015-05-10T07:03:23Z</time>
      </trkpt>
      <trkpt lat="45.75525" lon="4.61098">
        <ele>505.6</ele>
        <time>2015-05-10T07:03:28Z</time>
      </trkpt>
      <trkpt lat="45.75532" lon="4.61103">
        <ele>505.2</ele>
        <time>2015-05-10T07:03:33Z</time>
      </trkpt>
      <trkpt lat="45.7554" lon="4.61112">
        <ele>505.3</ele>
        <time>2015-05-10T07:03:38Z</time>
      </trkpt>
      <trkpt lat="45.75548" lon="4.61118">
        <ele>505.4</ele>
        <time>2015-05-10T07:03:43Z</time>
      </trkpt>
      <trkpt lat="45.75558" lon="4.61127">
        <ele>505.3</ele>
        <time>2015-05-10T07:03:48Z</time>
      </trkpt>
      <trkpt lat="45.75568" lon="4.61133">
        <ele>506.1</ele>
        <time>2015-05-10T07:03:53Z</time>
      </trkpt>
      <trkpt lat="45.75578" lon="4.61143">
        <ele>506</ele>
        <time>2015-05-10T07:03:58Z</time>
      </trkpt>
      <trkpt lat="45.75583" lon="4.61155">
        <ele>506.7</ele>
        <time>2015-05-10T07:04:03Z</time>
      </trkpt>
      <trkpt lat="45.75593" lon="4.61168">
        <ele>507.1</ele>
        <time>2015-05-10T07:04:08Z</time>
      </trkpt>
      <trkpt lat="45.75603" lon="4.61178">
        <ele>508.3</ele>
        <time>2015-05-10T07:04:13Z</time>
      </trkpt>
      <trkpt lat="45.75613" lon="4.6119">
        <ele>508.6</ele>
        <time>2015-05-10T07:04:18Z</time>
      </trkpt>
      <trkpt lat="45.75623" lon="4.61198">
        <ele>509.5</ele>
        <time>2015-05-10T07:04:23Z</time>
      </trkpt>
      <trkpt lat="45.75632" lon="4.61208">
        <ele>509.5</ele>
        <time>2015-05-10T07:04:28Z</time>
      </trkpt>
      <trkpt lat="45.75643" lon="4.6122">
        <ele>509.9</ele>
        <time>2015-05-10T07:04:33Z</time>
      </trkpt>
      <trkpt lat="45.75653" lon="4.61232">
        <ele>511.3</ele>
        <time>2015-05-10T07:04:38Z</time>
      </trkpt>
      <trkpt lat="45.75662" lon="4.61243">
        <ele>510.9</ele>
        <time>2015-05-10T07:04:43Z</time>
      </trkpt>
      <trkpt lat="45.75668" lon="4.61255">
        <ele>512.4</ele>
        <time>2015-05-10T07:04:48Z</time>
      </trkpt>
      <trkpt lat="45.75675" lon="4.61267">
        <ele>511.7</ele>
        <time>2015-05-10T07:04:53Z</time>
      </trkpt>
      <trkpt lat="45.75682" lon="4.61278">
        <ele>512.7</ele>
        <time>2015-05-10T07:04:58Z</time>
      </trkpt>
      <trkpt lat="45.7569" lon="4.6129">
        <ele>514.7</ele>
        <time>2015-05-10T07:05:03Z</time>
      </trkpt>
      <trkpt lat="45.75698" lon="4.613">
        <ele>514.3</ele>
        <time>2015-05-10T07:05:08Z</time>
      </trkpt>
      <trkpt lat="45.75707" lon="4.6131">
        <ele>516.3</ele>
        <time>2015-05-10T07:05:13Z</time>
      </trkpt>
      <trkpt lat="45.75712" lon="4.61323">
        <ele>517.2</ele>
        <time>2015-05-10T07:05:18Z</time>
      </trkpt>
      <trkpt lat="45.75717" lon="4.61337">
        <ele>517.4</ele>
        <time>2015-05-10T07:05:23Z</time>
      </trkpt>
      <trkpt lat="45.7572" lon="4.61352">
        <ele>518.1</ele>
        <time>2015-05-10T07:05:28Z</time>
      </trkpt>
      <trkpt lat="45.75727" lon="4.61365">
        <ele>519.4</ele>
        <time>2015-05-10T07:05:33Z</time>
      </trkpt>
      <trkpt lat="45.7573" lon="4.61382">
        <ele>518.5</ele>
        <time>2015-05-10T07:05:38Z</time>
      </trkpt>
      <trkpt lat="45.75732" lon="4.61395">
        <ele>519.1</ele>
        <time>2015-05-10T07:05:43Z</time>
      </trkpt>
      <trkpt lat="45.75732" lon="4.61412">
        <ele>519.6</ele>
        <time>2015-05-10T07:05:48Z</time>
      </trkpt>
      <trkpt lat="45.7573" lon="4.61432">
        <ele>520.2</ele>
        <time>2015-05-10T07:05:53Z</time>
      </trkpt>
      <trkpt lat="45.75728" lon="4.61448">
        <ele>520.8</ele>
        <time>2015-05-10T07:05:58Z</time>
      </trkpt>
      <trkpt lat="45.75725" lon="4.61463">
        <ele>521.9</ele>
        <time>2015-05-10T07:06:03Z</time>
      </trkpt>
      <trkpt lat="45.75722" lon="4.61478">
        <ele>523</ele>
        <time>2015-05-10T07:06:08Z</time>
      </trkpt>
      <trkpt lat="45.7572" lon="4.61492">
        <ele>524</ele>
        <time>2015-05-10T07:06:13Z</time>
      </trkpt>
      <trkpt lat="45.75718" lon="4.61507">
        <ele>524.7</ele>
        <time>2015-05-10T07:06:18Z</time>
      </trkpt>
      <trkpt lat="45.75715" lon="4.61518">
        <ele>526</ele>
        <time>2015-05-10T07:06:23Z</time>
      </trkpt>
      <trkpt lat="45.75713" lon="4.61533">
        <ele>527.5</ele>
        <time>2015-05-10T07:06:28Z</time>
      </trkpt>
      <trkpt lat="45.75712" lon="4.61547">
        <ele>527.8</ele>
        <time>2015-05-10T07:06:33Z</time>
      </trkpt>
      <trkpt lat="45.75712" lon="4.6156">
        <ele>529.8</ele>
        <time>2015-05-10T07:06:38Z</time>
      </trkpt>
      <trkpt lat="45.75712" lon="4.61575">
        <ele>531.8</ele>
        <time>2015-05-10T07:06:43Z</time>
      </trkpt>
      <trkpt lat="45.75712" lon="4.61588">
        <ele>533</ele>
        <time>2015-05-10T07:06:48Z</time>
      </trkpt>
      <trkpt lat="45.75713" lon="4.61602">
        <ele>534</ele>
        <time>2015-05-10T07:06:53Z</time>
      </trkpt>
      <trkpt lat="45.75712" lon="4.61615">
        <ele>535.2</ele>
        <time>2015-05-10T07:06:58Z</time>
      </trkpt>
      <trkpt lat="45.7571" lon="4.6163">
        <ele>536.4</ele>
        <time>2015-05-10T07:07:03Z</time>
      </trkpt>
      <trkpt lat="45.75707" lon="4.61643">
        <ele>538.1</ele>
        <time>2015-05-10T07:07:08Z</time>
      </trkpt>
      <trkpt lat="45.75705" lon="4.61657">
        <ele>539.3</ele>
        <time>2015-05-10T07:07:13Z</time>
      </trkpt>
      <trkpt lat="45.757" lon="4.61667">
        <ele>541</ele>
        <time>2015-05-10T07:07:18Z</time>
      </trkpt>
      <trkpt lat="45.75692" lon="4.61672">
        <ele>541.9</ele>
        <time>2015-05-10T07:07:23Z</time>
      </trkpt>
      <trkpt lat="45.75687" lon="4.61665">
        <ele>544</ele>
        <time>2015-05-10T07:07:28Z</time>
      </trkpt>
      <trkpt lat="45.75682" lon="4.61657">
        <ele>545</ele>
        <time>2015-05-10T07:07:33Z</time>
      </trkpt>
      <trkpt lat="45.75675" lon="4.6165">
        <ele>546.6</ele>
        <time>2015-05-10T07:07:38Z</time>
      </trkpt>
      <trkpt lat="45.75667" lon="4.61648">
        <ele>549.2</ele>
        <time>2015-05-10T07:07:43Z</time>
      </trkpt>
      <trkpt lat="45.7566" lon="4.61645">
        <ele>550.9</ele>
        <time>2015-05-10T07:07:48Z</time>
      </trkpt>
      <trkpt lat="45.75653" lon="4.61642">
        <ele>552.5</ele>
        <time>2015-05-10T07:07:53Z</time>
      </trkpt>
      <trkpt lat="45.75647" lon="4.61638">
        <ele>554.5</ele>
        <time>2015-05-10T07:07:58Z</time>
      </trkpt>
      <trkpt lat="45.75642" lon="4.61643">
        <ele>555.3</ele>
        <time>2015-05-10T07:08:03Z</time>
      </trkpt>
      <trkpt lat="45.75638" lon="4.61653">
        <ele>555.4</ele>
        <time>2015-05-10T07:08:08Z</time>
      </trkpt>
      <trkpt lat="45.75637" lon="4.61668">
        <ele>556.5</ele>
        <time>2015-05-10T07:08:13Z</time>
      </trkpt>
      <trkpt lat="45.75635" lon="4.61682">
        <ele>557.7</ele>
        <time>2015-05-10T07:08:18Z</time>
      </trkpt>
      <trkpt lat="45.75635" lon="4.61693">
        <ele>557.6</ele>
        <time>2015-05-10T07:08:23Z</time>
      </trkpt>
      <trkpt lat="45.75635" lon="4.61698">
        <ele>558.4</ele>
        <time>2015-05-10T07:08:28Z</time>
      </trkpt>
      <trkpt lat="45.75635" lon="4.61698">
        <ele>557.3</ele>
        <time>2015-05-10T07:08:43Z</time>
      </trkpt>
      <trkpt lat="45.7564" lon="4.61698">
        <ele>558.9</ele>
        <time>2015-05-10T07:08:48Z</time>
      </trkpt>
      <trkpt lat="45.75638" lon="4.61698">
        <ele>557.7</ele>
        <time>2015-05-10T07:08:53Z</time>
      </trkpt>
      <trkpt lat="45.75637" lon="4.61693">
        <ele>557.5</ele>
        <time>2015-05-10T07:17:53Z</time>
      </trkpt>
      <trkpt lat="45.75628" lon="4.61693">
        <ele>557.9</ele>
        <time>2015-05-10T07:17:58Z</time>
      </trkpt>
      <trkpt lat="45.7562" lon="4.61705">
        <ele>557.6</ele>
        <time>2015-05-10T07:18:03Z</time>
      </trkpt>
      <trkpt lat="45.7562" lon="4.61725">
        <ele>558.1</ele>
        <time>2015-05-10T07:18:08Z</time>
      </trkpt>
      <trkpt lat="45.75622" lon="4.61743">
        <ele>558.4</ele>
        <time>2015-05-10T07:18:13Z</time>
      </trkpt>
      <trkpt lat="45.75623" lon="4.6176">
        <ele>558.2</ele>
        <time>2015-05-10T07:18:18Z</time>
      </trkpt>
      <trkpt lat="45.75623" lon="4.61767">
        <ele>558.7</ele>
        <time>2015-05-10T07:18:23Z</time>
      </trkpt>
      <trkpt lat="45.75625" lon="4.61772">
        <ele>558.4</ele>
        <time>2015-05-10T07:18:28Z</time>
      </trkpt>
      <trkpt lat="45.75628" lon="4.61775">
        <ele>558.5</ele>
        <time>2015-05-10T07:18:33Z</time>
      </trkpt>
      <trkpt lat="45.75623" lon="4.61775">
        <ele>558.5</ele>
        <time>2015-05-10T07:18:38Z</time>
      </trkpt>
      <trkpt lat="45.75613" lon="4.61782">
        <ele>557.7</ele>
        <time>2015-05-10T07:18:43Z</time>
      </trkpt>
      <trkpt lat="45.75603" lon="4.6179">
        <ele>557.9</ele>
        <time>2015-05-10T07:18:48Z</time>
      </trkpt>
      <trkpt lat="45.75593" lon="4.6179">
        <ele>559.4</ele>
        <time>2015-05-10T07:18:53Z</time>
      </trkpt>
      <trkpt lat="45.75585" lon="4.61782">
        <ele>560.1</ele>
        <time>2015-05-10T07:18:58Z</time>
      </trkpt>
      <trkpt lat="45.75577" lon="4.61767">
        <ele>561</ele>
        <time>2015-05-10T07:19:03Z</time>
      </trkpt>
      <trkpt lat="45.7557" lon="4.61755">
        <ele>560.4</ele>
        <time>2015-05-10T07:19:08Z</time>
      </trkpt>
      <trkpt lat="45.75563" lon="4.61745">
        <ele>562.7</ele>
        <time>2015-05-10T07:19:13Z</time>
      </trkpt>
      <trkpt lat="45.75553" lon="4.6173">
        <ele>563.8</ele>
        <time>2015-05-10T07:19:18Z</time>
      </trkpt>
      <trkpt lat="45.75547" lon="4.61718">
        <ele>565.7</ele>
        <time>2015-05-10T07:19:23Z</time>
      </trkpt>
      <trkpt lat="45.75537" lon="4.61705">
        <ele>565.9</ele>
        <time>2015-05-10T07:19:28Z</time>
      </trkpt>
      <trkpt lat="45.75527" lon="4.61695">
        <ele>567.3</ele>
        <time>2015-05-10T07:19:33Z</time>
      </trkpt>
      <trkpt lat="45.75515" lon="4.61685">
        <ele>568.5</ele>
        <time>2015-05-10T07:19:38Z</time>
      </trkpt>
      <trkpt lat="45.75503" lon="4.61673">
        <ele>569.3</ele>
        <time>2015-05-10T07:19:43Z</time>
      </trkpt>
      <trkpt lat="45.75493" lon="4.61667">
        <ele>569.7</ele>
        <time>2015-05-10T07:19:48Z</time>
      </trkpt>
      <trkpt lat="45.75483" lon="4.6166">
        <ele>570.8</ele>
        <time>2015-05-10T07:19:53Z</time>
      </trkpt>
      <trkpt lat="45.75472" lon="4.61652">
        <ele>573.4</ele>
        <time>2015-05-10T07:19:58Z</time>
      </trkpt>
      <trkpt lat="45.7546" lon="4.61647">
        <ele>573.9</ele>
        <time>2015-05-10T07:20:03Z</time>
      </trkpt>
      <trkpt lat="45.75452" lon="4.61643">
        <ele>576.5</ele>
        <time>2015-05-10T07:20:08Z</time>
      </trkpt>
      <trkpt lat="45.7544" lon="4.61642">
        <ele>577.6</ele>
        <time>2015-05-10T07:20:13Z</time>
      </trkpt>
      <trkpt lat="45.75427" lon="4.61637">
        <ele>578.6</ele>
        <time>2015-05-10T07:20:18Z</time>
      </trkpt>
      <trkpt lat="45.75415" lon="4.6163">
        <ele>578.6</ele>
        <time>2015-05-10T07:20:23Z</time>
      </trkpt>
      <trkpt lat="45.75405" lon="4.61623">
        <ele>579.9</ele>
        <time>2015-05-10T07:20:28Z</time>
      </trkpt>
      <trkpt lat="45.75395" lon="4.61618">
        <ele>580.9</ele>
        <time>2015-05-10T07:20:33Z</time>
      </trkpt>
      <trkpt lat="45.75385" lon="4.6161">
        <ele>580.9</ele>
        <time>2015-05-10T07:20:38Z</time>
      </trkpt>
      <trkpt lat="45.75373" lon="4.61602">
        <ele>581.4</ele>
        <time>2015-05-10T07:20:43Z</time>
      </trkpt>
      <trkpt lat="45.7536" lon="4.61593">
        <ele>582.4</ele>
        <time>2015-05-10T07:20:48Z</time>
      </trkpt>
      <trkpt lat="45.75347" lon="4.61588">
        <ele>582.1</ele>
        <time>2015-05-10T07:20:53Z</time>
      </trkpt>
      <trkpt lat="45.75335" lon="4.61587">
        <ele>583.2</ele>
        <time>2015-05-10T07:20:58Z</time>
      </trkpt>
      <trkpt lat="45.75323" lon="4.61585">
        <ele>583.4</ele>
        <time>2015-05-10T07:21:03Z</time>
      </trkpt>
      <trkpt lat="45.7531" lon="4.61582">
        <ele>582.9</ele>
        <time>2015-05-10T07:21:08Z</time>
      </trkpt>
      <trkpt lat="45.75298" lon="4.61567">
        <ele>582.3</ele>
        <time>2015-05-10T07:21:13Z</time>
      </trkpt>
      <trkpt lat="45.7529" lon="4.61548">
        <ele>581</ele>
        <time>2015-05-10T07:21:18Z</time>
      </trkpt>
      <trkpt lat="45.75285" lon="4.61513">
        <ele>579.4</ele>
        <time>2015-05-10T07:21:23Z</time>
      </trkpt>
      <trkpt lat="45.75278" lon="4.61468">
        <ele>577.2</ele>
        <time>2015-05-10T07:21:28Z</time>
      </trkpt>
      <trkpt lat="45.75277" lon="4.61417">
        <ele>574.7</ele>
        <time>2015-05-10T07:21:33Z</time>
      </trkpt>
      <trkpt lat="45.75278" lon="4.61392">
        <ele>572.7</ele>
        <time>2015-05-10T07:21:38Z</time>
      </trkpt>
      <trkpt lat="45.75273" lon="4.61363">
        <ele>570.4</ele>
        <time>2015-05-10T07:21:43Z</time>
      </trkpt>
      <trkpt lat="45.75265" lon="4.61315">
        <ele>566</ele>
        <time>2015-05-10T07:21:48Z</time>
      </trkpt>
      <trkpt lat="45.75253" lon="4.61263">
        <ele>568.9</ele>
        <time>2015-05-10T07:21:53Z</time>
      </trkpt>
      <trkpt lat="45.75242" lon="4.61213">
        <ele>564.7</ele>
        <time>2015-05-10T07:21:58Z</time>
      </trkpt>
      <trkpt lat="45.75218" lon="4.61172">
        <ele>564.4</ele>
        <time>2015-05-10T07:22:03Z</time>
      </trkpt>
      <trkpt lat="45.75193" lon="4.61142">
        <ele>559.7</ele>
        <time>2015-05-10T07:22:08Z</time>
      </trkpt>
      <trkpt lat="45.7517" lon="4.61103">
        <ele>559.8</ele>
        <time>2015-05-10T07:22:13Z</time>
      </trkpt>
      <trkpt lat="45.75152" lon="4.6107">
        <ele>560.2</ele>
        <time>2015-05-10T07:22:18Z</time>
      </trkpt>
      <trkpt lat="45.75133" lon="4.61032">
        <ele>556.9</ele>
        <time>2015-05-10T07:22:23Z</time>
      </trkpt>
      <trkpt lat="45.751" lon="4.61028">
        <ele>553.6</ele>
        <time>2015-05-10T07:22:28Z</time>
      </trkpt>
      <trkpt lat="45.75072" lon="4.61032">
        <ele>555.9</ele>
        <time>2015-05-10T07:22:33Z</time>
      </trkpt>
      <trkpt lat="45.75048" lon="4.61038">
        <ele>553.8</ele>
        <time>2015-05-10T07:22:38Z</time>
      </trkpt>
      <trkpt lat="45.75022" lon="4.61042">
        <ele>557.2</ele>
        <time>2015-05-10T07:22:43Z</time>
      </trkpt>
      <trkpt lat="45.74998" lon="4.61052">
        <ele>556.9</ele>
        <time>2015-05-10T07:22:48Z</time>
      </trkpt>
      <trkpt lat="45.7498" lon="4.61062">
        <ele>557.9</ele>
        <time>2015-05-10T07:22:53Z</time>
      </trkpt>
      <trkpt lat="45.74953" lon="4.61075">
        <ele>551</ele>
        <time>2015-05-10T07:22:58Z</time>
      </trkpt>
      <trkpt lat="45.74925" lon="4.6109">
        <ele>554</ele>
        <time>2015-05-10T07:23:03Z</time>
      </trkpt>
      <trkpt lat="45.74907" lon="4.61108">
        <ele>552</ele>
        <time>2015-05-10T07:23:08Z</time>
      </trkpt>
      <trkpt lat="45.74885" lon="4.61117">
        <ele>550.5</ele>
        <time>2015-05-10T07:23:13Z</time>
      </trkpt>
      <trkpt lat="45.74867" lon="4.6113">
        <ele>544.9</ele>
        <time>2015-05-10T07:23:18Z</time>
      </trkpt>
      <trkpt lat="45.74853" lon="4.6114">
        <ele>545.8</ele>
        <time>2015-05-10T07:23:23Z</time>
      </trkpt>
      <trkpt lat="45.74837" lon="4.61148">
        <ele>543.8</ele>
        <time>2015-05-10T07:23:28Z</time>
      </trkpt>
      <trkpt lat="45.7482" lon="4.61152">
        <ele>537.4</ele>
        <time>2015-05-10T07:23:33Z</time>
      </trkpt>
      <trkpt lat="45.74807" lon="4.61158">
        <ele>535.6</ele>
        <time>2015-05-10T07:23:38Z</time>
      </trkpt>
      <trkpt lat="45.74797" lon="4.61163">
        <ele>535.1</ele>
        <time>2015-05-10T07:23:43Z</time>
      </trkpt>
      <trkpt lat="45.74797" lon="4.61175">
        <ele>534.7</ele>
        <time>2015-05-10T07:23:48Z</time>
      </trkpt>
      <trkpt lat="45.74792" lon="4.61187">
        <ele>534.5</ele>
        <time>2015-05-10T07:23:53Z</time>
      </trkpt>
      <trkpt lat="45.74788" lon="4.61198">
        <ele>535.2</ele>
        <time>2015-05-10T07:23:58Z</time>
      </trkpt>
      <trkpt lat="45.74777" lon="4.61212">
        <ele>534.4</ele>
        <time>2015-05-10T07:24:03Z</time>
      </trkpt>
      <trkpt lat="45.74765" lon="4.61243">
        <ele>529.9</ele>
        <time>2015-05-10T07:24:08Z</time>
      </trkpt>
      <trkpt lat="45.74745" lon="4.61277">
        <ele>529.4</ele>
        <time>2015-05-10T07:24:13Z</time>
      </trkpt>
      <trkpt lat="45.74725" lon="4.61312">
        <ele>524.2</ele>
        <time>2015-05-10T07:24:18Z</time>
      </trkpt>
      <trkpt lat="45.74707" lon="4.61352">
        <ele>523.8</ele>
        <time>2015-05-10T07:24:23Z</time>
      </trkpt>
      <trkpt lat="45.74685" lon="4.61398">
        <ele>520.8</ele>
        <time>2015-05-10T07:24:28Z</time>
      </trkpt>
      <trkpt lat="45.74655" lon="4.61435">
        <ele>511.1</ele>
        <time>2015-05-10T07:24:33Z</time>
      </trkpt>
      <trkpt lat="45.74627" lon="4.61455">
        <ele>508.6</ele>
        <time>2015-05-10T07:24:38Z</time>
      </trkpt>
      <trkpt lat="45.74605" lon="4.6147">
        <ele>504.6</ele>
        <time>2015-05-10T07:24:43Z</time>
      </trkpt>
      <trkpt lat="45.74568" lon="4.61482">
        <ele>505.6</ele>
        <time>2015-05-10T07:24:48Z</time>
      </trkpt>
      <trkpt lat="45.74528" lon="4.61507">
        <ele>501.6</ele>
        <time>2015-05-10T07:24:53Z</time>
      </trkpt>
      <trkpt lat="45.74493" lon="4.61537">
        <ele>493.4</ele>
        <time>2015-05-10T07:24:58Z</time>
      </trkpt>
      <trkpt lat="45.74468" lon="4.61557">
        <ele>488.6</ele>
        <time>2015-05-10T07:25:03Z</time>
      </trkpt>
      <trkpt lat="45.74447" lon="4.61583">
        <ele>478.4</ele>
        <time>2015-05-10T07:25:08Z</time>
      </trkpt>
      <trkpt lat="45.74412" lon="4.61613">
        <ele>471.7</ele>
        <time>2015-05-10T07:25:13Z</time>
      </trkpt>
      <trkpt lat="45.7438" lon="4.61638">
        <ele>468.1</ele>
        <time>2015-05-10T07:25:18Z</time>
      </trkpt>
      <trkpt lat="45.74353" lon="4.6165">
        <ele>465.5</ele>
        <time>2015-05-10T07:25:23Z</time>
      </trkpt>
      <trkpt lat="45.74332" lon="4.61663">
        <ele>468</ele>
        <time>2015-05-10T07:25:28Z</time>
      </trkpt>
      <trkpt lat="45.74315" lon="4.6169">
        <ele>462.7</ele>
        <time>2015-05-10T07:25:33Z</time>
      </trkpt>
      <trkpt lat="45.7431" lon="4.6172">
        <ele>456.5</ele>
        <time>2015-05-10T07:25:38Z</time>
      </trkpt>
      <trkpt lat="45.74293" lon="4.61752">
        <ele>450</ele>
        <time>2015-05-10T07:25:43Z</time>
      </trkpt>
      <trkpt lat="45.74275" lon="4.6178">
        <ele>455.8</ele>
        <time>2015-05-10T07:25:48Z</time>
      </trkpt>
      <trkpt lat="45.74258" lon="4.61807">
        <ele>446.5</ele>
        <time>2015-05-10T07:25:53Z</time>
      </trkpt>
      <trkpt lat="45.74245" lon="4.61847">
        <ele>442.8</ele>
        <time>2015-05-10T07:25:58Z</time>
      </trkpt>
      <trkpt lat="45.74243" lon="4.61917">
        <ele>438.8</ele>
        <time>2015-05-10T07:26:03Z</time>
      </trkpt>
      <trkpt lat="45.74248" lon="4.6198">
        <ele>436.9</ele>
        <time>2015-05-10T07:26:08Z</time>
      </trkpt>
      <trkpt lat="45.74257" lon="4.62043">
        <ele>434.6</ele>
        <time>2015-05-10T07:26:13Z</time>
      </trkpt>
      <trkpt lat="45.74277" lon="4.62083">
        <ele>424.5</ele>
        <time>2015-05-10T07:26:18Z</time>
      </trkpt>
      <trkpt lat="45.74288" lon="4.62098">
        <ele>420.5</ele>
        <time>2015-05-10T07:26:23Z</time>
      </trkpt>
      <trkpt lat="45.7428" lon="4.6215">
        <ele>418.3</ele>
        <time>2015-05-10T07:26:28Z</time>
      </trkpt>
      <trkpt lat="45.74265" lon="4.62207">
        <ele>410.9</ele>
        <time>2015-05-10T07:26:33Z</time>
      </trkpt>
      <trkpt lat="45.74247" lon="4.6226">
        <ele>396.8</ele>
        <time>2015-05-10T07:26:38Z</time>
      </trkpt>
      <trkpt lat="45.74228" lon="4.62302">
        <ele>392.9</ele>
        <time>2015-05-10T07:26:43Z</time>
      </trkpt>
      <trkpt lat="45.74193" lon="4.62312">
        <ele>390.3</ele>
        <time>2015-05-10T07:26:48Z</time>
      </trkpt>
      <trkpt lat="45.74163" lon="4.62367">
        <ele>384.5</ele>
        <time>2015-05-10T07:26:53Z</time>
      </trkpt>
      <trkpt lat="45.74142" lon="4.62455">
        <ele>373.6</ele>
        <time>2015-05-10T07:26:58Z</time>
      </trkpt>
      <trkpt lat="45.74137" lon="4.62545">
        <ele>371.8</ele>
        <time>2015-05-10T07:27:03Z</time>
      </trkpt>
      <trkpt lat="45.7414" lon="4.62617">
        <ele>364.4</ele>
        <time>2015-05-10T07:27:08Z</time>
      </trkpt>
      <trkpt lat="45.74132" lon="4.62675">
        <ele>367.7</ele>
        <time>2015-05-10T07:27:13Z</time>
      </trkpt>
      <trkpt lat="45.74125" lon="4.62703">
        <ele>367.2</ele>
        <time>2015-05-10T07:27:18Z</time>
      </trkpt>
      <trkpt lat="45.74128" lon="4.62722">
        <ele>369.2</ele>
        <time>2015-05-10T07:27:23Z</time>
      </trkpt>
      <trkpt lat="45.74133" lon="4.62747">
        <ele>368</ele>
        <time>2015-05-10T07:27:28Z</time>
      </trkpt>
      <trkpt lat="45.74138" lon="4.62783">
        <ele>364.2</ele>
        <time>2015-05-10T07:27:33Z</time>
      </trkpt>
      <trkpt lat="45.74127" lon="4.62827">
        <ele>358.2</ele>
        <time>2015-05-10T07:27:38Z</time>
      </trkpt>
      <trkpt lat="45.74112" lon="4.6286">
        <ele>353.7</ele>
        <time>2015-05-10T07:27:43Z</time>
      </trkpt>
      <trkpt lat="45.74085" lon="4.6288">
        <ele>350.6</ele>
        <time>2015-05-10T07:27:48Z</time>
      </trkpt>
      <trkpt lat="45.74065" lon="4.629">
        <ele>347.4</ele>
        <time>2015-05-10T07:27:53Z</time>
      </trkpt>
      <trkpt lat="45.74048" lon="4.62903">
        <ele>346.2</ele>
        <time>2015-05-10T07:27:58Z</time>
      </trkpt>
      <trkpt lat="45.74048" lon="4.62903">
        <ele>348</ele>
        <time>2015-05-10T07:28:03Z</time>
      </trkpt>
      <trkpt lat="45.74048" lon="4.62903">
        <ele>347.4</ele>
        <time>2015-05-10T07:28:08Z</time>
      </trkpt>
      <trkpt lat="45.7404" lon="4.62905">
        <ele>348.4</ele>
        <time>2015-05-10T07:28:13Z</time>
      </trkpt>
      <trkpt lat="45.74032" lon="4.6291">
        <ele>350.7</ele>
        <time>2015-05-10T07:28:18Z</time>
      </trkpt>
      <trkpt lat="45.74022" lon="4.62913">
        <ele>352</ele>
        <time>2015-05-10T07:28:23Z</time>
      </trkpt>
      <trkpt lat="45.74013" lon="4.62913">
        <ele>353.6</ele>
        <time>2015-05-10T07:28:28Z</time>
      </trkpt>
      <trkpt lat="45.74007" lon="4.62912">
        <ele>355.9</ele>
        <time>2015-05-10T07:28:33Z</time>
      </trkpt>
      <trkpt lat="45.73998" lon="4.62912">
        <ele>357.1</ele>
        <time>2015-05-10T07:28:38Z</time>
      </trkpt>
      <trkpt lat="45.73993" lon="4.62912">
        <ele>359.1</ele>
        <time>2015-05-10T07:28:43Z</time>
      </trkpt>
      <trkpt lat="45.73987" lon="4.6291">
        <ele>361.7</ele>
        <time>2015-05-10T07:28:48Z</time>
      </trkpt>
      <trkpt lat="45.73982" lon="4.62912">
        <ele>362.2</ele>
        <time>2015-05-10T07:28:53Z</time>
      </trkpt>
      <trkpt lat="45.73977" lon="4.62912">
        <ele>364.6</ele>
        <time>2015-05-10T07:28:58Z</time>
      </trkpt>
      <trkpt lat="45.7397" lon="4.62912">
        <ele>365.9</ele>
        <time>2015-05-10T07:29:03Z</time>
      </trkpt>
      <trkpt lat="45.73963" lon="4.62913">
        <ele>367.8</ele>
        <time>2015-05-10T07:29:08Z</time>
      </trkpt>
      <trkpt lat="45.73958" lon="4.62915">
        <ele>368.5</ele>
        <time>2015-05-10T07:29:13Z</time>
      </trkpt>
      <trkpt lat="45.73953" lon="4.62917">
        <ele>368.9</ele>
        <time>2015-05-10T07:29:18Z</time>
      </trkpt>
      <trkpt lat="45.73947" lon="4.62915">
        <ele>370.5</ele>
        <time>2015-05-10T07:29:23Z</time>
      </trkpt>
      <trkpt lat="45.73942" lon="4.6291">
        <ele>371.1</ele>
        <time>2015-05-10T07:29:28Z</time>
      </trkpt>
      <trkpt lat="45.73937" lon="4.62905">
        <ele>372.6</ele>
        <time>2015-05-10T07:29:33Z</time>
      </trkpt>
      <trkpt lat="45.73933" lon="4.62897">
        <ele>375</ele>
        <time>2015-05-10T07:29:38Z</time>
      </trkpt>
      <trkpt lat="45.73927" lon="4.62893">
        <ele>376.2</ele>
        <time>2015-05-10T07:29:43Z</time>
      </trkpt>
      <trkpt lat="45.73922" lon="4.62888">
        <ele>377.8</ele>
        <time>2015-05-10T07:29:48Z</time>
      </trkpt>
      <trkpt lat="45.73917" lon="4.62885">
        <ele>378</ele>
        <time>2015-05-10T07:29:53Z</time>
      </trkpt>
      <trkpt lat="45.7391" lon="4.6288">
        <ele>378.8</ele>
        <time>2015-05-10T07:29:58Z</time>
      </trkpt>
      <trkpt lat="45.73903" lon="4.62875">
        <ele>380.3</ele>
        <time>2015-05-10T07:30:03Z</time>
      </trkpt>
      <trkpt lat="45.739" lon="4.62872">
        <ele>381.8</ele>
        <time>2015-05-10T07:30:08Z</time>
      </trkpt>
      <trkpt lat="45.73893" lon="4.62868">
        <ele>383.1</ele>
        <time>2015-05-10T07:30:13Z</time>
      </trkpt>
      <trkpt lat="45.7389" lon="4.62862">
        <ele>384.7</ele>
        <time>2015-05-10T07:30:18Z</time>
      </trkpt>
      <trkpt lat="45.73888" lon="4.6286">
        <ele>385.9</ele>
        <time>2015-05-10T07:30:23Z</time>
      </trkpt>
      <trkpt lat="45.73885" lon="4.62858">
        <ele>386</ele>
        <time>2015-05-10T07:30:28Z</time>
      </trkpt>
      <trkpt lat="45.73883" lon="4.62855">
        <ele>388.2</ele>
        <time>2015-05-10T07:30:33Z</time>
      </trkpt>
      <trkpt lat="45.73878" lon="4.62852">
        <ele>389.5</ele>
        <time>2015-05-10T07:30:38Z</time>
      </trkpt>
      <trkpt lat="45.73875" lon="4.62847">
        <ele>390.9</ele>
        <time>2015-05-10T07:30:43Z</time>
      </trkpt>
      <trkpt lat="45.73872" lon="4.62842">
        <ele>392.2</ele>
        <time>2015-05-10T07:30:48Z</time>
      </trkpt>
      <trkpt lat="45.73867" lon="4.6284">
        <ele>391.7</ele>
        <time>2015-05-10T07:30:53Z</time>
      </trkpt>
      <trkpt lat="45.73862" lon="4.62837">
        <ele>394.2</ele>
        <time>2015-05-10T07:30:58Z</time>
      </trkpt>
      <trkpt lat="45.73858" lon="4.62833">
        <ele>395.5</ele>
        <time>2015-05-10T07:31:03Z</time>
      </trkpt>
      <trkpt lat="45.73857" lon="4.62832">
        <ele>396.1</ele>
        <time>2015-05-10T07:31:08Z</time>
      </trkpt>
      <trkpt lat="45.73855" lon="4.62832">
        <ele>396.6</ele>
        <time>2015-05-10T07:31:13Z</time>
      </trkpt>
      <trkpt lat="45.7385" lon="4.6283">
        <ele>397.1</ele>
        <time>2015-05-10T07:31:28Z</time>
      </trkpt>
      <trkpt lat="45.73843" lon="4.62828">
        <ele>398</ele>
        <time>2015-05-10T07:31:33Z</time>
      </trkpt>
      <trkpt lat="45.73835" lon="4.62827">
        <ele>398.6</ele>
        <time>2015-05-10T07:31:38Z</time>
      </trkpt>
      <trkpt lat="45.73827" lon="4.62827">
        <ele>400.6</ele>
        <time>2015-05-10T07:31:43Z</time>
      </trkpt>
      <trkpt lat="45.73818" lon="4.62827">
        <ele>400.6</ele>
        <time>2015-05-10T07:31:48Z</time>
      </trkpt>
      <trkpt lat="45.7381" lon="4.6283">
        <ele>402.3</ele>
        <time>2015-05-10T07:31:53Z</time>
      </trkpt>
      <trkpt lat="45.738" lon="4.62835">
        <ele>402.8</ele>
        <time>2015-05-10T07:31:58Z</time>
      </trkpt>
      <trkpt lat="45.7379" lon="4.62838">
        <ele>403.5</ele>
        <time>2015-05-10T07:32:03Z</time>
      </trkpt>
      <trkpt lat="45.73782" lon="4.62842">
        <ele>404.8</ele>
        <time>2015-05-10T07:32:08Z</time>
      </trkpt>
      <trkpt lat="45.73773" lon="4.62842">
        <ele>406.2</ele>
        <time>2015-05-10T07:32:13Z</time>
      </trkpt>
      <trkpt lat="45.73765" lon="4.62843">
        <ele>406.6</ele>
        <time>2015-05-10T07:32:18Z</time>
      </trkpt>
      <trkpt lat="45.73758" lon="4.62845">
        <ele>407.1</ele>
        <time>2015-05-10T07:32:23Z</time>
      </trkpt>
      <trkpt lat="45.73748" lon="4.62843">
        <ele>409.9</ele>
        <time>2015-05-10T07:32:28Z</time>
      </trkpt>
      <trkpt lat="45.73738" lon="4.62842">
        <ele>412</ele>
        <time>2015-05-10T07:32:33Z</time>
      </trkpt>
      <trkpt lat="45.73728" lon="4.62843">
        <ele>413.3</ele>
        <time>2015-05-10T07:32:38Z</time>
      </trkpt>
      <trkpt lat="45.73718" lon="4.62845">
        <ele>413.6</ele>
        <time>2015-05-10T07:32:43Z</time>
      </trkpt>
      <trkpt lat="45.7371" lon="4.62853">
        <ele>413</ele>
        <time>2015-05-10T07:32:48Z</time>
      </trkpt>
      <trkpt lat="45.737" lon="4.62862">
        <ele>413.8</ele>
        <time>2015-05-10T07:32:53Z</time>
      </trkpt>
      <trkpt lat="45.73695" lon="4.62872">
        <ele>415.4</ele>
        <time>2015-05-10T07:32:58Z</time>
      </trkpt>
      <trkpt lat="45.73692" lon="4.62885">
        <ele>415.8</ele>
        <time>2015-05-10T07:33:03Z</time>
      </trkpt>
      <trkpt lat="45.7369" lon="4.62903">
        <ele>416.6</ele>
        <time>2015-05-10T07:33:08Z</time>
      </trkpt>
      <trkpt lat="45.7369" lon="4.62933">
        <ele>413.8</ele>
        <time>2015-05-10T07:33:13Z</time>
      </trkpt>
      <trkpt lat="45.7368" lon="4.62965">
        <ele>413.5</ele>
        <time>2015-05-10T07:33:18Z</time>
      </trkpt>
      <trkpt lat="45.73665" lon="4.62982">
        <ele>414</ele>
        <time>2015-05-10T07:33:23Z</time>
      </trkpt>
      <trkpt lat="45.73657" lon="4.62985">
        <ele>416.3</ele>
        <time>2015-05-10T07:33:28Z</time>
      </trkpt>
      <trkpt lat="45.7365" lon="4.62985">
        <ele>417.7</ele>
        <time>2015-05-10T07:33:33Z</time>
      </trkpt>
      <trkpt lat="45.73645" lon="4.62982">
        <ele>419.9</ele>
        <time>2015-05-10T07:33:38Z</time>
      </trkpt>
      <trkpt lat="45.7364" lon="4.62975">
        <ele>420.6</ele>
        <time>2015-05-10T07:33:43Z</time>
      </trkpt>
      <trkpt lat="45.73638" lon="4.62967">
        <ele>423</ele>
        <time>2015-05-10T07:33:48Z</time>
      </trkpt>
      <trkpt lat="45.73637" lon="4.62962">
        <ele>424.5</ele>
        <time>2015-05-10T07:33:53Z</time>
      </trkpt>
      <trkpt lat="45.73635" lon="4.62958">
        <ele>426.4</ele>
        <time>2015-05-10T07:33:58Z</time>
      </trkpt>
      <trkpt lat="45.73632" lon="4.62957">
        <ele>427.9</ele>
        <time>2015-05-10T07:34:03Z</time>
      </trkpt>
      <trkpt lat="45.73627" lon="4.62948">
        <ele>428.7</ele>
        <time>2015-05-10T07:34:08Z</time>
      </trkpt>
      <trkpt lat="45.73625" lon="4.6294">
        <ele>430.8</ele>
        <time>2015-05-10T07:34:13Z</time>
      </trkpt>
      <trkpt lat="45.7362" lon="4.62932">
        <ele>432.2</ele>
        <time>2015-05-10T07:34:18Z</time>
      </trkpt>
      <trkpt lat="45.7362" lon="4.6293">
        <ele>432.5</ele>
        <time>2015-05-10T07:34:23Z</time>
      </trkpt>
      <trkpt lat="45.73617" lon="4.62922">
        <ele>432.7</ele>
        <time>2015-05-10T07:34:28Z</time>
      </trkpt>
      <trkpt lat="45.73613" lon="4.62918">
        <ele>434.9</ele>
        <time>2015-05-10T07:34:33Z</time>
      </trkpt>
      <trkpt lat="45.73608" lon="4.62908">
        <ele>436.4</ele>
        <time>2015-05-10T07:34:38Z</time>
      </trkpt>
      <trkpt lat="45.73605" lon="4.62905">
        <ele>437.5</ele>
        <time>2015-05-10T07:34:43Z</time>
      </trkpt>
      <trkpt lat="45.73605" lon="4.629">
        <ele>438.2</ele>
        <time>2015-05-10T07:35:08Z</time>
      </trkpt>
      <trkpt lat="45.73597" lon="4.62893">
        <ele>439.6</ele>
        <time>2015-05-10T07:35:13Z</time>
      </trkpt>
      <trkpt lat="45.73593" lon="4.62888">
        <ele>441.9</ele>
        <time>2015-05-10T07:35:18Z</time>
      </trkpt>
      <trkpt lat="45.73587" lon="4.62883">
        <ele>442.5</ele>
        <time>2015-05-10T07:35:23Z</time>
      </trkpt>
      <trkpt lat="45.73582" lon="4.6288">
        <ele>444.1</ele>
        <time>2015-05-10T07:35:28Z</time>
      </trkpt>
      <trkpt lat="45.73577" lon="4.62877">
        <ele>445.9</ele>
        <time>2015-05-10T07:35:33Z</time>
      </trkpt>
      <trkpt lat="45.73573" lon="4.62873">
        <ele>447.3</ele>
        <time>2015-05-10T07:35:38Z</time>
      </trkpt>
      <trkpt lat="45.73567" lon="4.62872">
        <ele>448.4</ele>
        <time>2015-05-10T07:35:43Z</time>
      </trkpt>
      <trkpt lat="45.73565" lon="4.62868">
        <ele>449.9</ele>
        <time>2015-05-10T07:35:48Z</time>
      </trkpt>
      <trkpt lat="45.7356" lon="4.62865">
        <ele>450.8</ele>
        <time>2015-05-10T07:35:53Z</time>
      </trkpt>
      <trkpt lat="45.73558" lon="4.62863">
        <ele>451.8</ele>
        <time>2015-05-10T07:35:58Z</time>
      </trkpt>
      <trkpt lat="45.73555" lon="4.62862">
        <ele>452.6</ele>
        <time>2015-05-10T07:36:03Z</time>
      </trkpt>
      <trkpt lat="45.73552" lon="4.62858">
        <ele>453.7</ele>
        <time>2015-05-10T07:36:08Z</time>
      </trkpt>
      <trkpt lat="45.73547" lon="4.62857">
        <ele>455.6</ele>
        <time>2015-05-10T07:36:13Z</time>
      </trkpt>
      <trkpt lat="45.73543" lon="4.62857">
        <ele>457.1</ele>
        <time>2015-05-10T07:36:18Z</time>
      </trkpt>
      <trkpt lat="45.7354" lon="4.62853">
        <ele>457.6</ele>
        <time>2015-05-10T07:36:23Z</time>
      </trkpt>
      <trkpt lat="45.73535" lon="4.62853">
        <ele>458.1</ele>
        <time>2015-05-10T07:36:28Z</time>
      </trkpt>
      <trkpt lat="45.73535" lon="4.62853">
        <ele>458.3</ele>
        <time>2015-05-10T07:36:33Z</time>
      </trkpt>
      <trkpt lat="45.7353" lon="4.62855">
        <ele>459</ele>
        <time>2015-05-10T07:36:38Z</time>
      </trkpt>
      <trkpt lat="45.73523" lon="4.62857">
        <ele>458.8</ele>
        <time>2015-05-10T07:36:43Z</time>
      </trkpt>
      <trkpt lat="45.73513" lon="4.62855">
        <ele>457.3</ele>
        <time>2015-05-10T07:36:48Z</time>
      </trkpt>
      <trkpt lat="45.73503" lon="4.62853">
        <ele>459.2</ele>
        <time>2015-05-10T07:36:53Z</time>
      </trkpt>
      <trkpt lat="45.73492" lon="4.62847">
        <ele>459.9</ele>
        <time>2015-05-10T07:36:58Z</time>
      </trkpt>
      <trkpt lat="45.7348" lon="4.62838">
        <ele>459.5</ele>
        <time>2015-05-10T07:37:03Z</time>
      </trkpt>
      <trkpt lat="45.73468" lon="4.62828">
        <ele>460.8</ele>
        <time>2015-05-10T07:37:08Z</time>
      </trkpt>
      <trkpt lat="45.7346" lon="4.62817">
        <ele>460.6</ele>
        <time>2015-05-10T07:37:13Z</time>
      </trkpt>
      <trkpt lat="45.7345" lon="4.62803">
        <ele>461.2</ele>
        <time>2015-05-10T07:37:18Z</time>
      </trkpt>
      <trkpt lat="45.73443" lon="4.6279">
        <ele>461.5</ele>
        <time>2015-05-10T07:37:23Z</time>
      </trkpt>
      <trkpt lat="45.73435" lon="4.62772">
        <ele>460.9</ele>
        <time>2015-05-10T07:37:28Z</time>
      </trkpt>
      <trkpt lat="45.73427" lon="4.62748">
        <ele>462.8</ele>
        <time>2015-05-10T07:37:33Z</time>
      </trkpt>
      <trkpt lat="45.73417" lon="4.6273">
        <ele>458.6</ele>
        <time>2015-05-10T07:37:38Z</time>
      </trkpt>
      <trkpt lat="45.73397" lon="4.62738">
        <ele>455.5</ele>
        <time>2015-05-10T07:37:43Z</time>
      </trkpt>
      <trkpt lat="45.73375" lon="4.62745">
        <ele>457.7</ele>
        <time>2015-05-10T07:37:48Z</time>
      </trkpt>
      <trkpt lat="45.7335" lon="4.62758">
        <ele>455.2</ele>
        <time>2015-05-10T07:37:53Z</time>
      </trkpt>
      <trkpt lat="45.73328" lon="4.6277">
        <ele>455</ele>
        <time>2015-05-10T07:37:58Z</time>
      </trkpt>
      <trkpt lat="45.73303" lon="4.6278">
        <ele>453.8</ele>
        <time>2015-05-10T07:38:03Z</time>
      </trkpt>
      <trkpt lat="45.73275" lon="4.62798">
        <ele>443.3</ele>
        <time>2015-05-10T07:38:08Z</time>
      </trkpt>
      <trkpt lat="45.73242" lon="4.62828">
        <ele>440.1</ele>
        <time>2015-05-10T07:38:13Z</time>
      </trkpt>
      <trkpt lat="45.73225" lon="4.6283">
        <ele>435.8</ele>
        <time>2015-05-10T07:38:18Z</time>
      </trkpt>
      <trkpt lat="45.73218" lon="4.62787">
        <ele>429.1</ele>
        <time>2015-05-10T07:38:23Z</time>
      </trkpt>
      <trkpt lat="45.7321" lon="4.62747">
        <ele>433.2</ele>
        <time>2015-05-10T07:38:28Z</time>
      </trkpt>
      <trkpt lat="45.73205" lon="4.62727">
        <ele>420.3</ele>
        <time>2015-05-10T07:38:33Z</time>
      </trkpt>
      <trkpt lat="45.732" lon="4.6272">
        <ele>419.1</ele>
        <time>2015-05-10T07:38:38Z</time>
      </trkpt>
      <trkpt lat="45.73202" lon="4.62713">
        <ele>419.2</ele>
        <time>2015-05-10T07:39:33Z</time>
      </trkpt>
      <trkpt lat="45.7321" lon="4.62692">
        <ele>419.4</ele>
        <time>2015-05-10T07:39:38Z</time>
      </trkpt>
      <trkpt lat="45.73225" lon="4.62663">
        <ele>417</ele>
        <time>2015-05-10T07:39:43Z</time>
      </trkpt>
      <trkpt lat="45.7324" lon="4.62635">
        <ele>416</ele>
        <time>2015-05-10T07:39:48Z</time>
      </trkpt>
      <trkpt lat="45.73255" lon="4.62607">
        <ele>415.4</ele>
        <time>2015-05-10T07:39:53Z</time>
      </trkpt>
      <trkpt lat="45.73267" lon="4.6258">
        <ele>414.4</ele>
        <time>2015-05-10T07:39:58Z</time>
      </trkpt>
      <trkpt lat="45.7328" lon="4.62558">
        <ele>415.8</ele>
        <time>2015-05-10T07:40:03Z</time>
      </trkpt>
      <trkpt lat="45.7329" lon="4.62538">
        <ele>414.5</ele>
        <time>2015-05-10T07:40:08Z</time>
      </trkpt>
      <trkpt lat="45.73283" lon="4.62505">
        <ele>415.4</ele>
        <time>2015-05-10T07:40:13Z</time>
      </trkpt>
      <trkpt lat="45.73263" lon="4.62472">
        <ele>410.7</ele>
        <time>2015-05-10T07:40:18Z</time>
      </trkpt>
      <trkpt lat="45.73255" lon="4.62428">
        <ele>409.7</ele>
        <time>2015-05-10T07:40:23Z</time>
      </trkpt>
      <trkpt lat="45.73257" lon="4.62382">
        <ele>408.2</ele>
        <time>2015-05-10T07:40:28Z</time>
      </trkpt>
      <trkpt lat="45.73253" lon="4.62325">
        <ele>403.9</ele>
        <time>2015-05-10T07:40:33Z</time>
      </trkpt>
      <trkpt lat="45.7325" lon="4.62267">
        <ele>401.8</ele>
        <time>2015-05-10T07:40:38Z</time>
      </trkpt>
      <trkpt lat="45.73252" lon="4.6221">
        <ele>398.6</ele>
        <time>2015-05-10T07:40:43Z</time>
      </trkpt>
      <trkpt lat="45.7325" lon="4.6216">
        <ele>393.6</ele>
        <time>2015-05-10T07:40:48Z</time>
      </trkpt>
      <trkpt lat="45.73255" lon="4.62123">
        <ele>391.9</ele>
        <time>2015-05-10T07:40:53Z</time>
      </trkpt>
      <trkpt lat="45.73257" lon="4.62122">
        <ele>392.3</ele>
        <time>2015-05-10T07:40:58Z</time>
      </trkpt>
      <trkpt lat="45.73258" lon="4.62117">
        <ele>393.6</ele>
        <time>2015-05-10T07:41:03Z</time>
      </trkpt>
      <trkpt lat="45.7326" lon="4.62105">
        <ele>395.6</ele>
        <time>2015-05-10T07:41:08Z</time>
      </trkpt>
      <trkpt lat="45.73262" lon="4.62097">
        <ele>396.2</ele>
        <time>2015-05-10T07:41:13Z</time>
      </trkpt>
      <trkpt lat="45.73265" lon="4.62087">
        <ele>396.2</ele>
        <time>2015-05-10T07:41:18Z</time>
      </trkpt>
      <trkpt lat="45.73267" lon="4.62078">
        <ele>399.2</ele>
        <time>2015-05-10T07:41:23Z</time>
      </trkpt>
      <trkpt lat="45.73267" lon="4.62068">
        <ele>402.2</ele>
        <time>2015-05-10T07:41:28Z</time>
      </trkpt>
      <trkpt lat="45.73267" lon="4.6206">
        <ele>403</ele>
        <time>2015-05-10T07:41:33Z</time>
      </trkpt>
      <trkpt lat="45.73265" lon="4.62052">
        <ele>404.2</ele>
        <time>2015-05-10T07:41:38Z</time>
      </trkpt>
      <trkpt lat="45.73263" lon="4.62048">
        <ele>404.5</ele>
        <time>2015-05-10T07:41:43Z</time>
      </trkpt>
      <trkpt lat="45.73257" lon="4.62038">
        <ele>406.1</ele>
        <time>2015-05-10T07:41:48Z</time>
      </trkpt>
      <trkpt lat="45.73253" lon="4.6203">
        <ele>406.8</ele>
        <time>2015-05-10T07:41:53Z</time>
      </trkpt>
      <trkpt lat="45.73252" lon="4.62023">
        <ele>407.4</ele>
        <time>2015-05-10T07:41:58Z</time>
      </trkpt>
      <trkpt lat="45.73247" lon="4.62013">
        <ele>410.1</ele>
        <time>2015-05-10T07:42:03Z</time>
      </trkpt>
      <trkpt lat="45.73247" lon="4.62">
        <ele>411.7</ele>
        <time>2015-05-10T07:42:08Z</time>
      </trkpt>
      <trkpt lat="45.73245" lon="4.6199">
        <ele>413.5</ele>
        <time>2015-05-10T07:42:13Z</time>
      </trkpt>
      <trkpt lat="45.73247" lon="4.61978">
        <ele>415.3</ele>
        <time>2015-05-10T07:42:18Z</time>
      </trkpt>
      <trkpt lat="45.73248" lon="4.61972">
        <ele>415.8</ele>
        <time>2015-05-10T07:42:23Z</time>
      </trkpt>
      <trkpt lat="45.73248" lon="4.6196">
        <ele>416.6</ele>
        <time>2015-05-10T07:42:28Z</time>
      </trkpt>
      <trkpt lat="45.7325" lon="4.61948">
        <ele>418.3</ele>
        <time>2015-05-10T07:42:33Z</time>
      </trkpt>
      <trkpt lat="45.7325" lon="4.6194">
        <ele>419.8</ele>
        <time>2015-05-10T07:42:38Z</time>
      </trkpt>
      <trkpt lat="45.73252" lon="4.6193">
        <ele>420.8</ele>
        <time>2015-05-10T07:42:43Z</time>
      </trkpt>
      <trkpt lat="45.73253" lon="4.61922">
        <ele>422.6</ele>
        <time>2015-05-10T07:42:48Z</time>
      </trkpt>
      <trkpt lat="45.73253" lon="4.61912">
        <ele>423.7</ele>
        <time>2015-05-10T07:42:53Z</time>
      </trkpt>
      <trkpt lat="45.73253" lon="4.61898">
        <ele>424.9</ele>
        <time>2015-05-10T07:42:58Z</time>
      </trkpt>
      <trkpt lat="45.73253" lon="4.61885">
        <ele>425.4</ele>
        <time>2015-05-10T07:43:03Z</time>
      </trkpt>
      <trkpt lat="45.7325" lon="4.6187">
        <ele>426.3</ele>
        <time>2015-05-10T07:43:08Z</time>
      </trkpt>
      <trkpt lat="45.73248" lon="4.61857">
        <ele>426</ele>
        <time>2015-05-10T07:43:13Z</time>
      </trkpt>
      <trkpt lat="45.73247" lon="4.61843">
        <ele>427.4</ele>
        <time>2015-05-10T07:43:18Z</time>
      </trkpt>
      <trkpt lat="45.73245" lon="4.61828">
        <ele>428.3</ele>
        <time>2015-05-10T07:43:23Z</time>
      </trkpt>
      <trkpt lat="45.73245" lon="4.61813">
        <ele>428.8</ele>
        <time>2015-05-10T07:43:28Z</time>
      </trkpt>
      <trkpt lat="45.73242" lon="4.618">
        <ele>429.2</ele>
        <time>2015-05-10T07:43:33Z</time>
      </trkpt>
      <trkpt lat="45.7324" lon="4.61785">
        <ele>430.5</ele>
        <time>2015-05-10T07:43:38Z</time>
      </trkpt>
      <trkpt lat="45.73238" lon="4.6177">
        <ele>432</ele>
        <time>2015-05-10T07:43:43Z</time>
      </trkpt>
      <trkpt lat="45.7324" lon="4.61757">
        <ele>433</ele>
        <time>2015-05-10T07:43:48Z</time>
      </trkpt>
      <trkpt lat="45.73242" lon="4.61745">
        <ele>434.1</ele>
        <time>2015-05-10T07:43:53Z</time>
      </trkpt>
      <trkpt lat="45.73243" lon="4.61733">
        <ele>435.4</ele>
        <time>2015-05-10T07:43:58Z</time>
      </trkpt>
      <trkpt lat="45.73247" lon="4.61725">
        <ele>437.4</ele>
        <time>2015-05-10T07:44:03Z</time>
      </trkpt>
      <trkpt lat="45.7325" lon="4.61713">
        <ele>440.2</ele>
        <time>2015-05-10T07:44:08Z</time>
      </trkpt>
      <trkpt lat="45.73253" lon="4.61703">
        <ele>442.2</ele>
        <time>2015-05-10T07:44:13Z</time>
      </trkpt>
      <trkpt lat="45.73258" lon="4.61695">
        <ele>443.9</ele>
        <time>2015-05-10T07:44:18Z</time>
      </trkpt>
      <trkpt lat="45.73265" lon="4.6169">
        <ele>445.2</ele>
        <time>2015-05-10T07:44:23Z</time>
      </trkpt>
      <trkpt lat="45.7327" lon="4.6168">
        <ele>447.4</ele>
        <time>2015-05-10T07:44:28Z</time>
      </trkpt>
      <trkpt lat="45.73273" lon="4.61672">
        <ele>448.1</ele>
        <time>2015-05-10T07:44:33Z</time>
      </trkpt>
      <trkpt lat="45.73277" lon="4.61663">
        <ele>448.2</ele>
        <time>2015-05-10T07:44:38Z</time>
      </trkpt>
      <trkpt lat="45.7328" lon="4.61655">
        <ele>448.3</ele>
        <time>2015-05-10T07:44:43Z</time>
      </trkpt>
      <trkpt lat="45.73283" lon="4.6165">
        <ele>449.6</ele>
        <time>2015-05-10T07:44:48Z</time>
      </trkpt>
      <trkpt lat="45.73288" lon="4.61645">
        <ele>451.3</ele>
        <time>2015-05-10T07:44:53Z</time>
      </trkpt>
      <trkpt lat="45.73295" lon="4.61642">
        <ele>451.8</ele>
        <time>2015-05-10T07:44:58Z</time>
      </trkpt>
      <trkpt lat="45.73302" lon="4.61638">
        <ele>453.8</ele>
        <time>2015-05-10T07:45:03Z</time>
      </trkpt>
      <trkpt lat="45.73303" lon="4.61642">
        <ele>454.8</ele>
        <time>2015-05-10T07:45:08Z</time>
      </trkpt>
      <trkpt lat="45.73298" lon="4.61652">
        <ele>455.8</ele>
        <time>2015-05-10T07:45:13Z</time>
      </trkpt>
      <trkpt lat="45.73295" lon="4.61663">
        <ele>456.5</ele>
        <time>2015-05-10T07:45:18Z</time>
      </trkpt>
      <trkpt lat="45.73293" lon="4.61673">
        <ele>457.4</ele>
        <time>2015-05-10T07:45:23Z</time>
      </trkpt>
      <trkpt lat="45.73292" lon="4.61685">
        <ele>458.2</ele>
        <time>2015-05-10T07:45:28Z</time>
      </trkpt>
      <trkpt lat="45.73293" lon="4.61697">
        <ele>458.9</ele>
        <time>2015-05-10T07:45:33Z</time>
      </trkpt>
      <trkpt lat="45.73295" lon="4.61708">
        <ele>460.5</ele>
        <time>2015-05-10T07:45:38Z</time>
      </trkpt>
      <trkpt lat="45.73295" lon="4.6172">
        <ele>460.9</ele>
        <time>2015-05-10T07:45:43Z</time>
      </trkpt>
      <trkpt lat="45.73298" lon="4.61727">
        <ele>461.9</ele>
        <time>2015-05-10T07:45:48Z</time>
      </trkpt>
      <trkpt lat="45.73302" lon="4.61717">
        <ele>463.4</ele>
        <time>2015-05-10T07:45:53Z</time>
      </trkpt>
      <trkpt lat="45.73303" lon="4.61702">
        <ele>463.5</ele>
        <time>2015-05-10T07:45:58Z</time>
      </trkpt>
      <trkpt lat="45.73305" lon="4.61687">
        <ele>463.4</ele>
        <time>2015-05-10T07:46:03Z</time>
      </trkpt>
      <trkpt lat="45.7331" lon="4.6167">
        <ele>464.4</ele>
        <time>2015-05-10T07:46:08Z</time>
      </trkpt>
      <trkpt lat="45.73317" lon="4.61655">
        <ele>463.8</ele>
        <time>2015-05-10T07:46:13Z</time>
      </trkpt>
      <trkpt lat="45.73323" lon="4.61638">
        <ele>464.4</ele>
        <time>2015-05-10T07:46:18Z</time>
      </trkpt>
      <trkpt lat="45.73332" lon="4.61622">
        <ele>464.6</ele>
        <time>2015-05-10T07:46:23Z</time>
      </trkpt>
      <trkpt lat="45.73338" lon="4.61605">
        <ele>466.6</ele>
        <time>2015-05-10T07:46:28Z</time>
      </trkpt>
      <trkpt lat="45.73347" lon="4.61592">
        <ele>466.8</ele>
        <time>2015-05-10T07:46:33Z</time>
      </trkpt>
      <trkpt lat="45.73355" lon="4.61575">
        <ele>468</ele>
        <time>2015-05-10T07:46:38Z</time>
      </trkpt>
      <trkpt lat="45.73363" lon="4.61552">
        <ele>467.2</ele>
        <time>2015-05-10T07:46:43Z</time>
      </trkpt>
      <trkpt lat="45.7337" lon="4.6153">
        <ele>467.9</ele>
        <time>2015-05-10T07:46:48Z</time>
      </trkpt>
      <trkpt lat="45.73378" lon="4.61507">
        <ele>466.9</ele>
        <time>2015-05-10T07:46:53Z</time>
      </trkpt>
      <trkpt lat="45.73388" lon="4.61477">
        <ele>467</ele>
        <time>2015-05-10T07:46:58Z</time>
      </trkpt>
      <trkpt lat="45.73397" lon="4.61452">
        <ele>466.9</ele>
        <time>2015-05-10T07:47:03Z</time>
      </trkpt>
      <trkpt lat="45.73403" lon="4.6143">
        <ele>467.8</ele>
        <time>2015-05-10T07:47:08Z</time>
      </trkpt>
      <trkpt lat="45.73403" lon="4.61413">
        <ele>465.7</ele>
        <time>2015-05-10T07:47:13Z</time>
      </trkpt>
      <trkpt lat="45.73388" lon="4.61408">
        <ele>466</ele>
        <time>2015-05-10T07:47:18Z</time>
      </trkpt>
      <trkpt lat="45.73365" lon="4.61405">
        <ele>465.6</ele>
        <time>2015-05-10T07:47:23Z</time>
      </trkpt>
      <trkpt lat="45.73335" lon="4.61398">
        <ele>465.6</ele>
        <time>2015-05-10T07:47:28Z</time>
      </trkpt>
      <trkpt lat="45.7331" lon="4.61392">
        <ele>467</ele>
        <time>2015-05-10T07:47:33Z</time>
      </trkpt>
      <trkpt lat="45.73297" lon="4.61385">
        <ele>469.7</ele>
        <time>2015-05-10T07:47:38Z</time>
      </trkpt>
      <trkpt lat="45.73287" lon="4.61375">
        <ele>470.6</ele>
        <time>2015-05-10T07:47:43Z</time>
      </trkpt>
      <trkpt lat="45.73275" lon="4.61362">
        <ele>470.1</ele>
        <time>2015-05-10T07:47:48Z</time>
      </trkpt>
      <trkpt lat="45.73265" lon="4.61345">
        <ele>470.8</ele>
        <time>2015-05-10T07:47:53Z</time>
      </trkpt>
      <trkpt lat="45.73252" lon="4.61317">
        <ele>467.7</ele>
        <time>2015-05-10T07:47:58Z</time>
      </trkpt>
      <trkpt lat="45.73248" lon="4.61285">
        <ele>469</ele>
        <time>2015-05-10T07:48:03Z</time>
      </trkpt>
      <trkpt lat="45.73252" lon="4.61255">
        <ele>470.7</ele>
        <time>2015-05-10T07:48:08Z</time>
      </trkpt>
      <trkpt lat="45.73252" lon="4.61227">
        <ele>472.1</ele>
        <time>2015-05-10T07:48:13Z</time>
      </trkpt>
      <trkpt lat="45.7325" lon="4.61197">
        <ele>471.5</ele>
        <time>2015-05-10T07:48:18Z</time>
      </trkpt>
      <trkpt lat="45.73243" lon="4.61158">
        <ele>470.7</ele>
        <time>2015-05-10T07:48:23Z</time>
      </trkpt>
      <trkpt lat="45.73235" lon="4.61125">
        <ele>472.8</ele>
        <time>2015-05-10T07:48:28Z</time>
      </trkpt>
      <trkpt lat="45.73223" lon="4.61108">
        <ele>473.7</ele>
        <time>2015-05-10T07:48:33Z</time>
      </trkpt>
      <trkpt lat="45.73202" lon="4.611">
        <ele>469.4</ele>
        <time>2015-05-10T07:48:38Z</time>
      </trkpt>
      <trkpt lat="45.7319" lon="4.61107">
        <ele>468.5</ele>
        <time>2015-05-10T07:48:43Z</time>
      </trkpt>
      <trkpt lat="45.73168" lon="4.61115">
        <ele>469.8</ele>
        <time>2015-05-10T07:48:48Z</time>
      </trkpt>
      <trkpt lat="45.73147" lon="4.61127">
        <ele>470.6</ele>
        <time>2015-05-10T07:48:53Z</time>
      </trkpt>
      <trkpt lat="45.73125" lon="4.61138">
        <ele>470.2</ele>
        <time>2015-05-10T07:48:58Z</time>
      </trkpt>
      <trkpt lat="45.73103" lon="4.61143">
        <ele>469.1</ele>
        <time>2015-05-10T07:49:03Z</time>
      </trkpt>
      <trkpt lat="45.73078" lon="4.61162">
        <ele>469.6</ele>
        <time>2015-05-10T07:49:08Z</time>
      </trkpt>
      <trkpt lat="45.73057" lon="4.6119">
        <ele>469.2</ele>
        <time>2015-05-10T07:49:13Z</time>
      </trkpt>
      <trkpt lat="45.73032" lon="4.61218">
        <ele>467.5</ele>
        <time>2015-05-10T07:49:18Z</time>
      </trkpt>
      <trkpt lat="45.73007" lon="4.61238">
        <ele>466.2</ele>
        <time>2015-05-10T07:49:23Z</time>
      </trkpt>
      <trkpt lat="45.72988" lon="4.61237">
        <ele>469.5</ele>
        <time>2015-05-10T07:49:28Z</time>
      </trkpt>
      <trkpt lat="45.72973" lon="4.61238">
        <ele>470.6</ele>
        <time>2015-05-10T07:49:33Z</time>
      </trkpt>
      <trkpt lat="45.72955" lon="4.61238">
        <ele>471.1</ele>
        <time>2015-05-10T07:49:38Z</time>
      </trkpt>
      <trkpt lat="45.7294" lon="4.61237">
        <ele>471.9</ele>
        <time>2015-05-10T07:49:43Z</time>
      </trkpt>
      <trkpt lat="45.72923" lon="4.61227">
        <ele>472.7</ele>
        <time>2015-05-10T07:49:48Z</time>
      </trkpt>
      <trkpt lat="45.72905" lon="4.6122">
        <ele>473.1</ele>
        <time>2015-05-10T07:49:53Z</time>
      </trkpt>
      <trkpt lat="45.7289" lon="4.61208">
        <ele>473.7</ele>
        <time>2015-05-10T07:49:58Z</time>
      </trkpt>
      <trkpt lat="45.72875" lon="4.61197">
        <ele>473.7</ele>
        <time>2015-05-10T07:50:03Z</time>
      </trkpt>
      <trkpt lat="45.72857" lon="4.61187">
        <ele>473.3</ele>
        <time>2015-05-10T07:50:08Z</time>
      </trkpt>
      <trkpt lat="45.7284" lon="4.61177">
        <ele>475.1</ele>
        <time>2015-05-10T07:50:13Z</time>
      </trkpt>
      <trkpt lat="45.72817" lon="4.61172">
        <ele>472.1</ele>
        <time>2015-05-10T07:50:18Z</time>
      </trkpt>
      <trkpt lat="45.72788" lon="4.61175">
        <ele>471.8</ele>
        <time>2015-05-10T07:50:23Z</time>
      </trkpt>
      <trkpt lat="45.72768" lon="4.61178">
        <ele>473.4</ele>
        <time>2015-05-10T07:50:28Z</time>
      </trkpt>
      <trkpt lat="45.72755" lon="4.6119">
        <ele>473.3</ele>
        <time>2015-05-10T07:50:33Z</time>
      </trkpt>
      <trkpt lat="45.72743" lon="4.61197">
        <ele>473.9</ele>
        <time>2015-05-10T07:50:38Z</time>
      </trkpt>
      <trkpt lat="45.72722" lon="4.61213">
        <ele>473.5</ele>
        <time>2015-05-10T07:50:43Z</time>
      </trkpt>
      <trkpt lat="45.72697" lon="4.61222">
        <ele>473.7</ele>
        <time>2015-05-10T07:50:48Z</time>
      </trkpt>
      <trkpt lat="45.7267" lon="4.61225">
        <ele>472.2</ele>
        <time>2015-05-10T07:50:53Z</time>
      </trkpt>
      <trkpt lat="45.7264" lon="4.61225">
        <ele>469.9</ele>
        <time>2015-05-10T07:50:58Z</time>
      </trkpt>
      <trkpt lat="45.72613" lon="4.61213">
        <ele>472.6</ele>
        <time>2015-05-10T07:51:03Z</time>
      </trkpt>
      <trkpt lat="45.72588" lon="4.61213">
        <ele>473.4</ele>
        <time>2015-05-10T07:51:08Z</time>
      </trkpt>
      <trkpt lat="45.72568" lon="4.6122">
        <ele>472.7</ele>
        <time>2015-05-10T07:51:13Z</time>
      </trkpt>
      <trkpt lat="45.72557" lon="4.61232">
        <ele>475.7</ele>
        <time>2015-05-10T07:51:18Z</time>
      </trkpt>
      <trkpt lat="45.72545" lon="4.6125">
        <ele>476.1</ele>
        <time>2015-05-10T07:51:23Z</time>
      </trkpt>
      <trkpt lat="45.72528" lon="4.61272">
        <ele>473.6</ele>
        <time>2015-05-10T07:51:28Z</time>
      </trkpt>
      <trkpt lat="45.72508" lon="4.61288">
        <ele>473.9</ele>
        <time>2015-05-10T07:51:33Z</time>
      </trkpt>
      <trkpt lat="45.7249" lon="4.61297">
        <ele>474.4</ele>
        <time>2015-05-10T07:51:38Z</time>
      </trkpt>
      <trkpt lat="45.72468" lon="4.61305">
        <ele>475.7</ele>
        <time>2015-05-10T07:51:43Z</time>
      </trkpt>
      <trkpt lat="45.72448" lon="4.61308">
        <ele>475.2</ele>
        <time>2015-05-10T07:51:48Z</time>
      </trkpt>
      <trkpt lat="45.72438" lon="4.61307">
        <ele>475.3</ele>
        <time>2015-05-10T07:51:53Z</time>
      </trkpt>
      <trkpt lat="45.72435" lon="4.61295">
        <ele>476.1</ele>
        <time>2015-05-10T07:51:58Z</time>
      </trkpt>
      <trkpt lat="45.72437" lon="4.61283">
        <ele>477.3</ele>
        <time>2015-05-10T07:52:03Z</time>
      </trkpt>
      <trkpt lat="45.72438" lon="4.6127">
        <ele>479.1</ele>
        <time>2015-05-10T07:52:08Z</time>
      </trkpt>
      <trkpt lat="45.72438" lon="4.61257">
        <ele>480.5</ele>
        <time>2015-05-10T07:52:13Z</time>
      </trkpt>
      <trkpt lat="45.72435" lon="4.61245">
        <ele>480.8</ele>
        <time>2015-05-10T07:52:18Z</time>
      </trkpt>
      <trkpt lat="45.72433" lon="4.61232">
        <ele>481.7</ele>
        <time>2015-05-10T07:52:23Z</time>
      </trkpt>
      <trkpt lat="45.72432" lon="4.61218">
        <ele>480.4</ele>
        <time>2015-05-10T07:52:28Z</time>
      </trkpt>
      <trkpt lat="45.72435" lon="4.61192">
        <ele>478.3</ele>
        <time>2015-05-10T07:52:33Z</time>
      </trkpt>
      <trkpt lat="45.72438" lon="4.61157">
        <ele>478.3</ele>
        <time>2015-05-10T07:52:38Z</time>
      </trkpt>
      <trkpt lat="45.72442" lon="4.61125">
        <ele>477.9</ele>
        <time>2015-05-10T07:52:43Z</time>
      </trkpt>
      <trkpt lat="45.72445" lon="4.61097">
        <ele>477.9</ele>
        <time>2015-05-10T07:52:48Z</time>
      </trkpt>
      <trkpt lat="45.72447" lon="4.61067">
        <ele>477.3</ele>
        <time>2015-05-10T07:52:53Z</time>
      </trkpt>
      <trkpt lat="45.72447" lon="4.61037">
        <ele>478.4</ele>
        <time>2015-05-10T07:52:58Z</time>
      </trkpt>
      <trkpt lat="45.72447" lon="4.61007">
        <ele>478.8</ele>
        <time>2015-05-10T07:53:03Z</time>
      </trkpt>
      <trkpt lat="45.72452" lon="4.60977">
        <ele>478.3</ele>
        <time>2015-05-10T07:53:08Z</time>
      </trkpt>
      <trkpt lat="45.72457" lon="4.60948">
        <ele>479.4</ele>
        <time>2015-05-10T07:53:13Z</time>
      </trkpt>
      <trkpt lat="45.72458" lon="4.6092">
        <ele>479.8</ele>
        <time>2015-05-10T07:53:18Z</time>
      </trkpt>
      <trkpt lat="45.72462" lon="4.6089">
        <ele>479.8</ele>
        <time>2015-05-10T07:53:23Z</time>
      </trkpt>
      <trkpt lat="45.72467" lon="4.60863">
        <ele>479.8</ele>
        <time>2015-05-10T07:53:28Z</time>
      </trkpt>
      <trkpt lat="45.72472" lon="4.60835">
        <ele>479.2</ele>
        <time>2015-05-10T07:53:33Z</time>
      </trkpt>
      <trkpt lat="45.72478" lon="4.60813">
        <ele>479.9</ele>
        <time>2015-05-10T07:53:38Z</time>
      </trkpt>
      <trkpt lat="45.72482" lon="4.60787">
        <ele>479.6</ele>
        <time>2015-05-10T07:53:43Z</time>
      </trkpt>
      <trkpt lat="45.72477" lon="4.60755">
        <ele>480.7</ele>
        <time>2015-05-10T07:53:48Z</time>
      </trkpt>
      <trkpt lat="45.72473" lon="4.60735">
        <ele>480</ele>
        <time>2015-05-10T07:53:53Z</time>
      </trkpt>
      <trkpt lat="45.72463" lon="4.60722">
        <ele>479.7</ele>
        <time>2015-05-10T07:53:58Z</time>
      </trkpt>
      <trkpt lat="45.7244" lon="4.60717">
        <ele>481</ele>
        <time>2015-05-10T07:54:03Z</time>
      </trkpt>
      <trkpt lat="45.72413" lon="4.60715">
        <ele>480.2</ele>
        <time>2015-05-10T07:54:08Z</time>
      </trkpt>
      <trkpt lat="45.72383" lon="4.60722">
        <ele>478.4</ele>
        <time>2015-05-10T07:54:13Z</time>
      </trkpt>
      <trkpt lat="45.72353" lon="4.60727">
        <ele>476.4</ele>
        <time>2015-05-10T07:54:18Z</time>
      </trkpt>
      <trkpt lat="45.72325" lon="4.60722">
        <ele>478.7</ele>
        <time>2015-05-10T07:54:23Z</time>
      </trkpt>
      <trkpt lat="45.72295" lon="4.60702">
        <ele>477.3</ele>
        <time>2015-05-10T07:54:28Z</time>
      </trkpt>
      <trkpt lat="45.7227" lon="4.60682">
        <ele>478.6</ele>
        <time>2015-05-10T07:54:33Z</time>
      </trkpt>
      <trkpt lat="45.72242" lon="4.60663">
        <ele>478.9</ele>
        <time>2015-05-10T07:54:38Z</time>
      </trkpt>
      <trkpt lat="45.72213" lon="4.60642">
        <ele>479.1</ele>
        <time>2015-05-10T07:54:43Z</time>
      </trkpt>
      <trkpt lat="45.72193" lon="4.60623">
        <ele>479.5</ele>
        <time>2015-05-10T07:54:48Z</time>
      </trkpt>
      <trkpt lat="45.72178" lon="4.606">
        <ele>481.2</ele>
        <time>2015-05-10T07:54:53Z</time>
      </trkpt>
      <trkpt lat="45.72168" lon="4.60572">
        <ele>481.2</ele>
        <time>2015-05-10T07:54:58Z</time>
      </trkpt>
      <trkpt lat="45.72162" lon="4.6054">
        <ele>481.6</ele>
        <time>2015-05-10T07:55:03Z</time>
      </trkpt>
      <trkpt lat="45.72153" lon="4.6051">
        <ele>483</ele>
        <time>2015-05-10T07:55:08Z</time>
      </trkpt>
      <trkpt lat="45.72145" lon="4.6048">
        <ele>482.5</ele>
        <time>2015-05-10T07:55:13Z</time>
      </trkpt>
      <trkpt lat="45.7214" lon="4.6046">
        <ele>484.2</ele>
        <time>2015-05-10T07:55:18Z</time>
      </trkpt>
      <trkpt lat="45.72135" lon="4.60443">
        <ele>483.9</ele>
        <time>2015-05-10T07:55:23Z</time>
      </trkpt>
      <trkpt lat="45.72125" lon="4.6042">
        <ele>482.4</ele>
        <time>2015-05-10T07:55:28Z</time>
      </trkpt>
      <trkpt lat="45.72122" lon="4.6039">
        <ele>481.1</ele>
        <time>2015-05-10T07:55:33Z</time>
      </trkpt>
      <trkpt lat="45.72128" lon="4.60355">
        <ele>483.6</ele>
        <time>2015-05-10T07:55:38Z</time>
      </trkpt>
      <trkpt lat="45.72135" lon="4.60312">
        <ele>482.2</ele>
        <time>2015-05-10T07:55:43Z</time>
      </trkpt>
      <trkpt lat="45.72133" lon="4.60272">
        <ele>481.8</ele>
        <time>2015-05-10T07:55:48Z</time>
      </trkpt>
      <trkpt lat="45.72118" lon="4.60237">
        <ele>481.7</ele>
        <time>2015-05-10T07:55:53Z</time>
      </trkpt>
      <trkpt lat="45.72105" lon="4.60192">
        <ele>481.8</ele>
        <time>2015-05-10T07:55:58Z</time>
      </trkpt>
      <trkpt lat="45.72093" lon="4.60148">
        <ele>480.5</ele>
        <time>2015-05-10T07:56:03Z</time>
      </trkpt>
      <trkpt lat="45.72077" lon="4.60132">
        <ele>481.8</ele>
        <time>2015-05-10T07:56:08Z</time>
      </trkpt>
      <trkpt lat="45.7205" lon="4.60122">
        <ele>480.9</ele>
        <time>2015-05-10T07:56:13Z</time>
      </trkpt>
      <trkpt lat="45.72007" lon="4.60122">
        <ele>481.6</ele>
        <time>2015-05-10T07:56:18Z</time>
      </trkpt>
      <trkpt lat="45.7198" lon="4.60117">
        <ele>484.1</ele>
        <time>2015-05-10T07:56:23Z</time>
      </trkpt>
      <trkpt lat="45.71952" lon="4.60113">
        <ele>482.5</ele>
        <time>2015-05-10T07:56:28Z</time>
      </trkpt>
      <trkpt lat="45.71928" lon="4.601">
        <ele>482.8</ele>
        <time>2015-05-10T07:56:33Z</time>
      </trkpt>
      <trkpt lat="45.71917" lon="4.60072">
        <ele>483.6</ele>
        <time>2015-05-10T07:56:38Z</time>
      </trkpt>
      <trkpt lat="45.71908" lon="4.6004">
        <ele>484.4</ele>
        <time>2015-05-10T07:56:43Z</time>
      </trkpt>
      <trkpt lat="45.71903" lon="4.60012">
        <ele>481.2</ele>
        <time>2015-05-10T07:56:48Z</time>
      </trkpt>
      <trkpt lat="45.71902" lon="4.5999">
        <ele>482.2</ele>
        <time>2015-05-10T07:56:53Z</time>
      </trkpt>
      <trkpt lat="45.71903" lon="4.59967">
        <ele>482.8</ele>
        <time>2015-05-10T07:56:58Z</time>
      </trkpt>
      <trkpt lat="45.71903" lon="4.59943">
        <ele>483.4</ele>
        <time>2015-05-10T07:57:03Z</time>
      </trkpt>
      <trkpt lat="45.71905" lon="4.59913">
        <ele>482.6</ele>
        <time>2015-05-10T07:57:08Z</time>
      </trkpt>
      <trkpt lat="45.71907" lon="4.59882">
        <ele>484.1</ele>
        <time>2015-05-10T07:57:13Z</time>
      </trkpt>
      <trkpt lat="45.71913" lon="4.5985">
        <ele>482</ele>
        <time>2015-05-10T07:57:18Z</time>
      </trkpt>
      <trkpt lat="45.71917" lon="4.5982">
        <ele>484.7</ele>
        <time>2015-05-10T07:57:23Z</time>
      </trkpt>
      <trkpt lat="45.71917" lon="4.59792">
        <ele>486.8</ele>
        <time>2015-05-10T07:57:28Z</time>
      </trkpt>
      <trkpt lat="45.71917" lon="4.59762">
        <ele>484.1</ele>
        <time>2015-05-10T07:57:33Z</time>
      </trkpt>
      <trkpt lat="45.71913" lon="4.59733">
        <ele>483</ele>
        <time>2015-05-10T07:57:38Z</time>
      </trkpt>
      <trkpt lat="45.7191" lon="4.59712">
        <ele>483</ele>
        <time>2015-05-10T07:57:43Z</time>
      </trkpt>
      <trkpt lat="45.71898" lon="4.59685">
        <ele>484.6</ele>
        <time>2015-05-10T07:57:48Z</time>
      </trkpt>
      <trkpt lat="45.71875" lon="4.59665">
        <ele>483.5</ele>
        <time>2015-05-10T07:57:53Z</time>
      </trkpt>
      <trkpt lat="45.71853" lon="4.59663">
        <ele>483.9</ele>
        <time>2015-05-10T07:57:58Z</time>
      </trkpt>
      <trkpt lat="45.7183" lon="4.5967">
        <ele>485.7</ele>
        <time>2015-05-10T07:58:03Z</time>
      </trkpt>
      <trkpt lat="45.7181" lon="4.59672">
        <ele>486.4</ele>
        <time>2015-05-10T07:58:08Z</time>
      </trkpt>
      <trkpt lat="45.71792" lon="4.5968">
        <ele>487.4</ele>
        <time>2015-05-10T07:58:13Z</time>
      </trkpt>
      <trkpt lat="45.71773" lon="4.59692">
        <ele>488.2</ele>
        <time>2015-05-10T07:58:18Z</time>
      </trkpt>
      <trkpt lat="45.71755" lon="4.59703">
        <ele>487</ele>
        <time>2015-05-10T07:58:23Z</time>
      </trkpt>
      <trkpt lat="45.71737" lon="4.59713">
        <ele>487.3</ele>
        <time>2015-05-10T07:58:28Z</time>
      </trkpt>
      <trkpt lat="45.71717" lon="4.59722">
        <ele>486.8</ele>
        <time>2015-05-10T07:58:33Z</time>
      </trkpt>
      <trkpt lat="45.71692" lon="4.59723">
        <ele>486.1</ele>
        <time>2015-05-10T07:58:38Z</time>
      </trkpt>
      <trkpt lat="45.71663" lon="4.59733">
        <ele>486.9</ele>
        <time>2015-05-10T07:58:43Z</time>
      </trkpt>
      <trkpt lat="45.7164" lon="4.59747">
        <ele>486.4</ele>
        <time>2015-05-10T07:58:48Z</time>
      </trkpt>
      <trkpt lat="45.71622" lon="4.59755">
        <ele>489.3</ele>
        <time>2015-05-10T07:58:53Z</time>
      </trkpt>
      <trkpt lat="45.71605" lon="4.59765">
        <ele>489.6</ele>
        <time>2015-05-10T07:58:58Z</time>
      </trkpt>
      <trkpt lat="45.71583" lon="4.59782">
        <ele>487.1</ele>
        <time>2015-05-10T07:59:03Z</time>
      </trkpt>
      <trkpt lat="45.71562" lon="4.59798">
        <ele>488.7</ele>
        <time>2015-05-10T07:59:08Z</time>
      </trkpt>
      <trkpt lat="45.71533" lon="4.59803">
        <ele>486</ele>
        <time>2015-05-10T07:59:13Z</time>
      </trkpt>
      <trkpt lat="45.7151" lon="4.59782">
        <ele>485.4</ele>
        <time>2015-05-10T07:59:18Z</time>
      </trkpt>
      <trkpt lat="45.71492" lon="4.59755">
        <ele>489.3</ele>
        <time>2015-05-10T07:59:23Z</time>
      </trkpt>
      <trkpt lat="45.7147" lon="4.59733">
        <ele>487.9</ele>
        <time>2015-05-10T07:59:28Z</time>
      </trkpt>
      <trkpt lat="45.7145" lon="4.59705">
        <ele>486</ele>
        <time>2015-05-10T07:59:33Z</time>
      </trkpt>
      <trkpt lat="45.71437" lon="4.59672">
        <ele>487</ele>
        <time>2015-05-10T07:59:38Z</time>
      </trkpt>
      <trkpt lat="45.71428" lon="4.59642">
        <ele>487.8</ele>
        <time>2015-05-10T07:59:43Z</time>
      </trkpt>
      <trkpt lat="45.71423" lon="4.59608">
        <ele>486.5</ele>
        <time>2015-05-10T07:59:48Z</time>
      </trkpt>
      <trkpt lat="45.71423" lon="4.59575">
        <ele>486.8</ele>
        <time>2015-05-10T07:59:53Z</time>
      </trkpt>
      <trkpt lat="45.71425" lon="4.59542">
        <ele>485.3</ele>
        <time>2015-05-10T07:59:58Z</time>
      </trkpt>
      <trkpt lat="45.71427" lon="4.59508">
        <ele>487.8</ele>
        <time>2015-05-10T08:00:03Z</time>
      </trkpt>
      <trkpt lat="45.71427" lon="4.59477">
        <ele>487.3</ele>
        <time>2015-05-10T08:00:08Z</time>
      </trkpt>
      <trkpt lat="45.71427" lon="4.59448">
        <ele>488.3</ele>
        <time>2015-05-10T08:00:13Z</time>
      </trkpt>
      <trkpt lat="45.7142" lon="4.59415">
        <ele>487</ele>
        <time>2015-05-10T08:00:18Z</time>
      </trkpt>
      <trkpt lat="45.71417" lon="4.59373">
        <ele>487</ele>
        <time>2015-05-10T08:00:23Z</time>
      </trkpt>
      <trkpt lat="45.7142" lon="4.59328">
        <ele>487.7</ele>
        <time>2015-05-10T08:00:28Z</time>
      </trkpt>
      <trkpt lat="45.7142" lon="4.593">
        <ele>489.8</ele>
        <time>2015-05-10T08:00:33Z</time>
      </trkpt>
      <trkpt lat="45.71423" lon="4.59265">
        <ele>488.8</ele>
        <time>2015-05-10T08:00:38Z</time>
      </trkpt>
      <trkpt lat="45.71423" lon="4.59228">
        <ele>489.5</ele>
        <time>2015-05-10T08:00:43Z</time>
      </trkpt>
      <trkpt lat="45.71422" lon="4.59197">
        <ele>490.9</ele>
        <time>2015-05-10T08:00:48Z</time>
      </trkpt>
      <trkpt lat="45.71405" lon="4.59173">
        <ele>490</ele>
        <time>2015-05-10T08:00:53Z</time>
      </trkpt>
      <trkpt lat="45.71383" lon="4.59153">
        <ele>490.9</ele>
        <time>2015-05-10T08:00:58Z</time>
      </trkpt>
      <trkpt lat="45.71368" lon="4.59133">
        <ele>491.9</ele>
        <time>2015-05-10T08:01:03Z</time>
      </trkpt>
      <trkpt lat="45.71353" lon="4.59127">
        <ele>494.3</ele>
        <time>2015-05-10T08:01:08Z</time>
      </trkpt>
      <trkpt lat="45.71332" lon="4.59125">
        <ele>495.5</ele>
        <time>2015-05-10T08:01:13Z</time>
      </trkpt>
      <trkpt lat="45.71315" lon="4.59125">
        <ele>497.8</ele>
        <time>2015-05-10T08:01:18Z</time>
      </trkpt>
      <trkpt lat="45.71297" lon="4.59128">
        <ele>498.7</ele>
        <time>2015-05-10T08:01:23Z</time>
      </trkpt>
      <trkpt lat="45.71273" lon="4.59137">
        <ele>497.9</ele>
        <time>2015-05-10T08:01:28Z</time>
      </trkpt>
      <trkpt lat="45.71248" lon="4.59147">
        <ele>498.4</ele>
        <time>2015-05-10T08:01:33Z</time>
      </trkpt>
      <trkpt lat="45.71223" lon="4.59163">
        <ele>496.8</ele>
        <time>2015-05-10T08:01:38Z</time>
      </trkpt>
      <trkpt lat="45.71197" lon="4.5918">
        <ele>496</ele>
        <time>2015-05-10T08:01:43Z</time>
      </trkpt>
      <trkpt lat="45.7117" lon="4.59192">
        <ele>495.5</ele>
        <time>2015-05-10T08:01:48Z</time>
      </trkpt>
      <trkpt lat="45.7115" lon="4.59207">
        <ele>496.1</ele>
        <time>2015-05-10T08:01:53Z</time>
      </trkpt>
      <trkpt lat="45.71123" lon="4.59235">
        <ele>493.7</ele>
        <time>2015-05-10T08:01:58Z</time>
      </trkpt>
      <trkpt lat="45.71092" lon="4.59225">
        <ele>490.5</ele>
        <time>2015-05-10T08:02:03Z</time>
      </trkpt>
      <trkpt lat="45.71062" lon="4.59182">
        <ele>485.1</ele>
        <time>2015-05-10T08:02:08Z</time>
      </trkpt>
      <trkpt lat="45.71017" lon="4.59142">
        <ele>475.9</ele>
        <time>2015-05-10T08:02:13Z</time>
      </trkpt>
      <trkpt lat="45.70985" lon="4.59107">
        <ele>477.7</ele>
        <time>2015-05-10T08:02:18Z</time>
      </trkpt>
      <trkpt lat="45.70968" lon="4.59085">
        <ele>480.3</ele>
        <time>2015-05-10T08:02:23Z</time>
      </trkpt>
      <trkpt lat="45.70957" lon="4.59068">
        <ele>480.2</ele>
        <time>2015-05-10T08:02:28Z</time>
      </trkpt>
      <trkpt lat="45.70945" lon="4.5905">
        <ele>483</ele>
        <time>2015-05-10T08:02:33Z</time>
      </trkpt>
      <trkpt lat="45.70932" lon="4.59033">
        <ele>484.5</ele>
        <time>2015-05-10T08:02:38Z</time>
      </trkpt>
      <trkpt lat="45.70917" lon="4.59017">
        <ele>486</ele>
        <time>2015-05-10T08:02:43Z</time>
      </trkpt>
      <trkpt lat="45.70903" lon="4.59">
        <ele>486.9</ele>
        <time>2015-05-10T08:02:48Z</time>
      </trkpt>
      <trkpt lat="45.70888" lon="4.58985">
        <ele>488.4</ele>
        <time>2015-05-10T08:02:53Z</time>
      </trkpt>
      <trkpt lat="45.70873" lon="4.58973">
        <ele>489.8</ele>
        <time>2015-05-10T08:02:58Z</time>
      </trkpt>
      <trkpt lat="45.70858" lon="4.58962">
        <ele>490.6</ele>
        <time>2015-05-10T08:03:03Z</time>
      </trkpt>
      <trkpt lat="45.70845" lon="4.58948">
        <ele>491.7</ele>
        <time>2015-05-10T08:03:08Z</time>
      </trkpt>
      <trkpt lat="45.7083" lon="4.58935">
        <ele>492.8</ele>
        <time>2015-05-10T08:03:13Z</time>
      </trkpt>
      <trkpt lat="45.70817" lon="4.58918">
        <ele>494.4</ele>
        <time>2015-05-10T08:03:18Z</time>
      </trkpt>
      <trkpt lat="45.70808" lon="4.589">
        <ele>494.6</ele>
        <time>2015-05-10T08:03:23Z</time>
      </trkpt>
      <trkpt lat="45.7081" lon="4.58875">
        <ele>495.7</ele>
        <time>2015-05-10T08:03:28Z</time>
      </trkpt>
      <trkpt lat="45.70808" lon="4.5885">
        <ele>496.2</ele>
        <time>2015-05-10T08:03:33Z</time>
      </trkpt>
      <trkpt lat="45.7081" lon="4.58827">
        <ele>497.1</ele>
        <time>2015-05-10T08:03:38Z</time>
      </trkpt>
      <trkpt lat="45.70813" lon="4.58802">
        <ele>497.3</ele>
        <time>2015-05-10T08:03:43Z</time>
      </trkpt>
      <trkpt lat="45.70815" lon="4.58778">
        <ele>498.5</ele>
        <time>2015-05-10T08:03:48Z</time>
      </trkpt>
      <trkpt lat="45.70818" lon="4.58752">
        <ele>499.9</ele>
        <time>2015-05-10T08:03:53Z</time>
      </trkpt>
      <trkpt lat="45.7082" lon="4.58727">
        <ele>500.1</ele>
        <time>2015-05-10T08:03:58Z</time>
      </trkpt>
      <trkpt lat="45.70823" lon="4.587">
        <ele>501.6</ele>
        <time>2015-05-10T08:04:03Z</time>
      </trkpt>
      <trkpt lat="45.70825" lon="4.58675">
        <ele>502.6</ele>
        <time>2015-05-10T08:04:08Z</time>
      </trkpt>
      <trkpt lat="45.70828" lon="4.58648">
        <ele>503.7</ele>
        <time>2015-05-10T08:04:13Z</time>
      </trkpt>
      <trkpt lat="45.70832" lon="4.58622">
        <ele>504</ele>
        <time>2015-05-10T08:04:18Z</time>
      </trkpt>
      <trkpt lat="45.70835" lon="4.58597">
        <ele>505.1</ele>
        <time>2015-05-10T08:04:23Z</time>
      </trkpt>
      <trkpt lat="45.7084" lon="4.58577">
        <ele>505.5</ele>
        <time>2015-05-10T08:04:28Z</time>
      </trkpt>
      <trkpt lat="45.70843" lon="4.5855">
        <ele>507.5</ele>
        <time>2015-05-10T08:04:33Z</time>
      </trkpt>
      <trkpt lat="45.7085" lon="4.58523">
        <ele>507.9</ele>
        <time>2015-05-10T08:04:38Z</time>
      </trkpt>
      <trkpt lat="45.70855" lon="4.58495">
        <ele>508.7</ele>
        <time>2015-05-10T08:04:43Z</time>
      </trkpt>
      <trkpt lat="45.7086" lon="4.5847">
        <ele>510.3</ele>
        <time>2015-05-10T08:04:48Z</time>
      </trkpt>
      <trkpt lat="45.70867" lon="4.58447">
        <ele>510.4</ele>
        <time>2015-05-10T08:04:53Z</time>
      </trkpt>
      <trkpt lat="45.70873" lon="4.58422">
        <ele>512</ele>
        <time>2015-05-10T08:04:58Z</time>
      </trkpt>
      <trkpt lat="45.70882" lon="4.58398">
        <ele>512.9</ele>
        <time>2015-05-10T08:05:03Z</time>
      </trkpt>
      <trkpt lat="45.70888" lon="4.58375">
        <ele>514.3</ele>
        <time>2015-05-10T08:05:08Z</time>
      </trkpt>
      <trkpt lat="45.70895" lon="4.58352">
        <ele>514.8</ele>
        <time>2015-05-10T08:05:13Z</time>
      </trkpt>
      <trkpt lat="45.70902" lon="4.58328">
        <ele>515.6</ele>
        <time>2015-05-10T08:05:18Z</time>
      </trkpt>
      <trkpt lat="45.70908" lon="4.58302">
        <ele>517</ele>
        <time>2015-05-10T08:05:23Z</time>
      </trkpt>
      <trkpt lat="45.70917" lon="4.58277">
        <ele>518</ele>
        <time>2015-05-10T08:05:28Z</time>
      </trkpt>
      <trkpt lat="45.70923" lon="4.58252">
        <ele>518.9</ele>
        <time>2015-05-10T08:05:33Z</time>
      </trkpt>
      <trkpt lat="45.70932" lon="4.58227">
        <ele>518.6</ele>
        <time>2015-05-10T08:05:38Z</time>
      </trkpt>
      <trkpt lat="45.70938" lon="4.58202">
        <ele>520.6</ele>
        <time>2015-05-10T08:05:43Z</time>
      </trkpt>
      <trkpt lat="45.70945" lon="4.58177">
        <ele>521.1</ele>
        <time>2015-05-10T08:05:48Z</time>
      </trkpt>
      <trkpt lat="45.7095" lon="4.58152">
        <ele>521.7</ele>
        <time>2015-05-10T08:05:53Z</time>
      </trkpt>
      <trkpt lat="45.70958" lon="4.58128">
        <ele>522.8</ele>
        <time>2015-05-10T08:05:58Z</time>
      </trkpt>
      <trkpt lat="45.70965" lon="4.58107">
        <ele>524.4</ele>
        <time>2015-05-10T08:06:03Z</time>
      </trkpt>
      <trkpt lat="45.70973" lon="4.5809">
        <ele>523.5</ele>
        <time>2015-05-10T08:06:08Z</time>
      </trkpt>
      <trkpt lat="45.70987" lon="4.58075">
        <ele>524.9</ele>
        <time>2015-05-10T08:06:13Z</time>
      </trkpt>
      <trkpt lat="45.70998" lon="4.5806">
        <ele>525.6</ele>
        <time>2015-05-10T08:06:18Z</time>
      </trkpt>
      <trkpt lat="45.71012" lon="4.58042">
        <ele>526.2</ele>
        <time>2015-05-10T08:06:23Z</time>
      </trkpt>
      <trkpt lat="45.71025" lon="4.58027">
        <ele>527.4</ele>
        <time>2015-05-10T08:06:28Z</time>
      </trkpt>
      <trkpt lat="45.7104" lon="4.58012">
        <ele>528.1</ele>
        <time>2015-05-10T08:06:33Z</time>
      </trkpt>
      <trkpt lat="45.71055" lon="4.57998">
        <ele>529.1</ele>
        <time>2015-05-10T08:06:38Z</time>
      </trkpt>
      <trkpt lat="45.71072" lon="4.57985">
        <ele>530</ele>
        <time>2015-05-10T08:06:43Z</time>
      </trkpt>
      <trkpt lat="45.71087" lon="4.57972">
        <ele>529.8</ele>
        <time>2015-05-10T08:06:48Z</time>
      </trkpt>
      <trkpt lat="45.71102" lon="4.57958">
        <ele>531.7</ele>
        <time>2015-05-10T08:06:53Z</time>
      </trkpt>
      <trkpt lat="45.71115" lon="4.57943">
        <ele>532.6</ele>
        <time>2015-05-10T08:06:58Z</time>
      </trkpt>
      <trkpt lat="45.7113" lon="4.57928">
        <ele>532.6</ele>
        <time>2015-05-10T08:07:03Z</time>
      </trkpt>
      <trkpt lat="45.71143" lon="4.5791">
        <ele>533.8</ele>
        <time>2015-05-10T08:07:08Z</time>
      </trkpt>
      <trkpt lat="45.7115" lon="4.5789">
        <ele>534.1</ele>
        <time>2015-05-10T08:07:13Z</time>
      </trkpt>
      <trkpt lat="45.7116" lon="4.5785">
        <ele>531.3</ele>
        <time>2015-05-10T08:07:18Z</time>
      </trkpt>
      <trkpt lat="45.7118" lon="4.578">
        <ele>527.8</ele>
        <time>2015-05-10T08:07:23Z</time>
      </trkpt>
      <trkpt lat="45.71193" lon="4.57762">
        <ele>525</ele>
        <time>2015-05-10T08:07:28Z</time>
      </trkpt>
      <trkpt lat="45.71185" lon="4.57765">
        <ele>523.5</ele>
        <time>2015-05-10T08:07:33Z</time>
      </trkpt>
      <trkpt lat="45.71182" lon="4.57768">
        <ele>522.9</ele>
        <time>2015-05-10T08:07:38Z</time>
      </trkpt>
      <trkpt lat="45.71183" lon="4.57763">
        <ele>523.1</ele>
        <time>2015-05-10T08:16:53Z</time>
      </trkpt>
      <trkpt lat="45.71192" lon="4.57762">
        <ele>523.2</ele>
        <time>2015-05-10T08:16:58Z</time>
      </trkpt>
      <trkpt lat="45.71197" lon="4.57755">
        <ele>523.7</ele>
        <time>2015-05-10T08:17:03Z</time>
      </trkpt>
      <trkpt lat="45.71203" lon="4.57737">
        <ele>523.3</ele>
        <time>2015-05-10T08:17:08Z</time>
      </trkpt>
      <trkpt lat="45.7121" lon="4.57713">
        <ele>522.2</ele>
        <time>2015-05-10T08:17:13Z</time>
      </trkpt>
      <trkpt lat="45.71213" lon="4.5769">
        <ele>522.2</ele>
        <time>2015-05-10T08:17:18Z</time>
      </trkpt>
      <trkpt lat="45.71203" lon="4.5768">
        <ele>521.6</ele>
        <time>2015-05-10T08:17:23Z</time>
      </trkpt>
      <trkpt lat="45.71193" lon="4.5767">
        <ele>521.9</ele>
        <time>2015-05-10T08:17:28Z</time>
      </trkpt>
      <trkpt lat="45.71187" lon="4.57655">
        <ele>523.4</ele>
        <time>2015-05-10T08:17:33Z</time>
      </trkpt>
      <trkpt lat="45.71183" lon="4.5764">
        <ele>524.2</ele>
        <time>2015-05-10T08:17:38Z</time>
      </trkpt>
      <trkpt lat="45.7118" lon="4.57625">
        <ele>524.1</ele>
        <time>2015-05-10T08:17:43Z</time>
      </trkpt>
      <trkpt lat="45.71177" lon="4.57613">
        <ele>526.5</ele>
        <time>2015-05-10T08:17:48Z</time>
      </trkpt>
      <trkpt lat="45.71172" lon="4.57605">
        <ele>527.3</ele>
        <time>2015-05-10T08:17:53Z</time>
      </trkpt>
      <trkpt lat="45.71167" lon="4.57597">
        <ele>528.3</ele>
        <time>2015-05-10T08:17:58Z</time>
      </trkpt>
      <trkpt lat="45.71162" lon="4.57588">
        <ele>529.2</ele>
        <time>2015-05-10T08:18:03Z</time>
      </trkpt>
      <trkpt lat="45.71155" lon="4.57582">
        <ele>531.2</ele>
        <time>2015-05-10T08:18:08Z</time>
      </trkpt>
      <trkpt lat="45.71148" lon="4.57575">
        <ele>532</ele>
        <time>2015-05-10T08:18:13Z</time>
      </trkpt>
      <trkpt lat="45.71143" lon="4.57568">
        <ele>534.1</ele>
        <time>2015-05-10T08:18:18Z</time>
      </trkpt>
      <trkpt lat="45.71135" lon="4.57565">
        <ele>535.2</ele>
        <time>2015-05-10T08:18:23Z</time>
      </trkpt>
      <trkpt lat="45.71128" lon="4.5757">
        <ele>536.3</ele>
        <time>2015-05-10T08:18:28Z</time>
      </trkpt>
      <trkpt lat="45.71123" lon="4.57578">
        <ele>537.6</ele>
        <time>2015-05-10T08:18:33Z</time>
      </trkpt>
      <trkpt lat="45.71118" lon="4.57588">
        <ele>538.9</ele>
        <time>2015-05-10T08:18:38Z</time>
      </trkpt>
      <trkpt lat="45.71112" lon="4.57595">
        <ele>539.7</ele>
        <time>2015-05-10T08:18:43Z</time>
      </trkpt>
      <trkpt lat="45.71107" lon="4.57595">
        <ele>541.7</ele>
        <time>2015-05-10T08:18:48Z</time>
      </trkpt>
      <trkpt lat="45.71102" lon="4.57585">
        <ele>542.5</ele>
        <time>2015-05-10T08:18:53Z</time>
      </trkpt>
      <trkpt lat="45.711" lon="4.57575">
        <ele>543.2</ele>
        <time>2015-05-10T08:18:58Z</time>
      </trkpt>
      <trkpt lat="45.71095" lon="4.57565">
        <ele>545.1</ele>
        <time>2015-05-10T08:19:03Z</time>
      </trkpt>
      <trkpt lat="45.71092" lon="4.57553">
        <ele>545.9</ele>
        <time>2015-05-10T08:19:08Z</time>
      </trkpt>
      <trkpt lat="45.71085" lon="4.57543">
        <ele>546.4</ele>
        <time>2015-05-10T08:19:13Z</time>
      </trkpt>
      <trkpt lat="45.71085" lon="4.57532">
        <ele>547.7</ele>
        <time>2015-05-10T08:19:18Z</time>
      </trkpt>
      <trkpt lat="45.71085" lon="4.57518">
        <ele>547.9</ele>
        <time>2015-05-10T08:19:23Z</time>
      </trkpt>
      <trkpt lat="45.7109" lon="4.57508">
        <ele>549.2</ele>
        <time>2015-05-10T08:19:28Z</time>
      </trkpt>
      <trkpt lat="45.71097" lon="4.57498">
        <ele>550</ele>
        <time>2015-05-10T08:19:33Z</time>
      </trkpt>
      <trkpt lat="45.71103" lon="4.57488">
        <ele>550.8</ele>
        <time>2015-05-10T08:19:38Z</time>
      </trkpt>
      <trkpt lat="45.71108" lon="4.57477">
        <ele>551.6</ele>
        <time>2015-05-10T08:19:43Z</time>
      </trkpt>
      <trkpt lat="45.71113" lon="4.57465">
        <ele>551.1</ele>
        <time>2015-05-10T08:19:48Z</time>
      </trkpt>
      <trkpt lat="45.71113" lon="4.57453">
        <ele>551.5</ele>
        <time>2015-05-10T08:19:53Z</time>
      </trkpt>
      <trkpt lat="45.71117" lon="4.57443">
        <ele>552.2</ele>
        <time>2015-05-10T08:19:58Z</time>
      </trkpt>
      <trkpt lat="45.71118" lon="4.57432">
        <ele>552.4</ele>
        <time>2015-05-10T08:20:03Z</time>
      </trkpt>
      <trkpt lat="45.71117" lon="4.5742">
        <ele>552.6</ele>
        <time>2015-05-10T08:20:08Z</time>
      </trkpt>
      <trkpt lat="45.71112" lon="4.57407">
        <ele>554.4</ele>
        <time>2015-05-10T08:20:13Z</time>
      </trkpt>
      <trkpt lat="45.7111" lon="4.57393">
        <ele>555.3</ele>
        <time>2015-05-10T08:20:18Z</time>
      </trkpt>
      <trkpt lat="45.71107" lon="4.57382">
        <ele>556.6</ele>
        <time>2015-05-10T08:20:23Z</time>
      </trkpt>
      <trkpt lat="45.71102" lon="4.57367">
        <ele>557.2</ele>
        <time>2015-05-10T08:20:28Z</time>
      </trkpt>
      <trkpt lat="45.71098" lon="4.57355">
        <ele>558</ele>
        <time>2015-05-10T08:20:33Z</time>
      </trkpt>
      <trkpt lat="45.71093" lon="4.57345">
        <ele>558.6</ele>
        <time>2015-05-10T08:20:38Z</time>
      </trkpt>
      <trkpt lat="45.71088" lon="4.57333">
        <ele>559</ele>
        <time>2015-05-10T08:20:43Z</time>
      </trkpt>
      <trkpt lat="45.71083" lon="4.57322">
        <ele>560.2</ele>
        <time>2015-05-10T08:20:48Z</time>
      </trkpt>
      <trkpt lat="45.71073" lon="4.5731">
        <ele>560.1</ele>
        <time>2015-05-10T08:20:53Z</time>
      </trkpt>
      <trkpt lat="45.7107" lon="4.57295">
        <ele>560.8</ele>
        <time>2015-05-10T08:20:58Z</time>
      </trkpt>
      <trkpt lat="45.71062" lon="4.57283">
        <ele>562.3</ele>
        <time>2015-05-10T08:21:03Z</time>
      </trkpt>
      <trkpt lat="45.71057" lon="4.57268">
        <ele>562.9</ele>
        <time>2015-05-10T08:21:08Z</time>
      </trkpt>
      <trkpt lat="45.71053" lon="4.57255">
        <ele>563.8</ele>
        <time>2015-05-10T08:21:13Z</time>
      </trkpt>
      <trkpt lat="45.71048" lon="4.57243">
        <ele>565.3</ele>
        <time>2015-05-10T08:21:18Z</time>
      </trkpt>
      <trkpt lat="45.71047" lon="4.57233">
        <ele>566</ele>
        <time>2015-05-10T08:21:23Z</time>
      </trkpt>
      <trkpt lat="45.7104" lon="4.5722">
        <ele>566</ele>
        <time>2015-05-10T08:21:28Z</time>
      </trkpt>
      <trkpt lat="45.71032" lon="4.57207">
        <ele>568</ele>
        <time>2015-05-10T08:21:33Z</time>
      </trkpt>
      <trkpt lat="45.71027" lon="4.57198">
        <ele>568.5</ele>
        <time>2015-05-10T08:21:38Z</time>
      </trkpt>
      <trkpt lat="45.71018" lon="4.57188">
        <ele>570.4</ele>
        <time>2015-05-10T08:21:43Z</time>
      </trkpt>
      <trkpt lat="45.71012" lon="4.5718">
        <ele>571</ele>
        <time>2015-05-10T08:21:48Z</time>
      </trkpt>
      <trkpt lat="45.71007" lon="4.57172">
        <ele>571.9</ele>
        <time>2015-05-10T08:21:53Z</time>
      </trkpt>
      <trkpt lat="45.70998" lon="4.57157">
        <ele>572.5</ele>
        <time>2015-05-10T08:21:58Z</time>
      </trkpt>
      <trkpt lat="45.70993" lon="4.57138">
        <ele>573.1</ele>
        <time>2015-05-10T08:22:03Z</time>
      </trkpt>
      <trkpt lat="45.70987" lon="4.57122">
        <ele>574.6</ele>
        <time>2015-05-10T08:22:08Z</time>
      </trkpt>
      <trkpt lat="45.70983" lon="4.57103">
        <ele>575.5</ele>
        <time>2015-05-10T08:22:13Z</time>
      </trkpt>
      <trkpt lat="45.70977" lon="4.57083">
        <ele>576.2</ele>
        <time>2015-05-10T08:22:18Z</time>
      </trkpt>
      <trkpt lat="45.70973" lon="4.57068">
        <ele>576.4</ele>
        <time>2015-05-10T08:22:23Z</time>
      </trkpt>
      <trkpt lat="45.7097" lon="4.57052">
        <ele>578</ele>
        <time>2015-05-10T08:22:28Z</time>
      </trkpt>
      <trkpt lat="45.70965" lon="4.57037">
        <ele>577.9</ele>
        <time>2015-05-10T08:22:33Z</time>
      </trkpt>
      <trkpt lat="45.7096" lon="4.57023">
        <ele>579</ele>
        <time>2015-05-10T08:22:38Z</time>
      </trkpt>
      <trkpt lat="45.70952" lon="4.57007">
        <ele>580.2</ele>
        <time>2015-05-10T08:22:43Z</time>
      </trkpt>
      <trkpt lat="45.70942" lon="4.56992">
        <ele>581.8</ele>
        <time>2015-05-10T08:22:48Z</time>
      </trkpt>
      <trkpt lat="45.70935" lon="4.5698">
        <ele>582.5</ele>
        <time>2015-05-10T08:22:53Z</time>
      </trkpt>
      <trkpt lat="45.70928" lon="4.5697">
        <ele>583.8</ele>
        <time>2015-05-10T08:22:58Z</time>
      </trkpt>
      <trkpt lat="45.70923" lon="4.56965">
        <ele>585.9</ele>
        <time>2015-05-10T08:23:03Z</time>
      </trkpt>
      <trkpt lat="45.70915" lon="4.56955">
        <ele>587.5</ele>
        <time>2015-05-10T08:23:08Z</time>
      </trkpt>
      <trkpt lat="45.70908" lon="4.56948">
        <ele>588.2</ele>
        <time>2015-05-10T08:23:13Z</time>
      </trkpt>
      <trkpt lat="45.709" lon="4.56938">
        <ele>589.5</ele>
        <time>2015-05-10T08:23:18Z</time>
      </trkpt>
      <trkpt lat="45.70893" lon="4.56927">
        <ele>590.6</ele>
        <time>2015-05-10T08:23:23Z</time>
      </trkpt>
      <trkpt lat="45.70885" lon="4.56918">
        <ele>590.8</ele>
        <time>2015-05-10T08:23:28Z</time>
      </trkpt>
      <trkpt lat="45.7088" lon="4.56912">
        <ele>592.4</ele>
        <time>2015-05-10T08:23:33Z</time>
      </trkpt>
      <trkpt lat="45.7087" lon="4.56902">
        <ele>593.1</ele>
        <time>2015-05-10T08:23:38Z</time>
      </trkpt>
      <trkpt lat="45.70862" lon="4.56888">
        <ele>593.9</ele>
        <time>2015-05-10T08:23:43Z</time>
      </trkpt>
      <trkpt lat="45.70855" lon="4.56877">
        <ele>593.3</ele>
        <time>2015-05-10T08:23:48Z</time>
      </trkpt>
      <trkpt lat="45.7085" lon="4.56858">
        <ele>594.4</ele>
        <time>2015-05-10T08:23:53Z</time>
      </trkpt>
      <trkpt lat="45.70842" lon="4.56837">
        <ele>593.4</ele>
        <time>2015-05-10T08:23:58Z</time>
      </trkpt>
      <trkpt lat="45.70835" lon="4.56815">
        <ele>595.2</ele>
        <time>2015-05-10T08:24:03Z</time>
      </trkpt>
      <trkpt lat="45.70828" lon="4.56793">
        <ele>595.8</ele>
        <time>2015-05-10T08:24:08Z</time>
      </trkpt>
      <trkpt lat="45.70825" lon="4.5677">
        <ele>595.1</ele>
        <time>2015-05-10T08:24:13Z</time>
      </trkpt>
      <trkpt lat="45.70818" lon="4.56748">
        <ele>595.5</ele>
        <time>2015-05-10T08:24:18Z</time>
      </trkpt>
      <trkpt lat="45.70812" lon="4.56728">
        <ele>597.7</ele>
        <time>2015-05-10T08:24:23Z</time>
      </trkpt>
      <trkpt lat="45.70807" lon="4.56713">
        <ele>598.4</ele>
        <time>2015-05-10T08:24:28Z</time>
      </trkpt>
      <trkpt lat="45.70803" lon="4.567">
        <ele>600.5</ele>
        <time>2015-05-10T08:24:33Z</time>
      </trkpt>
      <trkpt lat="45.70798" lon="4.56692">
        <ele>599.4</ele>
        <time>2015-05-10T08:24:38Z</time>
      </trkpt>
      <trkpt lat="45.70793" lon="4.56682">
        <ele>603</ele>
        <time>2015-05-10T08:24:43Z</time>
      </trkpt>
      <trkpt lat="45.70783" lon="4.5667">
        <ele>605.3</ele>
        <time>2015-05-10T08:24:48Z</time>
      </trkpt>
      <trkpt lat="45.70777" lon="4.56662">
        <ele>606.2</ele>
        <time>2015-05-10T08:24:53Z</time>
      </trkpt>
      <trkpt lat="45.70772" lon="4.5665">
        <ele>608.7</ele>
        <time>2015-05-10T08:24:58Z</time>
      </trkpt>
      <trkpt lat="45.70767" lon="4.5664">
        <ele>609.3</ele>
        <time>2015-05-10T08:25:03Z</time>
      </trkpt>
      <trkpt lat="45.70763" lon="4.56632">
        <ele>610.7</ele>
        <time>2015-05-10T08:25:08Z</time>
      </trkpt>
      <trkpt lat="45.70762" lon="4.5662">
        <ele>612.3</ele>
        <time>2015-05-10T08:25:13Z</time>
      </trkpt>
      <trkpt lat="45.70758" lon="4.5661">
        <ele>613.4</ele>
        <time>2015-05-10T08:25:18Z</time>
      </trkpt>
      <trkpt lat="45.70755" lon="4.56598">
        <ele>613.8</ele>
        <time>2015-05-10T08:25:23Z</time>
      </trkpt>
      <trkpt lat="45.70752" lon="4.56588">
        <ele>616.2</ele>
        <time>2015-05-10T08:25:28Z</time>
      </trkpt>
      <trkpt lat="45.70748" lon="4.56578">
        <ele>616.3</ele>
        <time>2015-05-10T08:25:33Z</time>
      </trkpt>
      <trkpt lat="45.70747" lon="4.56568">
        <ele>618.5</ele>
        <time>2015-05-10T08:25:38Z</time>
      </trkpt>
      <trkpt lat="45.70743" lon="4.56558">
        <ele>619.3</ele>
        <time>2015-05-10T08:25:43Z</time>
      </trkpt>
      <trkpt lat="45.70742" lon="4.56548">
        <ele>620.6</ele>
        <time>2015-05-10T08:25:48Z</time>
      </trkpt>
      <trkpt lat="45.70737" lon="4.56537">
        <ele>621.3</ele>
        <time>2015-05-10T08:25:53Z</time>
      </trkpt>
      <trkpt lat="45.70735" lon="4.56528">
        <ele>622.4</ele>
        <time>2015-05-10T08:25:58Z</time>
      </trkpt>
      <trkpt lat="45.7073" lon="4.5652">
        <ele>624.1</ele>
        <time>2015-05-10T08:26:03Z</time>
      </trkpt>
      <trkpt lat="45.70725" lon="4.56517">
        <ele>625.6</ele>
        <time>2015-05-10T08:26:08Z</time>
      </trkpt>
      <trkpt lat="45.70715" lon="4.56515">
        <ele>627.3</ele>
        <time>2015-05-10T08:26:13Z</time>
      </trkpt>
      <trkpt lat="45.7071" lon="4.56522">
        <ele>628</ele>
        <time>2015-05-10T08:26:18Z</time>
      </trkpt>
      <trkpt lat="45.70707" lon="4.5653">
        <ele>628.7</ele>
        <time>2015-05-10T08:26:23Z</time>
      </trkpt>
      <trkpt lat="45.70705" lon="4.56537">
        <ele>629.9</ele>
        <time>2015-05-10T08:26:28Z</time>
      </trkpt>
      <trkpt lat="45.707" lon="4.56543">
        <ele>632.1</ele>
        <time>2015-05-10T08:26:33Z</time>
      </trkpt>
      <trkpt lat="45.70695" lon="4.56547">
        <ele>633.6</ele>
        <time>2015-05-10T08:26:38Z</time>
      </trkpt>
      <trkpt lat="45.70688" lon="4.56552">
        <ele>634.8</ele>
        <time>2015-05-10T08:26:43Z</time>
      </trkpt>
      <trkpt lat="45.70682" lon="4.56557">
        <ele>636.3</ele>
        <time>2015-05-10T08:26:48Z</time>
      </trkpt>
      <trkpt lat="45.70678" lon="4.56565">
        <ele>637.9</ele>
        <time>2015-05-10T08:26:53Z</time>
      </trkpt>
      <trkpt lat="45.70673" lon="4.56567">
        <ele>639.1</ele>
        <time>2015-05-10T08:26:58Z</time>
      </trkpt>
      <trkpt lat="45.70667" lon="4.5657">
        <ele>640.4</ele>
        <time>2015-05-10T08:27:03Z</time>
      </trkpt>
      <trkpt lat="45.70662" lon="4.56572">
        <ele>641.8</ele>
        <time>2015-05-10T08:27:08Z</time>
      </trkpt>
      <trkpt lat="45.70655" lon="4.56575">
        <ele>643.1</ele>
        <time>2015-05-10T08:27:13Z</time>
      </trkpt>
      <trkpt lat="45.7065" lon="4.5658">
        <ele>644.4</ele>
        <time>2015-05-10T08:27:18Z</time>
      </trkpt>
      <trkpt lat="45.70645" lon="4.56583">
        <ele>646.3</ele>
        <time>2015-05-10T08:27:23Z</time>
      </trkpt>
      <trkpt lat="45.7064" lon="4.56588">
        <ele>646.8</ele>
        <time>2015-05-10T08:27:28Z</time>
      </trkpt>
      <trkpt lat="45.70635" lon="4.5659">
        <ele>648.1</ele>
        <time>2015-05-10T08:27:33Z</time>
      </trkpt>
      <trkpt lat="45.70627" lon="4.56595">
        <ele>649.6</ele>
        <time>2015-05-10T08:27:38Z</time>
      </trkpt>
      <trkpt lat="45.70618" lon="4.56598">
        <ele>651</ele>
        <time>2015-05-10T08:27:43Z</time>
      </trkpt>
      <trkpt lat="45.70612" lon="4.56602">
        <ele>652.6</ele>
        <time>2015-05-10T08:27:48Z</time>
      </trkpt>
      <trkpt lat="45.70608" lon="4.56607">
        <ele>654</ele>
        <time>2015-05-10T08:27:53Z</time>
      </trkpt>
      <trkpt lat="45.70602" lon="4.5661">
        <ele>655.8</ele>
        <time>2015-05-10T08:27:58Z</time>
      </trkpt>
      <trkpt lat="45.70597" lon="4.56612">
        <ele>656.3</ele>
        <time>2015-05-10T08:28:03Z</time>
      </trkpt>
      <trkpt lat="45.70592" lon="4.56613">
        <ele>658.1</ele>
        <time>2015-05-10T08:28:08Z</time>
      </trkpt>
      <trkpt lat="45.70585" lon="4.56613">
        <ele>659.9</ele>
        <time>2015-05-10T08:28:13Z</time>
      </trkpt>
      <trkpt lat="45.70578" lon="4.56613">
        <ele>661.3</ele>
        <time>2015-05-10T08:28:18Z</time>
      </trkpt>
      <trkpt lat="45.70573" lon="4.56615">
        <ele>662.7</ele>
        <time>2015-05-10T08:28:23Z</time>
      </trkpt>
      <trkpt lat="45.70567" lon="4.56618">
        <ele>663.9</ele>
        <time>2015-05-10T08:28:28Z</time>
      </trkpt>
      <trkpt lat="45.70562" lon="4.5662">
        <ele>665.6</ele>
        <time>2015-05-10T08:28:33Z</time>
      </trkpt>
      <trkpt lat="45.70557" lon="4.56623">
        <ele>666.5</ele>
        <time>2015-05-10T08:28:38Z</time>
      </trkpt>
      <trkpt lat="45.7055" lon="4.5663">
        <ele>668.4</ele>
        <time>2015-05-10T08:28:43Z</time>
      </trkpt>
      <trkpt lat="45.70545" lon="4.56635">
        <ele>670.2</ele>
        <time>2015-05-10T08:28:48Z</time>
      </trkpt>
      <trkpt lat="45.7054" lon="4.5664">
        <ele>670.7</ele>
        <time>2015-05-10T08:28:53Z</time>
      </trkpt>
      <trkpt lat="45.70535" lon="4.56648">
        <ele>672.5</ele>
        <time>2015-05-10T08:28:58Z</time>
      </trkpt>
      <trkpt lat="45.70532" lon="4.56655">
        <ele>673.3</ele>
        <time>2015-05-10T08:29:03Z</time>
      </trkpt>
      <trkpt lat="45.70527" lon="4.56663">
        <ele>675.1</ele>
        <time>2015-05-10T08:29:08Z</time>
      </trkpt>
      <trkpt lat="45.70522" lon="4.5667">
        <ele>676.5</ele>
        <time>2015-05-10T08:29:13Z</time>
      </trkpt>
      <trkpt lat="45.70517" lon="4.56677">
        <ele>677.8</ele>
        <time>2015-05-10T08:29:18Z</time>
      </trkpt>
      <trkpt lat="45.70512" lon="4.56685">
        <ele>678.7</ele>
        <time>2015-05-10T08:29:23Z</time>
      </trkpt>
      <trkpt lat="45.70505" lon="4.56693">
        <ele>680</ele>
        <time>2015-05-10T08:29:28Z</time>
      </trkpt>
      <trkpt lat="45.70498" lon="4.567">
        <ele>680</ele>
        <time>2015-05-10T08:29:33Z</time>
      </trkpt>
      <trkpt lat="45.70492" lon="4.56707">
        <ele>681.3</ele>
        <time>2015-05-10T08:29:38Z</time>
      </trkpt>
      <trkpt lat="45.70485" lon="4.56713">
        <ele>681.6</ele>
        <time>2015-05-10T08:29:43Z</time>
      </trkpt>
      <trkpt lat="45.70478" lon="4.56712">
        <ele>682.5</ele>
        <time>2015-05-10T08:29:48Z</time>
      </trkpt>
      <trkpt lat="45.70473" lon="4.567">
        <ele>683.8</ele>
        <time>2015-05-10T08:29:53Z</time>
      </trkpt>
      <trkpt lat="45.70465" lon="4.56685">
        <ele>683.1</ele>
        <time>2015-05-10T08:29:58Z</time>
      </trkpt>
      <trkpt lat="45.70455" lon="4.56668">
        <ele>683.5</ele>
        <time>2015-05-10T08:30:03Z</time>
      </trkpt>
      <trkpt lat="45.70448" lon="4.5665">
        <ele>683.6</ele>
        <time>2015-05-10T08:30:08Z</time>
      </trkpt>
      <trkpt lat="45.70442" lon="4.56632">
        <ele>683.5</ele>
        <time>2015-05-10T08:30:13Z</time>
      </trkpt>
      <trkpt lat="45.70435" lon="4.56613">
        <ele>684.5</ele>
        <time>2015-05-10T08:30:18Z</time>
      </trkpt>
      <trkpt lat="45.70432" lon="4.56593">
        <ele>685.1</ele>
        <time>2015-05-10T08:30:23Z</time>
      </trkpt>
      <trkpt lat="45.7043" lon="4.56568">
        <ele>685</ele>
        <time>2015-05-10T08:30:28Z</time>
      </trkpt>
      <trkpt lat="45.70428" lon="4.56538">
        <ele>684</ele>
        <time>2015-05-10T08:30:33Z</time>
      </trkpt>
      <trkpt lat="45.7043" lon="4.56503">
        <ele>681.7</ele>
        <time>2015-05-10T08:30:38Z</time>
      </trkpt>
      <trkpt lat="45.70427" lon="4.56473">
        <ele>680.3</ele>
        <time>2015-05-10T08:30:43Z</time>
      </trkpt>
      <trkpt lat="45.70428" lon="4.56445">
        <ele>681.3</ele>
        <time>2015-05-10T08:30:48Z</time>
      </trkpt>
      <trkpt lat="45.70423" lon="4.5641">
        <ele>680.6</ele>
        <time>2015-05-10T08:30:53Z</time>
      </trkpt>
      <trkpt lat="45.7042" lon="4.56372">
        <ele>677.8</ele>
        <time>2015-05-10T08:30:58Z</time>
      </trkpt>
      <trkpt lat="45.70418" lon="4.56328">
        <ele>677.3</ele>
        <time>2015-05-10T08:31:03Z</time>
      </trkpt>
      <trkpt lat="45.70423" lon="4.56282">
        <ele>676.5</ele>
        <time>2015-05-10T08:31:08Z</time>
      </trkpt>
      <trkpt lat="45.70413" lon="4.56268">
        <ele>673.1</ele>
        <time>2015-05-10T08:31:13Z</time>
      </trkpt>
      <trkpt lat="45.7039" lon="4.56287">
        <ele>673.8</ele>
        <time>2015-05-10T08:31:18Z</time>
      </trkpt>
      <trkpt lat="45.70368" lon="4.56305">
        <ele>669.2</ele>
        <time>2015-05-10T08:31:23Z</time>
      </trkpt>
      <trkpt lat="45.70358" lon="4.56318">
        <ele>669.2</ele>
        <time>2015-05-10T08:31:28Z</time>
      </trkpt>
      <trkpt lat="45.7034" lon="4.5633">
        <ele>671.1</ele>
        <time>2015-05-10T08:31:33Z</time>
      </trkpt>
      <trkpt lat="45.70322" lon="4.5634">
        <ele>670.5</ele>
        <time>2015-05-10T08:31:38Z</time>
      </trkpt>
      <trkpt lat="45.703" lon="4.5635">
        <ele>669.3</ele>
        <time>2015-05-10T08:31:43Z</time>
      </trkpt>
      <trkpt lat="45.70278" lon="4.56363">
        <ele>669.8</ele>
        <time>2015-05-10T08:31:48Z</time>
      </trkpt>
      <trkpt lat="45.70255" lon="4.56367">
        <ele>669.6</ele>
        <time>2015-05-10T08:31:53Z</time>
      </trkpt>
      <trkpt lat="45.7023" lon="4.56367">
        <ele>670</ele>
        <time>2015-05-10T08:31:58Z</time>
      </trkpt>
      <trkpt lat="45.70208" lon="4.56372">
        <ele>670.3</ele>
        <time>2015-05-10T08:32:03Z</time>
      </trkpt>
      <trkpt lat="45.70188" lon="4.56382">
        <ele>668.1</ele>
        <time>2015-05-10T08:32:08Z</time>
      </trkpt>
      <trkpt lat="45.70175" lon="4.56395">
        <ele>669.3</ele>
        <time>2015-05-10T08:32:13Z</time>
      </trkpt>
      <trkpt lat="45.70163" lon="4.56413">
        <ele>673.1</ele>
        <time>2015-05-10T08:32:18Z</time>
      </trkpt>
      <trkpt lat="45.70155" lon="4.5643">
        <ele>674.4</ele>
        <time>2015-05-10T08:32:23Z</time>
      </trkpt>
      <trkpt lat="45.70148" lon="4.56443">
        <ele>675.1</ele>
        <time>2015-05-10T08:32:28Z</time>
      </trkpt>
      <trkpt lat="45.70135" lon="4.56443">
        <ele>677.9</ele>
        <time>2015-05-10T08:32:33Z</time>
      </trkpt>
      <trkpt lat="45.70125" lon="4.56438">
        <ele>679.2</ele>
        <time>2015-05-10T08:32:38Z</time>
      </trkpt>
      <trkpt lat="45.70118" lon="4.5644">
        <ele>680.4</ele>
        <time>2015-05-10T08:32:43Z</time>
      </trkpt>
      <trkpt lat="45.70108" lon="4.56443">
        <ele>680.9</ele>
        <time>2015-05-10T08:32:48Z</time>
      </trkpt>
      <trkpt lat="45.70097" lon="4.56445">
        <ele>682.1</ele>
        <time>2015-05-10T08:32:53Z</time>
      </trkpt>
      <trkpt lat="45.70085" lon="4.5645">
        <ele>682.3</ele>
        <time>2015-05-10T08:32:58Z</time>
      </trkpt>
      <trkpt lat="45.70075" lon="4.56455">
        <ele>683.3</ele>
        <time>2015-05-10T08:33:03Z</time>
      </trkpt>
      <trkpt lat="45.70062" lon="4.56462">
        <ele>683</ele>
        <time>2015-05-10T08:33:08Z</time>
      </trkpt>
      <trkpt lat="45.70048" lon="4.56468">
        <ele>684</ele>
        <time>2015-05-10T08:33:13Z</time>
      </trkpt>
      <trkpt lat="45.70038" lon="4.56477">
        <ele>684.1</ele>
        <time>2015-05-10T08:33:18Z</time>
      </trkpt>
      <trkpt lat="45.70027" lon="4.56495">
        <ele>681.6</ele>
        <time>2015-05-10T08:33:23Z</time>
      </trkpt>
      <trkpt lat="45.7001" lon="4.56525">
        <ele>680.6</ele>
        <time>2015-05-10T08:33:28Z</time>
      </trkpt>
      <trkpt lat="45.69997" lon="4.5655">
        <ele>681.7</ele>
        <time>2015-05-10T08:33:33Z</time>
      </trkpt>
      <trkpt lat="45.6998" lon="4.56563">
        <ele>684.9</ele>
        <time>2015-05-10T08:33:38Z</time>
      </trkpt>
      <trkpt lat="45.69968" lon="4.56575">
        <ele>683.9</ele>
        <time>2015-05-10T08:33:43Z</time>
      </trkpt>
      <trkpt lat="45.69958" lon="4.56592">
        <ele>686.8</ele>
        <time>2015-05-10T08:33:48Z</time>
      </trkpt>
      <trkpt lat="45.69947" lon="4.5661">
        <ele>687</ele>
        <time>2015-05-10T08:33:53Z</time>
      </trkpt>
      <trkpt lat="45.69937" lon="4.56625">
        <ele>688.4</ele>
        <time>2015-05-10T08:33:58Z</time>
      </trkpt>
      <trkpt lat="45.69927" lon="4.56642">
        <ele>689</ele>
        <time>2015-05-10T08:34:03Z</time>
      </trkpt>
      <trkpt lat="45.6992" lon="4.56658">
        <ele>690.1</ele>
        <time>2015-05-10T08:34:08Z</time>
      </trkpt>
      <trkpt lat="45.6991" lon="4.56673">
        <ele>691.8</ele>
        <time>2015-05-10T08:34:13Z</time>
      </trkpt>
      <trkpt lat="45.69903" lon="4.56687">
        <ele>693.8</ele>
        <time>2015-05-10T08:34:18Z</time>
      </trkpt>
      <trkpt lat="45.69898" lon="4.56698">
        <ele>693.3</ele>
        <time>2015-05-10T08:34:23Z</time>
      </trkpt>
      <trkpt lat="45.69892" lon="4.56712">
        <ele>694.3</ele>
        <time>2015-05-10T08:34:28Z</time>
      </trkpt>
      <trkpt lat="45.69882" lon="4.56725">
        <ele>694.4</ele>
        <time>2015-05-10T08:34:33Z</time>
      </trkpt>
      <trkpt lat="45.6987" lon="4.5674">
        <ele>694.9</ele>
        <time>2015-05-10T08:34:38Z</time>
      </trkpt>
      <trkpt lat="45.69855" lon="4.56752">
        <ele>695.1</ele>
        <time>2015-05-10T08:34:43Z</time>
      </trkpt>
      <trkpt lat="45.69837" lon="4.56765">
        <ele>695.9</ele>
        <time>2015-05-10T08:34:48Z</time>
      </trkpt>
      <trkpt lat="45.69823" lon="4.56783">
        <ele>695</ele>
        <time>2015-05-10T08:34:53Z</time>
      </trkpt>
      <trkpt lat="45.69807" lon="4.568">
        <ele>695.4</ele>
        <time>2015-05-10T08:34:58Z</time>
      </trkpt>
      <trkpt lat="45.69792" lon="4.56818">
        <ele>692.7</ele>
        <time>2015-05-10T08:35:03Z</time>
      </trkpt>
      <trkpt lat="45.69772" lon="4.56842">
        <ele>692.4</ele>
        <time>2015-05-10T08:35:08Z</time>
      </trkpt>
      <trkpt lat="45.69747" lon="4.56872">
        <ele>689.5</ele>
        <time>2015-05-10T08:35:13Z</time>
      </trkpt>
      <trkpt lat="45.69723" lon="4.56918">
        <ele>686.1</ele>
        <time>2015-05-10T08:35:18Z</time>
      </trkpt>
      <trkpt lat="45.69693" lon="4.56945">
        <ele>680</ele>
        <time>2015-05-10T08:35:23Z</time>
      </trkpt>
      <trkpt lat="45.69668" lon="4.56953">
        <ele>674.4</ele>
        <time>2015-05-10T08:35:28Z</time>
      </trkpt>
      <trkpt lat="45.69645" lon="4.56965">
        <ele>672.2</ele>
        <time>2015-05-10T08:35:33Z</time>
      </trkpt>
      <trkpt lat="45.6962" lon="4.56982">
        <ele>668.2</ele>
        <time>2015-05-10T08:35:38Z</time>
      </trkpt>
      <trkpt lat="45.69595" lon="4.56972">
        <ele>663.9</ele>
        <time>2015-05-10T08:35:43Z</time>
      </trkpt>
      <trkpt lat="45.69572" lon="4.5695">
        <ele>658.5</ele>
        <time>2015-05-10T08:35:48Z</time>
      </trkpt>
      <trkpt lat="45.6955" lon="4.56923">
        <ele>650.1</ele>
        <time>2015-05-10T08:35:53Z</time>
      </trkpt>
      <trkpt lat="45.6953" lon="4.56888">
        <ele>647.5</ele>
        <time>2015-05-10T08:35:58Z</time>
      </trkpt>
      <trkpt lat="45.69515" lon="4.56837">
        <ele>643.4</ele>
        <time>2015-05-10T08:36:03Z</time>
      </trkpt>
      <trkpt lat="45.695" lon="4.56785">
        <ele>644.1</ele>
        <time>2015-05-10T08:36:08Z</time>
      </trkpt>
      <trkpt lat="45.69485" lon="4.56737">
        <ele>641.5</ele>
        <time>2015-05-10T08:36:13Z</time>
      </trkpt>
      <trkpt lat="45.69477" lon="4.56695">
        <ele>640.8</ele>
        <time>2015-05-10T08:36:18Z</time>
      </trkpt>
      <trkpt lat="45.69472" lon="4.56673">
        <ele>641.6</ele>
        <time>2015-05-10T08:36:23Z</time>
      </trkpt>
      <trkpt lat="45.69462" lon="4.56652">
        <ele>640.9</ele>
        <time>2015-05-10T08:36:28Z</time>
      </trkpt>
      <trkpt lat="45.69448" lon="4.56637">
        <ele>635.8</ele>
        <time>2015-05-10T08:36:33Z</time>
      </trkpt>
      <trkpt lat="45.69428" lon="4.5663">
        <ele>636.5</ele>
        <time>2015-05-10T08:36:38Z</time>
      </trkpt>
      <trkpt lat="45.69403" lon="4.56638">
        <ele>633</ele>
        <time>2015-05-10T08:36:43Z</time>
      </trkpt>
      <trkpt lat="45.69385" lon="4.56647">
        <ele>633.9</ele>
        <time>2015-05-10T08:36:48Z</time>
      </trkpt>
      <trkpt lat="45.69368" lon="4.56658">
        <ele>633.9</ele>
        <time>2015-05-10T08:36:53Z</time>
      </trkpt>
      <trkpt lat="45.69352" lon="4.56675">
        <ele>632.2</ele>
        <time>2015-05-10T08:36:58Z</time>
      </trkpt>
      <trkpt lat="45.69335" lon="4.56687">
        <ele>635.7</ele>
        <time>2015-05-10T08:37:03Z</time>
      </trkpt>
      <trkpt lat="45.69318" lon="4.56687">
        <ele>634.9</ele>
        <time>2015-05-10T08:37:08Z</time>
      </trkpt>
      <trkpt lat="45.69303" lon="4.56675">
        <ele>636</ele>
        <time>2015-05-10T08:37:13Z</time>
      </trkpt>
      <trkpt lat="45.69285" lon="4.56658">
        <ele>636.3</ele>
        <time>2015-05-10T08:37:18Z</time>
      </trkpt>
      <trkpt lat="45.69263" lon="4.56648">
        <ele>636.8</ele>
        <time>2015-05-10T08:37:23Z</time>
      </trkpt>
      <trkpt lat="45.6924" lon="4.5664">
        <ele>634.5</ele>
        <time>2015-05-10T08:37:28Z</time>
      </trkpt>
      <trkpt lat="45.69235" lon="4.56635">
        <ele>635.1</ele>
        <time>2015-05-10T08:37:33Z</time>
      </trkpt>
      <trkpt lat="45.6924" lon="4.56623">
        <ele>637.3</ele>
        <time>2015-05-10T08:37:38Z</time>
      </trkpt>
      <trkpt lat="45.69243" lon="4.56615">
        <ele>637.4</ele>
        <time>2015-05-10T08:37:43Z</time>
      </trkpt>
      <trkpt lat="45.69248" lon="4.56607">
        <ele>639.4</ele>
        <time>2015-05-10T08:37:48Z</time>
      </trkpt>
      <trkpt lat="45.69253" lon="4.56597">
        <ele>640.4</ele>
        <time>2015-05-10T08:37:53Z</time>
      </trkpt>
      <trkpt lat="45.69262" lon="4.56588">
        <ele>641.5</ele>
        <time>2015-05-10T08:37:58Z</time>
      </trkpt>
      <trkpt lat="45.6927" lon="4.56582">
        <ele>642.6</ele>
        <time>2015-05-10T08:38:03Z</time>
      </trkpt>
      <trkpt lat="45.6928" lon="4.56575">
        <ele>643.6</ele>
        <time>2015-05-10T08:38:08Z</time>
      </trkpt>
      <trkpt lat="45.6929" lon="4.56572">
        <ele>645.1</ele>
        <time>2015-05-10T08:38:13Z</time>
      </trkpt>
      <trkpt lat="45.69298" lon="4.56568">
        <ele>646.7</ele>
        <time>2015-05-10T08:38:18Z</time>
      </trkpt>
      <trkpt lat="45.6931" lon="4.56568">
        <ele>647.1</ele>
        <time>2015-05-10T08:38:23Z</time>
      </trkpt>
      <trkpt lat="45.69322" lon="4.56565">
        <ele>647.8</ele>
        <time>2015-05-10T08:38:28Z</time>
      </trkpt>
      <trkpt lat="45.69332" lon="4.5656">
        <ele>649.8</ele>
        <time>2015-05-10T08:38:33Z</time>
      </trkpt>
      <trkpt lat="45.69343" lon="4.56553">
        <ele>649.4</ele>
        <time>2015-05-10T08:38:38Z</time>
      </trkpt>
      <trkpt lat="45.69357" lon="4.56545">
        <ele>650.4</ele>
        <time>2015-05-10T08:38:43Z</time>
      </trkpt>
      <trkpt lat="45.69372" lon="4.56543">
        <ele>650.7</ele>
        <time>2015-05-10T08:38:48Z</time>
      </trkpt>
      <trkpt lat="45.69387" lon="4.56545">
        <ele>651.1</ele>
        <time>2015-05-10T08:38:53Z</time>
      </trkpt>
      <trkpt lat="45.69402" lon="4.5654">
        <ele>652.1</ele>
        <time>2015-05-10T08:38:58Z</time>
      </trkpt>
      <trkpt lat="45.69418" lon="4.56528">
        <ele>652.2</ele>
        <time>2015-05-10T08:39:03Z</time>
      </trkpt>
      <trkpt lat="45.69432" lon="4.5652">
        <ele>652.8</ele>
        <time>2015-05-10T08:39:08Z</time>
      </trkpt>
      <trkpt lat="45.69445" lon="4.56508">
        <ele>655.5</ele>
        <time>2015-05-10T08:39:13Z</time>
      </trkpt>
      <trkpt lat="45.69443" lon="4.565">
        <ele>655.5</ele>
        <time>2015-05-10T08:39:18Z</time>
      </trkpt>
      <trkpt lat="45.69437" lon="4.56487">
        <ele>654.8</ele>
        <time>2015-05-10T08:39:23Z</time>
      </trkpt>
      <trkpt lat="45.69435" lon="4.56467">
        <ele>652.8</ele>
        <time>2015-05-10T08:39:28Z</time>
      </trkpt>
      <trkpt lat="45.69442" lon="4.56433">
        <ele>651.2</ele>
        <time>2015-05-10T08:39:33Z</time>
      </trkpt>
      <trkpt lat="45.69447" lon="4.56382">
        <ele>646.3</ele>
        <time>2015-05-10T08:39:38Z</time>
      </trkpt>
      <trkpt lat="45.69465" lon="4.56332">
        <ele>639.1</ele>
        <time>2015-05-10T08:39:43Z</time>
      </trkpt>
      <trkpt lat="45.69485" lon="4.56293">
        <ele>635.1</ele>
        <time>2015-05-10T08:39:48Z</time>
      </trkpt>
      <trkpt lat="45.69507" lon="4.56257">
        <ele>629.8</ele>
        <time>2015-05-10T08:39:53Z</time>
      </trkpt>
      <trkpt lat="45.69527" lon="4.56223">
        <ele>629.4</ele>
        <time>2015-05-10T08:39:58Z</time>
      </trkpt>
      <trkpt lat="45.69507" lon="4.562">
        <ele>622.7</ele>
        <time>2015-05-10T08:40:03Z</time>
      </trkpt>
      <trkpt lat="45.69467" lon="4.56168">
        <ele>618.3</ele>
        <time>2015-05-10T08:40:08Z</time>
      </trkpt>
      <trkpt lat="45.69432" lon="4.56138">
        <ele>617.7</ele>
        <time>2015-05-10T08:40:13Z</time>
      </trkpt>
      <trkpt lat="45.69412" lon="4.56097">
        <ele>613.1</ele>
        <time>2015-05-10T08:40:18Z</time>
      </trkpt>
      <trkpt lat="45.69395" lon="4.5606">
        <ele>612.1</ele>
        <time>2015-05-10T08:40:23Z</time>
      </trkpt>
      <trkpt lat="45.69387" lon="4.56047">
        <ele>609.6</ele>
        <time>2015-05-10T08:40:28Z</time>
      </trkpt>
      <trkpt lat="45.69385" lon="4.56047">
        <ele>609.3</ele>
        <time>2015-05-10T08:44:33Z</time>
      </trkpt>
      <trkpt lat="45.69383" lon="4.56045">
        <ele>609.1</ele>
        <time>2015-05-10T08:44:38Z</time>
      </trkpt>
      <trkpt lat="45.6938" lon="4.56042">
        <ele>609.1</ele>
        <time>2015-05-10T08:44:43Z</time>
      </trkpt>
      <trkpt lat="45.69373" lon="4.56035">
        <ele>609</ele>
        <time>2015-05-10T08:45:03Z</time>
      </trkpt>
      <trkpt lat="45.6936" lon="4.56022">
        <ele>608.2</ele>
        <time>2015-05-10T08:45:08Z</time>
      </trkpt>
      <trkpt lat="45.6934" lon="4.56012">
        <ele>608.6</ele>
        <time>2015-05-10T08:45:13Z</time>
      </trkpt>
      <trkpt lat="45.69315" lon="4.56015">
        <ele>605.9</ele>
        <time>2015-05-10T08:45:18Z</time>
      </trkpt>
      <trkpt lat="45.69288" lon="4.5603">
        <ele>602.5</ele>
        <time>2015-05-10T08:45:23Z</time>
      </trkpt>
      <trkpt lat="45.69253" lon="4.56048">
        <ele>598.6</ele>
        <time>2015-05-10T08:45:28Z</time>
      </trkpt>
      <trkpt lat="45.69198" lon="4.56077">
        <ele>585.8</ele>
        <time>2015-05-10T08:45:33Z</time>
      </trkpt>
      <trkpt lat="45.69147" lon="4.56095">
        <ele>581.8</ele>
        <time>2015-05-10T08:45:38Z</time>
      </trkpt>
      <trkpt lat="45.69102" lon="4.56105">
        <ele>575.6</ele>
        <time>2015-05-10T08:45:43Z</time>
      </trkpt>
      <trkpt lat="45.6906" lon="4.56112">
        <ele>570.5</ele>
        <time>2015-05-10T08:45:48Z</time>
      </trkpt>
      <trkpt lat="45.69013" lon="4.56105">
        <ele>562.9</ele>
        <time>2015-05-10T08:45:53Z</time>
      </trkpt>
      <trkpt lat="45.68997" lon="4.56087">
        <ele>560</ele>
        <time>2015-05-10T08:45:58Z</time>
      </trkpt>
      <trkpt lat="45.68988" lon="4.56078">
        <ele>559.5</ele>
        <time>2015-05-10T08:46:03Z</time>
      </trkpt>
      <trkpt lat="45.6897" lon="4.5607">
        <ele>560.3</ele>
        <time>2015-05-10T08:46:08Z</time>
      </trkpt>
      <trkpt lat="45.68952" lon="4.56063">
        <ele>561.2</ele>
        <time>2015-05-10T08:46:13Z</time>
      </trkpt>
      <trkpt lat="45.68933" lon="4.56055">
        <ele>560</ele>
        <time>2015-05-10T08:46:18Z</time>
      </trkpt>
      <trkpt lat="45.68912" lon="4.56058">
        <ele>559.6</ele>
        <time>2015-05-10T08:46:23Z</time>
      </trkpt>
      <trkpt lat="45.6889" lon="4.56057">
        <ele>558.7</ele>
        <time>2015-05-10T08:46:28Z</time>
      </trkpt>
      <trkpt lat="45.68868" lon="4.56052">
        <ele>557.6</ele>
        <time>2015-05-10T08:46:33Z</time>
      </trkpt>
      <trkpt lat="45.68837" lon="4.56048">
        <ele>554.7</ele>
        <time>2015-05-10T08:46:38Z</time>
      </trkpt>
      <trkpt lat="45.68812" lon="4.56043">
        <ele>549.7</ele>
        <time>2015-05-10T08:46:43Z</time>
      </trkpt>
      <trkpt lat="45.68808" lon="4.56012">
        <ele>546.8</ele>
        <time>2015-05-10T08:46:48Z</time>
      </trkpt>
      <trkpt lat="45.68802" lon="4.55968">
        <ele>545.9</ele>
        <time>2015-05-10T08:46:53Z</time>
      </trkpt>
      <trkpt lat="45.68798" lon="4.55912">
        <ele>544.5</ele>
        <time>2015-05-10T08:46:58Z</time>
      </trkpt>
      <trkpt lat="45.68795" lon="4.55852">
        <ele>539.3</ele>
        <time>2015-05-10T08:47:03Z</time>
      </trkpt>
      <trkpt lat="45.68793" lon="4.55793">
        <ele>540.8</ele>
        <time>2015-05-10T08:47:08Z</time>
      </trkpt>
      <trkpt lat="45.68793" lon="4.55737">
        <ele>538.3</ele>
        <time>2015-05-10T08:47:13Z</time>
      </trkpt>
      <trkpt lat="45.68795" lon="4.55682">
        <ele>530.2</ele>
        <time>2015-05-10T08:47:18Z</time>
      </trkpt>
      <trkpt lat="45.68798" lon="4.55625">
        <ele>531.2</ele>
        <time>2015-05-10T08:47:23Z</time>
      </trkpt>
      <trkpt lat="45.688" lon="4.55563">
        <ele>526.8</ele>
        <time>2015-05-10T08:47:28Z</time>
      </trkpt>
      <trkpt lat="45.68817" lon="4.55507">
        <ele>516.4</ele>
        <time>2015-05-10T08:47:33Z</time>
      </trkpt>
      <trkpt lat="45.68833" lon="4.55448">
        <ele>516.6</ele>
        <time>2015-05-10T08:47:38Z</time>
      </trkpt>
      <trkpt lat="45.6884" lon="4.55387">
        <ele>511.7</ele>
        <time>2015-05-10T08:47:43Z</time>
      </trkpt>
      <trkpt lat="45.6886" lon="4.55335">
        <ele>501.5</ele>
        <time>2015-05-10T08:47:48Z</time>
      </trkpt>
      <trkpt lat="45.68872" lon="4.55303">
        <ele>498</ele>
        <time>2015-05-10T08:47:53Z</time>
      </trkpt>
      <trkpt lat="45.68878" lon="4.553">
        <ele>499.8</ele>
        <time>2015-05-10T08:47:58Z</time>
      </trkpt>
      <trkpt lat="45.68888" lon="4.553">
        <ele>502.3</ele>
        <time>2015-05-10T08:48:03Z</time>
      </trkpt>
      <trkpt lat="45.68897" lon="4.553">
        <ele>503.5</ele>
        <time>2015-05-10T08:48:08Z</time>
      </trkpt>
      <trkpt lat="45.68907" lon="4.55302">
        <ele>505.2</ele>
        <time>2015-05-10T08:48:13Z</time>
      </trkpt>
      <trkpt lat="45.68915" lon="4.55307">
        <ele>506.2</ele>
        <time>2015-05-10T08:48:18Z</time>
      </trkpt>
      <trkpt lat="45.68925" lon="4.55312">
        <ele>507.1</ele>
        <time>2015-05-10T08:48:23Z</time>
      </trkpt>
      <trkpt lat="45.68937" lon="4.55315">
        <ele>507.7</ele>
        <time>2015-05-10T08:48:28Z</time>
      </trkpt>
      <trkpt lat="45.68947" lon="4.55317">
        <ele>507.9</ele>
        <time>2015-05-10T08:48:33Z</time>
      </trkpt>
      <trkpt lat="45.68953" lon="4.55312">
        <ele>509.3</ele>
        <time>2015-05-10T08:48:38Z</time>
      </trkpt>
      <trkpt lat="45.6896" lon="4.55302">
        <ele>509.7</ele>
        <time>2015-05-10T08:48:43Z</time>
      </trkpt>
      <trkpt lat="45.68967" lon="4.55293">
        <ele>511</ele>
        <time>2015-05-10T08:48:48Z</time>
      </trkpt>
      <trkpt lat="45.68973" lon="4.55285">
        <ele>512.8</ele>
        <time>2015-05-10T08:48:53Z</time>
      </trkpt>
      <trkpt lat="45.6898" lon="4.55277">
        <ele>514</ele>
        <time>2015-05-10T08:48:58Z</time>
      </trkpt>
      <trkpt lat="45.68987" lon="4.55268">
        <ele>514.9</ele>
        <time>2015-05-10T08:49:03Z</time>
      </trkpt>
      <trkpt lat="45.68992" lon="4.5526">
        <ele>515.8</ele>
        <time>2015-05-10T08:49:08Z</time>
      </trkpt>
      <trkpt lat="45.68998" lon="4.55252">
        <ele>517.1</ele>
        <time>2015-05-10T08:49:13Z</time>
      </trkpt>
      <trkpt lat="45.69003" lon="4.55243">
        <ele>518.6</ele>
        <time>2015-05-10T08:49:18Z</time>
      </trkpt>
      <trkpt lat="45.6901" lon="4.55235">
        <ele>519.4</ele>
        <time>2015-05-10T08:49:23Z</time>
      </trkpt>
      <trkpt lat="45.69015" lon="4.55227">
        <ele>521</ele>
        <time>2015-05-10T08:49:28Z</time>
      </trkpt>
      <trkpt lat="45.6902" lon="4.5522">
        <ele>523</ele>
        <time>2015-05-10T08:49:33Z</time>
      </trkpt>
      <trkpt lat="45.69025" lon="4.55215">
        <ele>523.2</ele>
        <time>2015-05-10T08:49:38Z</time>
      </trkpt>
      <trkpt lat="45.6903" lon="4.55208">
        <ele>525.5</ele>
        <time>2015-05-10T08:49:43Z</time>
      </trkpt>
      <trkpt lat="45.69035" lon="4.552">
        <ele>526.5</ele>
        <time>2015-05-10T08:49:48Z</time>
      </trkpt>
      <trkpt lat="45.69038" lon="4.55188">
        <ele>527.7</ele>
        <time>2015-05-10T08:49:53Z</time>
      </trkpt>
      <trkpt lat="45.69038" lon="4.55178">
        <ele>529.2</ele>
        <time>2015-05-10T08:49:58Z</time>
      </trkpt>
      <trkpt lat="45.69038" lon="4.5517">
        <ele>530.7</ele>
        <time>2015-05-10T08:50:03Z</time>
      </trkpt>
      <trkpt lat="45.69035" lon="4.5516">
        <ele>531.5</ele>
        <time>2015-05-10T08:50:08Z</time>
      </trkpt>
      <trkpt lat="45.69035" lon="4.55152">
        <ele>532.7</ele>
        <time>2015-05-10T08:50:13Z</time>
      </trkpt>
      <trkpt lat="45.69035" lon="4.55142">
        <ele>533.8</ele>
        <time>2015-05-10T08:50:18Z</time>
      </trkpt>
      <trkpt lat="45.69032" lon="4.55133">
        <ele>535.2</ele>
        <time>2015-05-10T08:50:23Z</time>
      </trkpt>
      <trkpt lat="45.6903" lon="4.55123">
        <ele>536.4</ele>
        <time>2015-05-10T08:50:28Z</time>
      </trkpt>
      <trkpt lat="45.69028" lon="4.55115">
        <ele>537.7</ele>
        <time>2015-05-10T08:50:33Z</time>
      </trkpt>
      <trkpt lat="45.69028" lon="4.55105">
        <ele>538.5</ele>
        <time>2015-05-10T08:50:38Z</time>
      </trkpt>
      <trkpt lat="45.6903" lon="4.55095">
        <ele>538.7</ele>
        <time>2015-05-10T08:50:43Z</time>
      </trkpt>
      <trkpt lat="45.69032" lon="4.55083">
        <ele>540</ele>
        <time>2015-05-10T08:50:48Z</time>
      </trkpt>
      <trkpt lat="45.69032" lon="4.55072">
        <ele>540.2</ele>
        <time>2015-05-10T08:50:53Z</time>
      </trkpt>
      <trkpt lat="45.69035" lon="4.55063">
        <ele>541.1</ele>
        <time>2015-05-10T08:50:58Z</time>
      </trkpt>
      <trkpt lat="45.6904" lon="4.55053">
        <ele>541.8</ele>
        <time>2015-05-10T08:51:03Z</time>
      </trkpt>
      <trkpt lat="45.69045" lon="4.55047">
        <ele>542.3</ele>
        <time>2015-05-10T08:51:08Z</time>
      </trkpt>
      <trkpt lat="45.69052" lon="4.5504">
        <ele>543.4</ele>
        <time>2015-05-10T08:51:13Z</time>
      </trkpt>
      <trkpt lat="45.69058" lon="4.55035">
        <ele>544</ele>
        <time>2015-05-10T08:51:18Z</time>
      </trkpt>
      <trkpt lat="45.69065" lon="4.55032">
        <ele>545.2</ele>
        <time>2015-05-10T08:51:23Z</time>
      </trkpt>
      <trkpt lat="45.69072" lon="4.55022">
        <ele>546.1</ele>
        <time>2015-05-10T08:51:28Z</time>
      </trkpt>
      <trkpt lat="45.69078" lon="4.55017">
        <ele>547</ele>
        <time>2015-05-10T08:51:33Z</time>
      </trkpt>
      <trkpt lat="45.69087" lon="4.55012">
        <ele>548.5</ele>
        <time>2015-05-10T08:51:38Z</time>
      </trkpt>
      <trkpt lat="45.69093" lon="4.55005">
        <ele>549.4</ele>
        <time>2015-05-10T08:51:43Z</time>
      </trkpt>
      <trkpt lat="45.691" lon="4.54998">
        <ele>551.5</ele>
        <time>2015-05-10T08:51:48Z</time>
      </trkpt>
      <trkpt lat="45.69107" lon="4.54992">
        <ele>552.7</ele>
        <time>2015-05-10T08:51:53Z</time>
      </trkpt>
      <trkpt lat="45.69113" lon="4.54987">
        <ele>554</ele>
        <time>2015-05-10T08:51:58Z</time>
      </trkpt>
      <trkpt lat="45.6912" lon="4.5498">
        <ele>555.2</ele>
        <time>2015-05-10T08:52:03Z</time>
      </trkpt>
      <trkpt lat="45.69128" lon="4.54977">
        <ele>556.2</ele>
        <time>2015-05-10T08:52:08Z</time>
      </trkpt>
      <trkpt lat="45.6914" lon="4.54977">
        <ele>557.1</ele>
        <time>2015-05-10T08:52:13Z</time>
      </trkpt>
      <trkpt lat="45.69153" lon="4.5498">
        <ele>557.3</ele>
        <time>2015-05-10T08:52:18Z</time>
      </trkpt>
      <trkpt lat="45.69168" lon="4.54993">
        <ele>557.1</ele>
        <time>2015-05-10T08:52:23Z</time>
      </trkpt>
      <trkpt lat="45.69185" lon="4.55013">
        <ele>556.3</ele>
        <time>2015-05-10T08:52:28Z</time>
      </trkpt>
      <trkpt lat="45.69198" lon="4.5504">
        <ele>555.8</ele>
        <time>2015-05-10T08:52:33Z</time>
      </trkpt>
      <trkpt lat="45.69215" lon="4.5507">
        <ele>555.1</ele>
        <time>2015-05-10T08:52:38Z</time>
      </trkpt>
      <trkpt lat="45.69235" lon="4.551">
        <ele>553.4</ele>
        <time>2015-05-10T08:52:43Z</time>
      </trkpt>
      <trkpt lat="45.69258" lon="4.55123">
        <ele>552.6</ele>
        <time>2015-05-10T08:52:48Z</time>
      </trkpt>
      <trkpt lat="45.69272" lon="4.55128">
        <ele>551.6</ele>
        <time>2015-05-10T08:52:53Z</time>
      </trkpt>
      <trkpt lat="45.6928" lon="4.55123">
        <ele>553.8</ele>
        <time>2015-05-10T08:52:58Z</time>
      </trkpt>
      <trkpt lat="45.69288" lon="4.55123">
        <ele>553.8</ele>
        <time>2015-05-10T08:53:03Z</time>
      </trkpt>
      <trkpt lat="45.69298" lon="4.55122">
        <ele>554.7</ele>
        <time>2015-05-10T08:53:08Z</time>
      </trkpt>
      <trkpt lat="45.69303" lon="4.55122">
        <ele>554.7</ele>
        <time>2015-05-10T08:53:13Z</time>
      </trkpt>
      <trkpt lat="45.69312" lon="4.5512">
        <ele>556.2</ele>
        <time>2015-05-10T08:53:18Z</time>
      </trkpt>
      <trkpt lat="45.69318" lon="4.5512">
        <ele>557.6</ele>
        <time>2015-05-10T08:53:23Z</time>
      </trkpt>
      <trkpt lat="45.69327" lon="4.55118">
        <ele>558.5</ele>
        <time>2015-05-10T08:53:28Z</time>
      </trkpt>
      <trkpt lat="45.69332" lon="4.55117">
        <ele>559.5</ele>
        <time>2015-05-10T08:53:33Z</time>
      </trkpt>
      <trkpt lat="45.6934" lon="4.55113">
        <ele>561</ele>
        <time>2015-05-10T08:53:38Z</time>
      </trkpt>
      <trkpt lat="45.69348" lon="4.5511">
        <ele>561.4</ele>
        <time>2015-05-10T08:53:43Z</time>
      </trkpt>
      <trkpt lat="45.69353" lon="4.55105">
        <ele>562.6</ele>
        <time>2015-05-10T08:53:48Z</time>
      </trkpt>
      <trkpt lat="45.69357" lon="4.55102">
        <ele>562.3</ele>
        <time>2015-05-10T08:53:53Z</time>
      </trkpt>
      <trkpt lat="45.69362" lon="4.55098">
        <ele>563.4</ele>
        <time>2015-05-10T08:53:58Z</time>
      </trkpt>
      <trkpt lat="45.69368" lon="4.55095">
        <ele>563.9</ele>
        <time>2015-05-10T08:54:03Z</time>
      </trkpt>
      <trkpt lat="45.69373" lon="4.55092">
        <ele>564.4</ele>
        <time>2015-05-10T08:54:08Z</time>
      </trkpt>
      <trkpt lat="45.69377" lon="4.55088">
        <ele>565.8</ele>
        <time>2015-05-10T08:54:13Z</time>
      </trkpt>
      <trkpt lat="45.69382" lon="4.55085">
        <ele>565.3</ele>
        <time>2015-05-10T08:54:18Z</time>
      </trkpt>
      <trkpt lat="45.69387" lon="4.5508">
        <ele>565.8</ele>
        <time>2015-05-10T08:54:23Z</time>
      </trkpt>
      <trkpt lat="45.69392" lon="4.55077">
        <ele>566.8</ele>
        <time>2015-05-10T08:54:28Z</time>
      </trkpt>
      <trkpt lat="45.69395" lon="4.55073">
        <ele>567.1</ele>
        <time>2015-05-10T08:54:33Z</time>
      </trkpt>
      <trkpt lat="45.69397" lon="4.55068">
        <ele>568.6</ele>
        <time>2015-05-10T08:54:38Z</time>
      </trkpt>
      <trkpt lat="45.694" lon="4.55062">
        <ele>568.6</ele>
        <time>2015-05-10T08:54:43Z</time>
      </trkpt>
      <trkpt lat="45.69407" lon="4.55057">
        <ele>568.9</ele>
        <time>2015-05-10T08:54:48Z</time>
      </trkpt>
      <trkpt lat="45.69413" lon="4.5505">
        <ele>568.9</ele>
        <time>2015-05-10T08:54:53Z</time>
      </trkpt>
      <trkpt lat="45.69422" lon="4.55045">
        <ele>570.5</ele>
        <time>2015-05-10T08:54:58Z</time>
      </trkpt>
      <trkpt lat="45.6943" lon="4.5504">
        <ele>571.2</ele>
        <time>2015-05-10T08:55:03Z</time>
      </trkpt>
      <trkpt lat="45.6944" lon="4.55035">
        <ele>572</ele>
        <time>2015-05-10T08:55:08Z</time>
      </trkpt>
      <trkpt lat="45.69445" lon="4.5503">
        <ele>573.5</ele>
        <time>2015-05-10T08:55:13Z</time>
      </trkpt>
      <trkpt lat="45.69453" lon="4.55027">
        <ele>574</ele>
        <time>2015-05-10T08:55:18Z</time>
      </trkpt>
      <trkpt lat="45.69462" lon="4.55017">
        <ele>574.5</ele>
        <time>2015-05-10T08:55:23Z</time>
      </trkpt>
      <trkpt lat="45.69472" lon="4.55008">
        <ele>574</ele>
        <time>2015-05-10T08:55:28Z</time>
      </trkpt>
      <trkpt lat="45.6948" lon="4.54998">
        <ele>575.3</ele>
        <time>2015-05-10T08:55:33Z</time>
      </trkpt>
      <trkpt lat="45.69488" lon="4.54993">
        <ele>574.8</ele>
        <time>2015-05-10T08:55:38Z</time>
      </trkpt>
      <trkpt lat="45.69497" lon="4.5499">
        <ele>576.4</ele>
        <time>2015-05-10T08:55:43Z</time>
      </trkpt>
      <trkpt lat="45.69507" lon="4.54992">
        <ele>577.2</ele>
        <time>2015-05-10T08:55:48Z</time>
      </trkpt>
      <trkpt lat="45.69517" lon="4.54992">
        <ele>578.7</ele>
        <time>2015-05-10T08:55:53Z</time>
      </trkpt>
      <trkpt lat="45.69525" lon="4.54992">
        <ele>579.2</ele>
        <time>2015-05-10T08:55:58Z</time>
      </trkpt>
      <trkpt lat="45.69532" lon="4.54992">
        <ele>581</ele>
        <time>2015-05-10T08:56:03Z</time>
      </trkpt>
      <trkpt lat="45.69538" lon="4.54988">
        <ele>581.2</ele>
        <time>2015-05-10T08:56:08Z</time>
      </trkpt>
      <trkpt lat="45.69545" lon="4.54985">
        <ele>583.4</ele>
        <time>2015-05-10T08:56:13Z</time>
      </trkpt>
      <trkpt lat="45.69552" lon="4.54983">
        <ele>582.1</ele>
        <time>2015-05-10T08:56:18Z</time>
      </trkpt>
      <trkpt lat="45.69558" lon="4.54982">
        <ele>583.6</ele>
        <time>2015-05-10T08:56:23Z</time>
      </trkpt>
      <trkpt lat="45.69563" lon="4.54978">
        <ele>586</ele>
        <time>2015-05-10T08:56:28Z</time>
      </trkpt>
      <trkpt lat="45.69572" lon="4.54977">
        <ele>586</ele>
        <time>2015-05-10T08:56:33Z</time>
      </trkpt>
      <trkpt lat="45.69578" lon="4.54973">
        <ele>587.9</ele>
        <time>2015-05-10T08:56:38Z</time>
      </trkpt>
      <trkpt lat="45.69585" lon="4.54973">
        <ele>587.7</ele>
        <time>2015-05-10T08:56:43Z</time>
      </trkpt>
      <trkpt lat="45.69592" lon="4.5497">
        <ele>589.2</ele>
        <time>2015-05-10T08:56:48Z</time>
      </trkpt>
      <trkpt lat="45.69598" lon="4.54967">
        <ele>590.8</ele>
        <time>2015-05-10T08:56:53Z</time>
      </trkpt>
      <trkpt lat="45.69607" lon="4.54967">
        <ele>591.3</ele>
        <time>2015-05-10T08:56:58Z</time>
      </trkpt>
      <trkpt lat="45.69615" lon="4.54965">
        <ele>591.9</ele>
        <time>2015-05-10T08:57:03Z</time>
      </trkpt>
      <trkpt lat="45.69625" lon="4.54963">
        <ele>592.2</ele>
        <time>2015-05-10T08:57:08Z</time>
      </trkpt>
      <trkpt lat="45.69633" lon="4.54962">
        <ele>593.2</ele>
        <time>2015-05-10T08:57:13Z</time>
      </trkpt>
      <trkpt lat="45.69642" lon="4.54962">
        <ele>594.6</ele>
        <time>2015-05-10T08:57:18Z</time>
      </trkpt>
      <trkpt lat="45.6965" lon="4.54962">
        <ele>594.1</ele>
        <time>2015-05-10T08:57:23Z</time>
      </trkpt>
      <trkpt lat="45.6966" lon="4.54963">
        <ele>595.3</ele>
        <time>2015-05-10T08:57:28Z</time>
      </trkpt>
      <trkpt lat="45.69668" lon="4.54963">
        <ele>596.8</ele>
        <time>2015-05-10T08:57:33Z</time>
      </trkpt>
      <trkpt lat="45.69677" lon="4.54967">
        <ele>598.1</ele>
        <time>2015-05-10T08:57:38Z</time>
      </trkpt>
      <trkpt lat="45.69685" lon="4.54972">
        <ele>598.3</ele>
        <time>2015-05-10T08:57:43Z</time>
      </trkpt>
      <trkpt lat="45.69693" lon="4.54982">
        <ele>599.1</ele>
        <time>2015-05-10T08:57:48Z</time>
      </trkpt>
      <trkpt lat="45.69698" lon="4.54993">
        <ele>599.5</ele>
        <time>2015-05-10T08:57:53Z</time>
      </trkpt>
      <trkpt lat="45.69705" lon="4.55003">
        <ele>600.7</ele>
        <time>2015-05-10T08:57:58Z</time>
      </trkpt>
      <trkpt lat="45.69713" lon="4.55007">
        <ele>601</ele>
        <time>2015-05-10T08:58:03Z</time>
      </trkpt>
      <trkpt lat="45.6972" lon="4.55">
        <ele>601.4</ele>
        <time>2015-05-10T08:58:08Z</time>
      </trkpt>
      <trkpt lat="45.69727" lon="4.5499">
        <ele>603.1</ele>
        <time>2015-05-10T08:58:13Z</time>
      </trkpt>
      <trkpt lat="45.69732" lon="4.54978">
        <ele>604.2</ele>
        <time>2015-05-10T08:58:18Z</time>
      </trkpt>
      <trkpt lat="45.6974" lon="4.54972">
        <ele>605.3</ele>
        <time>2015-05-10T08:58:23Z</time>
      </trkpt>
      <trkpt lat="45.69747" lon="4.54965">
        <ele>606.2</ele>
        <time>2015-05-10T08:58:28Z</time>
      </trkpt>
      <trkpt lat="45.69753" lon="4.54955">
        <ele>607.3</ele>
        <time>2015-05-10T08:58:33Z</time>
      </trkpt>
      <trkpt lat="45.6976" lon="4.54945">
        <ele>608.2</ele>
        <time>2015-05-10T08:58:38Z</time>
      </trkpt>
      <trkpt lat="45.69767" lon="4.54935">
        <ele>609.3</ele>
        <time>2015-05-10T08:58:43Z</time>
      </trkpt>
      <trkpt lat="45.69772" lon="4.54922">
        <ele>610.1</ele>
        <time>2015-05-10T08:58:48Z</time>
      </trkpt>
      <trkpt lat="45.69777" lon="4.5491">
        <ele>611</ele>
        <time>2015-05-10T08:58:53Z</time>
      </trkpt>
      <trkpt lat="45.69782" lon="4.54897">
        <ele>612.3</ele>
        <time>2015-05-10T08:58:58Z</time>
      </trkpt>
      <trkpt lat="45.69787" lon="4.54883">
        <ele>612.6</ele>
        <time>2015-05-10T08:59:03Z</time>
      </trkpt>
      <trkpt lat="45.69785" lon="4.5487">
        <ele>614.1</ele>
        <time>2015-05-10T08:59:08Z</time>
      </trkpt>
      <trkpt lat="45.69778" lon="4.54857">
        <ele>614.5</ele>
        <time>2015-05-10T08:59:13Z</time>
      </trkpt>
      <trkpt lat="45.69772" lon="4.54845">
        <ele>615.5</ele>
        <time>2015-05-10T08:59:18Z</time>
      </trkpt>
      <trkpt lat="45.69763" lon="4.54833">
        <ele>616.4</ele>
        <time>2015-05-10T08:59:23Z</time>
      </trkpt>
      <trkpt lat="45.69758" lon="4.54818">
        <ele>616.8</ele>
        <time>2015-05-10T08:59:28Z</time>
      </trkpt>
      <trkpt lat="45.69758" lon="4.54802">
        <ele>617.1</ele>
        <time>2015-05-10T08:59:33Z</time>
      </trkpt>
      <trkpt lat="45.6976" lon="4.54787">
        <ele>618.5</ele>
        <time>2015-05-10T08:59:38Z</time>
      </trkpt>
      <trkpt lat="45.69762" lon="4.5477">
        <ele>619.6</ele>
        <time>2015-05-10T08:59:43Z</time>
      </trkpt>
      <trkpt lat="45.69763" lon="4.54753">
        <ele>621.7</ele>
        <time>2015-05-10T08:59:48Z</time>
      </trkpt>
      <trkpt lat="45.69765" lon="4.5474">
        <ele>623</ele>
        <time>2015-05-10T08:59:53Z</time>
      </trkpt>
      <trkpt lat="45.6976" lon="4.54728">
        <ele>623.2</ele>
        <time>2015-05-10T08:59:58Z</time>
      </trkpt>
      <trkpt lat="45.69753" lon="4.5472">
        <ele>622.9</ele>
        <time>2015-05-10T09:00:03Z</time>
      </trkpt>
      <trkpt lat="45.69748" lon="4.54717">
        <ele>623.2</ele>
        <time>2015-05-10T09:00:08Z</time>
      </trkpt>
      <trkpt lat="45.69745" lon="4.5471">
        <ele>623.1</ele>
        <time>2015-05-10T09:00:13Z</time>
      </trkpt>
      <trkpt lat="45.69745" lon="4.54708">
        <ele>623.1</ele>
        <time>2015-05-10T09:00:18Z</time>
      </trkpt>
      <trkpt lat="45.69747" lon="4.54722">
        <ele>623.1</ele>
        <time>2015-05-10T09:00:38Z</time>
      </trkpt>
      <trkpt lat="45.69752" lon="4.54733">
        <ele>623.2</ele>
        <time>2015-05-10T09:00:43Z</time>
      </trkpt>
      <trkpt lat="45.69745" lon="4.5473">
        <ele>623.8</ele>
        <time>2015-05-10T09:00:48Z</time>
      </trkpt>
      <trkpt lat="45.69737" lon="4.54722">
        <ele>624.2</ele>
        <time>2015-05-10T09:00:53Z</time>
      </trkpt>
      <trkpt lat="45.69727" lon="4.5471">
        <ele>625.8</ele>
        <time>2015-05-10T09:00:58Z</time>
      </trkpt>
      <trkpt lat="45.69713" lon="4.54702">
        <ele>625.7</ele>
        <time>2015-05-10T09:01:03Z</time>
      </trkpt>
      <trkpt lat="45.69705" lon="4.54708">
        <ele>627.8</ele>
        <time>2015-05-10T09:01:08Z</time>
      </trkpt>
      <trkpt lat="45.697" lon="4.54718">
        <ele>627.5</ele>
        <time>2015-05-10T09:01:13Z</time>
      </trkpt>
      <trkpt lat="45.69695" lon="4.5473">
        <ele>629.9</ele>
        <time>2015-05-10T09:01:18Z</time>
      </trkpt>
      <trkpt lat="45.6969" lon="4.5474">
        <ele>631</ele>
        <time>2015-05-10T09:01:23Z</time>
      </trkpt>
      <trkpt lat="45.69682" lon="4.54752">
        <ele>631.2</ele>
        <time>2015-05-10T09:01:28Z</time>
      </trkpt>
      <trkpt lat="45.69673" lon="4.54758">
        <ele>632.8</ele>
        <time>2015-05-10T09:01:33Z</time>
      </trkpt>
      <trkpt lat="45.69665" lon="4.54762">
        <ele>631.9</ele>
        <time>2015-05-10T09:01:38Z</time>
      </trkpt>
      <trkpt lat="45.69652" lon="4.54758">
        <ele>633</ele>
        <time>2015-05-10T09:01:43Z</time>
      </trkpt>
      <trkpt lat="45.6964" lon="4.54758">
        <ele>633.8</ele>
        <time>2015-05-10T09:01:48Z</time>
      </trkpt>
      <trkpt lat="45.69637" lon="4.5476">
        <ele>634</ele>
        <time>2015-05-10T09:01:53Z</time>
      </trkpt>
      <trkpt lat="45.69643" lon="4.54758">
        <ele>633.7</ele>
        <time>2015-05-10T09:01:58Z</time>
      </trkpt>
      <trkpt lat="45.69655" lon="4.54762">
        <ele>633.5</ele>
        <time>2015-05-10T09:02:03Z</time>
      </trkpt>
      <trkpt lat="45.69672" lon="4.5476">
        <ele>634</ele>
        <time>2015-05-10T09:02:08Z</time>
      </trkpt>
      <trkpt lat="45.69687" lon="4.54742">
        <ele>632.6</ele>
        <time>2015-05-10T09:02:13Z</time>
      </trkpt>
      <trkpt lat="45.69707" lon="4.54708">
        <ele>629.7</ele>
        <time>2015-05-10T09:02:18Z</time>
      </trkpt>
      <trkpt lat="45.69733" lon="4.54717">
        <ele>627</ele>
        <time>2015-05-10T09:02:23Z</time>
      </trkpt>
      <trkpt lat="45.69753" lon="4.54735">
        <ele>625.2</ele>
        <time>2015-05-10T09:02:28Z</time>
      </trkpt>
      <trkpt lat="45.69748" lon="4.5472">
        <ele>623.2</ele>
        <time>2015-05-10T09:02:33Z</time>
      </trkpt>
      <trkpt lat="45.69735" lon="4.54705">
        <ele>623.1</ele>
        <time>2015-05-10T09:02:38Z</time>
      </trkpt>
      <trkpt lat="45.69723" lon="4.54688">
        <ele>623.3</ele>
        <time>2015-05-10T09:02:43Z</time>
      </trkpt>
      <trkpt lat="45.69712" lon="4.54672">
        <ele>623.3</ele>
        <time>2015-05-10T09:02:48Z</time>
      </trkpt>
      <trkpt lat="45.697" lon="4.54652">
        <ele>623.8</ele>
        <time>2015-05-10T09:02:53Z</time>
      </trkpt>
      <trkpt lat="45.69687" lon="4.5463">
        <ele>622.9</ele>
        <time>2015-05-10T09:02:58Z</time>
      </trkpt>
      <trkpt lat="45.6967" lon="4.5461">
        <ele>622.4</ele>
        <time>2015-05-10T09:03:03Z</time>
      </trkpt>
      <trkpt lat="45.69652" lon="4.54593">
        <ele>621.5</ele>
        <time>2015-05-10T09:03:08Z</time>
      </trkpt>
      <trkpt lat="45.69632" lon="4.5458">
        <ele>620.7</ele>
        <time>2015-05-10T09:03:13Z</time>
      </trkpt>
      <trkpt lat="45.69608" lon="4.54563">
        <ele>620.7</ele>
        <time>2015-05-10T09:03:18Z</time>
      </trkpt>
      <trkpt lat="45.69587" lon="4.54548">
        <ele>619.6</ele>
        <time>2015-05-10T09:03:23Z</time>
      </trkpt>
      <trkpt lat="45.69562" lon="4.54528">
        <ele>618.6</ele>
        <time>2015-05-10T09:03:28Z</time>
      </trkpt>
      <trkpt lat="45.69538" lon="4.54498">
        <ele>617.3</ele>
        <time>2015-05-10T09:03:33Z</time>
      </trkpt>
      <trkpt lat="45.69523" lon="4.54463">
        <ele>616.8</ele>
        <time>2015-05-10T09:03:38Z</time>
      </trkpt>
      <trkpt lat="45.69505" lon="4.54432">
        <ele>617.6</ele>
        <time>2015-05-10T09:03:43Z</time>
      </trkpt>
      <trkpt lat="45.69495" lon="4.5441">
        <ele>618.6</ele>
        <time>2015-05-10T09:03:48Z</time>
      </trkpt>
      <trkpt lat="45.69487" lon="4.54385">
        <ele>618.6</ele>
        <time>2015-05-10T09:03:53Z</time>
      </trkpt>
      <trkpt lat="45.6948" lon="4.54365">
        <ele>620.2</ele>
        <time>2015-05-10T09:03:58Z</time>
      </trkpt>
      <trkpt lat="45.6947" lon="4.54345">
        <ele>621.7</ele>
        <time>2015-05-10T09:04:03Z</time>
      </trkpt>
      <trkpt lat="45.69458" lon="4.54328">
        <ele>622.2</ele>
        <time>2015-05-10T09:04:08Z</time>
      </trkpt>
      <trkpt lat="45.69447" lon="4.54315">
        <ele>623.5</ele>
        <time>2015-05-10T09:04:13Z</time>
      </trkpt>
      <trkpt lat="45.69433" lon="4.543">
        <ele>624.6</ele>
        <time>2015-05-10T09:04:18Z</time>
      </trkpt>
      <trkpt lat="45.69418" lon="4.54285">
        <ele>624.9</ele>
        <time>2015-05-10T09:04:23Z</time>
      </trkpt>
      <trkpt lat="45.69402" lon="4.54265">
        <ele>625</ele>
        <time>2015-05-10T09:04:28Z</time>
      </trkpt>
      <trkpt lat="45.69385" lon="4.54243">
        <ele>627.2</ele>
        <time>2015-05-10T09:04:33Z</time>
      </trkpt>
      <trkpt lat="45.6937" lon="4.54222">
        <ele>627.8</ele>
        <time>2015-05-10T09:04:38Z</time>
      </trkpt>
      <trkpt lat="45.69355" lon="4.542">
        <ele>626.9</ele>
        <time>2015-05-10T09:04:43Z</time>
      </trkpt>
      <trkpt lat="45.69342" lon="4.54178">
        <ele>628.3</ele>
        <time>2015-05-10T09:04:48Z</time>
      </trkpt>
      <trkpt lat="45.69328" lon="4.54158">
        <ele>628.4</ele>
        <time>2015-05-10T09:04:53Z</time>
      </trkpt>
      <trkpt lat="45.6931" lon="4.54148">
        <ele>628.3</ele>
        <time>2015-05-10T09:04:58Z</time>
      </trkpt>
      <trkpt lat="45.69288" lon="4.5415">
        <ele>627.6</ele>
        <time>2015-05-10T09:05:03Z</time>
      </trkpt>
      <trkpt lat="45.69255" lon="4.54152">
        <ele>627.6</ele>
        <time>2015-05-10T09:05:08Z</time>
      </trkpt>
      <trkpt lat="45.69218" lon="4.54138">
        <ele>611.1</ele>
        <time>2015-05-10T09:05:13Z</time>
      </trkpt>
      <trkpt lat="45.69175" lon="4.54107">
        <ele>610.3</ele>
        <time>2015-05-10T09:05:18Z</time>
      </trkpt>
      <trkpt lat="45.69137" lon="4.54065">
        <ele>604.6</ele>
        <time>2015-05-10T09:05:23Z</time>
      </trkpt>
      <trkpt lat="45.6911" lon="4.54017">
        <ele>598.9</ele>
        <time>2015-05-10T09:05:28Z</time>
      </trkpt>
      <trkpt lat="45.69093" lon="4.53985">
        <ele>589.4</ele>
        <time>2015-05-10T09:05:33Z</time>
      </trkpt>
      <trkpt lat="45.6908" lon="4.53953">
        <ele>586.3</ele>
        <time>2015-05-10T09:05:38Z</time>
      </trkpt>
      <trkpt lat="45.69068" lon="4.53913">
        <ele>585.5</ele>
        <time>2015-05-10T09:05:43Z</time>
      </trkpt>
      <trkpt lat="45.69057" lon="4.53882">
        <ele>584.8</ele>
        <time>2015-05-10T09:05:48Z</time>
      </trkpt>
      <trkpt lat="45.69038" lon="4.5384">
        <ele>581.8</ele>
        <time>2015-05-10T09:05:53Z</time>
      </trkpt>
      <trkpt lat="45.69018" lon="4.53798">
        <ele>581.6</ele>
        <time>2015-05-10T09:05:58Z</time>
      </trkpt>
      <trkpt lat="45.69" lon="4.53765">
        <ele>583</ele>
        <time>2015-05-10T09:06:03Z</time>
      </trkpt>
      <trkpt lat="45.68985" lon="4.53738">
        <ele>582.7</ele>
        <time>2015-05-10T09:06:08Z</time>
      </trkpt>
      <trkpt lat="45.68973" lon="4.53717">
        <ele>585.1</ele>
        <time>2015-05-10T09:06:13Z</time>
      </trkpt>
      <trkpt lat="45.68965" lon="4.53697">
        <ele>587.3</ele>
        <time>2015-05-10T09:06:18Z</time>
      </trkpt>
      <trkpt lat="45.68957" lon="4.53677">
        <ele>588.2</ele>
        <time>2015-05-10T09:06:23Z</time>
      </trkpt>
      <trkpt lat="45.68948" lon="4.53657">
        <ele>589.5</ele>
        <time>2015-05-10T09:06:28Z</time>
      </trkpt>
      <trkpt lat="45.68942" lon="4.53638">
        <ele>590.8</ele>
        <time>2015-05-10T09:06:33Z</time>
      </trkpt>
      <trkpt lat="45.6894" lon="4.5362">
        <ele>592.3</ele>
        <time>2015-05-10T09:06:38Z</time>
      </trkpt>
      <trkpt lat="45.68943" lon="4.53587">
        <ele>591.1</ele>
        <time>2015-05-10T09:06:43Z</time>
      </trkpt>
      <trkpt lat="45.68947" lon="4.53552">
        <ele>589.2</ele>
        <time>2015-05-10T09:06:48Z</time>
      </trkpt>
      <trkpt lat="45.68937" lon="4.53532">
        <ele>588.3</ele>
        <time>2015-05-10T09:06:53Z</time>
      </trkpt>
      <trkpt lat="45.6892" lon="4.5352">
        <ele>589.7</ele>
        <time>2015-05-10T09:06:58Z</time>
      </trkpt>
      <trkpt lat="45.68902" lon="4.53507">
        <ele>590.4</ele>
        <time>2015-05-10T09:07:03Z</time>
      </trkpt>
      <trkpt lat="45.68883" lon="4.53495">
        <ele>591.2</ele>
        <time>2015-05-10T09:07:08Z</time>
      </trkpt>
      <trkpt lat="45.68863" lon="4.53487">
        <ele>591.9</ele>
        <time>2015-05-10T09:07:13Z</time>
      </trkpt>
      <trkpt lat="45.6884" lon="4.53477">
        <ele>592.6</ele>
        <time>2015-05-10T09:07:18Z</time>
      </trkpt>
      <trkpt lat="45.68817" lon="4.5347">
        <ele>593</ele>
        <time>2015-05-10T09:07:23Z</time>
      </trkpt>
      <trkpt lat="45.68792" lon="4.53458">
        <ele>593.3</ele>
        <time>2015-05-10T09:07:28Z</time>
      </trkpt>
      <trkpt lat="45.6877" lon="4.5344">
        <ele>593.8</ele>
        <time>2015-05-10T09:07:33Z</time>
      </trkpt>
      <trkpt lat="45.6875" lon="4.53417">
        <ele>594.1</ele>
        <time>2015-05-10T09:07:38Z</time>
      </trkpt>
      <trkpt lat="45.68732" lon="4.53392">
        <ele>595.1</ele>
        <time>2015-05-10T09:07:43Z</time>
      </trkpt>
      <trkpt lat="45.68713" lon="4.53367">
        <ele>595.9</ele>
        <time>2015-05-10T09:07:48Z</time>
      </trkpt>
      <trkpt lat="45.68693" lon="4.53342">
        <ele>596.1</ele>
        <time>2015-05-10T09:07:53Z</time>
      </trkpt>
      <trkpt lat="45.68677" lon="4.53318">
        <ele>597.7</ele>
        <time>2015-05-10T09:07:58Z</time>
      </trkpt>
      <trkpt lat="45.6866" lon="4.53297">
        <ele>598.3</ele>
        <time>2015-05-10T09:08:03Z</time>
      </trkpt>
      <trkpt lat="45.68642" lon="4.53275">
        <ele>599.3</ele>
        <time>2015-05-10T09:08:08Z</time>
      </trkpt>
      <trkpt lat="45.68623" lon="4.53253">
        <ele>599.6</ele>
        <time>2015-05-10T09:08:13Z</time>
      </trkpt>
      <trkpt lat="45.68608" lon="4.53233">
        <ele>598.8</ele>
        <time>2015-05-10T09:08:18Z</time>
      </trkpt>
      <trkpt lat="45.68595" lon="4.53208">
        <ele>598.7</ele>
        <time>2015-05-10T09:08:23Z</time>
      </trkpt>
      <trkpt lat="45.6858" lon="4.53178">
        <ele>597.2</ele>
        <time>2015-05-10T09:08:28Z</time>
      </trkpt>
      <trkpt lat="45.68563" lon="4.53138">
        <ele>595.7</ele>
        <time>2015-05-10T09:08:33Z</time>
      </trkpt>
      <trkpt lat="45.68548" lon="4.53102">
        <ele>595.1</ele>
        <time>2015-05-10T09:08:38Z</time>
      </trkpt>
      <trkpt lat="45.68532" lon="4.53067">
        <ele>594.6</ele>
        <time>2015-05-10T09:08:43Z</time>
      </trkpt>
      <trkpt lat="45.68518" lon="4.53038">
        <ele>594</ele>
        <time>2015-05-10T09:08:48Z</time>
      </trkpt>
      <trkpt lat="45.68505" lon="4.53008">
        <ele>594</ele>
        <time>2015-05-10T09:08:53Z</time>
      </trkpt>
      <trkpt lat="45.68508" lon="4.52987">
        <ele>593.8</ele>
        <time>2015-05-10T09:08:58Z</time>
      </trkpt>
      <trkpt lat="45.6851" lon="4.52983">
        <ele>593.5</ele>
        <time>2015-05-10T09:09:03Z</time>
      </trkpt>
      <trkpt lat="45.6851" lon="4.52982">
        <ele>592.4</ele>
        <time>2015-05-10T09:15:03Z</time>
      </trkpt>
      <trkpt lat="45.68512" lon="4.52987">
        <ele>592.6</ele>
        <time>2015-05-10T09:15:08Z</time>
      </trkpt>
      <trkpt lat="45.68503" lon="4.52983">
        <ele>592.5</ele>
        <time>2015-05-10T09:15:13Z</time>
      </trkpt>
      <trkpt lat="45.68495" lon="4.52973">
        <ele>592.4</ele>
        <time>2015-05-10T09:15:18Z</time>
      </trkpt>
      <trkpt lat="45.68485" lon="4.5296">
        <ele>592.8</ele>
        <time>2015-05-10T09:15:23Z</time>
      </trkpt>
      <trkpt lat="45.68475" lon="4.52942">
        <ele>593.7</ele>
        <time>2015-05-10T09:15:28Z</time>
      </trkpt>
      <trkpt lat="45.68467" lon="4.5292">
        <ele>594.9</ele>
        <time>2015-05-10T09:15:33Z</time>
      </trkpt>
      <trkpt lat="45.68458" lon="4.52902">
        <ele>595.4</ele>
        <time>2015-05-10T09:15:38Z</time>
      </trkpt>
      <trkpt lat="45.6845" lon="4.52883">
        <ele>596.2</ele>
        <time>2015-05-10T09:15:43Z</time>
      </trkpt>
      <trkpt lat="45.68435" lon="4.52892">
        <ele>597</ele>
        <time>2015-05-10T09:15:48Z</time>
      </trkpt>
      <trkpt lat="45.68413" lon="4.52925">
        <ele>591.6</ele>
        <time>2015-05-10T09:15:53Z</time>
      </trkpt>
      <trkpt lat="45.68395" lon="4.52952">
        <ele>589.4</ele>
        <time>2015-05-10T09:15:58Z</time>
      </trkpt>
      <trkpt lat="45.68378" lon="4.52975">
        <ele>589.2</ele>
        <time>2015-05-10T09:16:03Z</time>
      </trkpt>
      <trkpt lat="45.68352" lon="4.53007">
        <ele>581.8</ele>
        <time>2015-05-10T09:16:08Z</time>
      </trkpt>
      <trkpt lat="45.68318" lon="4.53042">
        <ele>581.6</ele>
        <time>2015-05-10T09:16:13Z</time>
      </trkpt>
      <trkpt lat="45.68285" lon="4.53077">
        <ele>580.5</ele>
        <time>2015-05-10T09:16:18Z</time>
      </trkpt>
      <trkpt lat="45.68253" lon="4.5311">
        <ele>578.2</ele>
        <time>2015-05-10T09:16:23Z</time>
      </trkpt>
      <trkpt lat="45.68218" lon="4.53143">
        <ele>576.8</ele>
        <time>2015-05-10T09:16:28Z</time>
      </trkpt>
      <trkpt lat="45.68178" lon="4.53173">
        <ele>573.4</ele>
        <time>2015-05-10T09:16:33Z</time>
      </trkpt>
      <trkpt lat="45.68135" lon="4.53205">
        <ele>572.8</ele>
        <time>2015-05-10T09:16:38Z</time>
      </trkpt>
      <trkpt lat="45.68093" lon="4.53227">
        <ele>571.6</ele>
        <time>2015-05-10T09:16:43Z</time>
      </trkpt>
      <trkpt lat="45.68077" lon="4.53212">
        <ele>568.6</ele>
        <time>2015-05-10T09:16:48Z</time>
      </trkpt>
      <trkpt lat="45.6806" lon="4.53192">
        <ele>567.7</ele>
        <time>2015-05-10T09:16:53Z</time>
      </trkpt>
      <trkpt lat="45.6804" lon="4.53167">
        <ele>567.7</ele>
        <time>2015-05-10T09:16:58Z</time>
      </trkpt>
      <trkpt lat="45.68022" lon="4.5314">
        <ele>568.3</ele>
        <time>2015-05-10T09:17:03Z</time>
      </trkpt>
      <trkpt lat="45.68" lon="4.53113">
        <ele>566.9</ele>
        <time>2015-05-10T09:17:08Z</time>
      </trkpt>
      <trkpt lat="45.67972" lon="4.53093">
        <ele>565.3</ele>
        <time>2015-05-10T09:17:13Z</time>
      </trkpt>
      <trkpt lat="45.67942" lon="4.5307">
        <ele>565.9</ele>
        <time>2015-05-10T09:17:18Z</time>
      </trkpt>
      <trkpt lat="45.67913" lon="4.53045">
        <ele>564.9</ele>
        <time>2015-05-10T09:17:23Z</time>
      </trkpt>
      <trkpt lat="45.679" lon="4.53008">
        <ele>563.1</ele>
        <time>2015-05-10T09:17:28Z</time>
      </trkpt>
      <trkpt lat="45.67888" lon="4.52963">
        <ele>559.4</ele>
        <time>2015-05-10T09:17:33Z</time>
      </trkpt>
      <trkpt lat="45.67867" lon="4.52927">
        <ele>560.3</ele>
        <time>2015-05-10T09:17:38Z</time>
      </trkpt>
      <trkpt lat="45.6785" lon="4.529">
        <ele>562.3</ele>
        <time>2015-05-10T09:17:43Z</time>
      </trkpt>
      <trkpt lat="45.67833" lon="4.52873">
        <ele>563.3</ele>
        <time>2015-05-10T09:17:48Z</time>
      </trkpt>
      <trkpt lat="45.67817" lon="4.52852">
        <ele>563.9</ele>
        <time>2015-05-10T09:17:53Z</time>
      </trkpt>
      <trkpt lat="45.67798" lon="4.52827">
        <ele>561.3</ele>
        <time>2015-05-10T09:17:58Z</time>
      </trkpt>
      <trkpt lat="45.67778" lon="4.528">
        <ele>563.9</ele>
        <time>2015-05-10T09:18:03Z</time>
      </trkpt>
      <trkpt lat="45.67758" lon="4.52773">
        <ele>562.5</ele>
        <time>2015-05-10T09:18:08Z</time>
      </trkpt>
      <trkpt lat="45.67737" lon="4.5275">
        <ele>563.6</ele>
        <time>2015-05-10T09:18:13Z</time>
      </trkpt>
      <trkpt lat="45.67707" lon="4.52733">
        <ele>557.3</ele>
        <time>2015-05-10T09:18:18Z</time>
      </trkpt>
      <trkpt lat="45.67665" lon="4.52705">
        <ele>553.7</ele>
        <time>2015-05-10T09:18:23Z</time>
      </trkpt>
      <trkpt lat="45.67633" lon="4.52682">
        <ele>550.7</ele>
        <time>2015-05-10T09:18:28Z</time>
      </trkpt>
      <trkpt lat="45.67607" lon="4.52658">
        <ele>546.7</ele>
        <time>2015-05-10T09:18:33Z</time>
      </trkpt>
      <trkpt lat="45.67577" lon="4.52657">
        <ele>545.6</ele>
        <time>2015-05-10T09:18:38Z</time>
      </trkpt>
      <trkpt lat="45.67548" lon="4.52653">
        <ele>545.1</ele>
        <time>2015-05-10T09:18:43Z</time>
      </trkpt>
      <trkpt lat="45.67532" lon="4.52655">
        <ele>545.7</ele>
        <time>2015-05-10T09:18:48Z</time>
      </trkpt>
      <trkpt lat="45.67522" lon="4.52665">
        <ele>547.6</ele>
        <time>2015-05-10T09:18:53Z</time>
      </trkpt>
      <trkpt lat="45.67513" lon="4.52682">
        <ele>548.7</ele>
        <time>2015-05-10T09:18:58Z</time>
      </trkpt>
      <trkpt lat="45.67507" lon="4.527">
        <ele>550.7</ele>
        <time>2015-05-10T09:19:03Z</time>
      </trkpt>
      <trkpt lat="45.67502" lon="4.5272">
        <ele>550</ele>
        <time>2015-05-10T09:19:08Z</time>
      </trkpt>
      <trkpt lat="45.67497" lon="4.5274">
        <ele>552</ele>
        <time>2015-05-10T09:19:13Z</time>
      </trkpt>
      <trkpt lat="45.67493" lon="4.52762">
        <ele>553.3</ele>
        <time>2015-05-10T09:19:18Z</time>
      </trkpt>
      <trkpt lat="45.67487" lon="4.5278">
        <ele>553.1</ele>
        <time>2015-05-10T09:19:23Z</time>
      </trkpt>
      <trkpt lat="45.67483" lon="4.52797">
        <ele>554.9</ele>
        <time>2015-05-10T09:19:28Z</time>
      </trkpt>
      <trkpt lat="45.6748" lon="4.5281">
        <ele>556.1</ele>
        <time>2015-05-10T09:19:33Z</time>
      </trkpt>
      <trkpt lat="45.67477" lon="4.52825">
        <ele>556.7</ele>
        <time>2015-05-10T09:19:38Z</time>
      </trkpt>
      <trkpt lat="45.67473" lon="4.5284">
        <ele>557.5</ele>
        <time>2015-05-10T09:19:43Z</time>
      </trkpt>
      <trkpt lat="45.6747" lon="4.52857">
        <ele>558.3</ele>
        <time>2015-05-10T09:19:48Z</time>
      </trkpt>
      <trkpt lat="45.67468" lon="4.52875">
        <ele>559.1</ele>
        <time>2015-05-10T09:19:53Z</time>
      </trkpt>
      <trkpt lat="45.67463" lon="4.5289">
        <ele>560.3</ele>
        <time>2015-05-10T09:19:58Z</time>
      </trkpt>
      <trkpt lat="45.6746" lon="4.52903">
        <ele>560.4</ele>
        <time>2015-05-10T09:20:03Z</time>
      </trkpt>
      <trkpt lat="45.67453" lon="4.5292">
        <ele>561.2</ele>
        <time>2015-05-10T09:20:08Z</time>
      </trkpt>
      <trkpt lat="45.67445" lon="4.52938">
        <ele>561.5</ele>
        <time>2015-05-10T09:20:13Z</time>
      </trkpt>
      <trkpt lat="45.67438" lon="4.52957">
        <ele>560.6</ele>
        <time>2015-05-10T09:20:18Z</time>
      </trkpt>
      <trkpt lat="45.67432" lon="4.52977">
        <ele>561.8</ele>
        <time>2015-05-10T09:20:23Z</time>
      </trkpt>
      <trkpt lat="45.67423" lon="4.53">
        <ele>560.7</ele>
        <time>2015-05-10T09:20:28Z</time>
      </trkpt>
      <trkpt lat="45.67418" lon="4.53025">
        <ele>561.2</ele>
        <time>2015-05-10T09:20:33Z</time>
      </trkpt>
      <trkpt lat="45.67412" lon="4.53048">
        <ele>562.6</ele>
        <time>2015-05-10T09:20:38Z</time>
      </trkpt>
      <trkpt lat="45.67403" lon="4.53075">
        <ele>561.8</ele>
        <time>2015-05-10T09:20:43Z</time>
      </trkpt>
      <trkpt lat="45.67393" lon="4.531">
        <ele>560.5</ele>
        <time>2015-05-10T09:20:48Z</time>
      </trkpt>
      <trkpt lat="45.67382" lon="4.53125">
        <ele>562.5</ele>
        <time>2015-05-10T09:20:53Z</time>
      </trkpt>
      <trkpt lat="45.67377" lon="4.53148">
        <ele>563.4</ele>
        <time>2015-05-10T09:20:58Z</time>
      </trkpt>
      <trkpt lat="45.67385" lon="4.53163">
        <ele>566</ele>
        <time>2015-05-10T09:21:03Z</time>
      </trkpt>
      <trkpt lat="45.67395" lon="4.5318">
        <ele>565.3</ele>
        <time>2015-05-10T09:21:08Z</time>
      </trkpt>
      <trkpt lat="45.67405" lon="4.53198">
        <ele>566.4</ele>
        <time>2015-05-10T09:21:13Z</time>
      </trkpt>
      <trkpt lat="45.67413" lon="4.53215">
        <ele>567.4</ele>
        <time>2015-05-10T09:21:18Z</time>
      </trkpt>
      <trkpt lat="45.6742" lon="4.53232">
        <ele>568.3</ele>
        <time>2015-05-10T09:21:23Z</time>
      </trkpt>
      <trkpt lat="45.67423" lon="4.53252">
        <ele>567.3</ele>
        <time>2015-05-10T09:21:28Z</time>
      </trkpt>
      <trkpt lat="45.6743" lon="4.53272">
        <ele>571.4</ele>
        <time>2015-05-10T09:21:33Z</time>
      </trkpt>
      <trkpt lat="45.67442" lon="4.53293">
        <ele>568.7</ele>
        <time>2015-05-10T09:21:38Z</time>
      </trkpt>
      <trkpt lat="45.67447" lon="4.53313">
        <ele>569.5</ele>
        <time>2015-05-10T09:21:43Z</time>
      </trkpt>
      <trkpt lat="45.67435" lon="4.53338">
        <ele>569.3</ele>
        <time>2015-05-10T09:21:48Z</time>
      </trkpt>
      <trkpt lat="45.67428" lon="4.53358">
        <ele>571.5</ele>
        <time>2015-05-10T09:21:53Z</time>
      </trkpt>
      <trkpt lat="45.67415" lon="4.53382">
        <ele>570.3</ele>
        <time>2015-05-10T09:21:58Z</time>
      </trkpt>
      <trkpt lat="45.67393" lon="4.53405">
        <ele>570.3</ele>
        <time>2015-05-10T09:22:03Z</time>
      </trkpt>
      <trkpt lat="45.6737" lon="4.53428">
        <ele>567.7</ele>
        <time>2015-05-10T09:22:08Z</time>
      </trkpt>
      <trkpt lat="45.67347" lon="4.53448">
        <ele>568.4</ele>
        <time>2015-05-10T09:22:13Z</time>
      </trkpt>
      <trkpt lat="45.67308" lon="4.53458">
        <ele>558.3</ele>
        <time>2015-05-10T09:22:18Z</time>
      </trkpt>
      <trkpt lat="45.67272" lon="4.53483">
        <ele>559.3</ele>
        <time>2015-05-10T09:22:23Z</time>
      </trkpt>
      <trkpt lat="45.67242" lon="4.53537">
        <ele>552.8</ele>
        <time>2015-05-10T09:22:28Z</time>
      </trkpt>
      <trkpt lat="45.67215" lon="4.53595">
        <ele>555.8</ele>
        <time>2015-05-10T09:22:33Z</time>
      </trkpt>
      <trkpt lat="45.67197" lon="4.53655">
        <ele>547</ele>
        <time>2015-05-10T09:22:38Z</time>
      </trkpt>
      <trkpt lat="45.6717" lon="4.5371">
        <ele>549.2</ele>
        <time>2015-05-10T09:22:43Z</time>
      </trkpt>
      <trkpt lat="45.67148" lon="4.53767">
        <ele>539.6</ele>
        <time>2015-05-10T09:22:48Z</time>
      </trkpt>
      <trkpt lat="45.67122" lon="4.53818">
        <ele>543.5</ele>
        <time>2015-05-10T09:22:53Z</time>
      </trkpt>
      <trkpt lat="45.67097" lon="4.5387">
        <ele>535</ele>
        <time>2015-05-10T09:22:58Z</time>
      </trkpt>
      <trkpt lat="45.67063" lon="4.53925">
        <ele>529.3</ele>
        <time>2015-05-10T09:23:03Z</time>
      </trkpt>
      <trkpt lat="45.67028" lon="4.53972">
        <ele>524.5</ele>
        <time>2015-05-10T09:23:08Z</time>
      </trkpt>
      <trkpt lat="45.67003" lon="4.54022">
        <ele>521.1</ele>
        <time>2015-05-10T09:23:13Z</time>
      </trkpt>
      <trkpt lat="45.66992" lon="4.54092">
        <ele>514</ele>
        <time>2015-05-10T09:23:18Z</time>
      </trkpt>
      <trkpt lat="45.66975" lon="4.54158">
        <ele>507.5</ele>
        <time>2015-05-10T09:23:23Z</time>
      </trkpt>
      <trkpt lat="45.66957" lon="4.5419">
        <ele>503.7</ele>
        <time>2015-05-10T09:23:28Z</time>
      </trkpt>
      <trkpt lat="45.66953" lon="4.54168">
        <ele>503.5</ele>
        <time>2015-05-10T09:23:33Z</time>
      </trkpt>
      <trkpt lat="45.66952" lon="4.54158">
        <ele>502.7</ele>
        <time>2015-05-10T09:23:38Z</time>
      </trkpt>
      <trkpt lat="45.66947" lon="4.54187">
        <ele>501.3</ele>
        <time>2015-05-10T09:23:43Z</time>
      </trkpt>
      <trkpt lat="45.66947" lon="4.54238">
        <ele>500.5</ele>
        <time>2015-05-10T09:23:48Z</time>
      </trkpt>
      <trkpt lat="45.66938" lon="4.5429">
        <ele>489.2</ele>
        <time>2015-05-10T09:23:53Z</time>
      </trkpt>
      <trkpt lat="45.66917" lon="4.54343">
        <ele>487</ele>
        <time>2015-05-10T09:23:58Z</time>
      </trkpt>
      <trkpt lat="45.66902" lon="4.54405">
        <ele>485</ele>
        <time>2015-05-10T09:24:03Z</time>
      </trkpt>
      <trkpt lat="45.6688" lon="4.54462">
        <ele>471.8</ele>
        <time>2015-05-10T09:24:08Z</time>
      </trkpt>
      <trkpt lat="45.66848" lon="4.5451">
        <ele>468.4</ele>
        <time>2015-05-10T09:24:13Z</time>
      </trkpt>
      <trkpt lat="45.66827" lon="4.54535">
        <ele>466.6</ele>
        <time>2015-05-10T09:24:18Z</time>
      </trkpt>
      <trkpt lat="45.66807" lon="4.54573">
        <ele>465.6</ele>
        <time>2015-05-10T09:24:23Z</time>
      </trkpt>
      <trkpt lat="45.6678" lon="4.54622">
        <ele>459.2</ele>
        <time>2015-05-10T09:24:28Z</time>
      </trkpt>
      <trkpt lat="45.66745" lon="4.54673">
        <ele>457</ele>
        <time>2015-05-10T09:24:33Z</time>
      </trkpt>
      <trkpt lat="45.66725" lon="4.54732">
        <ele>453.1</ele>
        <time>2015-05-10T09:24:38Z</time>
      </trkpt>
      <trkpt lat="45.66718" lon="4.5479">
        <ele>449.6</ele>
        <time>2015-05-10T09:24:43Z</time>
      </trkpt>
      <trkpt lat="45.66717" lon="4.54837">
        <ele>447.2</ele>
        <time>2015-05-10T09:24:48Z</time>
      </trkpt>
      <trkpt lat="45.66703" lon="4.54882">
        <ele>445.2</ele>
        <time>2015-05-10T09:24:53Z</time>
      </trkpt>
      <trkpt lat="45.66687" lon="4.54925">
        <ele>449.3</ele>
        <time>2015-05-10T09:24:58Z</time>
      </trkpt>
      <trkpt lat="45.66677" lon="4.54962">
        <ele>446.9</ele>
        <time>2015-05-10T09:25:03Z</time>
      </trkpt>
      <trkpt lat="45.6666" lon="4.55002">
        <ele>445.2</ele>
        <time>2015-05-10T09:25:08Z</time>
      </trkpt>
      <trkpt lat="45.66643" lon="4.55055">
        <ele>441.4</ele>
        <time>2015-05-10T09:25:13Z</time>
      </trkpt>
      <trkpt lat="45.66627" lon="4.55092">
        <ele>443.3</ele>
        <time>2015-05-10T09:25:18Z</time>
      </trkpt>
      <trkpt lat="45.66607" lon="4.55107">
        <ele>443.3</ele>
        <time>2015-05-10T09:25:23Z</time>
      </trkpt>
      <trkpt lat="45.66593" lon="4.5511">
        <ele>444.9</ele>
        <time>2015-05-10T09:25:28Z</time>
      </trkpt>
      <trkpt lat="45.66582" lon="4.55112">
        <ele>447.5</ele>
        <time>2015-05-10T09:25:33Z</time>
      </trkpt>
      <trkpt lat="45.6657" lon="4.551">
        <ele>448</ele>
        <time>2015-05-10T09:25:38Z</time>
      </trkpt>
      <trkpt lat="45.66548" lon="4.5509">
        <ele>447.9</ele>
        <time>2015-05-10T09:25:43Z</time>
      </trkpt>
      <trkpt lat="45.66527" lon="4.55077">
        <ele>448.5</ele>
        <time>2015-05-10T09:25:48Z</time>
      </trkpt>
      <trkpt lat="45.6652" lon="4.5505">
        <ele>447</ele>
        <time>2015-05-10T09:25:53Z</time>
      </trkpt>
      <trkpt lat="45.66505" lon="4.55008">
        <ele>444.9</ele>
        <time>2015-05-10T09:25:58Z</time>
      </trkpt>
      <trkpt lat="45.6648" lon="4.54992">
        <ele>446.2</ele>
        <time>2015-05-10T09:26:03Z</time>
      </trkpt>
      <trkpt lat="45.66453" lon="4.54997">
        <ele>446.9</ele>
        <time>2015-05-10T09:26:08Z</time>
      </trkpt>
      <trkpt lat="45.66427" lon="4.55">
        <ele>445.9</ele>
        <time>2015-05-10T09:26:13Z</time>
      </trkpt>
      <trkpt lat="45.664" lon="4.55">
        <ele>442.9</ele>
        <time>2015-05-10T09:26:18Z</time>
      </trkpt>
      <trkpt lat="45.66372" lon="4.55005">
        <ele>440.9</ele>
        <time>2015-05-10T09:26:23Z</time>
      </trkpt>
      <trkpt lat="45.6637" lon="4.54982">
        <ele>438.6</ele>
        <time>2015-05-10T09:26:28Z</time>
      </trkpt>
      <trkpt lat="45.66375" lon="4.54952">
        <ele>438.4</ele>
        <time>2015-05-10T09:26:33Z</time>
      </trkpt>
      <trkpt lat="45.6638" lon="4.54928">
        <ele>438.4</ele>
        <time>2015-05-10T09:26:38Z</time>
      </trkpt>
      <trkpt lat="45.66382" lon="4.54912">
        <ele>438.2</ele>
        <time>2015-05-10T09:26:43Z</time>
      </trkpt>
      <trkpt lat="45.66383" lon="4.54893">
        <ele>438.9</ele>
        <time>2015-05-10T09:26:48Z</time>
      </trkpt>
      <trkpt lat="45.66383" lon="4.54877">
        <ele>439.1</ele>
        <time>2015-05-10T09:26:53Z</time>
      </trkpt>
      <trkpt lat="45.66388" lon="4.54862">
        <ele>441.2</ele>
        <time>2015-05-10T09:26:58Z</time>
      </trkpt>
      <trkpt lat="45.66392" lon="4.54845">
        <ele>442.9</ele>
        <time>2015-05-10T09:27:03Z</time>
      </trkpt>
      <trkpt lat="45.66395" lon="4.54832">
        <ele>444.2</ele>
        <time>2015-05-10T09:27:08Z</time>
      </trkpt>
      <trkpt lat="45.66397" lon="4.54818">
        <ele>443.8</ele>
        <time>2015-05-10T09:27:13Z</time>
      </trkpt>
      <trkpt lat="45.664" lon="4.54803">
        <ele>445.5</ele>
        <time>2015-05-10T09:27:18Z</time>
      </trkpt>
      <trkpt lat="45.66402" lon="4.5479">
        <ele>446.8</ele>
        <time>2015-05-10T09:27:23Z</time>
      </trkpt>
      <trkpt lat="45.66405" lon="4.54777">
        <ele>447.7</ele>
        <time>2015-05-10T09:27:28Z</time>
      </trkpt>
      <trkpt lat="45.66408" lon="4.54762">
        <ele>448.1</ele>
        <time>2015-05-10T09:27:33Z</time>
      </trkpt>
      <trkpt lat="45.66412" lon="4.54748">
        <ele>449.7</ele>
        <time>2015-05-10T09:27:38Z</time>
      </trkpt>
      <trkpt lat="45.66415" lon="4.54735">
        <ele>452</ele>
        <time>2015-05-10T09:27:43Z</time>
      </trkpt>
      <trkpt lat="45.66418" lon="4.5472">
        <ele>453.2</ele>
        <time>2015-05-10T09:27:48Z</time>
      </trkpt>
      <trkpt lat="45.6642" lon="4.54708">
        <ele>455.1</ele>
        <time>2015-05-10T09:27:53Z</time>
      </trkpt>
      <trkpt lat="45.66425" lon="4.54697">
        <ele>456.5</ele>
        <time>2015-05-10T09:27:58Z</time>
      </trkpt>
      <trkpt lat="45.66428" lon="4.54687">
        <ele>458.7</ele>
        <time>2015-05-10T09:28:03Z</time>
      </trkpt>
      <trkpt lat="45.6643" lon="4.54673">
        <ele>458.5</ele>
        <time>2015-05-10T09:28:08Z</time>
      </trkpt>
      <trkpt lat="45.66433" lon="4.54662">
        <ele>460.7</ele>
        <time>2015-05-10T09:28:13Z</time>
      </trkpt>
      <trkpt lat="45.66435" lon="4.54648">
        <ele>461.2</ele>
        <time>2015-05-10T09:28:18Z</time>
      </trkpt>
      <trkpt lat="45.66438" lon="4.54637">
        <ele>462.2</ele>
        <time>2015-05-10T09:28:23Z</time>
      </trkpt>
      <trkpt lat="45.6644" lon="4.54623">
        <ele>463.3</ele>
        <time>2015-05-10T09:28:28Z</time>
      </trkpt>
      <trkpt lat="45.66442" lon="4.5461">
        <ele>464.3</ele>
        <time>2015-05-10T09:28:33Z</time>
      </trkpt>
      <trkpt lat="45.66445" lon="4.54597">
        <ele>465.8</ele>
        <time>2015-05-10T09:28:38Z</time>
      </trkpt>
      <trkpt lat="45.66448" lon="4.54582">
        <ele>467.1</ele>
        <time>2015-05-10T09:28:43Z</time>
      </trkpt>
      <trkpt lat="45.66452" lon="4.5457">
        <ele>468.7</ele>
        <time>2015-05-10T09:28:48Z</time>
      </trkpt>
      <trkpt lat="45.66453" lon="4.54557">
        <ele>469.3</ele>
        <time>2015-05-10T09:28:53Z</time>
      </trkpt>
      <trkpt lat="45.66457" lon="4.54543">
        <ele>470</ele>
        <time>2015-05-10T09:28:58Z</time>
      </trkpt>
      <trkpt lat="45.66458" lon="4.54532">
        <ele>471.5</ele>
        <time>2015-05-10T09:29:03Z</time>
      </trkpt>
      <trkpt lat="45.66462" lon="4.5452">
        <ele>473</ele>
        <time>2015-05-10T09:29:08Z</time>
      </trkpt>
      <trkpt lat="45.66463" lon="4.54508">
        <ele>473.9</ele>
        <time>2015-05-10T09:29:13Z</time>
      </trkpt>
      <trkpt lat="45.66467" lon="4.54493">
        <ele>476.1</ele>
        <time>2015-05-10T09:29:18Z</time>
      </trkpt>
      <trkpt lat="45.6647" lon="4.54482">
        <ele>476.5</ele>
        <time>2015-05-10T09:29:23Z</time>
      </trkpt>
      <trkpt lat="45.66472" lon="4.54468">
        <ele>476.5</ele>
        <time>2015-05-10T09:29:28Z</time>
      </trkpt>
      <trkpt lat="45.66475" lon="4.54457">
        <ele>478.6</ele>
        <time>2015-05-10T09:29:33Z</time>
      </trkpt>
      <trkpt lat="45.66477" lon="4.54443">
        <ele>480.3</ele>
        <time>2015-05-10T09:29:38Z</time>
      </trkpt>
      <trkpt lat="45.6648" lon="4.54433">
        <ele>481.6</ele>
        <time>2015-05-10T09:29:43Z</time>
      </trkpt>
      <trkpt lat="45.66482" lon="4.54422">
        <ele>481.7</ele>
        <time>2015-05-10T09:29:48Z</time>
      </trkpt>
      <trkpt lat="45.66483" lon="4.54408">
        <ele>483.6</ele>
        <time>2015-05-10T09:29:53Z</time>
      </trkpt>
      <trkpt lat="45.66485" lon="4.54397">
        <ele>484.3</ele>
        <time>2015-05-10T09:29:58Z</time>
      </trkpt>
      <trkpt lat="45.66483" lon="4.54385">
        <ele>485.3</ele>
        <time>2015-05-10T09:30:03Z</time>
      </trkpt>
      <trkpt lat="45.66483" lon="4.54373">
        <ele>486.9</ele>
        <time>2015-05-10T09:30:08Z</time>
      </trkpt>
      <trkpt lat="45.66483" lon="4.54362">
        <ele>488.7</ele>
        <time>2015-05-10T09:30:13Z</time>
      </trkpt>
      <trkpt lat="45.66483" lon="4.5435">
        <ele>490.1</ele>
        <time>2015-05-10T09:30:18Z</time>
      </trkpt>
      <trkpt lat="45.66482" lon="4.5434">
        <ele>490.8</ele>
        <time>2015-05-10T09:30:23Z</time>
      </trkpt>
      <trkpt lat="45.66482" lon="4.54328">
        <ele>492.5</ele>
        <time>2015-05-10T09:30:28Z</time>
      </trkpt>
      <trkpt lat="45.6648" lon="4.54317">
        <ele>494</ele>
        <time>2015-05-10T09:30:33Z</time>
      </trkpt>
      <trkpt lat="45.66478" lon="4.54307">
        <ele>494.4</ele>
        <time>2015-05-10T09:30:38Z</time>
      </trkpt>
      <trkpt lat="45.66478" lon="4.54295">
        <ele>496.1</ele>
        <time>2015-05-10T09:30:43Z</time>
      </trkpt>
      <trkpt lat="45.66475" lon="4.54285">
        <ele>497.2</ele>
        <time>2015-05-10T09:30:48Z</time>
      </trkpt>
      <trkpt lat="45.66473" lon="4.54273">
        <ele>498.3</ele>
        <time>2015-05-10T09:30:53Z</time>
      </trkpt>
      <trkpt lat="45.66472" lon="4.54263">
        <ele>499.2</ele>
        <time>2015-05-10T09:30:58Z</time>
      </trkpt>
      <trkpt lat="45.66472" lon="4.54253">
        <ele>500.6</ele>
        <time>2015-05-10T09:31:03Z</time>
      </trkpt>
      <trkpt lat="45.6647" lon="4.54243">
        <ele>501.8</ele>
        <time>2015-05-10T09:31:08Z</time>
      </trkpt>
      <trkpt lat="45.66468" lon="4.54232">
        <ele>502.6</ele>
        <time>2015-05-10T09:31:13Z</time>
      </trkpt>
      <trkpt lat="45.66467" lon="4.54222">
        <ele>503.9</ele>
        <time>2015-05-10T09:31:18Z</time>
      </trkpt>
      <trkpt lat="45.66463" lon="4.5421">
        <ele>504.4</ele>
        <time>2015-05-10T09:31:23Z</time>
      </trkpt>
      <trkpt lat="45.66462" lon="4.542">
        <ele>505.2</ele>
        <time>2015-05-10T09:31:28Z</time>
      </trkpt>
      <trkpt lat="45.66462" lon="4.54188">
        <ele>506.3</ele>
        <time>2015-05-10T09:31:33Z</time>
      </trkpt>
      <trkpt lat="45.6646" lon="4.54177">
        <ele>507</ele>
        <time>2015-05-10T09:31:38Z</time>
      </trkpt>
      <trkpt lat="45.66458" lon="4.54167">
        <ele>509.1</ele>
        <time>2015-05-10T09:31:43Z</time>
      </trkpt>
      <trkpt lat="45.66458" lon="4.54157">
        <ele>509.3</ele>
        <time>2015-05-10T09:31:48Z</time>
      </trkpt>
      <trkpt lat="45.66458" lon="4.54145">
        <ele>510.5</ele>
        <time>2015-05-10T09:31:53Z</time>
      </trkpt>
      <trkpt lat="45.66458" lon="4.54133">
        <ele>511.4</ele>
        <time>2015-05-10T09:31:58Z</time>
      </trkpt>
      <trkpt lat="45.66458" lon="4.54122">
        <ele>513.1</ele>
        <time>2015-05-10T09:32:03Z</time>
      </trkpt>
      <trkpt lat="45.66458" lon="4.54112">
        <ele>514.3</ele>
        <time>2015-05-10T09:32:08Z</time>
      </trkpt>
      <trkpt lat="45.66457" lon="4.54102">
        <ele>515.7</ele>
        <time>2015-05-10T09:32:13Z</time>
      </trkpt>
      <trkpt lat="45.66455" lon="4.5409">
        <ele>515.1</ele>
        <time>2015-05-10T09:32:18Z</time>
      </trkpt>
      <trkpt lat="45.66452" lon="4.5408">
        <ele>517.5</ele>
        <time>2015-05-10T09:32:23Z</time>
      </trkpt>
      <trkpt lat="45.6645" lon="4.54068">
        <ele>518.8</ele>
        <time>2015-05-10T09:32:28Z</time>
      </trkpt>
      <trkpt lat="45.66448" lon="4.54058">
        <ele>521.2</ele>
        <time>2015-05-10T09:32:33Z</time>
      </trkpt>
      <trkpt lat="45.66447" lon="4.54048">
        <ele>521.8</ele>
        <time>2015-05-10T09:32:38Z</time>
      </trkpt>
      <trkpt lat="45.66447" lon="4.54038">
        <ele>523.1</ele>
        <time>2015-05-10T09:32:43Z</time>
      </trkpt>
      <trkpt lat="45.66447" lon="4.5403">
        <ele>524</ele>
        <time>2015-05-10T09:32:48Z</time>
      </trkpt>
      <trkpt lat="45.66447" lon="4.54018">
        <ele>526.1</ele>
        <time>2015-05-10T09:32:53Z</time>
      </trkpt>
      <trkpt lat="45.66445" lon="4.54008">
        <ele>527.1</ele>
        <time>2015-05-10T09:32:58Z</time>
      </trkpt>
      <trkpt lat="45.66443" lon="4.53998">
        <ele>528.9</ele>
        <time>2015-05-10T09:33:03Z</time>
      </trkpt>
      <trkpt lat="45.6644" lon="4.5399">
        <ele>529.8</ele>
        <time>2015-05-10T09:33:08Z</time>
      </trkpt>
      <trkpt lat="45.66437" lon="4.5398">
        <ele>531.6</ele>
        <time>2015-05-10T09:33:13Z</time>
      </trkpt>
      <trkpt lat="45.6643" lon="4.5397">
        <ele>532.3</ele>
        <time>2015-05-10T09:33:18Z</time>
      </trkpt>
      <trkpt lat="45.66425" lon="4.5396">
        <ele>532.8</ele>
        <time>2015-05-10T09:33:23Z</time>
      </trkpt>
      <trkpt lat="45.66422" lon="4.53947">
        <ele>533.2</ele>
        <time>2015-05-10T09:33:28Z</time>
      </trkpt>
      <trkpt lat="45.66417" lon="4.53933">
        <ele>533.8</ele>
        <time>2015-05-10T09:33:33Z</time>
      </trkpt>
      <trkpt lat="45.66412" lon="4.53917">
        <ele>534.1</ele>
        <time>2015-05-10T09:33:38Z</time>
      </trkpt>
      <trkpt lat="45.66408" lon="4.539">
        <ele>534</ele>
        <time>2015-05-10T09:33:43Z</time>
      </trkpt>
      <trkpt lat="45.66403" lon="4.53882">
        <ele>534.2</ele>
        <time>2015-05-10T09:33:48Z</time>
      </trkpt>
      <trkpt lat="45.66398" lon="4.53862">
        <ele>535.9</ele>
        <time>2015-05-10T09:33:53Z</time>
      </trkpt>
      <trkpt lat="45.66393" lon="4.53842">
        <ele>535.1</ele>
        <time>2015-05-10T09:33:58Z</time>
      </trkpt>
      <trkpt lat="45.66385" lon="4.5382">
        <ele>535.2</ele>
        <time>2015-05-10T09:34:03Z</time>
      </trkpt>
      <trkpt lat="45.66377" lon="4.538">
        <ele>536.6</ele>
        <time>2015-05-10T09:34:08Z</time>
      </trkpt>
      <trkpt lat="45.6637" lon="4.53777">
        <ele>537.7</ele>
        <time>2015-05-10T09:34:13Z</time>
      </trkpt>
      <trkpt lat="45.66363" lon="4.53752">
        <ele>534.3</ele>
        <time>2015-05-10T09:34:18Z</time>
      </trkpt>
      <trkpt lat="45.66358" lon="4.53722">
        <ele>534</ele>
        <time>2015-05-10T09:34:23Z</time>
      </trkpt>
      <trkpt lat="45.66352" lon="4.5368">
        <ele>530.4</ele>
        <time>2015-05-10T09:34:28Z</time>
      </trkpt>
      <trkpt lat="45.66345" lon="4.53623">
        <ele>531</ele>
        <time>2015-05-10T09:34:33Z</time>
      </trkpt>
      <trkpt lat="45.66338" lon="4.53567">
        <ele>528</ele>
        <time>2015-05-10T09:34:38Z</time>
      </trkpt>
      <trkpt lat="45.66332" lon="4.53517">
        <ele>530.7</ele>
        <time>2015-05-10T09:34:43Z</time>
      </trkpt>
      <trkpt lat="45.66332" lon="4.53473">
        <ele>524.1</ele>
        <time>2015-05-10T09:34:48Z</time>
      </trkpt>
      <trkpt lat="45.6633" lon="4.53432">
        <ele>526.4</ele>
        <time>2015-05-10T09:34:53Z</time>
      </trkpt>
      <trkpt lat="45.66328" lon="4.53395">
        <ele>527.4</ele>
        <time>2015-05-10T09:34:58Z</time>
      </trkpt>
      <trkpt lat="45.66328" lon="4.53362">
        <ele>526.9</ele>
        <time>2015-05-10T09:35:03Z</time>
      </trkpt>
      <trkpt lat="45.66328" lon="4.53335">
        <ele>528.6</ele>
        <time>2015-05-10T09:35:08Z</time>
      </trkpt>
      <trkpt lat="45.6633" lon="4.5331">
        <ele>529.6</ele>
        <time>2015-05-10T09:35:13Z</time>
      </trkpt>
      <trkpt lat="45.66332" lon="4.53292">
        <ele>531.1</ele>
        <time>2015-05-10T09:35:18Z</time>
      </trkpt>
      <trkpt lat="45.66333" lon="4.53277">
        <ele>533.1</ele>
        <time>2015-05-10T09:35:23Z</time>
      </trkpt>
      <trkpt lat="45.66333" lon="4.53262">
        <ele>534.6</ele>
        <time>2015-05-10T09:35:28Z</time>
      </trkpt>
      <trkpt lat="45.66333" lon="4.5325">
        <ele>534.2</ele>
        <time>2015-05-10T09:35:33Z</time>
      </trkpt>
      <trkpt lat="45.66335" lon="4.53237">
        <ele>536.8</ele>
        <time>2015-05-10T09:35:38Z</time>
      </trkpt>
      <trkpt lat="45.66335" lon="4.53227">
        <ele>538.4</ele>
        <time>2015-05-10T09:35:43Z</time>
      </trkpt>
      <trkpt lat="45.66337" lon="4.53217">
        <ele>540</ele>
        <time>2015-05-10T09:35:48Z</time>
      </trkpt>
      <trkpt lat="45.66338" lon="4.53207">
        <ele>541.2</ele>
        <time>2015-05-10T09:35:53Z</time>
      </trkpt>
      <trkpt lat="45.66338" lon="4.53198">
        <ele>542.8</ele>
        <time>2015-05-10T09:35:58Z</time>
      </trkpt>
      <trkpt lat="45.66342" lon="4.5319">
        <ele>544.2</ele>
        <time>2015-05-10T09:36:03Z</time>
      </trkpt>
      <trkpt lat="45.66342" lon="4.53182">
        <ele>545.5</ele>
        <time>2015-05-10T09:36:08Z</time>
      </trkpt>
      <trkpt lat="45.66343" lon="4.5317">
        <ele>547.1</ele>
        <time>2015-05-10T09:36:13Z</time>
      </trkpt>
      <trkpt lat="45.66343" lon="4.5316">
        <ele>549.3</ele>
        <time>2015-05-10T09:36:18Z</time>
      </trkpt>
      <trkpt lat="45.6634" lon="4.5315">
        <ele>548.6</ele>
        <time>2015-05-10T09:36:23Z</time>
      </trkpt>
      <trkpt lat="45.6634" lon="4.53138">
        <ele>549.7</ele>
        <time>2015-05-10T09:36:28Z</time>
      </trkpt>
      <trkpt lat="45.66338" lon="4.53125">
        <ele>550.5</ele>
        <time>2015-05-10T09:36:33Z</time>
      </trkpt>
      <trkpt lat="45.66338" lon="4.53112">
        <ele>552.7</ele>
        <time>2015-05-10T09:36:38Z</time>
      </trkpt>
      <trkpt lat="45.66338" lon="4.53098">
        <ele>554.2</ele>
        <time>2015-05-10T09:36:43Z</time>
      </trkpt>
      <trkpt lat="45.6634" lon="4.53085">
        <ele>554.3</ele>
        <time>2015-05-10T09:36:48Z</time>
      </trkpt>
      <trkpt lat="45.66342" lon="4.5307">
        <ele>556</ele>
        <time>2015-05-10T09:36:53Z</time>
      </trkpt>
      <trkpt lat="45.66342" lon="4.53057">
        <ele>557</ele>
        <time>2015-05-10T09:36:58Z</time>
      </trkpt>
      <trkpt lat="45.66343" lon="4.53042">
        <ele>558</ele>
        <time>2015-05-10T09:37:03Z</time>
      </trkpt>
      <trkpt lat="45.66343" lon="4.53028">
        <ele>558.7</ele>
        <time>2015-05-10T09:37:08Z</time>
      </trkpt>
      <trkpt lat="45.66345" lon="4.53015">
        <ele>559.8</ele>
        <time>2015-05-10T09:37:13Z</time>
      </trkpt>
      <trkpt lat="45.66347" lon="4.53002">
        <ele>561.3</ele>
        <time>2015-05-10T09:37:18Z</time>
      </trkpt>
      <trkpt lat="45.66348" lon="4.52988">
        <ele>563.1</ele>
        <time>2015-05-10T09:37:23Z</time>
      </trkpt>
      <trkpt lat="45.66352" lon="4.52975">
        <ele>562.3</ele>
        <time>2015-05-10T09:37:28Z</time>
      </trkpt>
      <trkpt lat="45.66355" lon="4.52962">
        <ele>565</ele>
        <time>2015-05-10T09:37:33Z</time>
      </trkpt>
      <trkpt lat="45.66358" lon="4.52947">
        <ele>566.1</ele>
        <time>2015-05-10T09:37:38Z</time>
      </trkpt>
      <trkpt lat="45.6636" lon="4.52933">
        <ele>567.2</ele>
        <time>2015-05-10T09:37:43Z</time>
      </trkpt>
      <trkpt lat="45.6636" lon="4.52918">
        <ele>568.1</ele>
        <time>2015-05-10T09:37:48Z</time>
      </trkpt>
      <trkpt lat="45.66357" lon="4.52905">
        <ele>568.5</ele>
        <time>2015-05-10T09:37:53Z</time>
      </trkpt>
      <trkpt lat="45.66353" lon="4.5289">
        <ele>569.3</ele>
        <time>2015-05-10T09:37:58Z</time>
      </trkpt>
      <trkpt lat="45.6635" lon="4.52873">
        <ele>571.1</ele>
        <time>2015-05-10T09:38:03Z</time>
      </trkpt>
      <trkpt lat="45.66347" lon="4.52857">
        <ele>570.4</ele>
        <time>2015-05-10T09:38:08Z</time>
      </trkpt>
      <trkpt lat="45.66343" lon="4.5284">
        <ele>571.4</ele>
        <time>2015-05-10T09:38:13Z</time>
      </trkpt>
      <trkpt lat="45.6634" lon="4.52825">
        <ele>573.1</ele>
        <time>2015-05-10T09:38:18Z</time>
      </trkpt>
      <trkpt lat="45.66335" lon="4.52808">
        <ele>574.8</ele>
        <time>2015-05-10T09:38:23Z</time>
      </trkpt>
      <trkpt lat="45.6633" lon="4.52792">
        <ele>576.3</ele>
        <time>2015-05-10T09:38:28Z</time>
      </trkpt>
      <trkpt lat="45.66325" lon="4.52772">
        <ele>575.8</ele>
        <time>2015-05-10T09:38:33Z</time>
      </trkpt>
      <trkpt lat="45.66318" lon="4.52753">
        <ele>577.6</ele>
        <time>2015-05-10T09:38:38Z</time>
      </trkpt>
      <trkpt lat="45.6633" lon="4.52748">
        <ele>578.7</ele>
        <time>2015-05-10T09:38:43Z</time>
      </trkpt>
      <trkpt lat="45.66347" lon="4.52745">
        <ele>579.1</ele>
        <time>2015-05-10T09:38:48Z</time>
      </trkpt>
      <trkpt lat="45.6636" lon="4.52742">
        <ele>579.1</ele>
        <time>2015-05-10T09:38:53Z</time>
      </trkpt>
      <trkpt lat="45.66367" lon="4.52727">
        <ele>580.5</ele>
        <time>2015-05-10T09:38:58Z</time>
      </trkpt>
      <trkpt lat="45.66372" lon="4.52713">
        <ele>581.4</ele>
        <time>2015-05-10T09:39:03Z</time>
      </trkpt>
      <trkpt lat="45.6638" lon="4.52702">
        <ele>584.1</ele>
        <time>2015-05-10T09:39:08Z</time>
      </trkpt>
      <trkpt lat="45.66395" lon="4.52683">
        <ele>582.1</ele>
        <time>2015-05-10T09:39:13Z</time>
      </trkpt>
      <trkpt lat="45.66418" lon="4.52662">
        <ele>581.8</ele>
        <time>2015-05-10T09:39:18Z</time>
      </trkpt>
      <trkpt lat="45.6644" lon="4.52642">
        <ele>582.1</ele>
        <time>2015-05-10T09:39:23Z</time>
      </trkpt>
      <trkpt lat="45.66452" lon="4.52622">
        <ele>580.1</ele>
        <time>2015-05-10T09:39:28Z</time>
      </trkpt>
      <trkpt lat="45.66445" lon="4.526">
        <ele>581.5</ele>
        <time>2015-05-10T09:39:33Z</time>
      </trkpt>
      <trkpt lat="45.66435" lon="4.52565">
        <ele>579.8</ele>
        <time>2015-05-10T09:39:38Z</time>
      </trkpt>
      <trkpt lat="45.66413" lon="4.52518">
        <ele>575</ele>
        <time>2015-05-10T09:39:43Z</time>
      </trkpt>
      <trkpt lat="45.66385" lon="4.5246">
        <ele>565.2</ele>
        <time>2015-05-10T09:39:48Z</time>
      </trkpt>
      <trkpt lat="45.66352" lon="4.52398">
        <ele>562.6</ele>
        <time>2015-05-10T09:39:53Z</time>
      </trkpt>
      <trkpt lat="45.66328" lon="4.52343">
        <ele>556.3</ele>
        <time>2015-05-10T09:39:58Z</time>
      </trkpt>
      <trkpt lat="45.66323" lon="4.52293">
        <ele>556.1</ele>
        <time>2015-05-10T09:40:03Z</time>
      </trkpt>
      <trkpt lat="45.66322" lon="4.52248">
        <ele>555.7</ele>
        <time>2015-05-10T09:40:08Z</time>
      </trkpt>
      <trkpt lat="45.66317" lon="4.52205">
        <ele>555.5</ele>
        <time>2015-05-10T09:40:13Z</time>
      </trkpt>
      <trkpt lat="45.66315" lon="4.5217">
        <ele>555.2</ele>
        <time>2015-05-10T09:40:18Z</time>
      </trkpt>
      <trkpt lat="45.66313" lon="4.52137">
        <ele>556</ele>
        <time>2015-05-10T09:40:23Z</time>
      </trkpt>
      <trkpt lat="45.66312" lon="4.52103">
        <ele>557.3</ele>
        <time>2015-05-10T09:40:28Z</time>
      </trkpt>
      <trkpt lat="45.6631" lon="4.5207">
        <ele>558.5</ele>
        <time>2015-05-10T09:40:33Z</time>
      </trkpt>
      <trkpt lat="45.66307" lon="4.52042">
        <ele>559.9</ele>
        <time>2015-05-10T09:40:38Z</time>
      </trkpt>
      <trkpt lat="45.66298" lon="4.52018">
        <ele>560.8</ele>
        <time>2015-05-10T09:40:43Z</time>
      </trkpt>
      <trkpt lat="45.6629" lon="4.51995">
        <ele>562.3</ele>
        <time>2015-05-10T09:40:48Z</time>
      </trkpt>
      <trkpt lat="45.66283" lon="4.51977">
        <ele>563.5</ele>
        <time>2015-05-10T09:40:53Z</time>
      </trkpt>
      <trkpt lat="45.66275" lon="4.51957">
        <ele>564.2</ele>
        <time>2015-05-10T09:40:58Z</time>
      </trkpt>
      <trkpt lat="45.66265" lon="4.51943">
        <ele>566.6</ele>
        <time>2015-05-10T09:41:03Z</time>
      </trkpt>
      <trkpt lat="45.66252" lon="4.51932">
        <ele>567.9</ele>
        <time>2015-05-10T09:41:08Z</time>
      </trkpt>
      <trkpt lat="45.66242" lon="4.51923">
        <ele>568.7</ele>
        <time>2015-05-10T09:41:13Z</time>
      </trkpt>
      <trkpt lat="45.66232" lon="4.51913">
        <ele>568.4</ele>
        <time>2015-05-10T09:41:18Z</time>
      </trkpt>
      <trkpt lat="45.66227" lon="4.51897">
        <ele>567.9</ele>
        <time>2015-05-10T09:41:23Z</time>
      </trkpt>
      <trkpt lat="45.6622" lon="4.51868">
        <ele>566.1</ele>
        <time>2015-05-10T09:41:28Z</time>
      </trkpt>
      <trkpt lat="45.66202" lon="4.51845">
        <ele>565.7</ele>
        <time>2015-05-10T09:41:33Z</time>
      </trkpt>
      <trkpt lat="45.66172" lon="4.5184">
        <ele>562.8</ele>
        <time>2015-05-10T09:41:38Z</time>
      </trkpt>
      <trkpt lat="45.6614" lon="4.51852">
        <ele>561.1</ele>
        <time>2015-05-10T09:41:43Z</time>
      </trkpt>
      <trkpt lat="45.66112" lon="4.51857">
        <ele>559.9</ele>
        <time>2015-05-10T09:41:48Z</time>
      </trkpt>
      <trkpt lat="45.66107" lon="4.51823">
        <ele>558.8</ele>
        <time>2015-05-10T09:41:53Z</time>
      </trkpt>
      <trkpt lat="45.66105" lon="4.5178">
        <ele>556.2</ele>
        <time>2015-05-10T09:41:58Z</time>
      </trkpt>
      <trkpt lat="45.66113" lon="4.51732">
        <ele>557.1</ele>
        <time>2015-05-10T09:42:03Z</time>
      </trkpt>
      <trkpt lat="45.66115" lon="4.51687">
        <ele>546.1</ele>
        <time>2015-05-10T09:42:08Z</time>
      </trkpt>
      <trkpt lat="45.6611" lon="4.5162">
        <ele>541</ele>
        <time>2015-05-10T09:42:13Z</time>
      </trkpt>
      <trkpt lat="45.66105" lon="4.51547">
        <ele>540.3</ele>
        <time>2015-05-10T09:42:18Z</time>
      </trkpt>
      <trkpt lat="45.66118" lon="4.51478">
        <ele>535.5</ele>
        <time>2015-05-10T09:42:23Z</time>
      </trkpt>
      <trkpt lat="45.6613" lon="4.51433">
        <ele>530.5</ele>
        <time>2015-05-10T09:42:28Z</time>
      </trkpt>
      <trkpt lat="45.66147" lon="4.51412">
        <ele>525.5</ele>
        <time>2015-05-10T09:42:33Z</time>
      </trkpt>
      <trkpt lat="45.66142" lon="4.51413">
        <ele>518.6</ele>
        <time>2015-05-10T09:42:38Z</time>
      </trkpt>
      <trkpt lat="45.6613" lon="4.51418">
        <ele>518.6</ele>
        <time>2015-05-10T09:42:43Z</time>
      </trkpt>
      <trkpt lat="45.66115" lon="4.51428">
        <ele>519</ele>
        <time>2015-05-10T09:42:48Z</time>
      </trkpt>
      <trkpt lat="45.66097" lon="4.51438">
        <ele>519.4</ele>
        <time>2015-05-10T09:42:53Z</time>
      </trkpt>
      <trkpt lat="45.66078" lon="4.51453">
        <ele>517.7</ele>
        <time>2015-05-10T09:42:58Z</time>
      </trkpt>
      <trkpt lat="45.66058" lon="4.51452">
        <ele>516.5</ele>
        <time>2015-05-10T09:43:03Z</time>
      </trkpt>
      <trkpt lat="45.66043" lon="4.51425">
        <ele>516.9</ele>
        <time>2015-05-10T09:43:08Z</time>
      </trkpt>
      <trkpt lat="45.66028" lon="4.51398">
        <ele>516.4</ele>
        <time>2015-05-10T09:43:13Z</time>
      </trkpt>
      <trkpt lat="45.66012" lon="4.5137">
        <ele>516.4</ele>
        <time>2015-05-10T09:43:18Z</time>
      </trkpt>
      <trkpt lat="45.65988" lon="4.51338">
        <ele>513.4</ele>
        <time>2015-05-10T09:43:23Z</time>
      </trkpt>
      <trkpt lat="45.65958" lon="4.51315">
        <ele>509.7</ele>
        <time>2015-05-10T09:43:28Z</time>
      </trkpt>
      <trkpt lat="45.65935" lon="4.51288">
        <ele>502.6</ele>
        <time>2015-05-10T09:43:33Z</time>
      </trkpt>
      <trkpt lat="45.65897" lon="4.51262">
        <ele>498.8</ele>
        <time>2015-05-10T09:43:38Z</time>
      </trkpt>
      <trkpt lat="45.6586" lon="4.51252">
        <ele>498.5</ele>
        <time>2015-05-10T09:43:43Z</time>
      </trkpt>
      <trkpt lat="45.65845" lon="4.51237">
        <ele>495.7</ele>
        <time>2015-05-10T09:43:48Z</time>
      </trkpt>
      <trkpt lat="45.65822" lon="4.51202">
        <ele>493.7</ele>
        <time>2015-05-10T09:43:53Z</time>
      </trkpt>
      <trkpt lat="45.65803" lon="4.51187">
        <ele>488.6</ele>
        <time>2015-05-10T09:43:58Z</time>
      </trkpt>
      <trkpt lat="45.65795" lon="4.51175">
        <ele>487.9</ele>
        <time>2015-05-10T09:44:03Z</time>
      </trkpt>
      <trkpt lat="45.6579" lon="4.51155">
        <ele>487.6</ele>
        <time>2015-05-10T09:44:08Z</time>
      </trkpt>
      <trkpt lat="45.65792" lon="4.51132">
        <ele>488.9</ele>
        <time>2015-05-10T09:44:13Z</time>
      </trkpt>
      <trkpt lat="45.65795" lon="4.51113">
        <ele>489.2</ele>
        <time>2015-05-10T09:44:18Z</time>
      </trkpt>
      <trkpt lat="45.65798" lon="4.51098">
        <ele>489.3</ele>
        <time>2015-05-10T09:44:23Z</time>
      </trkpt>
      <trkpt lat="45.65802" lon="4.51082">
        <ele>490.2</ele>
        <time>2015-05-10T09:44:28Z</time>
      </trkpt>
      <trkpt lat="45.65803" lon="4.51065">
        <ele>492.9</ele>
        <time>2015-05-10T09:44:33Z</time>
      </trkpt>
      <trkpt lat="45.65807" lon="4.51053">
        <ele>495</ele>
        <time>2015-05-10T09:44:38Z</time>
      </trkpt>
      <trkpt lat="45.658" lon="4.51042">
        <ele>495.5</ele>
        <time>2015-05-10T09:44:43Z</time>
      </trkpt>
      <trkpt lat="45.65787" lon="4.51027">
        <ele>495.7</ele>
        <time>2015-05-10T09:44:48Z</time>
      </trkpt>
      <trkpt lat="45.65775" lon="4.51007">
        <ele>495.4</ele>
        <time>2015-05-10T09:44:53Z</time>
      </trkpt>
      <trkpt lat="45.65765" lon="4.50987">
        <ele>496.1</ele>
        <time>2015-05-10T09:44:58Z</time>
      </trkpt>
      <trkpt lat="45.65767" lon="4.5097">
        <ele>497.2</ele>
        <time>2015-05-10T09:45:03Z</time>
      </trkpt>
      <trkpt lat="45.65767" lon="4.5095">
        <ele>498.7</ele>
        <time>2015-05-10T09:45:08Z</time>
      </trkpt>
      <trkpt lat="45.65762" lon="4.5093">
        <ele>499.8</ele>
        <time>2015-05-10T09:45:13Z</time>
      </trkpt>
      <trkpt lat="45.65755" lon="4.5091">
        <ele>499.7</ele>
        <time>2015-05-10T09:45:18Z</time>
      </trkpt>
      <trkpt lat="45.65743" lon="4.50892">
        <ele>500</ele>
        <time>2015-05-10T09:45:23Z</time>
      </trkpt>
      <trkpt lat="45.6573" lon="4.50875">
        <ele>499.7</ele>
        <time>2015-05-10T09:45:28Z</time>
      </trkpt>
      <trkpt lat="45.65717" lon="4.50862">
        <ele>499.6</ele>
        <time>2015-05-10T09:45:33Z</time>
      </trkpt>
      <trkpt lat="45.65703" lon="4.50837">
        <ele>498.2</ele>
        <time>2015-05-10T09:45:38Z</time>
      </trkpt>
      <trkpt lat="45.65682" lon="4.50805">
        <ele>494.5</ele>
        <time>2015-05-10T09:45:43Z</time>
      </trkpt>
      <trkpt lat="45.65653" lon="4.50755">
        <ele>490.6</ele>
        <time>2015-05-10T09:45:48Z</time>
      </trkpt>
      <trkpt lat="45.65613" lon="4.50738">
        <ele>490.9</ele>
        <time>2015-05-10T09:45:53Z</time>
      </trkpt>
      <trkpt lat="45.6559" lon="4.50737">
        <ele>493.9</ele>
        <time>2015-05-10T09:45:58Z</time>
      </trkpt>
      <trkpt lat="45.6558" lon="4.50733">
        <ele>495.4</ele>
        <time>2015-05-10T09:46:03Z</time>
      </trkpt>
      <trkpt lat="45.6557" lon="4.50727">
        <ele>497.4</ele>
        <time>2015-05-10T09:46:08Z</time>
      </trkpt>
      <trkpt lat="45.6556" lon="4.50718">
        <ele>498.8</ele>
        <time>2015-05-10T09:46:13Z</time>
      </trkpt>
      <trkpt lat="45.6555" lon="4.5071">
        <ele>499.9</ele>
        <time>2015-05-10T09:46:18Z</time>
      </trkpt>
      <trkpt lat="45.65538" lon="4.507">
        <ele>501</ele>
        <time>2015-05-10T09:46:23Z</time>
      </trkpt>
      <trkpt lat="45.65528" lon="4.50687">
        <ele>501.9</ele>
        <time>2015-05-10T09:46:28Z</time>
      </trkpt>
      <trkpt lat="45.65518" lon="4.50673">
        <ele>502.6</ele>
        <time>2015-05-10T09:46:33Z</time>
      </trkpt>
      <trkpt lat="45.65508" lon="4.50653">
        <ele>501.6</ele>
        <time>2015-05-10T09:46:38Z</time>
      </trkpt>
      <trkpt lat="45.65498" lon="4.50622">
        <ele>500.6</ele>
        <time>2015-05-10T09:46:43Z</time>
      </trkpt>
      <trkpt lat="45.6549" lon="4.50595">
        <ele>501.1</ele>
        <time>2015-05-10T09:46:48Z</time>
      </trkpt>
      <trkpt lat="45.65478" lon="4.50582">
        <ele>501.7</ele>
        <time>2015-05-10T09:46:53Z</time>
      </trkpt>
      <trkpt lat="45.65463" lon="4.5059">
        <ele>502.9</ele>
        <time>2015-05-10T09:46:58Z</time>
      </trkpt>
      <trkpt lat="45.65452" lon="4.50603">
        <ele>504.1</ele>
        <time>2015-05-10T09:47:03Z</time>
      </trkpt>
      <trkpt lat="45.65437" lon="4.50617">
        <ele>505.6</ele>
        <time>2015-05-10T09:47:08Z</time>
      </trkpt>
      <trkpt lat="45.65423" lon="4.50627">
        <ele>507</ele>
        <time>2015-05-10T09:47:13Z</time>
      </trkpt>
      <trkpt lat="45.65408" lon="4.50633">
        <ele>508.8</ele>
        <time>2015-05-10T09:47:18Z</time>
      </trkpt>
      <trkpt lat="45.65395" lon="4.50637">
        <ele>509.7</ele>
        <time>2015-05-10T09:47:23Z</time>
      </trkpt>
      <trkpt lat="45.65385" lon="4.5064">
        <ele>510.5</ele>
        <time>2015-05-10T09:47:28Z</time>
      </trkpt>
      <trkpt lat="45.65372" lon="4.50652">
        <ele>508.8</ele>
        <time>2015-05-10T09:47:33Z</time>
      </trkpt>
      <trkpt lat="45.65362" lon="4.5068">
        <ele>503.8</ele>
        <time>2015-05-10T09:47:38Z</time>
      </trkpt>
      <trkpt lat="45.65347" lon="4.50725">
        <ele>497.6</ele>
        <time>2015-05-10T09:47:43Z</time>
      </trkpt>
      <trkpt lat="45.6534" lon="4.50777">
        <ele>503</ele>
        <time>2015-05-10T09:47:48Z</time>
      </trkpt>
      <trkpt lat="45.65333" lon="4.50833">
        <ele>485.3</ele>
        <time>2015-05-10T09:47:53Z</time>
      </trkpt>
      <trkpt lat="45.65327" lon="4.509">
        <ele>476.6</ele>
        <time>2015-05-10T09:47:58Z</time>
      </trkpt>
      <trkpt lat="45.65323" lon="4.50958">
        <ele>474</ele>
        <time>2015-05-10T09:48:03Z</time>
      </trkpt>
      <trkpt lat="45.65303" lon="4.50995">
        <ele>472</ele>
        <time>2015-05-10T09:48:08Z</time>
      </trkpt>
      <trkpt lat="45.65278" lon="4.51032">
        <ele>469</ele>
        <time>2015-05-10T09:48:13Z</time>
      </trkpt>
      <trkpt lat="45.65252" lon="4.51013">
        <ele>467.6</ele>
        <time>2015-05-10T09:48:18Z</time>
      </trkpt>
      <trkpt lat="45.65233" lon="4.51">
        <ele>467</ele>
        <time>2015-05-10T09:48:23Z</time>
      </trkpt>
      <trkpt lat="45.6522" lon="4.51012">
        <ele>467.8</ele>
        <time>2015-05-10T09:48:28Z</time>
      </trkpt>
      <trkpt lat="45.65207" lon="4.51023">
        <ele>468</ele>
        <time>2015-05-10T09:48:33Z</time>
      </trkpt>
      <trkpt lat="45.65193" lon="4.51035">
        <ele>468.4</ele>
        <time>2015-05-10T09:48:38Z</time>
      </trkpt>
      <trkpt lat="45.65178" lon="4.51048">
        <ele>468.4</ele>
        <time>2015-05-10T09:48:43Z</time>
      </trkpt>
      <trkpt lat="45.65165" lon="4.5106">
        <ele>469.4</ele>
        <time>2015-05-10T09:48:48Z</time>
      </trkpt>
      <trkpt lat="45.6515" lon="4.5107">
        <ele>470.4</ele>
        <time>2015-05-10T09:48:53Z</time>
      </trkpt>
      <trkpt lat="45.65133" lon="4.51077">
        <ele>470.1</ele>
        <time>2015-05-10T09:48:58Z</time>
      </trkpt>
      <trkpt lat="45.65117" lon="4.51082">
        <ele>470.5</ele>
        <time>2015-05-10T09:49:03Z</time>
      </trkpt>
      <trkpt lat="45.65102" lon="4.51083">
        <ele>470.5</ele>
        <time>2015-05-10T09:49:08Z</time>
      </trkpt>
      <trkpt lat="45.65087" lon="4.51085">
        <ele>471.8</ele>
        <time>2015-05-10T09:49:13Z</time>
      </trkpt>
      <trkpt lat="45.65073" lon="4.51087">
        <ele>472.8</ele>
        <time>2015-05-10T09:49:18Z</time>
      </trkpt>
      <trkpt lat="45.65058" lon="4.51087">
        <ele>472.7</ele>
        <time>2015-05-10T09:49:23Z</time>
      </trkpt>
      <trkpt lat="45.65043" lon="4.51082">
        <ele>473.9</ele>
        <time>2015-05-10T09:49:28Z</time>
      </trkpt>
      <trkpt lat="45.65028" lon="4.51075">
        <ele>474.8</ele>
        <time>2015-05-10T09:49:33Z</time>
      </trkpt>
      <trkpt lat="45.65015" lon="4.51067">
        <ele>476.4</ele>
        <time>2015-05-10T09:49:38Z</time>
      </trkpt>
      <trkpt lat="45.65002" lon="4.51058">
        <ele>477.6</ele>
        <time>2015-05-10T09:49:43Z</time>
      </trkpt>
      <trkpt lat="45.64988" lon="4.51048">
        <ele>478.2</ele>
        <time>2015-05-10T09:49:48Z</time>
      </trkpt>
      <trkpt lat="45.64978" lon="4.51035">
        <ele>477.4</ele>
        <time>2015-05-10T09:49:53Z</time>
      </trkpt>
      <trkpt lat="45.64967" lon="4.51022">
        <ele>477.6</ele>
        <time>2015-05-10T09:49:58Z</time>
      </trkpt>
      <trkpt lat="45.64953" lon="4.51008">
        <ele>479.3</ele>
        <time>2015-05-10T09:50:03Z</time>
      </trkpt>
      <trkpt lat="45.64943" lon="4.50997">
        <ele>479.5</ele>
        <time>2015-05-10T09:50:08Z</time>
      </trkpt>
      <trkpt lat="45.64933" lon="4.50988">
        <ele>481</ele>
        <time>2015-05-10T09:50:13Z</time>
      </trkpt>
      <trkpt lat="45.64925" lon="4.50982">
        <ele>481.2</ele>
        <time>2015-05-10T09:50:18Z</time>
      </trkpt>
      <trkpt lat="45.64917" lon="4.50977">
        <ele>482.2</ele>
        <time>2015-05-10T09:50:23Z</time>
      </trkpt>
      <trkpt lat="45.64907" lon="4.50973">
        <ele>483</ele>
        <time>2015-05-10T09:50:28Z</time>
      </trkpt>
      <trkpt lat="45.64897" lon="4.5097">
        <ele>484.3</ele>
        <time>2015-05-10T09:50:33Z</time>
      </trkpt>
      <trkpt lat="45.64887" lon="4.50968">
        <ele>484.8</ele>
        <time>2015-05-10T09:50:38Z</time>
      </trkpt>
      <trkpt lat="45.64875" lon="4.50967">
        <ele>486.1</ele>
        <time>2015-05-10T09:50:43Z</time>
      </trkpt>
      <trkpt lat="45.64867" lon="4.50965">
        <ele>487.9</ele>
        <time>2015-05-10T09:50:48Z</time>
      </trkpt>
      <trkpt lat="45.64858" lon="4.50962">
        <ele>489.3</ele>
        <time>2015-05-10T09:50:53Z</time>
      </trkpt>
      <trkpt lat="45.64848" lon="4.50962">
        <ele>490.6</ele>
        <time>2015-05-10T09:50:58Z</time>
      </trkpt>
      <trkpt lat="45.6484" lon="4.5096">
        <ele>492.1</ele>
        <time>2015-05-10T09:51:03Z</time>
      </trkpt>
      <trkpt lat="45.64833" lon="4.50957">
        <ele>493.6</ele>
        <time>2015-05-10T09:51:08Z</time>
      </trkpt>
      <trkpt lat="45.64827" lon="4.50953">
        <ele>494.1</ele>
        <time>2015-05-10T09:51:13Z</time>
      </trkpt>
      <trkpt lat="45.64817" lon="4.50952">
        <ele>495.5</ele>
        <time>2015-05-10T09:51:18Z</time>
      </trkpt>
      <trkpt lat="45.64808" lon="4.50953">
        <ele>497.6</ele>
        <time>2015-05-10T09:51:23Z</time>
      </trkpt>
      <trkpt lat="45.648" lon="4.50955">
        <ele>498</ele>
        <time>2015-05-10T09:51:28Z</time>
      </trkpt>
      <trkpt lat="45.64792" lon="4.50957">
        <ele>500.1</ele>
        <time>2015-05-10T09:51:33Z</time>
      </trkpt>
      <trkpt lat="45.64782" lon="4.50955">
        <ele>500.7</ele>
        <time>2015-05-10T09:51:38Z</time>
      </trkpt>
      <trkpt lat="45.64773" lon="4.50953">
        <ele>500.7</ele>
        <time>2015-05-10T09:51:43Z</time>
      </trkpt>
      <trkpt lat="45.64763" lon="4.50947">
        <ele>500.4</ele>
        <time>2015-05-10T09:51:48Z</time>
      </trkpt>
      <trkpt lat="45.64755" lon="4.50935">
        <ele>501.5</ele>
        <time>2015-05-10T09:51:53Z</time>
      </trkpt>
      <trkpt lat="45.64745" lon="4.50925">
        <ele>502</ele>
        <time>2015-05-10T09:51:58Z</time>
      </trkpt>
      <trkpt lat="45.64735" lon="4.50908">
        <ele>502.1</ele>
        <time>2015-05-10T09:52:03Z</time>
      </trkpt>
      <trkpt lat="45.64728" lon="4.50887">
        <ele>502.5</ele>
        <time>2015-05-10T09:52:08Z</time>
      </trkpt>
      <trkpt lat="45.64722" lon="4.50862">
        <ele>502.1</ele>
        <time>2015-05-10T09:52:13Z</time>
      </trkpt>
      <trkpt lat="45.64713" lon="4.50832">
        <ele>501.2</ele>
        <time>2015-05-10T09:52:18Z</time>
      </trkpt>
      <trkpt lat="45.64702" lon="4.508">
        <ele>500.3</ele>
        <time>2015-05-10T09:52:23Z</time>
      </trkpt>
      <trkpt lat="45.64695" lon="4.50762">
        <ele>499.5</ele>
        <time>2015-05-10T09:52:28Z</time>
      </trkpt>
      <trkpt lat="45.647" lon="4.50728">
        <ele>500</ele>
        <time>2015-05-10T09:52:33Z</time>
      </trkpt>
      <trkpt lat="45.64705" lon="4.50695">
        <ele>499.7</ele>
        <time>2015-05-10T09:52:38Z</time>
      </trkpt>
      <trkpt lat="45.64702" lon="4.50662">
        <ele>500.5</ele>
        <time>2015-05-10T09:52:43Z</time>
      </trkpt>
      <trkpt lat="45.6469" lon="4.50622">
        <ele>497.7</ele>
        <time>2015-05-10T09:52:48Z</time>
      </trkpt>
      <trkpt lat="45.64668" lon="4.50585">
        <ele>496.5</ele>
        <time>2015-05-10T09:52:53Z</time>
      </trkpt>
      <trkpt lat="45.64643" lon="4.50563">
        <ele>497.2</ele>
        <time>2015-05-10T09:52:58Z</time>
      </trkpt>
      <trkpt lat="45.64618" lon="4.50547">
        <ele>496.6</ele>
        <time>2015-05-10T09:53:03Z</time>
      </trkpt>
      <trkpt lat="45.64595" lon="4.50533">
        <ele>496.4</ele>
        <time>2015-05-10T09:53:08Z</time>
      </trkpt>
      <trkpt lat="45.64572" lon="4.50518">
        <ele>497</ele>
        <time>2015-05-10T09:53:13Z</time>
      </trkpt>
      <trkpt lat="45.64553" lon="4.50503">
        <ele>498</ele>
        <time>2015-05-10T09:53:18Z</time>
      </trkpt>
      <trkpt lat="45.64538" lon="4.50485">
        <ele>500.2</ele>
        <time>2015-05-10T09:53:23Z</time>
      </trkpt>
      <trkpt lat="45.64535" lon="4.50465">
        <ele>502.1</ele>
        <time>2015-05-10T09:53:28Z</time>
      </trkpt>
      <trkpt lat="45.64535" lon="4.50443">
        <ele>504.5</ele>
        <time>2015-05-10T09:53:33Z</time>
      </trkpt>
      <trkpt lat="45.64532" lon="4.50423">
        <ele>504.5</ele>
        <time>2015-05-10T09:53:38Z</time>
      </trkpt>
      <trkpt lat="45.64528" lon="4.50403">
        <ele>504.2</ele>
        <time>2015-05-10T09:53:43Z</time>
      </trkpt>
      <trkpt lat="45.64525" lon="4.5038">
        <ele>502.7</ele>
        <time>2015-05-10T09:53:48Z</time>
      </trkpt>
      <trkpt lat="45.64523" lon="4.50352">
        <ele>504.7</ele>
        <time>2015-05-10T09:53:53Z</time>
      </trkpt>
      <trkpt lat="45.6452" lon="4.50318">
        <ele>501.8</ele>
        <time>2015-05-10T09:53:58Z</time>
      </trkpt>
      <trkpt lat="45.6451" lon="4.50277">
        <ele>499.9</ele>
        <time>2015-05-10T09:54:03Z</time>
      </trkpt>
      <trkpt lat="45.64495" lon="4.5023">
        <ele>497.9</ele>
        <time>2015-05-10T09:54:08Z</time>
      </trkpt>
      <trkpt lat="45.64478" lon="4.50188">
        <ele>497.8</ele>
        <time>2015-05-10T09:54:13Z</time>
      </trkpt>
      <trkpt lat="45.64473" lon="4.50163">
        <ele>496.8</ele>
        <time>2015-05-10T09:54:18Z</time>
      </trkpt>
      <trkpt lat="45.64468" lon="4.50147">
        <ele>497.9</ele>
        <time>2015-05-10T09:54:23Z</time>
      </trkpt>
      <trkpt lat="45.6446" lon="4.50128">
        <ele>499.9</ele>
        <time>2015-05-10T09:54:28Z</time>
      </trkpt>
      <trkpt lat="45.6445" lon="4.50118">
        <ele>502.3</ele>
        <time>2015-05-10T09:54:33Z</time>
      </trkpt>
      <trkpt lat="45.64438" lon="4.50102">
        <ele>503</ele>
        <time>2015-05-10T09:54:38Z</time>
      </trkpt>
      <trkpt lat="45.64428" lon="4.50083">
        <ele>503.8</ele>
        <time>2015-05-10T09:54:43Z</time>
      </trkpt>
      <trkpt lat="45.64417" lon="4.50065">
        <ele>504.3</ele>
        <time>2015-05-10T09:54:48Z</time>
      </trkpt>
      <trkpt lat="45.64407" lon="4.50048">
        <ele>505.8</ele>
        <time>2015-05-10T09:54:53Z</time>
      </trkpt>
      <trkpt lat="45.64395" lon="4.50033">
        <ele>506.6</ele>
        <time>2015-05-10T09:54:58Z</time>
      </trkpt>
      <trkpt lat="45.64385" lon="4.50017">
        <ele>507.2</ele>
        <time>2015-05-10T09:55:03Z</time>
      </trkpt>
      <trkpt lat="45.64375" lon="4.49995">
        <ele>506.6</ele>
        <time>2015-05-10T09:55:08Z</time>
      </trkpt>
      <trkpt lat="45.64363" lon="4.49963">
        <ele>505.9</ele>
        <time>2015-05-10T09:55:13Z</time>
      </trkpt>
      <trkpt lat="45.64355" lon="4.49932">
        <ele>503.8</ele>
        <time>2015-05-10T09:55:18Z</time>
      </trkpt>
      <trkpt lat="45.6434" lon="4.49903">
        <ele>503.8</ele>
        <time>2015-05-10T09:55:23Z</time>
      </trkpt>
      <trkpt lat="45.64318" lon="4.49865">
        <ele>499.8</ele>
        <time>2015-05-10T09:55:28Z</time>
      </trkpt>
      <trkpt lat="45.64302" lon="4.4982">
        <ele>497.6</ele>
        <time>2015-05-10T09:55:33Z</time>
      </trkpt>
      <trkpt lat="45.64292" lon="4.49775">
        <ele>498.6</ele>
        <time>2015-05-10T09:55:38Z</time>
      </trkpt>
      <trkpt lat="45.64287" lon="4.49725">
        <ele>498.5</ele>
        <time>2015-05-10T09:55:43Z</time>
      </trkpt>
      <trkpt lat="45.64287" lon="4.49672">
        <ele>497.4</ele>
        <time>2015-05-10T09:55:48Z</time>
      </trkpt>
      <trkpt lat="45.6429" lon="4.49618">
        <ele>494.2</ele>
        <time>2015-05-10T09:55:53Z</time>
      </trkpt>
      <trkpt lat="45.64292" lon="4.49562">
        <ele>494.3</ele>
        <time>2015-05-10T09:55:58Z</time>
      </trkpt>
      <trkpt lat="45.64302" lon="4.4951">
        <ele>488.9</ele>
        <time>2015-05-10T09:56:03Z</time>
      </trkpt>
      <trkpt lat="45.64322" lon="4.49477">
        <ele>489.9</ele>
        <time>2015-05-10T09:56:08Z</time>
      </trkpt>
      <trkpt lat="45.6433" lon="4.49447">
        <ele>490.2</ele>
        <time>2015-05-10T09:56:13Z</time>
      </trkpt>
      <trkpt lat="45.64322" lon="4.4942">
        <ele>489.3</ele>
        <time>2015-05-10T09:56:18Z</time>
      </trkpt>
      <trkpt lat="45.64315" lon="4.49388">
        <ele>489.6</ele>
        <time>2015-05-10T09:56:23Z</time>
      </trkpt>
      <trkpt lat="45.64312" lon="4.49357">
        <ele>490</ele>
        <time>2015-05-10T09:56:28Z</time>
      </trkpt>
      <trkpt lat="45.64297" lon="4.49308">
        <ele>485.9</ele>
        <time>2015-05-10T09:56:33Z</time>
      </trkpt>
      <trkpt lat="45.64285" lon="4.49258">
        <ele>487.2</ele>
        <time>2015-05-10T09:56:38Z</time>
      </trkpt>
      <trkpt lat="45.6427" lon="4.49205">
        <ele>482.6</ele>
        <time>2015-05-10T09:56:43Z</time>
      </trkpt>
      <trkpt lat="45.64258" lon="4.4915">
        <ele>481.7</ele>
        <time>2015-05-10T09:56:48Z</time>
      </trkpt>
      <trkpt lat="45.6425" lon="4.4909">
        <ele>477.3</ele>
        <time>2015-05-10T09:56:53Z</time>
      </trkpt>
      <trkpt lat="45.64248" lon="4.49033">
        <ele>477.2</ele>
        <time>2015-05-10T09:56:58Z</time>
      </trkpt>
      <trkpt lat="45.64243" lon="4.48982">
        <ele>476.6</ele>
        <time>2015-05-10T09:57:03Z</time>
      </trkpt>
      <trkpt lat="45.6424" lon="4.48922">
        <ele>471.3</ele>
        <time>2015-05-10T09:57:08Z</time>
      </trkpt>
      <trkpt lat="45.64233" lon="4.48865">
        <ele>471.7</ele>
        <time>2015-05-10T09:57:13Z</time>
      </trkpt>
      <trkpt lat="45.64225" lon="4.48813">
        <ele>469.7</ele>
        <time>2015-05-10T09:57:18Z</time>
      </trkpt>
      <trkpt lat="45.64218" lon="4.48762">
        <ele>467.9</ele>
        <time>2015-05-10T09:57:23Z</time>
      </trkpt>
      <trkpt lat="45.64215" lon="4.48722">
        <ele>468.5</ele>
        <time>2015-05-10T09:57:28Z</time>
      </trkpt>
      <trkpt lat="45.64213" lon="4.48687">
        <ele>466.4</ele>
        <time>2015-05-10T09:57:33Z</time>
      </trkpt>
      <trkpt lat="45.64205" lon="4.48657">
        <ele>467.8</ele>
        <time>2015-05-10T09:57:38Z</time>
      </trkpt>
      <trkpt lat="45.64197" lon="4.4862">
        <ele>463.4</ele>
        <time>2015-05-10T09:57:43Z</time>
      </trkpt>
      <trkpt lat="45.64197" lon="4.48572">
        <ele>465.4</ele>
        <time>2015-05-10T09:57:48Z</time>
      </trkpt>
      <trkpt lat="45.64193" lon="4.48517">
        <ele>462</ele>
        <time>2015-05-10T09:57:53Z</time>
      </trkpt>
      <trkpt lat="45.64193" lon="4.48465">
        <ele>461.2</ele>
        <time>2015-05-10T09:57:58Z</time>
      </trkpt>
      <trkpt lat="45.64197" lon="4.48422">
        <ele>454.2</ele>
        <time>2015-05-10T09:58:03Z</time>
      </trkpt>
      <trkpt lat="45.64202" lon="4.48377">
        <ele>453.6</ele>
        <time>2015-05-10T09:58:08Z</time>
      </trkpt>
      <trkpt lat="45.64192" lon="4.48333">
        <ele>449.1</ele>
        <time>2015-05-10T09:58:13Z</time>
      </trkpt>
      <trkpt lat="45.64168" lon="4.483">
        <ele>447.3</ele>
        <time>2015-05-10T09:58:18Z</time>
      </trkpt>
      <trkpt lat="45.64152" lon="4.4826">
        <ele>439</ele>
        <time>2015-05-10T09:58:23Z</time>
      </trkpt>
      <trkpt lat="45.6415" lon="4.48245">
        <ele>437.4</ele>
        <time>2015-05-10T09:58:28Z</time>
      </trkpt>
      <trkpt lat="45.64145" lon="4.48223">
        <ele>436.9</ele>
        <time>2015-05-10T09:58:33Z</time>
      </trkpt>
      <trkpt lat="45.64133" lon="4.48193">
        <ele>436.1</ele>
        <time>2015-05-10T09:58:38Z</time>
      </trkpt>
      <trkpt lat="45.64113" lon="4.48155">
        <ele>430</ele>
        <time>2015-05-10T09:58:43Z</time>
      </trkpt>
      <trkpt lat="45.6409" lon="4.48105">
        <ele>427.2</ele>
        <time>2015-05-10T09:58:48Z</time>
      </trkpt>
      <trkpt lat="45.64083" lon="4.48062">
        <ele>420.6</ele>
        <time>2015-05-10T09:58:53Z</time>
      </trkpt>
      <trkpt lat="45.64077" lon="4.48032">
        <ele>423.2</ele>
        <time>2015-05-10T09:58:58Z</time>
      </trkpt>
      <trkpt lat="45.64067" lon="4.47998">
        <ele>421.7</ele>
        <time>2015-05-10T09:59:03Z</time>
      </trkpt>
      <trkpt lat="45.64065" lon="4.47965">
        <ele>422.3</ele>
        <time>2015-05-10T09:59:08Z</time>
      </trkpt>
      <trkpt lat="45.64067" lon="4.47933">
        <ele>421.7</ele>
        <time>2015-05-10T09:59:13Z</time>
      </trkpt>
      <trkpt lat="45.64062" lon="4.47897">
        <ele>422</ele>
        <time>2015-05-10T09:59:18Z</time>
      </trkpt>
      <trkpt lat="45.64052" lon="4.47862">
        <ele>421.5</ele>
        <time>2015-05-10T09:59:23Z</time>
      </trkpt>
      <trkpt lat="45.64047" lon="4.47825">
        <ele>422</ele>
        <time>2015-05-10T09:59:28Z</time>
      </trkpt>
      <trkpt lat="45.6404" lon="4.4779">
        <ele>422.1</ele>
        <time>2015-05-10T09:59:33Z</time>
      </trkpt>
      <trkpt lat="45.64033" lon="4.47757">
        <ele>422.7</ele>
        <time>2015-05-10T09:59:38Z</time>
      </trkpt>
      <trkpt lat="45.6402" lon="4.47735">
        <ele>423</ele>
        <time>2015-05-10T09:59:43Z</time>
      </trkpt>
      <trkpt lat="45.64005" lon="4.47715">
        <ele>422.2</ele>
        <time>2015-05-10T09:59:48Z</time>
      </trkpt>
      <trkpt lat="45.64002" lon="4.47712">
        <ele>421.4</ele>
        <time>2015-05-10T09:59:53Z</time>
      </trkpt>
      <trkpt lat="45.64002" lon="4.47712">
        <ele>421.1</ele>
        <time>2015-05-10T10:00:23Z</time>
      </trkpt>
      <trkpt lat="45.63998" lon="4.47702">
        <ele>421.5</ele>
        <time>2015-05-10T10:00:28Z</time>
      </trkpt>
      <trkpt lat="45.63998" lon="4.47673">
        <ele>421.4</ele>
        <time>2015-05-10T10:00:33Z</time>
      </trkpt>
      <trkpt lat="45.64012" lon="4.47652">
        <ele>422.4</ele>
        <time>2015-05-10T10:00:38Z</time>
      </trkpt>
      <trkpt lat="45.64028" lon="4.4764">
        <ele>424.2</ele>
        <time>2015-05-10T10:00:43Z</time>
      </trkpt>
      <trkpt lat="45.64043" lon="4.47628">
        <ele>425</ele>
        <time>2015-05-10T10:00:48Z</time>
      </trkpt>
      <trkpt lat="45.6406" lon="4.47618">
        <ele>426.5</ele>
        <time>2015-05-10T10:00:53Z</time>
      </trkpt>
      <trkpt lat="45.64077" lon="4.4761">
        <ele>427.8</ele>
        <time>2015-05-10T10:00:58Z</time>
      </trkpt>
      <trkpt lat="45.64092" lon="4.476">
        <ele>428.8</ele>
        <time>2015-05-10T10:01:03Z</time>
      </trkpt>
      <trkpt lat="45.64107" lon="4.47592">
        <ele>430.4</ele>
        <time>2015-05-10T10:01:08Z</time>
      </trkpt>
      <trkpt lat="45.6412" lon="4.47585">
        <ele>431</ele>
        <time>2015-05-10T10:01:13Z</time>
      </trkpt>
      <trkpt lat="45.64137" lon="4.47577">
        <ele>432.2</ele>
        <time>2015-05-10T10:01:18Z</time>
      </trkpt>
      <trkpt lat="45.64152" lon="4.4757">
        <ele>434.2</ele>
        <time>2015-05-10T10:01:23Z</time>
      </trkpt>
      <trkpt lat="45.64165" lon="4.47562">
        <ele>436.3</ele>
        <time>2015-05-10T10:01:28Z</time>
      </trkpt>
      <trkpt lat="45.64178" lon="4.47557">
        <ele>437.4</ele>
        <time>2015-05-10T10:01:33Z</time>
      </trkpt>
      <trkpt lat="45.64193" lon="4.47553">
        <ele>439.1</ele>
        <time>2015-05-10T10:01:38Z</time>
      </trkpt>
      <trkpt lat="45.64208" lon="4.47548">
        <ele>440.9</ele>
        <time>2015-05-10T10:01:43Z</time>
      </trkpt>
      <trkpt lat="45.64222" lon="4.47545">
        <ele>442.8</ele>
        <time>2015-05-10T10:01:48Z</time>
      </trkpt>
      <trkpt lat="45.64235" lon="4.47543">
        <ele>443.9</ele>
        <time>2015-05-10T10:01:53Z</time>
      </trkpt>
      <trkpt lat="45.64247" lon="4.4754">
        <ele>445.2</ele>
        <time>2015-05-10T10:01:58Z</time>
      </trkpt>
      <trkpt lat="45.6426" lon="4.47537">
        <ele>446.4</ele>
        <time>2015-05-10T10:02:03Z</time>
      </trkpt>
      <trkpt lat="45.64273" lon="4.47537">
        <ele>447.1</ele>
        <time>2015-05-10T10:02:08Z</time>
      </trkpt>
      <trkpt lat="45.64287" lon="4.47535">
        <ele>447.6</ele>
        <time>2015-05-10T10:02:13Z</time>
      </trkpt>
      <trkpt lat="45.64302" lon="4.47533">
        <ele>448.3</ele>
        <time>2015-05-10T10:02:18Z</time>
      </trkpt>
      <trkpt lat="45.6432" lon="4.47532">
        <ele>448.9</ele>
        <time>2015-05-10T10:02:23Z</time>
      </trkpt>
      <trkpt lat="45.64337" lon="4.47535">
        <ele>448.5</ele>
        <time>2015-05-10T10:02:28Z</time>
      </trkpt>
      <trkpt lat="45.64353" lon="4.4754">
        <ele>449.8</ele>
        <time>2015-05-10T10:02:33Z</time>
      </trkpt>
      <trkpt lat="45.6437" lon="4.47548">
        <ele>450.6</ele>
        <time>2015-05-10T10:02:38Z</time>
      </trkpt>
      <trkpt lat="45.64385" lon="4.4756">
        <ele>452.1</ele>
        <time>2015-05-10T10:02:43Z</time>
      </trkpt>
      <trkpt lat="45.644" lon="4.47572">
        <ele>452.8</ele>
        <time>2015-05-10T10:02:48Z</time>
      </trkpt>
      <trkpt lat="45.64415" lon="4.47583">
        <ele>454.2</ele>
        <time>2015-05-10T10:02:53Z</time>
      </trkpt>
      <trkpt lat="45.6443" lon="4.4759">
        <ele>454.6</ele>
        <time>2015-05-10T10:02:58Z</time>
      </trkpt>
      <trkpt lat="45.64442" lon="4.47593">
        <ele>454.8</ele>
        <time>2015-05-10T10:03:03Z</time>
      </trkpt>
      <trkpt lat="45.64453" lon="4.47595">
        <ele>454.9</ele>
        <time>2015-05-10T10:03:08Z</time>
      </trkpt>
      <trkpt lat="45.64462" lon="4.47585">
        <ele>456.1</ele>
        <time>2015-05-10T10:03:13Z</time>
      </trkpt>
      <trkpt lat="45.64475" lon="4.47573">
        <ele>455.9</ele>
        <time>2015-05-10T10:03:18Z</time>
      </trkpt>
      <trkpt lat="45.64493" lon="4.47563">
        <ele>453.9</ele>
        <time>2015-05-10T10:03:23Z</time>
      </trkpt>
      <trkpt lat="45.64512" lon="4.47558">
        <ele>453.9</ele>
        <time>2015-05-10T10:03:28Z</time>
      </trkpt>
      <trkpt lat="45.64533" lon="4.47552">
        <ele>453.9</ele>
        <time>2015-05-10T10:03:33Z</time>
      </trkpt>
      <trkpt lat="45.64553" lon="4.47535">
        <ele>451.9</ele>
        <time>2015-05-10T10:03:38Z</time>
      </trkpt>
      <trkpt lat="45.64573" lon="4.47515">
        <ele>456.7</ele>
        <time>2015-05-10T10:03:43Z</time>
      </trkpt>
      <trkpt lat="45.6459" lon="4.47498">
        <ele>455.2</ele>
        <time>2015-05-10T10:03:48Z</time>
      </trkpt>
      <trkpt lat="45.6461" lon="4.47478">
        <ele>452.4</ele>
        <time>2015-05-10T10:03:53Z</time>
      </trkpt>
      <trkpt lat="45.64632" lon="4.47457">
        <ele>454.8</ele>
        <time>2015-05-10T10:03:58Z</time>
      </trkpt>
      <trkpt lat="45.64652" lon="4.47437">
        <ele>454.7</ele>
        <time>2015-05-10T10:04:03Z</time>
      </trkpt>
      <trkpt lat="45.64672" lon="4.4742">
        <ele>453.7</ele>
        <time>2015-05-10T10:04:08Z</time>
      </trkpt>
      <trkpt lat="45.64707" lon="4.47402">
        <ele>448.8</ele>
        <time>2015-05-10T10:04:13Z</time>
      </trkpt>
      <trkpt lat="45.64747" lon="4.47403">
        <ele>447.8</ele>
        <time>2015-05-10T10:04:18Z</time>
      </trkpt>
      <trkpt lat="45.6478" lon="4.47413">
        <ele>446.3</ele>
        <time>2015-05-10T10:04:23Z</time>
      </trkpt>
      <trkpt lat="45.64803" lon="4.47438">
        <ele>445.3</ele>
        <time>2015-05-10T10:04:28Z</time>
      </trkpt>
      <trkpt lat="45.64818" lon="4.47462">
        <ele>447.1</ele>
        <time>2015-05-10T10:04:33Z</time>
      </trkpt>
      <trkpt lat="45.6484" lon="4.47477">
        <ele>447</ele>
        <time>2015-05-10T10:04:38Z</time>
      </trkpt>
      <trkpt lat="45.64867" lon="4.47483">
        <ele>447.1</ele>
        <time>2015-05-10T10:04:43Z</time>
      </trkpt>
      <trkpt lat="45.64888" lon="4.47488">
        <ele>446</ele>
        <time>2015-05-10T10:04:48Z</time>
      </trkpt>
      <trkpt lat="45.64895" lon="4.475">
        <ele>443.6</ele>
        <time>2015-05-10T10:04:53Z</time>
      </trkpt>
      <trkpt lat="45.649" lon="4.47512">
        <ele>445.1</ele>
        <time>2015-05-10T10:04:58Z</time>
      </trkpt>
      <trkpt lat="45.64903" lon="4.47527">
        <ele>446.7</ele>
        <time>2015-05-10T10:05:03Z</time>
      </trkpt>
      <trkpt lat="45.64907" lon="4.4754">
        <ele>447.3</ele>
        <time>2015-05-10T10:05:08Z</time>
      </trkpt>
      <trkpt lat="45.64913" lon="4.47555">
        <ele>448.4</ele>
        <time>2015-05-10T10:05:13Z</time>
      </trkpt>
      <trkpt lat="45.64917" lon="4.47577">
        <ele>449</ele>
        <time>2015-05-10T10:05:18Z</time>
      </trkpt>
      <trkpt lat="45.64922" lon="4.47595">
        <ele>451.3</ele>
        <time>2015-05-10T10:05:23Z</time>
      </trkpt>
      <trkpt lat="45.64925" lon="4.4761">
        <ele>452.5</ele>
        <time>2015-05-10T10:05:28Z</time>
      </trkpt>
      <trkpt lat="45.6493" lon="4.47623">
        <ele>452.2</ele>
        <time>2015-05-10T10:05:33Z</time>
      </trkpt>
      <trkpt lat="45.64935" lon="4.47637">
        <ele>453.9</ele>
        <time>2015-05-10T10:05:38Z</time>
      </trkpt>
      <trkpt lat="45.64947" lon="4.47643">
        <ele>455</ele>
        <time>2015-05-10T10:05:43Z</time>
      </trkpt>
      <trkpt lat="45.6495" lon="4.4766">
        <ele>455.3</ele>
        <time>2015-05-10T10:05:48Z</time>
      </trkpt>
      <trkpt lat="45.64952" lon="4.47678">
        <ele>456</ele>
        <time>2015-05-10T10:05:53Z</time>
      </trkpt>
      <trkpt lat="45.64958" lon="4.47697">
        <ele>456.7</ele>
        <time>2015-05-10T10:05:58Z</time>
      </trkpt>
      <trkpt lat="45.64968" lon="4.47713">
        <ele>457.3</ele>
        <time>2015-05-10T10:06:03Z</time>
      </trkpt>
      <trkpt lat="45.64973" lon="4.47727">
        <ele>459.5</ele>
        <time>2015-05-10T10:06:08Z</time>
      </trkpt>
      <trkpt lat="45.64978" lon="4.47742">
        <ele>460</ele>
        <time>2015-05-10T10:06:13Z</time>
      </trkpt>
      <trkpt lat="45.6498" lon="4.47755">
        <ele>459.6</ele>
        <time>2015-05-10T10:06:18Z</time>
      </trkpt>
      <trkpt lat="45.64983" lon="4.4777">
        <ele>459.8</ele>
        <time>2015-05-10T10:06:23Z</time>
      </trkpt>
      <trkpt lat="45.64982" lon="4.47778">
        <ele>460.5</ele>
        <time>2015-05-10T10:16:23Z</time>
      </trkpt>
      <trkpt lat="45.64983" lon="4.47782">
        <ele>460.5</ele>
        <time>2015-05-10T10:16:28Z</time>
      </trkpt>
      <trkpt lat="45.64983" lon="4.47783">
        <ele>460.8</ele>
        <time>2015-05-10T10:16:48Z</time>
      </trkpt>
      <trkpt lat="45.64988" lon="4.47792">
        <ele>460.8</ele>
        <time>2015-05-10T10:16:53Z</time>
      </trkpt>
      <trkpt lat="45.64998" lon="4.47807">
        <ele>460.4</ele>
        <time>2015-05-10T10:16:58Z</time>
      </trkpt>
      <trkpt lat="45.65008" lon="4.47823">
        <ele>461.4</ele>
        <time>2015-05-10T10:17:03Z</time>
      </trkpt>
      <trkpt lat="45.6502" lon="4.47842">
        <ele>460.2</ele>
        <time>2015-05-10T10:17:08Z</time>
      </trkpt>
      <trkpt lat="45.65037" lon="4.47867">
        <ele>458.1</ele>
        <time>2015-05-10T10:17:13Z</time>
      </trkpt>
      <trkpt lat="45.65045" lon="4.47887">
        <ele>459.2</ele>
        <time>2015-05-10T10:17:18Z</time>
      </trkpt>
      <trkpt lat="45.65055" lon="4.47907">
        <ele>459.2</ele>
        <time>2015-05-10T10:17:23Z</time>
      </trkpt>
      <trkpt lat="45.65062" lon="4.47925">
        <ele>461.6</ele>
        <time>2015-05-10T10:17:28Z</time>
      </trkpt>
      <trkpt lat="45.65068" lon="4.47945">
        <ele>462.3</ele>
        <time>2015-05-10T10:17:33Z</time>
      </trkpt>
      <trkpt lat="45.65075" lon="4.47965">
        <ele>462.9</ele>
        <time>2015-05-10T10:17:38Z</time>
      </trkpt>
      <trkpt lat="45.65083" lon="4.47983">
        <ele>463.5</ele>
        <time>2015-05-10T10:17:43Z</time>
      </trkpt>
      <trkpt lat="45.65092" lon="4.47998">
        <ele>464.2</ele>
        <time>2015-05-10T10:17:48Z</time>
      </trkpt>
      <trkpt lat="45.65102" lon="4.48013">
        <ele>465.8</ele>
        <time>2015-05-10T10:17:53Z</time>
      </trkpt>
      <trkpt lat="45.6511" lon="4.48023">
        <ele>466.2</ele>
        <time>2015-05-10T10:17:58Z</time>
      </trkpt>
      <trkpt lat="45.6512" lon="4.48038">
        <ele>467.2</ele>
        <time>2015-05-10T10:18:03Z</time>
      </trkpt>
      <trkpt lat="45.65132" lon="4.48045">
        <ele>468.3</ele>
        <time>2015-05-10T10:18:08Z</time>
      </trkpt>
      <trkpt lat="45.65147" lon="4.48047">
        <ele>468.7</ele>
        <time>2015-05-10T10:18:13Z</time>
      </trkpt>
      <trkpt lat="45.65163" lon="4.48047">
        <ele>470.1</ele>
        <time>2015-05-10T10:18:18Z</time>
      </trkpt>
      <trkpt lat="45.65175" lon="4.48057">
        <ele>470.7</ele>
        <time>2015-05-10T10:18:23Z</time>
      </trkpt>
      <trkpt lat="45.65185" lon="4.4807">
        <ele>472.3</ele>
        <time>2015-05-10T10:18:28Z</time>
      </trkpt>
      <trkpt lat="45.65195" lon="4.48083">
        <ele>474.9</ele>
        <time>2015-05-10T10:18:33Z</time>
      </trkpt>
      <trkpt lat="45.65203" lon="4.48093">
        <ele>475.3</ele>
        <time>2015-05-10T10:18:38Z</time>
      </trkpt>
      <trkpt lat="45.6521" lon="4.48105">
        <ele>477</ele>
        <time>2015-05-10T10:18:43Z</time>
      </trkpt>
      <trkpt lat="45.65223" lon="4.48105">
        <ele>477.6</ele>
        <time>2015-05-10T10:18:48Z</time>
      </trkpt>
      <trkpt lat="45.6524" lon="4.48107">
        <ele>475.4</ele>
        <time>2015-05-10T10:18:53Z</time>
      </trkpt>
      <trkpt lat="45.65273" lon="4.48112">
        <ele>472.4</ele>
        <time>2015-05-10T10:18:58Z</time>
      </trkpt>
      <trkpt lat="45.65307" lon="4.48117">
        <ele>470.4</ele>
        <time>2015-05-10T10:19:03Z</time>
      </trkpt>
      <trkpt lat="45.6534" lon="4.4813">
        <ele>468.5</ele>
        <time>2015-05-10T10:19:08Z</time>
      </trkpt>
      <trkpt lat="45.65377" lon="4.4814">
        <ele>472.4</ele>
        <time>2015-05-10T10:19:13Z</time>
      </trkpt>
      <trkpt lat="45.65415" lon="4.48145">
        <ele>465</ele>
        <time>2015-05-10T10:19:18Z</time>
      </trkpt>
      <trkpt lat="45.65452" lon="4.4814">
        <ele>464.6</ele>
        <time>2015-05-10T10:19:23Z</time>
      </trkpt>
      <trkpt lat="45.65473" lon="4.48128">
        <ele>465.3</ele>
        <time>2015-05-10T10:19:28Z</time>
      </trkpt>
      <trkpt lat="45.65487" lon="4.48113">
        <ele>467.5</ele>
        <time>2015-05-10T10:19:33Z</time>
      </trkpt>
      <trkpt lat="45.65498" lon="4.481">
        <ele>469.7</ele>
        <time>2015-05-10T10:19:38Z</time>
      </trkpt>
      <trkpt lat="45.65508" lon="4.48088">
        <ele>471.4</ele>
        <time>2015-05-10T10:19:43Z</time>
      </trkpt>
      <trkpt lat="45.65518" lon="4.48075">
        <ele>471.9</ele>
        <time>2015-05-10T10:19:48Z</time>
      </trkpt>
      <trkpt lat="45.65528" lon="4.48062">
        <ele>472</ele>
        <time>2015-05-10T10:19:53Z</time>
      </trkpt>
      <trkpt lat="45.65538" lon="4.48048">
        <ele>475</ele>
        <time>2015-05-10T10:19:58Z</time>
      </trkpt>
      <trkpt lat="45.65547" lon="4.48033">
        <ele>474.4</ele>
        <time>2015-05-10T10:20:03Z</time>
      </trkpt>
      <trkpt lat="45.65552" lon="4.48017">
        <ele>476.9</ele>
        <time>2015-05-10T10:20:08Z</time>
      </trkpt>
      <trkpt lat="45.65555" lon="4.47997">
        <ele>476.3</ele>
        <time>2015-05-10T10:20:13Z</time>
      </trkpt>
      <trkpt lat="45.65557" lon="4.47977">
        <ele>476.6</ele>
        <time>2015-05-10T10:20:18Z</time>
      </trkpt>
      <trkpt lat="45.65555" lon="4.47957">
        <ele>477</ele>
        <time>2015-05-10T10:20:23Z</time>
      </trkpt>
      <trkpt lat="45.65553" lon="4.47933">
        <ele>477.4</ele>
        <time>2015-05-10T10:20:28Z</time>
      </trkpt>
      <trkpt lat="45.6555" lon="4.4791">
        <ele>477.4</ele>
        <time>2015-05-10T10:20:33Z</time>
      </trkpt>
      <trkpt lat="45.65543" lon="4.47883">
        <ele>477</ele>
        <time>2015-05-10T10:20:38Z</time>
      </trkpt>
      <trkpt lat="45.65537" lon="4.47857">
        <ele>477</ele>
        <time>2015-05-10T10:20:43Z</time>
      </trkpt>
      <trkpt lat="45.65527" lon="4.47833">
        <ele>477</ele>
        <time>2015-05-10T10:20:48Z</time>
      </trkpt>
      <trkpt lat="45.65518" lon="4.47817">
        <ele>478.3</ele>
        <time>2015-05-10T10:20:53Z</time>
      </trkpt>
      <trkpt lat="45.65527" lon="4.47807">
        <ele>478.1</ele>
        <time>2015-05-10T10:20:58Z</time>
      </trkpt>
      <trkpt lat="45.65547" lon="4.47807">
        <ele>478.1</ele>
        <time>2015-05-10T10:21:03Z</time>
      </trkpt>
      <trkpt lat="45.6557" lon="4.4781">
        <ele>477.6</ele>
        <time>2015-05-10T10:21:08Z</time>
      </trkpt>
      <trkpt lat="45.6559" lon="4.47822">
        <ele>476.3</ele>
        <time>2015-05-10T10:21:13Z</time>
      </trkpt>
      <trkpt lat="45.6561" lon="4.4784">
        <ele>477.3</ele>
        <time>2015-05-10T10:21:18Z</time>
      </trkpt>
      <trkpt lat="45.65628" lon="4.47863">
        <ele>476.9</ele>
        <time>2015-05-10T10:21:23Z</time>
      </trkpt>
      <trkpt lat="45.65647" lon="4.47885">
        <ele>474.9</ele>
        <time>2015-05-10T10:21:28Z</time>
      </trkpt>
      <trkpt lat="45.65665" lon="4.47907">
        <ele>475.6</ele>
        <time>2015-05-10T10:21:33Z</time>
      </trkpt>
      <trkpt lat="45.65683" lon="4.47927">
        <ele>475.6</ele>
        <time>2015-05-10T10:21:38Z</time>
      </trkpt>
      <trkpt lat="45.657" lon="4.47945">
        <ele>477.4</ele>
        <time>2015-05-10T10:21:43Z</time>
      </trkpt>
      <trkpt lat="45.65718" lon="4.47962">
        <ele>477.4</ele>
        <time>2015-05-10T10:21:48Z</time>
      </trkpt>
      <trkpt lat="45.65737" lon="4.47973">
        <ele>476.6</ele>
        <time>2015-05-10T10:21:53Z</time>
      </trkpt>
      <trkpt lat="45.6576" lon="4.47983">
        <ele>476.3</ele>
        <time>2015-05-10T10:21:58Z</time>
      </trkpt>
      <trkpt lat="45.65782" lon="4.47995">
        <ele>476.3</ele>
        <time>2015-05-10T10:22:03Z</time>
      </trkpt>
      <trkpt lat="45.65798" lon="4.48012">
        <ele>477.5</ele>
        <time>2015-05-10T10:22:08Z</time>
      </trkpt>
      <trkpt lat="45.65813" lon="4.4803">
        <ele>478.7</ele>
        <time>2015-05-10T10:22:13Z</time>
      </trkpt>
      <trkpt lat="45.65828" lon="4.48047">
        <ele>479.4</ele>
        <time>2015-05-10T10:22:18Z</time>
      </trkpt>
      <trkpt lat="45.65843" lon="4.48065">
        <ele>479.6</ele>
        <time>2015-05-10T10:22:23Z</time>
      </trkpt>
      <trkpt lat="45.6586" lon="4.48082">
        <ele>478.2</ele>
        <time>2015-05-10T10:22:28Z</time>
      </trkpt>
      <trkpt lat="45.65877" lon="4.48102">
        <ele>481.5</ele>
        <time>2015-05-10T10:22:33Z</time>
      </trkpt>
      <trkpt lat="45.65895" lon="4.48125">
        <ele>481.3</ele>
        <time>2015-05-10T10:22:38Z</time>
      </trkpt>
      <trkpt lat="45.65918" lon="4.4815">
        <ele>478</ele>
        <time>2015-05-10T10:22:43Z</time>
      </trkpt>
      <trkpt lat="45.65943" lon="4.48178">
        <ele>479.1</ele>
        <time>2015-05-10T10:22:48Z</time>
      </trkpt>
      <trkpt lat="45.65968" lon="4.48212">
        <ele>479.1</ele>
        <time>2015-05-10T10:22:53Z</time>
      </trkpt>
      <trkpt lat="45.65988" lon="4.48243">
        <ele>476.1</ele>
        <time>2015-05-10T10:22:58Z</time>
      </trkpt>
      <trkpt lat="45.66003" lon="4.48275">
        <ele>477</ele>
        <time>2015-05-10T10:23:03Z</time>
      </trkpt>
      <trkpt lat="45.66022" lon="4.483">
        <ele>476.8</ele>
        <time>2015-05-10T10:23:08Z</time>
      </trkpt>
      <trkpt lat="45.66038" lon="4.48335">
        <ele>474.8</ele>
        <time>2015-05-10T10:23:13Z</time>
      </trkpt>
      <trkpt lat="45.66048" lon="4.48378">
        <ele>474.3</ele>
        <time>2015-05-10T10:23:18Z</time>
      </trkpt>
      <trkpt lat="45.66065" lon="4.48417">
        <ele>476.3</ele>
        <time>2015-05-10T10:23:23Z</time>
      </trkpt>
      <trkpt lat="45.66075" lon="4.4845">
        <ele>475.1</ele>
        <time>2015-05-10T10:23:28Z</time>
      </trkpt>
      <trkpt lat="45.66083" lon="4.48478">
        <ele>475.7</ele>
        <time>2015-05-10T10:23:33Z</time>
      </trkpt>
      <trkpt lat="45.6609" lon="4.48505">
        <ele>477</ele>
        <time>2015-05-10T10:23:38Z</time>
      </trkpt>
      <trkpt lat="45.66095" lon="4.48528">
        <ele>477.9</ele>
        <time>2015-05-10T10:23:43Z</time>
      </trkpt>
      <trkpt lat="45.66108" lon="4.48542">
        <ele>477.8</ele>
        <time>2015-05-10T10:23:48Z</time>
      </trkpt>
      <trkpt lat="45.6612" lon="4.48543">
        <ele>479</ele>
        <time>2015-05-10T10:23:53Z</time>
      </trkpt>
      <trkpt lat="45.66125" lon="4.48552">
        <ele>480.5</ele>
        <time>2015-05-10T10:23:58Z</time>
      </trkpt>
      <trkpt lat="45.66123" lon="4.48563">
        <ele>481.8</ele>
        <time>2015-05-10T10:24:03Z</time>
      </trkpt>
      <trkpt lat="45.66123" lon="4.48575">
        <ele>483.7</ele>
        <time>2015-05-10T10:24:08Z</time>
      </trkpt>
      <trkpt lat="45.6612" lon="4.48585">
        <ele>485</ele>
        <time>2015-05-10T10:24:13Z</time>
      </trkpt>
      <trkpt lat="45.66117" lon="4.48593">
        <ele>486.5</ele>
        <time>2015-05-10T10:24:18Z</time>
      </trkpt>
      <trkpt lat="45.66112" lon="4.48603">
        <ele>488</ele>
        <time>2015-05-10T10:24:23Z</time>
      </trkpt>
      <trkpt lat="45.66107" lon="4.48612">
        <ele>488.6</ele>
        <time>2015-05-10T10:24:28Z</time>
      </trkpt>
      <trkpt lat="45.66102" lon="4.48622">
        <ele>489.7</ele>
        <time>2015-05-10T10:24:33Z</time>
      </trkpt>
      <trkpt lat="45.66098" lon="4.48628">
        <ele>490.8</ele>
        <time>2015-05-10T10:24:38Z</time>
      </trkpt>
      <trkpt lat="45.66095" lon="4.48638">
        <ele>492.9</ele>
        <time>2015-05-10T10:24:43Z</time>
      </trkpt>
      <trkpt lat="45.66095" lon="4.48648">
        <ele>494.8</ele>
        <time>2015-05-10T10:24:48Z</time>
      </trkpt>
      <trkpt lat="45.66097" lon="4.48658">
        <ele>494.8</ele>
        <time>2015-05-10T10:24:53Z</time>
      </trkpt>
      <trkpt lat="45.66097" lon="4.48668">
        <ele>497.1</ele>
        <time>2015-05-10T10:24:58Z</time>
      </trkpt>
      <trkpt lat="45.66097" lon="4.48678">
        <ele>498.6</ele>
        <time>2015-05-10T10:25:03Z</time>
      </trkpt>
      <trkpt lat="45.66093" lon="4.48688">
        <ele>500</ele>
        <time>2015-05-10T10:25:08Z</time>
      </trkpt>
      <trkpt lat="45.6609" lon="4.48698">
        <ele>501.2</ele>
        <time>2015-05-10T10:25:13Z</time>
      </trkpt>
      <trkpt lat="45.66085" lon="4.4871">
        <ele>502.2</ele>
        <time>2015-05-10T10:25:18Z</time>
      </trkpt>
      <trkpt lat="45.66082" lon="4.48723">
        <ele>503.4</ele>
        <time>2015-05-10T10:25:23Z</time>
      </trkpt>
      <trkpt lat="45.66077" lon="4.48737">
        <ele>504.1</ele>
        <time>2015-05-10T10:25:28Z</time>
      </trkpt>
      <trkpt lat="45.66072" lon="4.4875">
        <ele>505.9</ele>
        <time>2015-05-10T10:25:33Z</time>
      </trkpt>
      <trkpt lat="45.66068" lon="4.48767">
        <ele>507.1</ele>
        <time>2015-05-10T10:25:38Z</time>
      </trkpt>
      <trkpt lat="45.66068" lon="4.48783">
        <ele>506.5</ele>
        <time>2015-05-10T10:25:43Z</time>
      </trkpt>
      <trkpt lat="45.66068" lon="4.48798">
        <ele>508.7</ele>
        <time>2015-05-10T10:25:48Z</time>
      </trkpt>
      <trkpt lat="45.66065" lon="4.48813">
        <ele>509.4</ele>
        <time>2015-05-10T10:25:53Z</time>
      </trkpt>
      <trkpt lat="45.6606" lon="4.48828">
        <ele>510.1</ele>
        <time>2015-05-10T10:25:58Z</time>
      </trkpt>
      <trkpt lat="45.66055" lon="4.48842">
        <ele>511.7</ele>
        <time>2015-05-10T10:26:03Z</time>
      </trkpt>
      <trkpt lat="45.66048" lon="4.48857">
        <ele>512.6</ele>
        <time>2015-05-10T10:26:08Z</time>
      </trkpt>
      <trkpt lat="45.66042" lon="4.4887">
        <ele>513.5</ele>
        <time>2015-05-10T10:26:13Z</time>
      </trkpt>
      <trkpt lat="45.66033" lon="4.48883">
        <ele>515</ele>
        <time>2015-05-10T10:26:18Z</time>
      </trkpt>
      <trkpt lat="45.66027" lon="4.48893">
        <ele>515.8</ele>
        <time>2015-05-10T10:26:23Z</time>
      </trkpt>
      <trkpt lat="45.6602" lon="4.48905">
        <ele>516.9</ele>
        <time>2015-05-10T10:26:28Z</time>
      </trkpt>
      <trkpt lat="45.66012" lon="4.48913">
        <ele>517.4</ele>
        <time>2015-05-10T10:26:33Z</time>
      </trkpt>
      <trkpt lat="45.66008" lon="4.48922">
        <ele>519.1</ele>
        <time>2015-05-10T10:26:38Z</time>
      </trkpt>
      <trkpt lat="45.66003" lon="4.4893">
        <ele>520.4</ele>
        <time>2015-05-10T10:26:43Z</time>
      </trkpt>
      <trkpt lat="45.66002" lon="4.48938">
        <ele>522.2</ele>
        <time>2015-05-10T10:26:48Z</time>
      </trkpt>
      <trkpt lat="45.65998" lon="4.4895">
        <ele>522.6</ele>
        <time>2015-05-10T10:26:53Z</time>
      </trkpt>
      <trkpt lat="45.65998" lon="4.48958">
        <ele>524.6</ele>
        <time>2015-05-10T10:26:58Z</time>
      </trkpt>
      <trkpt lat="45.65995" lon="4.4897">
        <ele>525.8</ele>
        <time>2015-05-10T10:27:03Z</time>
      </trkpt>
      <trkpt lat="45.65995" lon="4.4898">
        <ele>526.6</ele>
        <time>2015-05-10T10:27:08Z</time>
      </trkpt>
      <trkpt lat="45.65993" lon="4.48988">
        <ele>528.1</ele>
        <time>2015-05-10T10:27:13Z</time>
      </trkpt>
      <trkpt lat="45.65992" lon="4.49">
        <ele>528.6</ele>
        <time>2015-05-10T10:27:18Z</time>
      </trkpt>
      <trkpt lat="45.65992" lon="4.49012">
        <ele>529.2</ele>
        <time>2015-05-10T10:27:23Z</time>
      </trkpt>
      <trkpt lat="45.65985" lon="4.4902">
        <ele>528.8</ele>
        <time>2015-05-10T10:27:28Z</time>
      </trkpt>
      <trkpt lat="45.65977" lon="4.49022">
        <ele>529.5</ele>
        <time>2015-05-10T10:27:33Z</time>
      </trkpt>
      <trkpt lat="45.65965" lon="4.49023">
        <ele>529.4</ele>
        <time>2015-05-10T10:27:38Z</time>
      </trkpt>
      <trkpt lat="45.65955" lon="4.49027">
        <ele>529.4</ele>
        <time>2015-05-10T10:27:43Z</time>
      </trkpt>
      <trkpt lat="45.65945" lon="4.49028">
        <ele>529.2</ele>
        <time>2015-05-10T10:27:48Z</time>
      </trkpt>
      <trkpt lat="45.65935" lon="4.4903">
        <ele>529.7</ele>
        <time>2015-05-10T10:27:53Z</time>
      </trkpt>
      <trkpt lat="45.65923" lon="4.49032">
        <ele>529.6</ele>
        <time>2015-05-10T10:27:58Z</time>
      </trkpt>
      <trkpt lat="45.65913" lon="4.49032">
        <ele>531.3</ele>
        <time>2015-05-10T10:28:03Z</time>
      </trkpt>
      <trkpt lat="45.65902" lon="4.49033">
        <ele>531.5</ele>
        <time>2015-05-10T10:28:08Z</time>
      </trkpt>
      <trkpt lat="45.6589" lon="4.49037">
        <ele>531.2</ele>
        <time>2015-05-10T10:28:13Z</time>
      </trkpt>
      <trkpt lat="45.65878" lon="4.4904">
        <ele>532.5</ele>
        <time>2015-05-10T10:28:18Z</time>
      </trkpt>
      <trkpt lat="45.65863" lon="4.49043">
        <ele>532.1</ele>
        <time>2015-05-10T10:28:23Z</time>
      </trkpt>
      <trkpt lat="45.65845" lon="4.49048">
        <ele>531.5</ele>
        <time>2015-05-10T10:28:28Z</time>
      </trkpt>
      <trkpt lat="45.65825" lon="4.4906">
        <ele>528.9</ele>
        <time>2015-05-10T10:28:33Z</time>
      </trkpt>
      <trkpt lat="45.65802" lon="4.49067">
        <ele>527.5</ele>
        <time>2015-05-10T10:28:38Z</time>
      </trkpt>
      <trkpt lat="45.65795" lon="4.49085">
        <ele>527.5</ele>
        <time>2015-05-10T10:28:43Z</time>
      </trkpt>
      <trkpt lat="45.658" lon="4.4911">
        <ele>526.3</ele>
        <time>2015-05-10T10:28:48Z</time>
      </trkpt>
      <trkpt lat="45.6581" lon="4.49122">
        <ele>526.7</ele>
        <time>2015-05-10T10:28:53Z</time>
      </trkpt>
      <trkpt lat="45.65822" lon="4.49125">
        <ele>527.9</ele>
        <time>2015-05-10T10:28:58Z</time>
      </trkpt>
      <trkpt lat="45.65833" lon="4.4913">
        <ele>529.1</ele>
        <time>2015-05-10T10:29:03Z</time>
      </trkpt>
      <trkpt lat="45.65845" lon="4.49138">
        <ele>529.7</ele>
        <time>2015-05-10T10:29:08Z</time>
      </trkpt>
      <trkpt lat="45.6586" lon="4.49148">
        <ele>530.5</ele>
        <time>2015-05-10T10:29:13Z</time>
      </trkpt>
      <trkpt lat="45.65877" lon="4.49158">
        <ele>529.6</ele>
        <time>2015-05-10T10:29:18Z</time>
      </trkpt>
      <trkpt lat="45.65893" lon="4.49168">
        <ele>529.5</ele>
        <time>2015-05-10T10:29:23Z</time>
      </trkpt>
      <trkpt lat="45.65912" lon="4.49182">
        <ele>529.5</ele>
        <time>2015-05-10T10:29:28Z</time>
      </trkpt>
      <trkpt lat="45.65927" lon="4.49197">
        <ele>530.6</ele>
        <time>2015-05-10T10:29:33Z</time>
      </trkpt>
      <trkpt lat="45.6594" lon="4.49213">
        <ele>531.5</ele>
        <time>2015-05-10T10:29:38Z</time>
      </trkpt>
      <trkpt lat="45.65955" lon="4.49228">
        <ele>532.1</ele>
        <time>2015-05-10T10:29:43Z</time>
      </trkpt>
      <trkpt lat="45.65972" lon="4.49247">
        <ele>531.2</ele>
        <time>2015-05-10T10:29:48Z</time>
      </trkpt>
      <trkpt lat="45.65992" lon="4.49277">
        <ele>529.6</ele>
        <time>2015-05-10T10:29:53Z</time>
      </trkpt>
      <trkpt lat="45.65998" lon="4.4931">
        <ele>529.1</ele>
        <time>2015-05-10T10:29:58Z</time>
      </trkpt>
      <trkpt lat="45.66005" lon="4.4934">
        <ele>529.9</ele>
        <time>2015-05-10T10:30:03Z</time>
      </trkpt>
      <trkpt lat="45.66018" lon="4.4937">
        <ele>530</ele>
        <time>2015-05-10T10:30:08Z</time>
      </trkpt>
      <trkpt lat="45.66032" lon="4.494">
        <ele>530.4</ele>
        <time>2015-05-10T10:30:13Z</time>
      </trkpt>
      <trkpt lat="45.66045" lon="4.49425">
        <ele>531.7</ele>
        <time>2015-05-10T10:30:18Z</time>
      </trkpt>
      <trkpt lat="45.66058" lon="4.49448">
        <ele>531.9</ele>
        <time>2015-05-10T10:30:23Z</time>
      </trkpt>
      <trkpt lat="45.6607" lon="4.49468">
        <ele>533.5</ele>
        <time>2015-05-10T10:30:28Z</time>
      </trkpt>
      <trkpt lat="45.6608" lon="4.49485">
        <ele>534.1</ele>
        <time>2015-05-10T10:30:33Z</time>
      </trkpt>
      <trkpt lat="45.66088" lon="4.49502">
        <ele>534.9</ele>
        <time>2015-05-10T10:30:38Z</time>
      </trkpt>
      <trkpt lat="45.66093" lon="4.49513">
        <ele>537.1</ele>
        <time>2015-05-10T10:30:43Z</time>
      </trkpt>
      <trkpt lat="45.66097" lon="4.49525">
        <ele>538.9</ele>
        <time>2015-05-10T10:30:48Z</time>
      </trkpt>
      <trkpt lat="45.661" lon="4.49537">
        <ele>540.8</ele>
        <time>2015-05-10T10:30:53Z</time>
      </trkpt>
      <trkpt lat="45.66102" lon="4.4955">
        <ele>541.9</ele>
        <time>2015-05-10T10:30:58Z</time>
      </trkpt>
      <trkpt lat="45.66105" lon="4.4956">
        <ele>543.4</ele>
        <time>2015-05-10T10:31:03Z</time>
      </trkpt>
      <trkpt lat="45.6611" lon="4.4957">
        <ele>544.3</ele>
        <time>2015-05-10T10:31:08Z</time>
      </trkpt>
      <trkpt lat="45.66112" lon="4.49582">
        <ele>546.8</ele>
        <time>2015-05-10T10:31:13Z</time>
      </trkpt>
      <trkpt lat="45.66117" lon="4.49593">
        <ele>548.7</ele>
        <time>2015-05-10T10:31:18Z</time>
      </trkpt>
      <trkpt lat="45.66122" lon="4.49602">
        <ele>550.4</ele>
        <time>2015-05-10T10:31:23Z</time>
      </trkpt>
      <trkpt lat="45.66125" lon="4.49608">
        <ele>551</ele>
        <time>2015-05-10T10:31:28Z</time>
      </trkpt>
      <trkpt lat="45.6613" lon="4.49615">
        <ele>552.7</ele>
        <time>2015-05-10T10:31:33Z</time>
      </trkpt>
      <trkpt lat="45.66135" lon="4.49623">
        <ele>553.1</ele>
        <time>2015-05-10T10:31:38Z</time>
      </trkpt>
      <trkpt lat="45.66137" lon="4.49633">
        <ele>554.7</ele>
        <time>2015-05-10T10:31:43Z</time>
      </trkpt>
      <trkpt lat="45.6614" lon="4.49642">
        <ele>555.8</ele>
        <time>2015-05-10T10:31:48Z</time>
      </trkpt>
      <trkpt lat="45.66142" lon="4.49652">
        <ele>556.5</ele>
        <time>2015-05-10T10:31:53Z</time>
      </trkpt>
      <trkpt lat="45.66145" lon="4.49663">
        <ele>557.4</ele>
        <time>2015-05-10T10:31:58Z</time>
      </trkpt>
      <trkpt lat="45.66145" lon="4.49673">
        <ele>558.4</ele>
        <time>2015-05-10T10:32:03Z</time>
      </trkpt>
      <trkpt lat="45.66145" lon="4.49683">
        <ele>558.9</ele>
        <time>2015-05-10T10:32:08Z</time>
      </trkpt>
      <trkpt lat="45.66147" lon="4.49697">
        <ele>560.2</ele>
        <time>2015-05-10T10:32:13Z</time>
      </trkpt>
      <trkpt lat="45.66148" lon="4.49712">
        <ele>561.1</ele>
        <time>2015-05-10T10:32:18Z</time>
      </trkpt>
      <trkpt lat="45.66152" lon="4.49732">
        <ele>562.3</ele>
        <time>2015-05-10T10:32:23Z</time>
      </trkpt>
      <trkpt lat="45.66152" lon="4.4975">
        <ele>562.9</ele>
        <time>2015-05-10T10:32:28Z</time>
      </trkpt>
      <trkpt lat="45.66152" lon="4.49765">
        <ele>563.4</ele>
        <time>2015-05-10T10:32:33Z</time>
      </trkpt>
      <trkpt lat="45.66153" lon="4.49782">
        <ele>563.4</ele>
        <time>2015-05-10T10:32:38Z</time>
      </trkpt>
      <trkpt lat="45.66153" lon="4.49797">
        <ele>564.5</ele>
        <time>2015-05-10T10:32:43Z</time>
      </trkpt>
      <trkpt lat="45.66155" lon="4.49812">
        <ele>564.9</ele>
        <time>2015-05-10T10:32:48Z</time>
      </trkpt>
      <trkpt lat="45.66155" lon="4.4983">
        <ele>564.9</ele>
        <time>2015-05-10T10:32:53Z</time>
      </trkpt>
      <trkpt lat="45.66152" lon="4.49843">
        <ele>565.7</ele>
        <time>2015-05-10T10:32:58Z</time>
      </trkpt>
      <trkpt lat="45.66143" lon="4.49853">
        <ele>567.8</ele>
        <time>2015-05-10T10:33:03Z</time>
      </trkpt>
      <trkpt lat="45.66133" lon="4.49863">
        <ele>568.5</ele>
        <time>2015-05-10T10:33:08Z</time>
      </trkpt>
      <trkpt lat="45.66128" lon="4.49878">
        <ele>569</ele>
        <time>2015-05-10T10:33:13Z</time>
      </trkpt>
      <trkpt lat="45.66125" lon="4.49892">
        <ele>570.1</ele>
        <time>2015-05-10T10:33:18Z</time>
      </trkpt>
      <trkpt lat="45.66133" lon="4.499">
        <ele>570.4</ele>
        <time>2015-05-10T10:33:23Z</time>
      </trkpt>
      <trkpt lat="45.66147" lon="4.49905">
        <ele>569.8</ele>
        <time>2015-05-10T10:33:28Z</time>
      </trkpt>
      <trkpt lat="45.66162" lon="4.499">
        <ele>570.3</ele>
        <time>2015-05-10T10:33:33Z</time>
      </trkpt>
      <trkpt lat="45.66177" lon="4.49905">
        <ele>569.5</ele>
        <time>2015-05-10T10:33:38Z</time>
      </trkpt>
      <trkpt lat="45.66188" lon="4.49925">
        <ele>570.3</ele>
        <time>2015-05-10T10:33:43Z</time>
      </trkpt>
      <trkpt lat="45.66198" lon="4.49943">
        <ele>571.1</ele>
        <time>2015-05-10T10:33:48Z</time>
      </trkpt>
      <trkpt lat="45.6621" lon="4.49962">
        <ele>573.1</ele>
        <time>2015-05-10T10:33:53Z</time>
      </trkpt>
      <trkpt lat="45.6622" lon="4.4998">
        <ele>571.7</ele>
        <time>2015-05-10T10:33:58Z</time>
      </trkpt>
      <trkpt lat="45.66233" lon="4.50002">
        <ele>571.9</ele>
        <time>2015-05-10T10:34:03Z</time>
      </trkpt>
      <trkpt lat="45.66252" lon="4.50017">
        <ele>572.1</ele>
        <time>2015-05-10T10:34:08Z</time>
      </trkpt>
      <trkpt lat="45.66272" lon="4.50032">
        <ele>570.9</ele>
        <time>2015-05-10T10:34:13Z</time>
      </trkpt>
      <trkpt lat="45.66288" lon="4.50047">
        <ele>571</ele>
        <time>2015-05-10T10:34:18Z</time>
      </trkpt>
      <trkpt lat="45.66305" lon="4.50062">
        <ele>572.3</ele>
        <time>2015-05-10T10:34:23Z</time>
      </trkpt>
      <trkpt lat="45.66315" lon="4.50075">
        <ele>573</ele>
        <time>2015-05-10T10:34:28Z</time>
      </trkpt>
      <trkpt lat="45.66332" lon="4.5009">
        <ele>573.6</ele>
        <time>2015-05-10T10:34:33Z</time>
      </trkpt>
      <trkpt lat="45.66343" lon="4.50112">
        <ele>576.9</ele>
        <time>2015-05-10T10:34:38Z</time>
      </trkpt>
      <trkpt lat="45.66355" lon="4.50128">
        <ele>577.2</ele>
        <time>2015-05-10T10:34:43Z</time>
      </trkpt>
      <trkpt lat="45.66365" lon="4.50147">
        <ele>577.4</ele>
        <time>2015-05-10T10:34:48Z</time>
      </trkpt>
      <trkpt lat="45.66377" lon="4.50163">
        <ele>578</ele>
        <time>2015-05-10T10:34:53Z</time>
      </trkpt>
      <trkpt lat="45.66388" lon="4.50182">
        <ele>579.2</ele>
        <time>2015-05-10T10:34:58Z</time>
      </trkpt>
      <trkpt lat="45.66398" lon="4.50197">
        <ele>580.2</ele>
        <time>2015-05-10T10:35:03Z</time>
      </trkpt>
      <trkpt lat="45.66408" lon="4.5021">
        <ele>580.9</ele>
        <time>2015-05-10T10:35:08Z</time>
      </trkpt>
      <trkpt lat="45.66417" lon="4.50222">
        <ele>582.1</ele>
        <time>2015-05-10T10:35:13Z</time>
      </trkpt>
      <trkpt lat="45.66425" lon="4.50228">
        <ele>583.4</ele>
        <time>2015-05-10T10:35:18Z</time>
      </trkpt>
      <trkpt lat="45.66433" lon="4.50237">
        <ele>583.4</ele>
        <time>2015-05-10T10:35:23Z</time>
      </trkpt>
      <trkpt lat="45.66438" lon="4.50247">
        <ele>586.6</ele>
        <time>2015-05-10T10:35:28Z</time>
      </trkpt>
      <trkpt lat="45.66445" lon="4.50253">
        <ele>587.4</ele>
        <time>2015-05-10T10:35:33Z</time>
      </trkpt>
      <trkpt lat="45.6645" lon="4.50257">
        <ele>588</ele>
        <time>2015-05-10T10:35:38Z</time>
      </trkpt>
      <trkpt lat="45.66455" lon="4.5026">
        <ele>589.2</ele>
        <time>2015-05-10T10:35:43Z</time>
      </trkpt>
      <trkpt lat="45.66463" lon="4.50262">
        <ele>588.9</ele>
        <time>2015-05-10T10:35:48Z</time>
      </trkpt>
      <trkpt lat="45.66468" lon="4.50267">
        <ele>589.3</ele>
        <time>2015-05-10T10:35:53Z</time>
      </trkpt>
      <trkpt lat="45.6647" lon="4.50265">
        <ele>588.9</ele>
        <time>2015-05-10T10:36:43Z</time>
      </trkpt>
      <trkpt lat="45.66477" lon="4.50265">
        <ele>589.2</ele>
        <time>2015-05-10T10:36:48Z</time>
      </trkpt>
      <trkpt lat="45.66488" lon="4.50267">
        <ele>589.2</ele>
        <time>2015-05-10T10:36:53Z</time>
      </trkpt>
      <trkpt lat="45.66502" lon="4.50267">
        <ele>588.7</ele>
        <time>2015-05-10T10:36:58Z</time>
      </trkpt>
      <trkpt lat="45.66515" lon="4.5026">
        <ele>590.5</ele>
        <time>2015-05-10T10:37:03Z</time>
      </trkpt>
      <trkpt lat="45.66527" lon="4.50255">
        <ele>590.5</ele>
        <time>2015-05-10T10:37:08Z</time>
      </trkpt>
      <trkpt lat="45.66537" lon="4.50252">
        <ele>592</ele>
        <time>2015-05-10T10:37:13Z</time>
      </trkpt>
      <trkpt lat="45.6655" lon="4.50245">
        <ele>591.2</ele>
        <time>2015-05-10T10:37:18Z</time>
      </trkpt>
      <trkpt lat="45.66567" lon="4.50238">
        <ele>591.7</ele>
        <time>2015-05-10T10:37:23Z</time>
      </trkpt>
      <trkpt lat="45.66587" lon="4.50227">
        <ele>590.4</ele>
        <time>2015-05-10T10:37:28Z</time>
      </trkpt>
      <trkpt lat="45.6661" lon="4.50213">
        <ele>588.1</ele>
        <time>2015-05-10T10:37:33Z</time>
      </trkpt>
      <trkpt lat="45.66637" lon="4.50208">
        <ele>587.3</ele>
        <time>2015-05-10T10:37:38Z</time>
      </trkpt>
      <trkpt lat="45.6667" lon="4.50207">
        <ele>587.3</ele>
        <time>2015-05-10T10:37:43Z</time>
      </trkpt>
      <trkpt lat="45.66702" lon="4.50213">
        <ele>585.3</ele>
        <time>2015-05-10T10:37:48Z</time>
      </trkpt>
      <trkpt lat="45.66732" lon="4.5022">
        <ele>587.2</ele>
        <time>2015-05-10T10:37:53Z</time>
      </trkpt>
      <trkpt lat="45.66757" lon="4.50218">
        <ele>582.7</ele>
        <time>2015-05-10T10:37:58Z</time>
      </trkpt>
      <trkpt lat="45.66778" lon="4.502">
        <ele>583.7</ele>
        <time>2015-05-10T10:38:03Z</time>
      </trkpt>
      <trkpt lat="45.66795" lon="4.5017">
        <ele>583.7</ele>
        <time>2015-05-10T10:38:08Z</time>
      </trkpt>
      <trkpt lat="45.6681" lon="4.50137">
        <ele>584.7</ele>
        <time>2015-05-10T10:38:13Z</time>
      </trkpt>
      <trkpt lat="45.66818" lon="4.50102">
        <ele>582.7</ele>
        <time>2015-05-10T10:38:18Z</time>
      </trkpt>
      <trkpt lat="45.66828" lon="4.50063">
        <ele>585.7</ele>
        <time>2015-05-10T10:38:23Z</time>
      </trkpt>
      <trkpt lat="45.66837" lon="4.50037">
        <ele>587.4</ele>
        <time>2015-05-10T10:38:28Z</time>
      </trkpt>
      <trkpt lat="45.66843" lon="4.50017">
        <ele>588.8</ele>
        <time>2015-05-10T10:38:33Z</time>
      </trkpt>
      <trkpt lat="45.66848" lon="4.49997">
        <ele>589.5</ele>
        <time>2015-05-10T10:38:38Z</time>
      </trkpt>
      <trkpt lat="45.66855" lon="4.49977">
        <ele>590.3</ele>
        <time>2015-05-10T10:38:43Z</time>
      </trkpt>
      <trkpt lat="45.66862" lon="4.49957">
        <ele>591.5</ele>
        <time>2015-05-10T10:38:48Z</time>
      </trkpt>
      <trkpt lat="45.66868" lon="4.49935">
        <ele>592.1</ele>
        <time>2015-05-10T10:38:53Z</time>
      </trkpt>
      <trkpt lat="45.66875" lon="4.49915">
        <ele>593.3</ele>
        <time>2015-05-10T10:38:58Z</time>
      </trkpt>
      <trkpt lat="45.66883" lon="4.499">
        <ele>593.8</ele>
        <time>2015-05-10T10:39:03Z</time>
      </trkpt>
      <trkpt lat="45.66893" lon="4.49887">
        <ele>596.1</ele>
        <time>2015-05-10T10:39:08Z</time>
      </trkpt>
      <trkpt lat="45.669" lon="4.49873">
        <ele>597.5</ele>
        <time>2015-05-10T10:39:13Z</time>
      </trkpt>
      <trkpt lat="45.66908" lon="4.49862">
        <ele>596.3</ele>
        <time>2015-05-10T10:39:18Z</time>
      </trkpt>
      <trkpt lat="45.66917" lon="4.49848">
        <ele>598.2</ele>
        <time>2015-05-10T10:39:23Z</time>
      </trkpt>
      <trkpt lat="45.66925" lon="4.49837">
        <ele>600</ele>
        <time>2015-05-10T10:39:28Z</time>
      </trkpt>
      <trkpt lat="45.66935" lon="4.49825">
        <ele>601.5</ele>
        <time>2015-05-10T10:39:33Z</time>
      </trkpt>
      <trkpt lat="45.66942" lon="4.49812">
        <ele>602.4</ele>
        <time>2015-05-10T10:39:38Z</time>
      </trkpt>
      <trkpt lat="45.66948" lon="4.49803">
        <ele>603</ele>
        <time>2015-05-10T10:39:43Z</time>
      </trkpt>
      <trkpt lat="45.66955" lon="4.49795">
        <ele>604.1</ele>
        <time>2015-05-10T10:39:48Z</time>
      </trkpt>
      <trkpt lat="45.66962" lon="4.49788">
        <ele>605.3</ele>
        <time>2015-05-10T10:39:53Z</time>
      </trkpt>
      <trkpt lat="45.66968" lon="4.49783">
        <ele>605.7</ele>
        <time>2015-05-10T10:39:58Z</time>
      </trkpt>
      <trkpt lat="45.66972" lon="4.4978">
        <ele>607.8</ele>
        <time>2015-05-10T10:40:03Z</time>
      </trkpt>
      <trkpt lat="45.66977" lon="4.49775">
        <ele>608.7</ele>
        <time>2015-05-10T10:40:08Z</time>
      </trkpt>
      <trkpt lat="45.66982" lon="4.4977">
        <ele>610.1</ele>
        <time>2015-05-10T10:40:13Z</time>
      </trkpt>
      <trkpt lat="45.66987" lon="4.49767">
        <ele>610.1</ele>
        <time>2015-05-10T10:40:18Z</time>
      </trkpt>
      <trkpt lat="45.6699" lon="4.49767">
        <ele>611.7</ele>
        <time>2015-05-10T10:40:23Z</time>
      </trkpt>
      <trkpt lat="45.67" lon="4.4976">
        <ele>612.5</ele>
        <time>2015-05-10T10:40:33Z</time>
      </trkpt>
      <trkpt lat="45.67003" lon="4.49753">
        <ele>613.6</ele>
        <time>2015-05-10T10:40:38Z</time>
      </trkpt>
      <trkpt lat="45.6701" lon="4.49748">
        <ele>614.9</ele>
        <time>2015-05-10T10:40:43Z</time>
      </trkpt>
      <trkpt lat="45.67017" lon="4.49745">
        <ele>616</ele>
        <time>2015-05-10T10:40:48Z</time>
      </trkpt>
      <trkpt lat="45.67023" lon="4.49743">
        <ele>616.4</ele>
        <time>2015-05-10T10:40:53Z</time>
      </trkpt>
      <trkpt lat="45.67028" lon="4.4974">
        <ele>617.1</ele>
        <time>2015-05-10T10:40:58Z</time>
      </trkpt>
      <trkpt lat="45.67038" lon="4.49737">
        <ele>619.4</ele>
        <time>2015-05-10T10:41:03Z</time>
      </trkpt>
      <trkpt lat="45.67048" lon="4.49735">
        <ele>620.6</ele>
        <time>2015-05-10T10:41:08Z</time>
      </trkpt>
      <trkpt lat="45.67062" lon="4.49735">
        <ele>620.9</ele>
        <time>2015-05-10T10:41:13Z</time>
      </trkpt>
      <trkpt lat="45.6707" lon="4.49737">
        <ele>621.6</ele>
        <time>2015-05-10T10:41:18Z</time>
      </trkpt>
      <trkpt lat="45.6708" lon="4.4974">
        <ele>624.4</ele>
        <time>2015-05-10T10:41:23Z</time>
      </trkpt>
      <trkpt lat="45.67088" lon="4.49738">
        <ele>625.3</ele>
        <time>2015-05-10T10:41:28Z</time>
      </trkpt>
      <trkpt lat="45.67098" lon="4.4974">
        <ele>627</ele>
        <time>2015-05-10T10:41:33Z</time>
      </trkpt>
      <trkpt lat="45.67108" lon="4.49742">
        <ele>626.5</ele>
        <time>2015-05-10T10:41:38Z</time>
      </trkpt>
      <trkpt lat="45.6712" lon="4.49742">
        <ele>627.1</ele>
        <time>2015-05-10T10:41:43Z</time>
      </trkpt>
      <trkpt lat="45.67133" lon="4.4974">
        <ele>627.1</ele>
        <time>2015-05-10T10:41:48Z</time>
      </trkpt>
      <trkpt lat="45.67152" lon="4.4974">
        <ele>627.1</ele>
        <time>2015-05-10T10:41:53Z</time>
      </trkpt>
      <trkpt lat="45.67168" lon="4.4974">
        <ele>626.3</ele>
        <time>2015-05-10T10:41:58Z</time>
      </trkpt>
      <trkpt lat="45.67185" lon="4.49745">
        <ele>627.2</ele>
        <time>2015-05-10T10:42:03Z</time>
      </trkpt>
      <trkpt lat="45.672" lon="4.49755">
        <ele>626.2</ele>
        <time>2015-05-10T10:42:08Z</time>
      </trkpt>
      <trkpt lat="45.67218" lon="4.49757">
        <ele>625.8</ele>
        <time>2015-05-10T10:42:13Z</time>
      </trkpt>
      <trkpt lat="45.67232" lon="4.49757">
        <ele>626.4</ele>
        <time>2015-05-10T10:42:18Z</time>
      </trkpt>
      <trkpt lat="45.67245" lon="4.49757">
        <ele>627.3</ele>
        <time>2015-05-10T10:42:23Z</time>
      </trkpt>
      <trkpt lat="45.67255" lon="4.49758">
        <ele>627.9</ele>
        <time>2015-05-10T10:42:28Z</time>
      </trkpt>
      <trkpt lat="45.67263" lon="4.49762">
        <ele>629.7</ele>
        <time>2015-05-10T10:42:33Z</time>
      </trkpt>
      <trkpt lat="45.67272" lon="4.49765">
        <ele>631.5</ele>
        <time>2015-05-10T10:42:38Z</time>
      </trkpt>
      <trkpt lat="45.67278" lon="4.4977">
        <ele>633.5</ele>
        <time>2015-05-10T10:42:43Z</time>
      </trkpt>
      <trkpt lat="45.67285" lon="4.49775">
        <ele>635.2</ele>
        <time>2015-05-10T10:42:48Z</time>
      </trkpt>
      <trkpt lat="45.6729" lon="4.49782">
        <ele>637.3</ele>
        <time>2015-05-10T10:42:53Z</time>
      </trkpt>
      <trkpt lat="45.67292" lon="4.49787">
        <ele>638.4</ele>
        <time>2015-05-10T10:42:58Z</time>
      </trkpt>
      <trkpt lat="45.67297" lon="4.49777">
        <ele>639.3</ele>
        <time>2015-05-10T10:43:03Z</time>
      </trkpt>
      <trkpt lat="45.67302" lon="4.49755">
        <ele>638.6</ele>
        <time>2015-05-10T10:43:08Z</time>
      </trkpt>
      <trkpt lat="45.67312" lon="4.49737">
        <ele>638.6</ele>
        <time>2015-05-10T10:43:13Z</time>
      </trkpt>
      <trkpt lat="45.67318" lon="4.4972">
        <ele>638.9</ele>
        <time>2015-05-10T10:43:18Z</time>
      </trkpt>
      <trkpt lat="45.67322" lon="4.497">
        <ele>639.5</ele>
        <time>2015-05-10T10:43:23Z</time>
      </trkpt>
      <trkpt lat="45.67325" lon="4.4968">
        <ele>640</ele>
        <time>2015-05-10T10:43:28Z</time>
      </trkpt>
      <trkpt lat="45.67327" lon="4.49658">
        <ele>640.3</ele>
        <time>2015-05-10T10:43:33Z</time>
      </trkpt>
      <trkpt lat="45.67325" lon="4.49635">
        <ele>640</ele>
        <time>2015-05-10T10:43:38Z</time>
      </trkpt>
      <trkpt lat="45.67322" lon="4.49602">
        <ele>638</ele>
        <time>2015-05-10T10:43:43Z</time>
      </trkpt>
      <trkpt lat="45.67322" lon="4.49558">
        <ele>637.3</ele>
        <time>2015-05-10T10:43:48Z</time>
      </trkpt>
      <trkpt lat="45.67335" lon="4.49513">
        <ele>633.9</ele>
        <time>2015-05-10T10:43:53Z</time>
      </trkpt>
      <trkpt lat="45.67355" lon="4.49468">
        <ele>633</ele>
        <time>2015-05-10T10:43:58Z</time>
      </trkpt>
      <trkpt lat="45.67372" lon="4.49428">
        <ele>631.9</ele>
        <time>2015-05-10T10:44:03Z</time>
      </trkpt>
      <trkpt lat="45.67387" lon="4.49395">
        <ele>632.4</ele>
        <time>2015-05-10T10:44:08Z</time>
      </trkpt>
      <trkpt lat="45.67405" lon="4.49362">
        <ele>630.8</ele>
        <time>2015-05-10T10:44:13Z</time>
      </trkpt>
      <trkpt lat="45.67425" lon="4.49322">
        <ele>630</ele>
        <time>2015-05-10T10:44:18Z</time>
      </trkpt>
      <trkpt lat="45.67453" lon="4.4928">
        <ele>627</ele>
        <time>2015-05-10T10:44:23Z</time>
      </trkpt>
      <trkpt lat="45.67498" lon="4.49272">
        <ele>622</ele>
        <time>2015-05-10T10:44:28Z</time>
      </trkpt>
      <trkpt lat="45.67537" lon="4.49283">
        <ele>619.7</ele>
        <time>2015-05-10T10:44:33Z</time>
      </trkpt>
      <trkpt lat="45.67563" lon="4.49313">
        <ele>618.6</ele>
        <time>2015-05-10T10:44:38Z</time>
      </trkpt>
      <trkpt lat="45.6757" lon="4.49343">
        <ele>619.5</ele>
        <time>2015-05-10T10:44:43Z</time>
      </trkpt>
      <trkpt lat="45.67573" lon="4.49365">
        <ele>620.8</ele>
        <time>2015-05-10T10:44:48Z</time>
      </trkpt>
      <trkpt lat="45.67577" lon="4.49388">
        <ele>622.5</ele>
        <time>2015-05-10T10:44:53Z</time>
      </trkpt>
      <trkpt lat="45.6758" lon="4.4941">
        <ele>623.9</ele>
        <time>2015-05-10T10:44:58Z</time>
      </trkpt>
      <trkpt lat="45.67583" lon="4.49433">
        <ele>625.2</ele>
        <time>2015-05-10T10:45:03Z</time>
      </trkpt>
      <trkpt lat="45.67585" lon="4.49452">
        <ele>626.9</ele>
        <time>2015-05-10T10:45:08Z</time>
      </trkpt>
      <trkpt lat="45.67587" lon="4.49472">
        <ele>628.2</ele>
        <time>2015-05-10T10:45:13Z</time>
      </trkpt>
      <trkpt lat="45.67587" lon="4.4949">
        <ele>629.6</ele>
        <time>2015-05-10T10:45:18Z</time>
      </trkpt>
      <trkpt lat="45.67587" lon="4.49505">
        <ele>631.5</ele>
        <time>2015-05-10T10:45:23Z</time>
      </trkpt>
      <trkpt lat="45.67585" lon="4.49522">
        <ele>632.4</ele>
        <time>2015-05-10T10:45:28Z</time>
      </trkpt>
      <trkpt lat="45.67583" lon="4.49535">
        <ele>634.2</ele>
        <time>2015-05-10T10:45:33Z</time>
      </trkpt>
      <trkpt lat="45.6758" lon="4.4955">
        <ele>635.8</ele>
        <time>2015-05-10T10:45:38Z</time>
      </trkpt>
      <trkpt lat="45.67578" lon="4.49562">
        <ele>636.6</ele>
        <time>2015-05-10T10:45:43Z</time>
      </trkpt>
      <trkpt lat="45.67577" lon="4.49572">
        <ele>638.1</ele>
        <time>2015-05-10T10:45:48Z</time>
      </trkpt>
      <trkpt lat="45.67577" lon="4.49585">
        <ele>639</ele>
        <time>2015-05-10T10:45:53Z</time>
      </trkpt>
      <trkpt lat="45.67577" lon="4.49598">
        <ele>639.9</ele>
        <time>2015-05-10T10:45:58Z</time>
      </trkpt>
      <trkpt lat="45.67577" lon="4.4961">
        <ele>641.8</ele>
        <time>2015-05-10T10:46:03Z</time>
      </trkpt>
      <trkpt lat="45.67575" lon="4.49622">
        <ele>643.1</ele>
        <time>2015-05-10T10:46:08Z</time>
      </trkpt>
      <trkpt lat="45.67573" lon="4.49635">
        <ele>643.9</ele>
        <time>2015-05-10T10:46:13Z</time>
      </trkpt>
      <trkpt lat="45.67572" lon="4.49648">
        <ele>646.5</ele>
        <time>2015-05-10T10:46:18Z</time>
      </trkpt>
      <trkpt lat="45.6757" lon="4.49662">
        <ele>647.9</ele>
        <time>2015-05-10T10:46:23Z</time>
      </trkpt>
      <trkpt lat="45.67567" lon="4.49675">
        <ele>649.4</ele>
        <time>2015-05-10T10:46:28Z</time>
      </trkpt>
      <trkpt lat="45.67565" lon="4.4969">
        <ele>650.4</ele>
        <time>2015-05-10T10:46:33Z</time>
      </trkpt>
      <trkpt lat="45.67565" lon="4.49703">
        <ele>651.6</ele>
        <time>2015-05-10T10:46:38Z</time>
      </trkpt>
      <trkpt lat="45.67563" lon="4.49722">
        <ele>652.1</ele>
        <time>2015-05-10T10:46:43Z</time>
      </trkpt>
      <trkpt lat="45.67562" lon="4.49737">
        <ele>652.7</ele>
        <time>2015-05-10T10:46:48Z</time>
      </trkpt>
      <trkpt lat="45.67562" lon="4.49755">
        <ele>652.7</ele>
        <time>2015-05-10T10:46:53Z</time>
      </trkpt>
      <trkpt lat="45.67557" lon="4.49773">
        <ele>653.8</ele>
        <time>2015-05-10T10:46:58Z</time>
      </trkpt>
      <trkpt lat="45.67555" lon="4.49793">
        <ele>655</ele>
        <time>2015-05-10T10:47:03Z</time>
      </trkpt>
      <trkpt lat="45.67553" lon="4.49815">
        <ele>655.8</ele>
        <time>2015-05-10T10:47:08Z</time>
      </trkpt>
      <trkpt lat="45.67555" lon="4.49837">
        <ele>655.8</ele>
        <time>2015-05-10T10:47:13Z</time>
      </trkpt>
      <trkpt lat="45.67557" lon="4.49858">
        <ele>656.4</ele>
        <time>2015-05-10T10:47:18Z</time>
      </trkpt>
      <trkpt lat="45.67557" lon="4.4988">
        <ele>657.1</ele>
        <time>2015-05-10T10:47:23Z</time>
      </trkpt>
      <trkpt lat="45.67558" lon="4.499">
        <ele>658</ele>
        <time>2015-05-10T10:47:28Z</time>
      </trkpt>
      <trkpt lat="45.6756" lon="4.49922">
        <ele>659.6</ele>
        <time>2015-05-10T10:47:33Z</time>
      </trkpt>
      <trkpt lat="45.6756" lon="4.49942">
        <ele>661.1</ele>
        <time>2015-05-10T10:47:38Z</time>
      </trkpt>
      <trkpt lat="45.6756" lon="4.4996">
        <ele>661.6</ele>
        <time>2015-05-10T10:47:43Z</time>
      </trkpt>
      <trkpt lat="45.67558" lon="4.49978">
        <ele>663.3</ele>
        <time>2015-05-10T10:47:48Z</time>
      </trkpt>
      <trkpt lat="45.67557" lon="4.49993">
        <ele>664.6</ele>
        <time>2015-05-10T10:47:53Z</time>
      </trkpt>
      <trkpt lat="45.67553" lon="4.50008">
        <ele>665.7</ele>
        <time>2015-05-10T10:47:58Z</time>
      </trkpt>
      <trkpt lat="45.67552" lon="4.50025">
        <ele>667.1</ele>
        <time>2015-05-10T10:48:03Z</time>
      </trkpt>
      <trkpt lat="45.67552" lon="4.50042">
        <ele>668.5</ele>
        <time>2015-05-10T10:48:08Z</time>
      </trkpt>
      <trkpt lat="45.67552" lon="4.5006">
        <ele>670.6</ele>
        <time>2015-05-10T10:48:13Z</time>
      </trkpt>
      <trkpt lat="45.67553" lon="4.5008">
        <ele>671</ele>
        <time>2015-05-10T10:48:18Z</time>
      </trkpt>
      <trkpt lat="45.67555" lon="4.50095">
        <ele>672.9</ele>
        <time>2015-05-10T10:48:23Z</time>
      </trkpt>
      <trkpt lat="45.67555" lon="4.5011">
        <ele>672.7</ele>
        <time>2015-05-10T10:48:28Z</time>
      </trkpt>
      <trkpt lat="45.67557" lon="4.50122">
        <ele>674.2</ele>
        <time>2015-05-10T10:48:33Z</time>
      </trkpt>
      <trkpt lat="45.6756" lon="4.50133">
        <ele>674.2</ele>
        <time>2015-05-10T10:48:38Z</time>
      </trkpt>
      <trkpt lat="45.67562" lon="4.50148">
        <ele>676.1</ele>
        <time>2015-05-10T10:48:43Z</time>
      </trkpt>
      <trkpt lat="45.67565" lon="4.50162">
        <ele>675.9</ele>
        <time>2015-05-10T10:48:48Z</time>
      </trkpt>
      <trkpt lat="45.67565" lon="4.50175">
        <ele>675.9</ele>
        <time>2015-05-10T10:48:53Z</time>
      </trkpt>
      <trkpt lat="45.67568" lon="4.50188">
        <ele>677.9</ele>
        <time>2015-05-10T10:48:58Z</time>
      </trkpt>
      <trkpt lat="45.67568" lon="4.50202">
        <ele>678.6</ele>
        <time>2015-05-10T10:49:03Z</time>
      </trkpt>
      <trkpt lat="45.67572" lon="4.50217">
        <ele>679.4</ele>
        <time>2015-05-10T10:49:08Z</time>
      </trkpt>
      <trkpt lat="45.67573" lon="4.5023">
        <ele>681</ele>
        <time>2015-05-10T10:49:13Z</time>
      </trkpt>
      <trkpt lat="45.67578" lon="4.50245">
        <ele>680.8</ele>
        <time>2015-05-10T10:49:18Z</time>
      </trkpt>
      <trkpt lat="45.67583" lon="4.5026">
        <ele>681.6</ele>
        <time>2015-05-10T10:49:23Z</time>
      </trkpt>
      <trkpt lat="45.6759" lon="4.50272">
        <ele>683</ele>
        <time>2015-05-10T10:49:28Z</time>
      </trkpt>
      <trkpt lat="45.67597" lon="4.50283">
        <ele>684.3</ele>
        <time>2015-05-10T10:49:33Z</time>
      </trkpt>
      <trkpt lat="45.67602" lon="4.50295">
        <ele>685.2</ele>
        <time>2015-05-10T10:49:38Z</time>
      </trkpt>
      <trkpt lat="45.67607" lon="4.50305">
        <ele>684.7</ele>
        <time>2015-05-10T10:49:43Z</time>
      </trkpt>
      <trkpt lat="45.6761" lon="4.50317">
        <ele>687</ele>
        <time>2015-05-10T10:49:48Z</time>
      </trkpt>
      <trkpt lat="45.67613" lon="4.50327">
        <ele>688.7</ele>
        <time>2015-05-10T10:49:53Z</time>
      </trkpt>
      <trkpt lat="45.67617" lon="4.50338">
        <ele>689.5</ele>
        <time>2015-05-10T10:49:58Z</time>
      </trkpt>
      <trkpt lat="45.6762" lon="4.5035">
        <ele>690.7</ele>
        <time>2015-05-10T10:50:03Z</time>
      </trkpt>
      <trkpt lat="45.67622" lon="4.5036">
        <ele>692.6</ele>
        <time>2015-05-10T10:50:08Z</time>
      </trkpt>
      <trkpt lat="45.67627" lon="4.50372">
        <ele>694.1</ele>
        <time>2015-05-10T10:50:13Z</time>
      </trkpt>
      <trkpt lat="45.67633" lon="4.50382">
        <ele>694.7</ele>
        <time>2015-05-10T10:50:18Z</time>
      </trkpt>
      <trkpt lat="45.67638" lon="4.5039">
        <ele>695.4</ele>
        <time>2015-05-10T10:50:23Z</time>
      </trkpt>
      <trkpt lat="45.67643" lon="4.504">
        <ele>695.6</ele>
        <time>2015-05-10T10:50:28Z</time>
      </trkpt>
      <trkpt lat="45.6765" lon="4.50412">
        <ele>697.1</ele>
        <time>2015-05-10T10:50:33Z</time>
      </trkpt>
      <trkpt lat="45.67655" lon="4.50422">
        <ele>699.2</ele>
        <time>2015-05-10T10:50:38Z</time>
      </trkpt>
      <trkpt lat="45.67662" lon="4.50432">
        <ele>698.6</ele>
        <time>2015-05-10T10:50:43Z</time>
      </trkpt>
      <trkpt lat="45.67668" lon="4.50442">
        <ele>699.3</ele>
        <time>2015-05-10T10:50:48Z</time>
      </trkpt>
      <trkpt lat="45.67673" lon="4.50453">
        <ele>700.6</ele>
        <time>2015-05-10T10:50:53Z</time>
      </trkpt>
      <trkpt lat="45.67682" lon="4.50462">
        <ele>701.6</ele>
        <time>2015-05-10T10:50:58Z</time>
      </trkpt>
      <trkpt lat="45.6769" lon="4.50475">
        <ele>701</ele>
        <time>2015-05-10T10:51:03Z</time>
      </trkpt>
      <trkpt lat="45.67698" lon="4.50488">
        <ele>701.9</ele>
        <time>2015-05-10T10:51:08Z</time>
      </trkpt>
      <trkpt lat="45.67708" lon="4.50502">
        <ele>703.1</ele>
        <time>2015-05-10T10:51:13Z</time>
      </trkpt>
      <trkpt lat="45.67715" lon="4.50515">
        <ele>705.4</ele>
        <time>2015-05-10T10:51:18Z</time>
      </trkpt>
      <trkpt lat="45.6772" lon="4.50525">
        <ele>703.5</ele>
        <time>2015-05-10T10:51:23Z</time>
      </trkpt>
      <trkpt lat="45.6773" lon="4.50535">
        <ele>705</ele>
        <time>2015-05-10T10:51:28Z</time>
      </trkpt>
      <trkpt lat="45.67742" lon="4.50542">
        <ele>705.9</ele>
        <time>2015-05-10T10:51:33Z</time>
      </trkpt>
      <trkpt lat="45.67753" lon="4.50552">
        <ele>705.7</ele>
        <time>2015-05-10T10:51:38Z</time>
      </trkpt>
      <trkpt lat="45.67765" lon="4.50558">
        <ele>706.5</ele>
        <time>2015-05-10T10:51:43Z</time>
      </trkpt>
      <trkpt lat="45.67777" lon="4.50567">
        <ele>707.4</ele>
        <time>2015-05-10T10:51:48Z</time>
      </trkpt>
      <trkpt lat="45.67792" lon="4.50575">
        <ele>708</ele>
        <time>2015-05-10T10:51:53Z</time>
      </trkpt>
      <trkpt lat="45.67808" lon="4.50585">
        <ele>708.8</ele>
        <time>2015-05-10T10:51:58Z</time>
      </trkpt>
      <trkpt lat="45.67828" lon="4.50592">
        <ele>706.6</ele>
        <time>2015-05-10T10:52:03Z</time>
      </trkpt>
      <trkpt lat="45.67845" lon="4.506">
        <ele>707.4</ele>
        <time>2015-05-10T10:52:08Z</time>
      </trkpt>
      <trkpt lat="45.67862" lon="4.50608">
        <ele>705.6</ele>
        <time>2015-05-10T10:52:13Z</time>
      </trkpt>
      <trkpt lat="45.6788" lon="4.50618">
        <ele>706.8</ele>
        <time>2015-05-10T10:52:18Z</time>
      </trkpt>
      <trkpt lat="45.679" lon="4.50632">
        <ele>706.8</ele>
        <time>2015-05-10T10:52:23Z</time>
      </trkpt>
      <trkpt lat="45.6792" lon="4.50658">
        <ele>706.9</ele>
        <time>2015-05-10T10:52:28Z</time>
      </trkpt>
      <trkpt lat="45.67938" lon="4.50698">
        <ele>702.6</ele>
        <time>2015-05-10T10:52:33Z</time>
      </trkpt>
      <trkpt lat="45.67952" lon="4.50747">
        <ele>701.5</ele>
        <time>2015-05-10T10:52:38Z</time>
      </trkpt>
      <trkpt lat="45.67965" lon="4.50802">
        <ele>698.6</ele>
        <time>2015-05-10T10:52:43Z</time>
      </trkpt>
      <trkpt lat="45.67978" lon="4.50857">
        <ele>694.9</ele>
        <time>2015-05-10T10:52:48Z</time>
      </trkpt>
      <trkpt lat="45.67988" lon="4.50903">
        <ele>694.9</ele>
        <time>2015-05-10T10:52:53Z</time>
      </trkpt>
      <trkpt lat="45.67997" lon="4.50948">
        <ele>693.8</ele>
        <time>2015-05-10T10:52:58Z</time>
      </trkpt>
      <trkpt lat="45.68013" lon="4.51">
        <ele>690</ele>
        <time>2015-05-10T10:53:03Z</time>
      </trkpt>
      <trkpt lat="45.68042" lon="4.5105">
        <ele>686.1</ele>
        <time>2015-05-10T10:53:08Z</time>
      </trkpt>
      <trkpt lat="45.68083" lon="4.51082">
        <ele>678.3</ele>
        <time>2015-05-10T10:53:13Z</time>
      </trkpt>
      <trkpt lat="45.6812" lon="4.51113">
        <ele>683.5</ele>
        <time>2015-05-10T10:53:18Z</time>
      </trkpt>
      <trkpt lat="45.68148" lon="4.51153">
        <ele>679.8</ele>
        <time>2015-05-10T10:53:23Z</time>
      </trkpt>
      <trkpt lat="45.68178" lon="4.51192">
        <ele>675.8</ele>
        <time>2015-05-10T10:53:28Z</time>
      </trkpt>
      <trkpt lat="45.68205" lon="4.51232">
        <ele>672.1</ele>
        <time>2015-05-10T10:53:33Z</time>
      </trkpt>
      <trkpt lat="45.68232" lon="4.51275">
        <ele>671.1</ele>
        <time>2015-05-10T10:53:38Z</time>
      </trkpt>
      <trkpt lat="45.68248" lon="4.51332">
        <ele>671.1</ele>
        <time>2015-05-10T10:53:43Z</time>
      </trkpt>
      <trkpt lat="45.68262" lon="4.51395">
        <ele>667.6</ele>
        <time>2015-05-10T10:53:48Z</time>
      </trkpt>
      <trkpt lat="45.68272" lon="4.5145">
        <ele>665.6</ele>
        <time>2015-05-10T10:53:53Z</time>
      </trkpt>
      <trkpt lat="45.68275" lon="4.51502">
        <ele>661.7</ele>
        <time>2015-05-10T10:53:58Z</time>
      </trkpt>
      <trkpt lat="45.6828" lon="4.5155">
        <ele>667.8</ele>
        <time>2015-05-10T10:54:03Z</time>
      </trkpt>
      <trkpt lat="45.68297" lon="4.51603">
        <ele>664.8</ele>
        <time>2015-05-10T10:54:08Z</time>
      </trkpt>
      <trkpt lat="45.68317" lon="4.51658">
        <ele>663.2</ele>
        <time>2015-05-10T10:54:13Z</time>
      </trkpt>
      <trkpt lat="45.68337" lon="4.5172">
        <ele>657.2</ele>
        <time>2015-05-10T10:54:18Z</time>
      </trkpt>
      <trkpt lat="45.68342" lon="4.5179">
        <ele>655</ele>
        <time>2015-05-10T10:54:23Z</time>
      </trkpt>
      <trkpt lat="45.68348" lon="4.51857">
        <ele>653.5</ele>
        <time>2015-05-10T10:54:28Z</time>
      </trkpt>
      <trkpt lat="45.68352" lon="4.51918">
        <ele>652.5</ele>
        <time>2015-05-10T10:54:33Z</time>
      </trkpt>
      <trkpt lat="45.68358" lon="4.51978">
        <ele>652.5</ele>
        <time>2015-05-10T10:54:38Z</time>
      </trkpt>
      <trkpt lat="45.68357" lon="4.52038">
        <ele>648.4</ele>
        <time>2015-05-10T10:54:43Z</time>
      </trkpt>
      <trkpt lat="45.68367" lon="4.5211">
        <ele>640.3</ele>
        <time>2015-05-10T10:54:48Z</time>
      </trkpt>
      <trkpt lat="45.68368" lon="4.5219">
        <ele>633.6</ele>
        <time>2015-05-10T10:54:53Z</time>
      </trkpt>
      <trkpt lat="45.6836" lon="4.52267">
        <ele>627.5</ele>
        <time>2015-05-10T10:54:58Z</time>
      </trkpt>
      <trkpt lat="45.68363" lon="4.52348">
        <ele>626.6</ele>
        <time>2015-05-10T10:55:03Z</time>
      </trkpt>
      <trkpt lat="45.68388" lon="4.52418">
        <ele>621.9</ele>
        <time>2015-05-10T10:55:08Z</time>
      </trkpt>
      <trkpt lat="45.68418" lon="4.5248">
        <ele>619</ele>
        <time>2015-05-10T10:55:13Z</time>
      </trkpt>
      <trkpt lat="45.68438" lon="4.52535">
        <ele>610.2</ele>
        <time>2015-05-10T10:55:18Z</time>
      </trkpt>
      <trkpt lat="45.68452" lon="4.52565">
        <ele>608.2</ele>
        <time>2015-05-10T10:55:23Z</time>
      </trkpt>
      <trkpt lat="45.68447" lon="4.52613">
        <ele>607.2</ele>
        <time>2015-05-10T10:55:28Z</time>
      </trkpt>
      <trkpt lat="45.68442" lon="4.52667">
        <ele>605.7</ele>
        <time>2015-05-10T10:55:33Z</time>
      </trkpt>
      <trkpt lat="45.68438" lon="4.52717">
        <ele>603.2</ele>
        <time>2015-05-10T10:55:38Z</time>
      </trkpt>
      <trkpt lat="45.68437" lon="4.52763">
        <ele>602.5</ele>
        <time>2015-05-10T10:55:43Z</time>
      </trkpt>
      <trkpt lat="45.68433" lon="4.52807">
        <ele>602.3</ele>
        <time>2015-05-10T10:55:48Z</time>
      </trkpt>
      <trkpt lat="45.68435" lon="4.52852">
        <ele>602.6</ele>
        <time>2015-05-10T10:55:53Z</time>
      </trkpt>
      <trkpt lat="45.68453" lon="4.52898">
        <ele>600.1</ele>
        <time>2015-05-10T10:55:58Z</time>
      </trkpt>
      <trkpt lat="45.68472" lon="4.5294">
        <ele>598.1</ele>
        <time>2015-05-10T10:56:03Z</time>
      </trkpt>
      <trkpt lat="45.68493" lon="4.52972">
        <ele>596.7</ele>
        <time>2015-05-10T10:56:08Z</time>
      </trkpt>
      <trkpt lat="45.68498" lon="4.5298">
        <ele>595.3</ele>
        <time>2015-05-10T10:56:13Z</time>
      </trkpt>
      <trkpt lat="45.68502" lon="4.52983">
        <ele>595.2</ele>
        <time>2015-05-10T11:01:43Z</time>
      </trkpt>
      <trkpt lat="45.68503" lon="4.52983">
        <ele>595.5</ele>
        <time>2015-05-10T11:01:48Z</time>
      </trkpt>
      <trkpt lat="45.68503" lon="4.52985">
        <ele>595.4</ele>
        <time>2015-05-10T11:01:53Z</time>
      </trkpt>
      <trkpt lat="45.68503" lon="4.52987">
        <ele>595.4</ele>
        <time>2015-05-10T11:01:58Z</time>
      </trkpt>
      <trkpt lat="45.68502" lon="4.53">
        <ele>594.9</ele>
        <time>2015-05-10T11:02:03Z</time>
      </trkpt>
      <trkpt lat="45.68505" lon="4.53015">
        <ele>595.4</ele>
        <time>2015-05-10T11:02:08Z</time>
      </trkpt>
      <trkpt lat="45.68513" lon="4.53033">
        <ele>595.3</ele>
        <time>2015-05-10T11:02:13Z</time>
      </trkpt>
      <trkpt lat="45.6852" lon="4.5305">
        <ele>595.7</ele>
        <time>2015-05-10T11:02:18Z</time>
      </trkpt>
      <trkpt lat="45.68528" lon="4.53067">
        <ele>595.5</ele>
        <time>2015-05-10T11:02:23Z</time>
      </trkpt>
      <trkpt lat="45.68542" lon="4.53078">
        <ele>595.4</ele>
        <time>2015-05-10T11:02:28Z</time>
      </trkpt>
      <trkpt lat="45.68555" lon="4.53072">
        <ele>595.6</ele>
        <time>2015-05-10T11:02:33Z</time>
      </trkpt>
      <trkpt lat="45.68572" lon="4.53063">
        <ele>595.4</ele>
        <time>2015-05-10T11:02:38Z</time>
      </trkpt>
      <trkpt lat="45.68583" lon="4.53047">
        <ele>595.5</ele>
        <time>2015-05-10T11:02:43Z</time>
      </trkpt>
      <trkpt lat="45.68588" lon="4.53022">
        <ele>595.7</ele>
        <time>2015-05-10T11:02:48Z</time>
      </trkpt>
      <trkpt lat="45.68595" lon="4.52995">
        <ele>595.7</ele>
        <time>2015-05-10T11:02:53Z</time>
      </trkpt>
      <trkpt lat="45.686" lon="4.52972">
        <ele>594.9</ele>
        <time>2015-05-10T11:02:58Z</time>
      </trkpt>
      <trkpt lat="45.68603" lon="4.52943">
        <ele>594</ele>
        <time>2015-05-10T11:03:03Z</time>
      </trkpt>
      <trkpt lat="45.68612" lon="4.52905">
        <ele>593.8</ele>
        <time>2015-05-10T11:03:08Z</time>
      </trkpt>
      <trkpt lat="45.68622" lon="4.52872">
        <ele>593.9</ele>
        <time>2015-05-10T11:03:13Z</time>
      </trkpt>
      <trkpt lat="45.68638" lon="4.52842">
        <ele>594.5</ele>
        <time>2015-05-10T11:03:18Z</time>
      </trkpt>
      <trkpt lat="45.68653" lon="4.52812">
        <ele>594.5</ele>
        <time>2015-05-10T11:03:23Z</time>
      </trkpt>
      <trkpt lat="45.68667" lon="4.52782">
        <ele>595.2</ele>
        <time>2015-05-10T11:03:28Z</time>
      </trkpt>
      <trkpt lat="45.68683" lon="4.52755">
        <ele>595.3</ele>
        <time>2015-05-10T11:03:33Z</time>
      </trkpt>
      <trkpt lat="45.68695" lon="4.5273">
        <ele>597</ele>
        <time>2015-05-10T11:03:38Z</time>
      </trkpt>
      <trkpt lat="45.687" lon="4.5271">
        <ele>598.6</ele>
        <time>2015-05-10T11:03:43Z</time>
      </trkpt>
      <trkpt lat="45.68703" lon="4.52692">
        <ele>601</ele>
        <time>2015-05-10T11:03:48Z</time>
      </trkpt>
      <trkpt lat="45.68707" lon="4.52675">
        <ele>602.9</ele>
        <time>2015-05-10T11:03:53Z</time>
      </trkpt>
      <trkpt lat="45.6871" lon="4.5266">
        <ele>604.2</ele>
        <time>2015-05-10T11:03:58Z</time>
      </trkpt>
      <trkpt lat="45.68718" lon="4.52642">
        <ele>605.3</ele>
        <time>2015-05-10T11:04:03Z</time>
      </trkpt>
      <trkpt lat="45.68717" lon="4.52623">
        <ele>605.8</ele>
        <time>2015-05-10T11:04:08Z</time>
      </trkpt>
      <trkpt lat="45.68715" lon="4.52603">
        <ele>605.8</ele>
        <time>2015-05-10T11:04:13Z</time>
      </trkpt>
      <trkpt lat="45.68715" lon="4.52582">
        <ele>606.7</ele>
        <time>2015-05-10T11:04:18Z</time>
      </trkpt>
      <trkpt lat="45.68717" lon="4.52558">
        <ele>607.2</ele>
        <time>2015-05-10T11:04:23Z</time>
      </trkpt>
      <trkpt lat="45.68722" lon="4.52537">
        <ele>608.3</ele>
        <time>2015-05-10T11:04:28Z</time>
      </trkpt>
      <trkpt lat="45.68723" lon="4.52517">
        <ele>609.6</ele>
        <time>2015-05-10T11:04:33Z</time>
      </trkpt>
      <trkpt lat="45.68722" lon="4.52502">
        <ele>610.7</ele>
        <time>2015-05-10T11:04:38Z</time>
      </trkpt>
      <trkpt lat="45.6872" lon="4.52488">
        <ele>610.2</ele>
        <time>2015-05-10T11:04:43Z</time>
      </trkpt>
      <trkpt lat="45.68718" lon="4.52468">
        <ele>610.2</ele>
        <time>2015-05-10T11:04:48Z</time>
      </trkpt>
      <trkpt lat="45.68727" lon="4.52448">
        <ele>608.9</ele>
        <time>2015-05-10T11:04:53Z</time>
      </trkpt>
      <trkpt lat="45.68738" lon="4.52438">
        <ele>609.2</ele>
        <time>2015-05-10T11:04:58Z</time>
      </trkpt>
      <trkpt lat="45.68752" lon="4.52427">
        <ele>609.2</ele>
        <time>2015-05-10T11:05:03Z</time>
      </trkpt>
      <trkpt lat="45.68763" lon="4.52415">
        <ele>609.6</ele>
        <time>2015-05-10T11:05:08Z</time>
      </trkpt>
      <trkpt lat="45.68775" lon="4.52403">
        <ele>610.1</ele>
        <time>2015-05-10T11:05:13Z</time>
      </trkpt>
      <trkpt lat="45.68788" lon="4.52388">
        <ele>609.8</ele>
        <time>2015-05-10T11:05:18Z</time>
      </trkpt>
      <trkpt lat="45.68803" lon="4.5237">
        <ele>609.3</ele>
        <time>2015-05-10T11:05:23Z</time>
      </trkpt>
      <trkpt lat="45.68823" lon="4.52357">
        <ele>608.8</ele>
        <time>2015-05-10T11:05:28Z</time>
      </trkpt>
      <trkpt lat="45.68843" lon="4.52337">
        <ele>608.2</ele>
        <time>2015-05-10T11:05:33Z</time>
      </trkpt>
      <trkpt lat="45.68857" lon="4.52313">
        <ele>607.7</ele>
        <time>2015-05-10T11:05:38Z</time>
      </trkpt>
      <trkpt lat="45.6887" lon="4.52287">
        <ele>607.5</ele>
        <time>2015-05-10T11:05:43Z</time>
      </trkpt>
      <trkpt lat="45.68882" lon="4.5226">
        <ele>609.1</ele>
        <time>2015-05-10T11:05:48Z</time>
      </trkpt>
      <trkpt lat="45.68895" lon="4.52238">
        <ele>608</ele>
        <time>2015-05-10T11:05:53Z</time>
      </trkpt>
      <trkpt lat="45.6891" lon="4.52218">
        <ele>609.2</ele>
        <time>2015-05-10T11:05:58Z</time>
      </trkpt>
      <trkpt lat="45.68927" lon="4.522">
        <ele>610.6</ele>
        <time>2015-05-10T11:06:03Z</time>
      </trkpt>
      <trkpt lat="45.68942" lon="4.52182">
        <ele>610.6</ele>
        <time>2015-05-10T11:06:08Z</time>
      </trkpt>
      <trkpt lat="45.68957" lon="4.52165">
        <ele>612.5</ele>
        <time>2015-05-10T11:06:13Z</time>
      </trkpt>
      <trkpt lat="45.6897" lon="4.5215">
        <ele>613.4</ele>
        <time>2015-05-10T11:06:18Z</time>
      </trkpt>
      <trkpt lat="45.68985" lon="4.52137">
        <ele>613.7</ele>
        <time>2015-05-10T11:06:23Z</time>
      </trkpt>
      <trkpt lat="45.69" lon="4.52122">
        <ele>614.2</ele>
        <time>2015-05-10T11:06:28Z</time>
      </trkpt>
      <trkpt lat="45.69012" lon="4.52108">
        <ele>616</ele>
        <time>2015-05-10T11:06:33Z</time>
      </trkpt>
      <trkpt lat="45.69023" lon="4.52095">
        <ele>617.2</ele>
        <time>2015-05-10T11:06:38Z</time>
      </trkpt>
      <trkpt lat="45.69035" lon="4.52082">
        <ele>618.9</ele>
        <time>2015-05-10T11:06:43Z</time>
      </trkpt>
      <trkpt lat="45.69045" lon="4.52067">
        <ele>620.6</ele>
        <time>2015-05-10T11:06:48Z</time>
      </trkpt>
      <trkpt lat="45.69055" lon="4.52055">
        <ele>621</ele>
        <time>2015-05-10T11:06:53Z</time>
      </trkpt>
      <trkpt lat="45.69067" lon="4.52043">
        <ele>621.1</ele>
        <time>2015-05-10T11:06:58Z</time>
      </trkpt>
      <trkpt lat="45.69078" lon="4.52035">
        <ele>623</ele>
        <time>2015-05-10T11:07:03Z</time>
      </trkpt>
      <trkpt lat="45.69092" lon="4.52028">
        <ele>623.3</ele>
        <time>2015-05-10T11:07:08Z</time>
      </trkpt>
      <trkpt lat="45.69105" lon="4.52025">
        <ele>624</ele>
        <time>2015-05-10T11:07:13Z</time>
      </trkpt>
      <trkpt lat="45.69118" lon="4.52022">
        <ele>625.5</ele>
        <time>2015-05-10T11:07:18Z</time>
      </trkpt>
      <trkpt lat="45.69132" lon="4.52017">
        <ele>626.1</ele>
        <time>2015-05-10T11:07:23Z</time>
      </trkpt>
      <trkpt lat="45.69145" lon="4.52012">
        <ele>626.5</ele>
        <time>2015-05-10T11:07:28Z</time>
      </trkpt>
      <trkpt lat="45.6916" lon="4.52003">
        <ele>626.6</ele>
        <time>2015-05-10T11:07:33Z</time>
      </trkpt>
      <trkpt lat="45.69173" lon="4.51993">
        <ele>627.1</ele>
        <time>2015-05-10T11:07:38Z</time>
      </trkpt>
      <trkpt lat="45.69185" lon="4.5198">
        <ele>628.3</ele>
        <time>2015-05-10T11:07:43Z</time>
      </trkpt>
      <trkpt lat="45.69195" lon="4.5196">
        <ele>627.8</ele>
        <time>2015-05-10T11:07:48Z</time>
      </trkpt>
      <trkpt lat="45.69203" lon="4.5194">
        <ele>628.7</ele>
        <time>2015-05-10T11:07:53Z</time>
      </trkpt>
      <trkpt lat="45.69208" lon="4.51922">
        <ele>629.4</ele>
        <time>2015-05-10T11:07:58Z</time>
      </trkpt>
      <trkpt lat="45.69213" lon="4.51905">
        <ele>630.5</ele>
        <time>2015-05-10T11:08:03Z</time>
      </trkpt>
      <trkpt lat="45.69218" lon="4.51888">
        <ele>633</ele>
        <time>2015-05-10T11:08:08Z</time>
      </trkpt>
      <trkpt lat="45.69223" lon="4.51872">
        <ele>634.5</ele>
        <time>2015-05-10T11:08:13Z</time>
      </trkpt>
      <trkpt lat="45.6923" lon="4.51855">
        <ele>636.3</ele>
        <time>2015-05-10T11:08:18Z</time>
      </trkpt>
      <trkpt lat="45.69235" lon="4.51838">
        <ele>637.6</ele>
        <time>2015-05-10T11:08:23Z</time>
      </trkpt>
      <trkpt lat="45.69238" lon="4.5182">
        <ele>638.3</ele>
        <time>2015-05-10T11:08:28Z</time>
      </trkpt>
      <trkpt lat="45.69245" lon="4.51802">
        <ele>639.4</ele>
        <time>2015-05-10T11:08:33Z</time>
      </trkpt>
      <trkpt lat="45.69252" lon="4.51783">
        <ele>639.1</ele>
        <time>2015-05-10T11:08:38Z</time>
      </trkpt>
      <trkpt lat="45.69258" lon="4.51763">
        <ele>639</ele>
        <time>2015-05-10T11:08:43Z</time>
      </trkpt>
      <trkpt lat="45.69268" lon="4.51745">
        <ele>639.9</ele>
        <time>2015-05-10T11:08:48Z</time>
      </trkpt>
      <trkpt lat="45.6928" lon="4.51732">
        <ele>640.4</ele>
        <time>2015-05-10T11:08:53Z</time>
      </trkpt>
      <trkpt lat="45.69292" lon="4.5172">
        <ele>641.9</ele>
        <time>2015-05-10T11:08:58Z</time>
      </trkpt>
      <trkpt lat="45.69305" lon="4.5171">
        <ele>643.2</ele>
        <time>2015-05-10T11:09:03Z</time>
      </trkpt>
      <trkpt lat="45.69317" lon="4.51705">
        <ele>643.8</ele>
        <time>2015-05-10T11:09:08Z</time>
      </trkpt>
      <trkpt lat="45.69327" lon="4.51698">
        <ele>644.7</ele>
        <time>2015-05-10T11:09:13Z</time>
      </trkpt>
      <trkpt lat="45.69337" lon="4.51695">
        <ele>645.4</ele>
        <time>2015-05-10T11:09:18Z</time>
      </trkpt>
      <trkpt lat="45.69352" lon="4.51688">
        <ele>646</ele>
        <time>2015-05-10T11:09:23Z</time>
      </trkpt>
      <trkpt lat="45.69367" lon="4.51682">
        <ele>644.5</ele>
        <time>2015-05-10T11:09:28Z</time>
      </trkpt>
      <trkpt lat="45.69387" lon="4.51672">
        <ele>644.9</ele>
        <time>2015-05-10T11:09:33Z</time>
      </trkpt>
      <trkpt lat="45.69413" lon="4.51658">
        <ele>641.4</ele>
        <time>2015-05-10T11:09:38Z</time>
      </trkpt>
      <trkpt lat="45.69445" lon="4.51633">
        <ele>638.8</ele>
        <time>2015-05-10T11:09:43Z</time>
      </trkpt>
      <trkpt lat="45.69472" lon="4.516">
        <ele>634.6</ele>
        <time>2015-05-10T11:09:48Z</time>
      </trkpt>
      <trkpt lat="45.69502" lon="4.51565">
        <ele>630.2</ele>
        <time>2015-05-10T11:09:53Z</time>
      </trkpt>
      <trkpt lat="45.6953" lon="4.51522">
        <ele>629.1</ele>
        <time>2015-05-10T11:09:58Z</time>
      </trkpt>
      <trkpt lat="45.69565" lon="4.51475">
        <ele>625.3</ele>
        <time>2015-05-10T11:10:03Z</time>
      </trkpt>
      <trkpt lat="45.69593" lon="4.51423">
        <ele>622.4</ele>
        <time>2015-05-10T11:10:08Z</time>
      </trkpt>
      <trkpt lat="45.69622" lon="4.51375">
        <ele>621.4</ele>
        <time>2015-05-10T11:10:13Z</time>
      </trkpt>
      <trkpt lat="45.69643" lon="4.51323">
        <ele>620.4</ele>
        <time>2015-05-10T11:10:18Z</time>
      </trkpt>
      <trkpt lat="45.69653" lon="4.51268">
        <ele>616</ele>
        <time>2015-05-10T11:10:23Z</time>
      </trkpt>
      <trkpt lat="45.69667" lon="4.51213">
        <ele>613.8</ele>
        <time>2015-05-10T11:10:28Z</time>
      </trkpt>
      <trkpt lat="45.69685" lon="4.51158">
        <ele>610.3</ele>
        <time>2015-05-10T11:10:33Z</time>
      </trkpt>
      <trkpt lat="45.69705" lon="4.51107">
        <ele>605.3</ele>
        <time>2015-05-10T11:10:38Z</time>
      </trkpt>
      <trkpt lat="45.69722" lon="4.51052">
        <ele>585.6</ele>
        <time>2015-05-10T11:10:43Z</time>
      </trkpt>
      <trkpt lat="45.69738" lon="4.51007">
        <ele>574.5</ele>
        <time>2015-05-10T11:10:48Z</time>
      </trkpt>
      <trkpt lat="45.69738" lon="4.50937">
        <ele>569.1</ele>
        <time>2015-05-10T11:10:53Z</time>
      </trkpt>
      <trkpt lat="45.69742" lon="4.50863">
        <ele>567.7</ele>
        <time>2015-05-10T11:10:58Z</time>
      </trkpt>
      <trkpt lat="45.69772" lon="4.50808">
        <ele>561.6</ele>
        <time>2015-05-10T11:11:03Z</time>
      </trkpt>
      <trkpt lat="45.69795" lon="4.50762">
        <ele>557.9</ele>
        <time>2015-05-10T11:11:08Z</time>
      </trkpt>
      <trkpt lat="45.6979" lon="4.50747">
        <ele>554.2</ele>
        <time>2015-05-10T11:11:13Z</time>
      </trkpt>
      <trkpt lat="45.69778" lon="4.50742">
        <ele>556.2</ele>
        <time>2015-05-10T11:11:18Z</time>
      </trkpt>
      <trkpt lat="45.69767" lon="4.50735">
        <ele>558.3</ele>
        <time>2015-05-10T11:11:23Z</time>
      </trkpt>
      <trkpt lat="45.69753" lon="4.5073">
        <ele>560</ele>
        <time>2015-05-10T11:11:28Z</time>
      </trkpt>
      <trkpt lat="45.69738" lon="4.50725">
        <ele>560.6</ele>
        <time>2015-05-10T11:11:33Z</time>
      </trkpt>
      <trkpt lat="45.69722" lon="4.50722">
        <ele>560.8</ele>
        <time>2015-05-10T11:11:38Z</time>
      </trkpt>
      <trkpt lat="45.69707" lon="4.50717">
        <ele>561.5</ele>
        <time>2015-05-10T11:11:43Z</time>
      </trkpt>
      <trkpt lat="45.69692" lon="4.50713">
        <ele>561.8</ele>
        <time>2015-05-10T11:11:48Z</time>
      </trkpt>
      <trkpt lat="45.69678" lon="4.50705">
        <ele>562.2</ele>
        <time>2015-05-10T11:11:53Z</time>
      </trkpt>
      <trkpt lat="45.69667" lon="4.50698">
        <ele>564</ele>
        <time>2015-05-10T11:11:58Z</time>
      </trkpt>
      <trkpt lat="45.69657" lon="4.50692">
        <ele>566.5</ele>
        <time>2015-05-10T11:12:03Z</time>
      </trkpt>
      <trkpt lat="45.69648" lon="4.5068">
        <ele>567</ele>
        <time>2015-05-10T11:12:08Z</time>
      </trkpt>
      <trkpt lat="45.69643" lon="4.5067">
        <ele>568.6</ele>
        <time>2015-05-10T11:12:13Z</time>
      </trkpt>
      <trkpt lat="45.69635" lon="4.50658">
        <ele>571</ele>
        <time>2015-05-10T11:12:18Z</time>
      </trkpt>
      <trkpt lat="45.69628" lon="4.5065">
        <ele>571.9</ele>
        <time>2015-05-10T11:12:23Z</time>
      </trkpt>
      <trkpt lat="45.6962" lon="4.5064">
        <ele>573.7</ele>
        <time>2015-05-10T11:12:28Z</time>
      </trkpt>
      <trkpt lat="45.69612" lon="4.50633">
        <ele>574.6</ele>
        <time>2015-05-10T11:12:33Z</time>
      </trkpt>
      <trkpt lat="45.69603" lon="4.50628">
        <ele>576.1</ele>
        <time>2015-05-10T11:12:38Z</time>
      </trkpt>
      <trkpt lat="45.69593" lon="4.50623">
        <ele>577.8</ele>
        <time>2015-05-10T11:12:43Z</time>
      </trkpt>
      <trkpt lat="45.69583" lon="4.50622">
        <ele>578.7</ele>
        <time>2015-05-10T11:12:48Z</time>
      </trkpt>
      <trkpt lat="45.69572" lon="4.50617">
        <ele>580.8</ele>
        <time>2015-05-10T11:12:53Z</time>
      </trkpt>
      <trkpt lat="45.69562" lon="4.50613">
        <ele>581.9</ele>
        <time>2015-05-10T11:12:58Z</time>
      </trkpt>
      <trkpt lat="45.69553" lon="4.50612">
        <ele>584.2</ele>
        <time>2015-05-10T11:13:03Z</time>
      </trkpt>
      <trkpt lat="45.69545" lon="4.50613">
        <ele>585.2</ele>
        <time>2015-05-10T11:13:08Z</time>
      </trkpt>
      <trkpt lat="45.69537" lon="4.50617">
        <ele>585.6</ele>
        <time>2015-05-10T11:13:13Z</time>
      </trkpt>
      <trkpt lat="45.69527" lon="4.5062">
        <ele>587.1</ele>
        <time>2015-05-10T11:13:18Z</time>
      </trkpt>
      <trkpt lat="45.69517" lon="4.50623">
        <ele>587.2</ele>
        <time>2015-05-10T11:13:23Z</time>
      </trkpt>
      <trkpt lat="45.69508" lon="4.50623">
        <ele>588.2</ele>
        <time>2015-05-10T11:13:28Z</time>
      </trkpt>
      <trkpt lat="45.69505" lon="4.50613">
        <ele>588.1</ele>
        <time>2015-05-10T11:13:33Z</time>
      </trkpt>
      <trkpt lat="45.69505" lon="4.50593">
        <ele>588.5</ele>
        <time>2015-05-10T11:13:38Z</time>
      </trkpt>
      <trkpt lat="45.69508" lon="4.50565">
        <ele>586.6</ele>
        <time>2015-05-10T11:13:43Z</time>
      </trkpt>
      <trkpt lat="45.69517" lon="4.5052">
        <ele>585.7</ele>
        <time>2015-05-10T11:13:48Z</time>
      </trkpt>
      <trkpt lat="45.6953" lon="4.50453">
        <ele>579.9</ele>
        <time>2015-05-10T11:13:53Z</time>
      </trkpt>
      <trkpt lat="45.69553" lon="4.50397">
        <ele>574.3</ele>
        <time>2015-05-10T11:13:58Z</time>
      </trkpt>
      <trkpt lat="45.69575" lon="4.5035">
        <ele>574.1</ele>
        <time>2015-05-10T11:14:03Z</time>
      </trkpt>
      <trkpt lat="45.69592" lon="4.50307">
        <ele>575.1</ele>
        <time>2015-05-10T11:14:08Z</time>
      </trkpt>
      <trkpt lat="45.6961" lon="4.5027">
        <ele>573.8</ele>
        <time>2015-05-10T11:14:13Z</time>
      </trkpt>
      <trkpt lat="45.69632" lon="4.50222">
        <ele>573.3</ele>
        <time>2015-05-10T11:14:18Z</time>
      </trkpt>
      <trkpt lat="45.69648" lon="4.5017">
        <ele>571.3</ele>
        <time>2015-05-10T11:14:23Z</time>
      </trkpt>
      <trkpt lat="45.69663" lon="4.50115">
        <ele>570.5</ele>
        <time>2015-05-10T11:14:28Z</time>
      </trkpt>
      <trkpt lat="45.69672" lon="4.50058">
        <ele>570.8</ele>
        <time>2015-05-10T11:14:33Z</time>
      </trkpt>
      <trkpt lat="45.69693" lon="4.50018">
        <ele>569.6</ele>
        <time>2015-05-10T11:14:38Z</time>
      </trkpt>
      <trkpt lat="45.69697" lon="4.49987">
        <ele>568.6</ele>
        <time>2015-05-10T11:14:43Z</time>
      </trkpt>
      <trkpt lat="45.69672" lon="4.49948">
        <ele>563.1</ele>
        <time>2015-05-10T11:14:48Z</time>
      </trkpt>
      <trkpt lat="45.69653" lon="4.49905">
        <ele>554</ele>
        <time>2015-05-10T11:14:53Z</time>
      </trkpt>
      <trkpt lat="45.69643" lon="4.49878">
        <ele>552</ele>
        <time>2015-05-10T11:14:58Z</time>
      </trkpt>
      <trkpt lat="45.6964" lon="4.49867">
        <ele>547.3</ele>
        <time>2015-05-10T11:15:03Z</time>
      </trkpt>
      <trkpt lat="45.69662" lon="4.4985">
        <ele>545.4</ele>
        <time>2015-05-10T11:15:08Z</time>
      </trkpt>
      <trkpt lat="45.69688" lon="4.4982">
        <ele>545.4</ele>
        <time>2015-05-10T11:15:13Z</time>
      </trkpt>
      <trkpt lat="45.697" lon="4.49775">
        <ele>544.6</ele>
        <time>2015-05-10T11:15:18Z</time>
      </trkpt>
      <trkpt lat="45.69708" lon="4.49735">
        <ele>545.4</ele>
        <time>2015-05-10T11:15:23Z</time>
      </trkpt>
      <trkpt lat="45.69715" lon="4.49708">
        <ele>547.5</ele>
        <time>2015-05-10T11:15:28Z</time>
      </trkpt>
      <trkpt lat="45.69723" lon="4.49692">
        <ele>549.4</ele>
        <time>2015-05-10T11:15:33Z</time>
      </trkpt>
      <trkpt lat="45.69723" lon="4.49672">
        <ele>550.9</ele>
        <time>2015-05-10T11:15:38Z</time>
      </trkpt>
      <trkpt lat="45.69713" lon="4.49657">
        <ele>551.4</ele>
        <time>2015-05-10T11:15:43Z</time>
      </trkpt>
      <trkpt lat="45.69717" lon="4.49638">
        <ele>554.1</ele>
        <time>2015-05-10T11:15:48Z</time>
      </trkpt>
      <trkpt lat="45.69722" lon="4.49622">
        <ele>554.6</ele>
        <time>2015-05-10T11:15:53Z</time>
      </trkpt>
      <trkpt lat="45.6973" lon="4.49603">
        <ele>554.6</ele>
        <time>2015-05-10T11:15:58Z</time>
      </trkpt>
      <trkpt lat="45.69742" lon="4.49585">
        <ele>553.4</ele>
        <time>2015-05-10T11:16:03Z</time>
      </trkpt>
      <trkpt lat="45.69757" lon="4.4957">
        <ele>554.2</ele>
        <time>2015-05-10T11:16:08Z</time>
      </trkpt>
      <trkpt lat="45.69778" lon="4.49557">
        <ele>553.1</ele>
        <time>2015-05-10T11:16:13Z</time>
      </trkpt>
      <trkpt lat="45.69808" lon="4.4954">
        <ele>549.8</ele>
        <time>2015-05-10T11:16:18Z</time>
      </trkpt>
      <trkpt lat="45.69857" lon="4.49543">
        <ele>546.5</ele>
        <time>2015-05-10T11:16:23Z</time>
      </trkpt>
      <trkpt lat="45.69903" lon="4.4956">
        <ele>540.8</ele>
        <time>2015-05-10T11:16:28Z</time>
      </trkpt>
      <trkpt lat="45.69945" lon="4.49583">
        <ele>532.3</ele>
        <time>2015-05-10T11:16:33Z</time>
      </trkpt>
      <trkpt lat="45.69973" lon="4.49608">
        <ele>531.4</ele>
        <time>2015-05-10T11:16:38Z</time>
      </trkpt>
      <trkpt lat="45.69997" lon="4.49638">
        <ele>531.4</ele>
        <time>2015-05-10T11:16:43Z</time>
      </trkpt>
      <trkpt lat="45.70017" lon="4.49663">
        <ele>530.1</ele>
        <time>2015-05-10T11:16:48Z</time>
      </trkpt>
      <trkpt lat="45.70032" lon="4.49687">
        <ele>530.5</ele>
        <time>2015-05-10T11:16:53Z</time>
      </trkpt>
      <trkpt lat="45.7004" lon="4.4972">
        <ele>529.4</ele>
        <time>2015-05-10T11:16:58Z</time>
      </trkpt>
      <trkpt lat="45.70038" lon="4.49762">
        <ele>529.8</ele>
        <time>2015-05-10T11:17:03Z</time>
      </trkpt>
      <trkpt lat="45.7002" lon="4.49813">
        <ele>527.8</ele>
        <time>2015-05-10T11:17:08Z</time>
      </trkpt>
      <trkpt lat="45.70008" lon="4.49888">
        <ele>522.8</ele>
        <time>2015-05-10T11:17:13Z</time>
      </trkpt>
      <trkpt lat="45.70007" lon="4.49948">
        <ele>508.8</ele>
        <time>2015-05-10T11:17:18Z</time>
      </trkpt>
      <trkpt lat="45.70015" lon="4.50008">
        <ele>496.9</ele>
        <time>2015-05-10T11:17:23Z</time>
      </trkpt>
      <trkpt lat="45.70023" lon="4.50078">
        <ele>488.2</ele>
        <time>2015-05-10T11:17:28Z</time>
      </trkpt>
      <trkpt lat="45.70053" lon="4.50125">
        <ele>483.1</ele>
        <time>2015-05-10T11:17:33Z</time>
      </trkpt>
      <trkpt lat="45.70077" lon="4.50145">
        <ele>480.1</ele>
        <time>2015-05-10T11:17:38Z</time>
      </trkpt>
      <trkpt lat="45.701" lon="4.50113">
        <ele>478.5</ele>
        <time>2015-05-10T11:17:43Z</time>
      </trkpt>
      <trkpt lat="45.70127" lon="4.50067">
        <ele>471.2</ele>
        <time>2015-05-10T11:17:48Z</time>
      </trkpt>
      <trkpt lat="45.70157" lon="4.50017">
        <ele>472.9</ele>
        <time>2015-05-10T11:17:53Z</time>
      </trkpt>
      <trkpt lat="45.70185" lon="4.49957">
        <ele>468.9</ele>
        <time>2015-05-10T11:17:58Z</time>
      </trkpt>
      <trkpt lat="45.70215" lon="4.49897">
        <ele>453.6</ele>
        <time>2015-05-10T11:18:03Z</time>
      </trkpt>
      <trkpt lat="45.70243" lon="4.49847">
        <ele>444.8</ele>
        <time>2015-05-10T11:18:08Z</time>
      </trkpt>
      <trkpt lat="45.70258" lon="4.49812">
        <ele>440.4</ele>
        <time>2015-05-10T11:18:13Z</time>
      </trkpt>
      <trkpt lat="45.70253" lon="4.49803">
        <ele>434.3</ele>
        <time>2015-05-10T11:18:18Z</time>
      </trkpt>
      <trkpt lat="45.70247" lon="4.49805">
        <ele>431.8</ele>
        <time>2015-05-10T11:18:23Z</time>
      </trkpt>
      <trkpt lat="45.70243" lon="4.49788">
        <ele>430.8</ele>
        <time>2015-05-10T11:18:28Z</time>
      </trkpt>
      <trkpt lat="45.70248" lon="4.4976">
        <ele>430</ele>
        <time>2015-05-10T11:18:33Z</time>
      </trkpt>
      <trkpt lat="45.70248" lon="4.49725">
        <ele>427.6</ele>
        <time>2015-05-10T11:18:38Z</time>
      </trkpt>
      <trkpt lat="45.7024" lon="4.49708">
        <ele>431.9</ele>
        <time>2015-05-10T11:18:43Z</time>
      </trkpt>
      <trkpt lat="45.70242" lon="4.49693">
        <ele>432.4</ele>
        <time>2015-05-10T11:18:48Z</time>
      </trkpt>
      <trkpt lat="45.7024" lon="4.49662">
        <ele>432.4</ele>
        <time>2015-05-10T11:18:53Z</time>
      </trkpt>
      <trkpt lat="45.70238" lon="4.49645">
        <ele>433.3</ele>
        <time>2015-05-10T11:18:58Z</time>
      </trkpt>
      <trkpt lat="45.70238" lon="4.49628">
        <ele>434.3</ele>
        <time>2015-05-10T11:19:03Z</time>
      </trkpt>
      <trkpt lat="45.70238" lon="4.49608">
        <ele>434.3</ele>
        <time>2015-05-10T11:19:08Z</time>
      </trkpt>
      <trkpt lat="45.70238" lon="4.49588">
        <ele>434</ele>
        <time>2015-05-10T11:19:13Z</time>
      </trkpt>
      <trkpt lat="45.70243" lon="4.49558">
        <ele>433.2</ele>
        <time>2015-05-10T11:19:18Z</time>
      </trkpt>
      <trkpt lat="45.70255" lon="4.49523">
        <ele>432.1</ele>
        <time>2015-05-10T11:19:23Z</time>
      </trkpt>
      <trkpt lat="45.70267" lon="4.49495">
        <ele>432.8</ele>
        <time>2015-05-10T11:19:28Z</time>
      </trkpt>
      <trkpt lat="45.70273" lon="4.49465">
        <ele>435</ele>
        <time>2015-05-10T11:19:33Z</time>
      </trkpt>
      <trkpt lat="45.70277" lon="4.49445">
        <ele>436.9</ele>
        <time>2015-05-10T11:19:38Z</time>
      </trkpt>
      <trkpt lat="45.70277" lon="4.4943">
        <ele>436.6</ele>
        <time>2015-05-10T11:19:43Z</time>
      </trkpt>
      <trkpt lat="45.70278" lon="4.49412">
        <ele>438</ele>
        <time>2015-05-10T11:19:48Z</time>
      </trkpt>
      <trkpt lat="45.70278" lon="4.49385">
        <ele>435.9</ele>
        <time>2015-05-10T11:19:53Z</time>
      </trkpt>
      <trkpt lat="45.70277" lon="4.49368">
        <ele>432.7</ele>
        <time>2015-05-10T11:19:58Z</time>
      </trkpt>
      <trkpt lat="45.70285" lon="4.49373">
        <ele>431.8</ele>
        <time>2015-05-10T11:20:03Z</time>
      </trkpt>
      <trkpt lat="45.7031" lon="4.49392">
        <ele>430</ele>
        <time>2015-05-10T11:20:08Z</time>
      </trkpt>
      <trkpt lat="45.70335" lon="4.49388">
        <ele>416.7</ele>
        <time>2015-05-10T11:20:13Z</time>
      </trkpt>
      <trkpt lat="45.70358" lon="4.49365">
        <ele>410.2</ele>
        <time>2015-05-10T11:20:18Z</time>
      </trkpt>
      <trkpt lat="45.70393" lon="4.49363">
        <ele>401</ele>
        <time>2015-05-10T11:20:23Z</time>
      </trkpt>
      <trkpt lat="45.70432" lon="4.49358">
        <ele>397.5</ele>
        <time>2015-05-10T11:20:28Z</time>
      </trkpt>
      <trkpt lat="45.7048" lon="4.49345">
        <ele>381.4</ele>
        <time>2015-05-10T11:20:33Z</time>
      </trkpt>
      <trkpt lat="45.70527" lon="4.49325">
        <ele>375.3</ele>
        <time>2015-05-10T11:20:38Z</time>
      </trkpt>
      <trkpt lat="45.70572" lon="4.4931">
        <ele>369.3</ele>
        <time>2015-05-10T11:20:43Z</time>
      </trkpt>
      <trkpt lat="45.7062" lon="4.493">
        <ele>364</ele>
        <time>2015-05-10T11:20:48Z</time>
      </trkpt>
      <trkpt lat="45.7066" lon="4.49295">
        <ele>351</ele>
        <time>2015-05-10T11:20:53Z</time>
      </trkpt>
      <trkpt lat="45.70705" lon="4.49273">
        <ele>343.3</ele>
        <time>2015-05-10T11:20:58Z</time>
      </trkpt>
      <trkpt lat="45.70745" lon="4.49228">
        <ele>341.3</ele>
        <time>2015-05-10T11:21:03Z</time>
      </trkpt>
      <trkpt lat="45.70778" lon="4.49175">
        <ele>326.9</ele>
        <time>2015-05-10T11:21:08Z</time>
      </trkpt>
      <trkpt lat="45.7081" lon="4.49127">
        <ele>317.8</ele>
        <time>2015-05-10T11:21:13Z</time>
      </trkpt>
      <trkpt lat="45.70827" lon="4.49115">
        <ele>313.8</ele>
        <time>2015-05-10T11:21:18Z</time>
      </trkpt>
      <trkpt lat="45.70845" lon="4.49145">
        <ele>311.8</ele>
        <time>2015-05-10T11:21:23Z</time>
      </trkpt>
      <trkpt lat="45.70865" lon="4.49192">
        <ele>306.5</ele>
        <time>2015-05-10T11:21:28Z</time>
      </trkpt>
      <trkpt lat="45.70867" lon="4.49253">
        <ele>297.9</ele>
        <time>2015-05-10T11:21:33Z</time>
      </trkpt>
      <trkpt lat="45.70863" lon="4.49297">
        <ele>294.4</ele>
        <time>2015-05-10T11:21:38Z</time>
      </trkpt>
      <trkpt lat="45.70877" lon="4.4931">
        <ele>290.9</ele>
        <time>2015-05-10T11:21:43Z</time>
      </trkpt>
      <trkpt lat="45.70895" lon="4.49287">
        <ele>291.5</ele>
        <time>2015-05-10T11:21:48Z</time>
      </trkpt>
      <trkpt lat="45.70915" lon="4.49263">
        <ele>288.5</ele>
        <time>2015-05-10T11:21:53Z</time>
      </trkpt>
      <trkpt lat="45.70933" lon="4.49252">
        <ele>288.1</ele>
        <time>2015-05-10T11:21:58Z</time>
      </trkpt>
      <trkpt lat="45.70943" lon="4.4925">
        <ele>286.5</ele>
        <time>2015-05-10T11:22:03Z</time>
      </trkpt>
      <trkpt lat="45.70945" lon="4.49238">
        <ele>286.5</ele>
        <time>2015-05-10T11:22:08Z</time>
      </trkpt>
      <trkpt lat="45.70945" lon="4.4923">
        <ele>285.9</ele>
        <time>2015-05-10T11:22:13Z</time>
      </trkpt>
      <trkpt lat="45.70945" lon="4.49233">
        <ele>285.9</ele>
        <time>2015-05-10T11:22:18Z</time>
      </trkpt>
      <trkpt lat="45.70945" lon="4.49225">
        <ele>286</ele>
        <time>2015-05-10T11:22:23Z</time>
      </trkpt>
      <trkpt lat="45.7096" lon="4.49207">
        <ele>286</ele>
        <time>2015-05-10T11:22:28Z</time>
      </trkpt>
      <trkpt lat="45.70982" lon="4.49188">
        <ele>284.9</ele>
        <time>2015-05-10T11:22:33Z</time>
      </trkpt>
      <trkpt lat="45.70992" lon="4.4917">
        <ele>285.4</ele>
        <time>2015-05-10T11:22:38Z</time>
      </trkpt>
      <trkpt lat="45.70992" lon="4.49152">
        <ele>281.4</ele>
        <time>2015-05-10T11:22:43Z</time>
      </trkpt>
      <trkpt lat="45.70998" lon="4.4913">
        <ele>279.3</ele>
        <time>2015-05-10T11:22:48Z</time>
      </trkpt>
      <trkpt lat="45.71003" lon="4.49108">
        <ele>277.6</ele>
        <time>2015-05-10T11:22:53Z</time>
      </trkpt>
      <trkpt lat="45.70997" lon="4.491">
        <ele>275.6</ele>
        <time>2015-05-10T11:22:58Z</time>
      </trkpt>
    </trkseg>
  </trk>
  <rte>
      <rtept lat="45.71002" lon="4.49067">
        <ele>464.2</ele>
      </rtept>
      <rtept lat="45.70997" lon="4.491">
        <ele>464.5</ele>
      </rtept>
    </rte>
</gpx>